<?xml version="1.0" encoding="UTF-8" standalone="no" ?>
<gpx xmlns="http://www.topografix.com/GPX/1/1" creator="www.cicloide.com" version="1.1" xmlns:xsi="http://www.w3.org/2001/XMLSchema-instance" xsi:schemaLocation="http://www.topografix.com/GPX/1/1 http://www.topografix.com/GPX/1/1/gpx.xsd">
  <trk>
    <name>www.cicloide.com 13142</name>
    <desc>www.cicloide.com 13142</desc>
    <trkseg>
      <trkpt lat="41.544534000" lon="1.886379000">
        <ele>98.10</ele>
        <time>2013-04-21T00:12:39Z</time>
      </trkpt>
      <trkpt lat="41.544534000" lon="1.886379000">
        <ele>97.60</ele>
        <time>2013-04-21T00:12:55Z</time>
      </trkpt>
      <trkpt lat="41.544510000" lon="1.885933000">
        <ele>108.80</ele>
        <time>2013-04-21T08:07:02Z</time>
      </trkpt>
      <trkpt lat="41.544424000" lon="1.885737000">
        <ele>107.30</ele>
        <time>2013-04-21T08:07:09Z</time>
      </trkpt>
      <trkpt lat="41.544569000" lon="1.885563000">
        <ele>107.40</ele>
        <time>2013-04-21T08:07:16Z</time>
      </trkpt>
      <trkpt lat="41.544717000" lon="1.885377000">
        <ele>106.70</ele>
        <time>2013-04-21T08:07:23Z</time>
      </trkpt>
      <trkpt lat="41.544850000" lon="1.885209000">
        <ele>105.10</ele>
        <time>2013-04-21T08:07:28Z</time>
      </trkpt>
      <trkpt lat="41.545009000" lon="1.885036000">
        <ele>104.00</ele>
        <time>2013-04-21T08:07:33Z</time>
      </trkpt>
      <trkpt lat="41.545157000" lon="1.884876000">
        <ele>103.40</ele>
        <time>2013-04-21T08:07:37Z</time>
      </trkpt>
      <trkpt lat="41.545322000" lon="1.884677000">
        <ele>102.70</ele>
        <time>2013-04-21T08:07:41Z</time>
      </trkpt>
      <trkpt lat="41.545474000" lon="1.884486000">
        <ele>102.20</ele>
        <time>2013-04-21T08:07:45Z</time>
      </trkpt>
      <trkpt lat="41.545618000" lon="1.884318000">
        <ele>101.80</ele>
        <time>2013-04-21T08:07:49Z</time>
      </trkpt>
      <trkpt lat="41.545740000" lon="1.884128000">
        <ele>101.00</ele>
        <time>2013-04-21T08:07:53Z</time>
      </trkpt>
      <trkpt lat="41.545655000" lon="1.883901000">
        <ele>102.10</ele>
        <time>2013-04-21T08:07:58Z</time>
      </trkpt>
      <trkpt lat="41.545447000" lon="1.883798000">
        <ele>100.40</ele>
        <time>2013-04-21T08:08:02Z</time>
      </trkpt>
      <trkpt lat="41.545265000" lon="1.883714000">
        <ele>99.30</ele>
        <time>2013-04-21T08:08:05Z</time>
      </trkpt>
      <trkpt lat="41.545083000" lon="1.883635000">
        <ele>99.40</ele>
        <time>2013-04-21T08:08:08Z</time>
      </trkpt>
      <trkpt lat="41.544912000" lon="1.883556000">
        <ele>99.60</ele>
        <time>2013-04-21T08:08:11Z</time>
      </trkpt>
      <trkpt lat="41.544746000" lon="1.883363000">
        <ele>100.00</ele>
        <time>2013-04-21T08:08:15Z</time>
      </trkpt>
      <trkpt lat="41.544630000" lon="1.883147000">
        <ele>101.60</ele>
        <time>2013-04-21T08:08:19Z</time>
      </trkpt>
      <trkpt lat="41.544668000" lon="1.882912000">
        <ele>101.10</ele>
        <time>2013-04-21T08:08:24Z</time>
      </trkpt>
      <trkpt lat="41.544769000" lon="1.882687000">
        <ele>101.60</ele>
        <time>2013-04-21T08:08:29Z</time>
      </trkpt>
      <trkpt lat="41.544784000" lon="1.882449000">
        <ele>100.80</ele>
        <time>2013-04-21T08:08:33Z</time>
      </trkpt>
      <trkpt lat="41.544724000" lon="1.882159000">
        <ele>99.20</ele>
        <time>2013-04-21T08:08:38Z</time>
      </trkpt>
      <trkpt lat="41.544595000" lon="1.881921000">
        <ele>99.20</ele>
        <time>2013-04-21T08:08:42Z</time>
      </trkpt>
      <trkpt lat="41.544370000" lon="1.881798000">
        <ele>97.80</ele>
        <time>2013-04-21T08:08:46Z</time>
      </trkpt>
      <trkpt lat="41.544174000" lon="1.881798000">
        <ele>97.40</ele>
        <time>2013-04-21T08:08:49Z</time>
      </trkpt>
      <trkpt lat="41.543990000" lon="1.881897000">
        <ele>97.30</ele>
        <time>2013-04-21T08:08:52Z</time>
      </trkpt>
      <trkpt lat="41.543814000" lon="1.882034000">
        <ele>96.90</ele>
        <time>2013-04-21T08:08:55Z</time>
      </trkpt>
      <trkpt lat="41.543630000" lon="1.881996000">
        <ele>96.00</ele>
        <time>2013-04-21T08:08:58Z</time>
      </trkpt>
      <trkpt lat="41.543433000" lon="1.881860000">
        <ele>93.60</ele>
        <time>2013-04-21T08:09:01Z</time>
      </trkpt>
      <trkpt lat="41.543207000" lon="1.881702000">
        <ele>91.40</ele>
        <time>2013-04-21T08:09:04Z</time>
      </trkpt>
      <trkpt lat="41.543041000" lon="1.881588000">
        <ele>89.30</ele>
        <time>2013-04-21T08:09:06Z</time>
      </trkpt>
      <trkpt lat="41.542864000" lon="1.881482000">
        <ele>87.90</ele>
        <time>2013-04-21T08:09:08Z</time>
      </trkpt>
      <trkpt lat="41.542679000" lon="1.881368000">
        <ele>86.00</ele>
        <time>2013-04-21T08:09:10Z</time>
      </trkpt>
      <trkpt lat="41.542499000" lon="1.881255000">
        <ele>85.60</ele>
        <time>2013-04-21T08:09:12Z</time>
      </trkpt>
      <trkpt lat="41.542269000" lon="1.881102000">
        <ele>85.60</ele>
        <time>2013-04-21T08:09:15Z</time>
      </trkpt>
      <trkpt lat="41.542057000" lon="1.880963000">
        <ele>85.70</ele>
        <time>2013-04-21T08:09:18Z</time>
      </trkpt>
      <trkpt lat="41.541856000" lon="1.880839000">
        <ele>86.30</ele>
        <time>2013-04-21T08:09:21Z</time>
      </trkpt>
      <trkpt lat="41.541665000" lon="1.880721000">
        <ele>86.50</ele>
        <time>2013-04-21T08:09:24Z</time>
      </trkpt>
      <trkpt lat="41.541484000" lon="1.880605000">
        <ele>86.60</ele>
        <time>2013-04-21T08:09:27Z</time>
      </trkpt>
      <trkpt lat="41.541306000" lon="1.880500000">
        <ele>86.50</ele>
        <time>2013-04-21T08:09:30Z</time>
      </trkpt>
      <trkpt lat="41.541136000" lon="1.880412000">
        <ele>86.70</ele>
        <time>2013-04-21T08:09:33Z</time>
      </trkpt>
      <trkpt lat="41.541088000" lon="1.880148000">
        <ele>85.70</ele>
        <time>2013-04-21T08:09:37Z</time>
      </trkpt>
      <trkpt lat="41.541132000" lon="1.879907000">
        <ele>87.10</ele>
        <time>2013-04-21T08:09:41Z</time>
      </trkpt>
      <trkpt lat="41.541196000" lon="1.879719000">
        <ele>87.00</ele>
        <time>2013-04-21T08:10:34Z</time>
      </trkpt>
      <trkpt lat="41.541232000" lon="1.879470000">
        <ele>86.70</ele>
        <time>2013-04-21T08:10:42Z</time>
      </trkpt>
      <trkpt lat="41.541292000" lon="1.879257000">
        <ele>86.50</ele>
        <time>2013-04-21T08:12:28Z</time>
      </trkpt>
      <trkpt lat="41.541364000" lon="1.879013000">
        <ele>85.20</ele>
        <time>2013-04-21T08:12:35Z</time>
      </trkpt>
      <trkpt lat="41.541466000" lon="1.878770000">
        <ele>86.50</ele>
        <time>2013-04-21T08:12:40Z</time>
      </trkpt>
      <trkpt lat="41.541583000" lon="1.878514000">
        <ele>86.00</ele>
        <time>2013-04-21T08:12:45Z</time>
      </trkpt>
      <trkpt lat="41.541696000" lon="1.878314000">
        <ele>85.40</ele>
        <time>2013-04-21T08:12:49Z</time>
      </trkpt>
      <trkpt lat="41.541820000" lon="1.878141000">
        <ele>84.70</ele>
        <time>2013-04-21T08:12:53Z</time>
      </trkpt>
      <trkpt lat="41.541943000" lon="1.877950000">
        <ele>86.90</ele>
        <time>2013-04-21T08:12:58Z</time>
      </trkpt>
      <trkpt lat="41.542038000" lon="1.877713000">
        <ele>86.40</ele>
        <time>2013-04-21T08:13:04Z</time>
      </trkpt>
      <trkpt lat="41.542076000" lon="1.877459000">
        <ele>87.50</ele>
        <time>2013-04-21T08:13:10Z</time>
      </trkpt>
      <trkpt lat="41.542116000" lon="1.877214000">
        <ele>88.20</ele>
        <time>2013-04-21T08:13:16Z</time>
      </trkpt>
      <trkpt lat="41.542157000" lon="1.876978000">
        <ele>88.70</ele>
        <time>2013-04-21T08:13:22Z</time>
      </trkpt>
      <trkpt lat="41.542194000" lon="1.876703000">
        <ele>89.00</ele>
        <time>2013-04-21T08:13:28Z</time>
      </trkpt>
      <trkpt lat="41.542247000" lon="1.876409000">
        <ele>88.70</ele>
        <time>2013-04-21T08:13:34Z</time>
      </trkpt>
      <trkpt lat="41.542291000" lon="1.876156000">
        <ele>88.80</ele>
        <time>2013-04-21T08:13:39Z</time>
      </trkpt>
      <trkpt lat="41.542326000" lon="1.875898000">
        <ele>89.90</ele>
        <time>2013-04-21T08:13:44Z</time>
      </trkpt>
      <trkpt lat="41.542364000" lon="1.875654000">
        <ele>90.60</ele>
        <time>2013-04-21T08:13:49Z</time>
      </trkpt>
      <trkpt lat="41.542398000" lon="1.875412000">
        <ele>90.60</ele>
        <time>2013-04-21T08:13:54Z</time>
      </trkpt>
      <trkpt lat="41.542424000" lon="1.875173000">
        <ele>91.30</ele>
        <time>2013-04-21T08:13:59Z</time>
      </trkpt>
      <trkpt lat="41.542464000" lon="1.874929000">
        <ele>93.30</ele>
        <time>2013-04-21T08:14:04Z</time>
      </trkpt>
      <trkpt lat="41.542522000" lon="1.874679000">
        <ele>93.90</ele>
        <time>2013-04-21T08:14:09Z</time>
      </trkpt>
      <trkpt lat="41.542583000" lon="1.874432000">
        <ele>94.10</ele>
        <time>2013-04-21T08:14:14Z</time>
      </trkpt>
      <trkpt lat="41.542649000" lon="1.874182000">
        <ele>93.60</ele>
        <time>2013-04-21T08:14:19Z</time>
      </trkpt>
      <trkpt lat="41.542719000" lon="1.873935000">
        <ele>92.40</ele>
        <time>2013-04-21T08:14:24Z</time>
      </trkpt>
      <trkpt lat="41.542782000" lon="1.873684000">
        <ele>92.70</ele>
        <time>2013-04-21T08:14:29Z</time>
      </trkpt>
      <trkpt lat="41.542844000" lon="1.873428000">
        <ele>94.60</ele>
        <time>2013-04-21T08:14:34Z</time>
      </trkpt>
      <trkpt lat="41.542947000" lon="1.873175000">
        <ele>93.10</ele>
        <time>2013-04-21T08:14:39Z</time>
      </trkpt>
      <trkpt lat="41.543076000" lon="1.873004000">
        <ele>92.70</ele>
        <time>2013-04-21T08:14:43Z</time>
      </trkpt>
      <trkpt lat="41.543244000" lon="1.872841000">
        <ele>91.30</ele>
        <time>2013-04-21T08:14:47Z</time>
      </trkpt>
      <trkpt lat="41.543395000" lon="1.872644000">
        <ele>90.30</ele>
        <time>2013-04-21T08:14:51Z</time>
      </trkpt>
      <trkpt lat="41.543533000" lon="1.872494000">
        <ele>89.90</ele>
        <time>2013-04-21T08:14:54Z</time>
      </trkpt>
      <trkpt lat="41.543684000" lon="1.872333000">
        <ele>88.90</ele>
        <time>2013-04-21T08:14:57Z</time>
      </trkpt>
      <trkpt lat="41.543873000" lon="1.872228000">
        <ele>88.00</ele>
        <time>2013-04-21T08:15:00Z</time>
      </trkpt>
      <trkpt lat="41.544078000" lon="1.872168000">
        <ele>87.50</ele>
        <time>2013-04-21T08:15:03Z</time>
      </trkpt>
      <trkpt lat="41.544276000" lon="1.872120000">
        <ele>87.30</ele>
        <time>2013-04-21T08:15:06Z</time>
      </trkpt>
      <trkpt lat="41.544466000" lon="1.872084000">
        <ele>86.90</ele>
        <time>2013-04-21T08:15:09Z</time>
      </trkpt>
      <trkpt lat="41.544659000" lon="1.872059000">
        <ele>86.20</ele>
        <time>2013-04-21T08:15:12Z</time>
      </trkpt>
      <trkpt lat="41.544878000" lon="1.872155000">
        <ele>85.90</ele>
        <time>2013-04-21T08:15:16Z</time>
      </trkpt>
      <trkpt lat="41.545095000" lon="1.872232000">
        <ele>86.40</ele>
        <time>2013-04-21T08:15:20Z</time>
      </trkpt>
      <trkpt lat="41.545307000" lon="1.872232000">
        <ele>85.90</ele>
        <time>2013-04-21T08:15:24Z</time>
      </trkpt>
      <trkpt lat="41.545496000" lon="1.872155000">
        <ele>85.70</ele>
        <time>2013-04-21T08:15:28Z</time>
      </trkpt>
      <trkpt lat="41.545674000" lon="1.872051000">
        <ele>87.20</ele>
        <time>2013-04-21T08:15:32Z</time>
      </trkpt>
      <trkpt lat="41.545861000" lon="1.871931000">
        <ele>87.40</ele>
        <time>2013-04-21T08:15:36Z</time>
      </trkpt>
      <trkpt lat="41.546043000" lon="1.871820000">
        <ele>87.80</ele>
        <time>2013-04-21T08:15:40Z</time>
      </trkpt>
      <trkpt lat="41.546246000" lon="1.871786000">
        <ele>87.20</ele>
        <time>2013-04-21T08:15:44Z</time>
      </trkpt>
      <trkpt lat="41.546444000" lon="1.871821000">
        <ele>86.60</ele>
        <time>2013-04-21T08:15:48Z</time>
      </trkpt>
      <trkpt lat="41.546639000" lon="1.871865000">
        <ele>85.60</ele>
        <time>2013-04-21T08:15:52Z</time>
      </trkpt>
      <trkpt lat="41.546821000" lon="1.871911000">
        <ele>85.60</ele>
        <time>2013-04-21T08:15:56Z</time>
      </trkpt>
      <trkpt lat="41.547013000" lon="1.871962000">
        <ele>85.30</ele>
        <time>2013-04-21T08:16:00Z</time>
      </trkpt>
      <trkpt lat="41.547203000" lon="1.871983000">
        <ele>85.30</ele>
        <time>2013-04-21T08:16:04Z</time>
      </trkpt>
      <trkpt lat="41.547392000" lon="1.871927000">
        <ele>85.20</ele>
        <time>2013-04-21T08:16:08Z</time>
      </trkpt>
      <trkpt lat="41.547581000" lon="1.871817000">
        <ele>85.50</ele>
        <time>2013-04-21T08:16:12Z</time>
      </trkpt>
      <trkpt lat="41.547718000" lon="1.871633000">
        <ele>85.90</ele>
        <time>2013-04-21T08:16:16Z</time>
      </trkpt>
      <trkpt lat="41.547869000" lon="1.871431000">
        <ele>87.30</ele>
        <time>2013-04-21T08:16:21Z</time>
      </trkpt>
      <trkpt lat="41.548005000" lon="1.871264000">
        <ele>88.80</ele>
        <time>2013-04-21T08:16:26Z</time>
      </trkpt>
      <trkpt lat="41.548137000" lon="1.871105000">
        <ele>89.90</ele>
        <time>2013-04-21T08:16:31Z</time>
      </trkpt>
      <trkpt lat="41.548289000" lon="1.870916000">
        <ele>90.30</ele>
        <time>2013-04-21T08:16:37Z</time>
      </trkpt>
      <trkpt lat="41.548437000" lon="1.870752000">
        <ele>91.80</ele>
        <time>2013-04-21T08:16:43Z</time>
      </trkpt>
      <trkpt lat="41.548588000" lon="1.870571000">
        <ele>93.80</ele>
        <time>2013-04-21T08:16:49Z</time>
      </trkpt>
      <trkpt lat="41.548723000" lon="1.870389000">
        <ele>94.00</ele>
        <time>2013-04-21T08:16:55Z</time>
      </trkpt>
      <trkpt lat="41.548888000" lon="1.870356000">
        <ele>95.40</ele>
        <time>2013-04-21T08:17:02Z</time>
      </trkpt>
      <trkpt lat="41.549046000" lon="1.870252000">
        <ele>95.90</ele>
        <time>2013-04-21T08:17:09Z</time>
      </trkpt>
      <trkpt lat="41.549182000" lon="1.870083000">
        <ele>96.70</ele>
        <time>2013-04-21T08:17:15Z</time>
      </trkpt>
      <trkpt lat="41.549306000" lon="1.869906000">
        <ele>97.60</ele>
        <time>2013-04-21T08:17:21Z</time>
      </trkpt>
      <trkpt lat="41.549429000" lon="1.869715000">
        <ele>98.30</ele>
        <time>2013-04-21T08:17:27Z</time>
      </trkpt>
      <trkpt lat="41.549549000" lon="1.869503000">
        <ele>99.80</ele>
        <time>2013-04-21T08:17:33Z</time>
      </trkpt>
      <trkpt lat="41.549647000" lon="1.869284000">
        <ele>100.90</ele>
        <time>2013-04-21T08:17:39Z</time>
      </trkpt>
      <trkpt lat="41.549744000" lon="1.869074000">
        <ele>101.90</ele>
        <time>2013-04-21T08:17:45Z</time>
      </trkpt>
      <trkpt lat="41.549855000" lon="1.868878000">
        <ele>102.90</ele>
        <time>2013-04-21T08:17:51Z</time>
      </trkpt>
      <trkpt lat="41.549961000" lon="1.868682000">
        <ele>104.20</ele>
        <time>2013-04-21T08:17:57Z</time>
      </trkpt>
      <trkpt lat="41.550075000" lon="1.868479000">
        <ele>105.50</ele>
        <time>2013-04-21T08:18:03Z</time>
      </trkpt>
      <trkpt lat="41.550246000" lon="1.868332000">
        <ele>107.20</ele>
        <time>2013-04-21T08:18:10Z</time>
      </trkpt>
      <trkpt lat="41.550375000" lon="1.868167000">
        <ele>108.90</ele>
        <time>2013-04-21T08:18:16Z</time>
      </trkpt>
      <trkpt lat="41.550403000" lon="1.868397000">
        <ele>109.40</ele>
        <time>2013-04-21T08:18:25Z</time>
      </trkpt>
      <trkpt lat="41.550324000" lon="1.868620000">
        <ele>110.20</ele>
        <time>2013-04-21T08:18:33Z</time>
      </trkpt>
      <trkpt lat="41.550180000" lon="1.868829000">
        <ele>111.20</ele>
        <time>2013-04-21T08:18:41Z</time>
      </trkpt>
      <trkpt lat="41.550064000" lon="1.869022000">
        <ele>112.50</ele>
        <time>2013-04-21T08:18:49Z</time>
      </trkpt>
      <trkpt lat="41.549978000" lon="1.869262000">
        <ele>113.90</ele>
        <time>2013-04-21T08:18:57Z</time>
      </trkpt>
      <trkpt lat="41.549935000" lon="1.869507000">
        <ele>115.10</ele>
        <time>2013-04-21T08:19:05Z</time>
      </trkpt>
      <trkpt lat="41.549836000" lon="1.869893000">
        <ele>116.30</ele>
        <time>2013-04-21T08:19:17Z</time>
      </trkpt>
      <trkpt lat="41.549741000" lon="1.870117000">
        <ele>118.20</ele>
        <time>2013-04-21T08:19:25Z</time>
      </trkpt>
      <trkpt lat="41.549645000" lon="1.870327000">
        <ele>119.80</ele>
        <time>2013-04-21T08:19:33Z</time>
      </trkpt>
      <trkpt lat="41.549588000" lon="1.870534000">
        <ele>120.80</ele>
        <time>2013-04-21T08:19:41Z</time>
      </trkpt>
      <trkpt lat="41.549762000" lon="1.870699000">
        <ele>122.10</ele>
        <time>2013-04-21T08:19:49Z</time>
      </trkpt>
      <trkpt lat="41.549948000" lon="1.870703000">
        <ele>123.50</ele>
        <time>2013-04-21T08:19:57Z</time>
      </trkpt>
      <trkpt lat="41.550133000" lon="1.870592000">
        <ele>124.80</ele>
        <time>2013-04-21T08:20:05Z</time>
      </trkpt>
      <trkpt lat="41.550278000" lon="1.870448000">
        <ele>126.40</ele>
        <time>2013-04-21T08:20:13Z</time>
      </trkpt>
      <trkpt lat="41.550339000" lon="1.870204000">
        <ele>127.60</ele>
        <time>2013-04-21T08:20:21Z</time>
      </trkpt>
      <trkpt lat="41.550430000" lon="1.869999000">
        <ele>127.40</ele>
        <time>2013-04-21T08:20:29Z</time>
      </trkpt>
      <trkpt lat="41.550597000" lon="1.870091000">
        <ele>128.00</ele>
        <time>2013-04-21T08:20:37Z</time>
      </trkpt>
      <trkpt lat="41.550674000" lon="1.870325000">
        <ele>129.50</ele>
        <time>2013-04-21T08:20:45Z</time>
      </trkpt>
      <trkpt lat="41.550765000" lon="1.870531000">
        <ele>130.60</ele>
        <time>2013-04-21T08:20:53Z</time>
      </trkpt>
      <trkpt lat="41.550875000" lon="1.870720000">
        <ele>133.30</ele>
        <time>2013-04-21T08:21:02Z</time>
      </trkpt>
      <trkpt lat="41.550988000" lon="1.870924000">
        <ele>136.70</ele>
        <time>2013-04-21T08:21:11Z</time>
      </trkpt>
      <trkpt lat="41.551146000" lon="1.870869000">
        <ele>138.80</ele>
        <time>2013-04-21T08:21:21Z</time>
      </trkpt>
      <trkpt lat="41.551156000" lon="1.870610000">
        <ele>139.70</ele>
        <time>2013-04-21T08:21:30Z</time>
      </trkpt>
      <trkpt lat="41.551140000" lon="1.870346000">
        <ele>141.10</ele>
        <time>2013-04-21T08:21:39Z</time>
      </trkpt>
      <trkpt lat="41.551052000" lon="1.870107000">
        <ele>141.40</ele>
        <time>2013-04-21T08:21:48Z</time>
      </trkpt>
      <trkpt lat="41.551044000" lon="1.869862000">
        <ele>143.60</ele>
        <time>2013-04-21T08:21:58Z</time>
      </trkpt>
      <trkpt lat="41.551077000" lon="1.869634000">
        <ele>144.10</ele>
        <time>2013-04-21T08:22:07Z</time>
      </trkpt>
      <trkpt lat="41.551087000" lon="1.869380000">
        <ele>144.10</ele>
        <time>2013-04-21T08:22:16Z</time>
      </trkpt>
      <trkpt lat="41.551164000" lon="1.869147000">
        <ele>145.90</ele>
        <time>2013-04-21T08:22:25Z</time>
      </trkpt>
      <trkpt lat="41.551273000" lon="1.868932000">
        <ele>146.90</ele>
        <time>2013-04-21T08:22:34Z</time>
      </trkpt>
      <trkpt lat="41.551386000" lon="1.868716000">
        <ele>148.00</ele>
        <time>2013-04-21T08:22:43Z</time>
      </trkpt>
      <trkpt lat="41.551560000" lon="1.868613000">
        <ele>149.70</ele>
        <time>2013-04-21T08:22:52Z</time>
      </trkpt>
      <trkpt lat="41.551735000" lon="1.868484000">
        <ele>150.10</ele>
        <time>2013-04-21T08:23:01Z</time>
      </trkpt>
      <trkpt lat="41.551837000" lon="1.868285000">
        <ele>152.20</ele>
        <time>2013-04-21T08:23:09Z</time>
      </trkpt>
      <trkpt lat="41.551947000" lon="1.868068000">
        <ele>154.00</ele>
        <time>2013-04-21T08:23:18Z</time>
      </trkpt>
      <trkpt lat="41.552060000" lon="1.867867000">
        <ele>154.80</ele>
        <time>2013-04-21T08:23:27Z</time>
      </trkpt>
      <trkpt lat="41.552136000" lon="1.867637000">
        <ele>154.70</ele>
        <time>2013-04-21T08:23:35Z</time>
      </trkpt>
      <trkpt lat="41.552255000" lon="1.867430000">
        <ele>157.50</ele>
        <time>2013-04-21T08:23:43Z</time>
      </trkpt>
      <trkpt lat="41.552362000" lon="1.867219000">
        <ele>156.90</ele>
        <time>2013-04-21T08:23:52Z</time>
      </trkpt>
      <trkpt lat="41.552443000" lon="1.866968000">
        <ele>156.80</ele>
        <time>2013-04-21T08:23:59Z</time>
      </trkpt>
      <trkpt lat="41.552555000" lon="1.866789000">
        <ele>157.00</ele>
        <time>2013-04-21T08:24:06Z</time>
      </trkpt>
      <trkpt lat="41.552642000" lon="1.866587000">
        <ele>153.30</ele>
        <time>2013-04-21T08:24:13Z</time>
      </trkpt>
      <trkpt lat="41.552762000" lon="1.866395000">
        <ele>152.70</ele>
        <time>2013-04-21T08:24:19Z</time>
      </trkpt>
      <trkpt lat="41.552875000" lon="1.866202000">
        <ele>151.00</ele>
        <time>2013-04-21T08:24:26Z</time>
      </trkpt>
      <trkpt lat="41.552977000" lon="1.865983000">
        <ele>147.40</ele>
        <time>2013-04-21T08:24:34Z</time>
      </trkpt>
      <trkpt lat="41.553116000" lon="1.865752000">
        <ele>143.10</ele>
        <time>2013-04-21T08:24:42Z</time>
      </trkpt>
      <trkpt lat="41.553268000" lon="1.865559000">
        <ele>147.80</ele>
        <time>2013-04-21T08:24:49Z</time>
      </trkpt>
      <trkpt lat="41.553359000" lon="1.865321000">
        <ele>144.90</ele>
        <time>2013-04-21T08:24:56Z</time>
      </trkpt>
      <trkpt lat="41.553455000" lon="1.865108000">
        <ele>142.30</ele>
        <time>2013-04-21T08:25:01Z</time>
      </trkpt>
      <trkpt lat="41.553520000" lon="1.864858000">
        <ele>142.00</ele>
        <time>2013-04-21T08:25:06Z</time>
      </trkpt>
      <trkpt lat="41.553650000" lon="1.864664000">
        <ele>142.00</ele>
        <time>2013-04-21T08:25:12Z</time>
      </trkpt>
      <trkpt lat="41.553604000" lon="1.864404000">
        <ele>142.00</ele>
        <time>2013-04-21T08:25:18Z</time>
      </trkpt>
      <trkpt lat="41.553506000" lon="1.864186000">
        <ele>140.30</ele>
        <time>2013-04-21T08:25:24Z</time>
      </trkpt>
      <trkpt lat="41.553406000" lon="1.863976000">
        <ele>135.40</ele>
        <time>2013-04-21T08:25:29Z</time>
      </trkpt>
      <trkpt lat="41.553329000" lon="1.863714000">
        <ele>133.60</ele>
        <time>2013-04-21T08:25:33Z</time>
      </trkpt>
      <trkpt lat="41.553216000" lon="1.863496000">
        <ele>134.00</ele>
        <time>2013-04-21T08:25:39Z</time>
      </trkpt>
      <trkpt lat="41.553213000" lon="1.863268000">
        <ele>133.30</ele>
        <time>2013-04-21T08:25:46Z</time>
      </trkpt>
      <trkpt lat="41.553265000" lon="1.863030000">
        <ele>134.50</ele>
        <time>2013-04-21T08:25:53Z</time>
      </trkpt>
      <trkpt lat="41.553309000" lon="1.862753000">
        <ele>135.40</ele>
        <time>2013-04-21T08:26:01Z</time>
      </trkpt>
      <trkpt lat="41.553360000" lon="1.862493000">
        <ele>136.40</ele>
        <time>2013-04-21T08:26:09Z</time>
      </trkpt>
      <trkpt lat="41.553440000" lon="1.862243000">
        <ele>138.10</ele>
        <time>2013-04-21T08:26:17Z</time>
      </trkpt>
      <trkpt lat="41.553468000" lon="1.861970000">
        <ele>138.20</ele>
        <time>2013-04-21T08:26:24Z</time>
      </trkpt>
      <trkpt lat="41.553498000" lon="1.861736000">
        <ele>139.90</ele>
        <time>2013-04-21T08:26:31Z</time>
      </trkpt>
      <trkpt lat="41.553485000" lon="1.861501000">
        <ele>142.30</ele>
        <time>2013-04-21T08:26:39Z</time>
      </trkpt>
      <trkpt lat="41.553501000" lon="1.861254000">
        <ele>143.70</ele>
        <time>2013-04-21T08:26:47Z</time>
      </trkpt>
      <trkpt lat="41.553645000" lon="1.861120000">
        <ele>147.00</ele>
        <time>2013-04-21T08:26:56Z</time>
      </trkpt>
      <trkpt lat="41.553699000" lon="1.860897000">
        <ele>149.30</ele>
        <time>2013-04-21T08:27:05Z</time>
      </trkpt>
      <trkpt lat="41.553839000" lon="1.860813000">
        <ele>151.70</ele>
        <time>2013-04-21T08:27:15Z</time>
      </trkpt>
      <trkpt lat="41.553868000" lon="1.861075000">
        <ele>153.30</ele>
        <time>2013-04-21T08:27:25Z</time>
      </trkpt>
      <trkpt lat="41.553868000" lon="1.861325000">
        <ele>155.10</ele>
        <time>2013-04-21T08:27:34Z</time>
      </trkpt>
      <trkpt lat="41.553861000" lon="1.861578000">
        <ele>156.60</ele>
        <time>2013-04-21T08:27:43Z</time>
      </trkpt>
      <trkpt lat="41.553888000" lon="1.861823000">
        <ele>158.00</ele>
        <time>2013-04-21T08:27:52Z</time>
      </trkpt>
      <trkpt lat="41.553897000" lon="1.862124000">
        <ele>160.50</ele>
        <time>2013-04-21T08:28:03Z</time>
      </trkpt>
      <trkpt lat="41.553940000" lon="1.862356000">
        <ele>164.20</ele>
        <time>2013-04-21T08:28:14Z</time>
      </trkpt>
      <trkpt lat="41.554052000" lon="1.862227000">
        <ele>167.40</ele>
        <time>2013-04-21T08:28:25Z</time>
      </trkpt>
      <trkpt lat="41.554135000" lon="1.862022000">
        <ele>170.40</ele>
        <time>2013-04-21T08:28:36Z</time>
      </trkpt>
      <trkpt lat="41.554143000" lon="1.862248000">
        <ele>172.50</ele>
        <time>2013-04-21T08:28:46Z</time>
      </trkpt>
      <trkpt lat="41.554140000" lon="1.862476000">
        <ele>173.10</ele>
        <time>2013-04-21T08:28:56Z</time>
      </trkpt>
      <trkpt lat="41.554288000" lon="1.862587000">
        <ele>175.40</ele>
        <time>2013-04-21T08:29:05Z</time>
      </trkpt>
      <trkpt lat="41.554311000" lon="1.862346000">
        <ele>177.50</ele>
        <time>2013-04-21T08:29:14Z</time>
      </trkpt>
      <trkpt lat="41.554331000" lon="1.862086000">
        <ele>178.80</ele>
        <time>2013-04-21T08:29:23Z</time>
      </trkpt>
      <trkpt lat="41.554343000" lon="1.861830000">
        <ele>179.90</ele>
        <time>2013-04-21T08:29:32Z</time>
      </trkpt>
      <trkpt lat="41.554370000" lon="1.861593000">
        <ele>180.80</ele>
        <time>2013-04-21T08:29:41Z</time>
      </trkpt>
      <trkpt lat="41.554413000" lon="1.861330000">
        <ele>181.60</ele>
        <time>2013-04-21T08:29:50Z</time>
      </trkpt>
      <trkpt lat="41.554452000" lon="1.861090000">
        <ele>184.20</ele>
        <time>2013-04-21T08:29:59Z</time>
      </trkpt>
      <trkpt lat="41.554564000" lon="1.861090000">
        <ele>186.90</ele>
        <time>2013-04-21T08:30:08Z</time>
      </trkpt>
      <trkpt lat="41.554586000" lon="1.861350000">
        <ele>188.50</ele>
        <time>2013-04-21T08:30:18Z</time>
      </trkpt>
      <trkpt lat="41.554660000" lon="1.861600000">
        <ele>190.00</ele>
        <time>2013-04-21T08:30:28Z</time>
      </trkpt>
      <trkpt lat="41.554738000" lon="1.861821000">
        <ele>191.80</ele>
        <time>2013-04-21T08:30:37Z</time>
      </trkpt>
      <trkpt lat="41.554738000" lon="1.862064000">
        <ele>193.50</ele>
        <time>2013-04-21T08:30:46Z</time>
      </trkpt>
      <trkpt lat="41.554730000" lon="1.862311000">
        <ele>194.90</ele>
        <time>2013-04-21T08:30:55Z</time>
      </trkpt>
      <trkpt lat="41.554705000" lon="1.862554000">
        <ele>196.20</ele>
        <time>2013-04-21T08:31:04Z</time>
      </trkpt>
      <trkpt lat="41.554764000" lon="1.862722000">
        <ele>198.70</ele>
        <time>2013-04-21T08:31:13Z</time>
      </trkpt>
      <trkpt lat="41.554815000" lon="1.862460000">
        <ele>200.30</ele>
        <time>2013-04-21T08:31:23Z</time>
      </trkpt>
      <trkpt lat="41.554887000" lon="1.862227000">
        <ele>201.50</ele>
        <time>2013-04-21T08:31:33Z</time>
      </trkpt>
      <trkpt lat="41.554963000" lon="1.861977000">
        <ele>203.00</ele>
        <time>2013-04-21T08:31:43Z</time>
      </trkpt>
      <trkpt lat="41.555014000" lon="1.861719000">
        <ele>204.10</ele>
        <time>2013-04-21T08:31:52Z</time>
      </trkpt>
      <trkpt lat="41.555017000" lon="1.861462000">
        <ele>205.30</ele>
        <time>2013-04-21T08:32:01Z</time>
      </trkpt>
      <trkpt lat="41.554984000" lon="1.861190000">
        <ele>206.10</ele>
        <time>2013-04-21T08:32:10Z</time>
      </trkpt>
      <trkpt lat="41.555025000" lon="1.860942000">
        <ele>207.50</ele>
        <time>2013-04-21T08:32:19Z</time>
      </trkpt>
      <trkpt lat="41.555079000" lon="1.860712000">
        <ele>208.70</ele>
        <time>2013-04-21T08:32:27Z</time>
      </trkpt>
      <trkpt lat="41.555114000" lon="1.860446000">
        <ele>212.30</ele>
        <time>2013-04-21T08:32:37Z</time>
      </trkpt>
      <trkpt lat="41.555246000" lon="1.860347000">
        <ele>215.10</ele>
        <time>2013-04-21T08:32:47Z</time>
      </trkpt>
      <trkpt lat="41.555280000" lon="1.860593000">
        <ele>217.00</ele>
        <time>2013-04-21T08:32:58Z</time>
      </trkpt>
      <trkpt lat="41.555285000" lon="1.860856000">
        <ele>218.80</ele>
        <time>2013-04-21T08:33:08Z</time>
      </trkpt>
      <trkpt lat="41.555367000" lon="1.861087000">
        <ele>220.00</ele>
        <time>2013-04-21T08:33:17Z</time>
      </trkpt>
      <trkpt lat="41.555538000" lon="1.861168000">
        <ele>221.60</ele>
        <time>2013-04-21T08:33:27Z</time>
      </trkpt>
      <trkpt lat="41.555656000" lon="1.860982000">
        <ele>226.00</ele>
        <time>2013-04-21T08:33:37Z</time>
      </trkpt>
      <trkpt lat="41.555725000" lon="1.860739000">
        <ele>229.50</ele>
        <time>2013-04-21T08:33:48Z</time>
      </trkpt>
      <trkpt lat="41.555836000" lon="1.860533000">
        <ele>231.80</ele>
        <time>2013-04-21T08:33:59Z</time>
      </trkpt>
      <trkpt lat="41.555951000" lon="1.860342000">
        <ele>234.60</ele>
        <time>2013-04-21T08:34:10Z</time>
      </trkpt>
      <trkpt lat="41.556029000" lon="1.860105000">
        <ele>237.10</ele>
        <time>2013-04-21T08:34:22Z</time>
      </trkpt>
      <trkpt lat="41.555932000" lon="1.859888000">
        <ele>241.20</ele>
        <time>2013-04-21T08:34:33Z</time>
      </trkpt>
      <trkpt lat="41.555889000" lon="1.859664000">
        <ele>243.80</ele>
        <time>2013-04-21T08:34:48Z</time>
      </trkpt>
      <trkpt lat="41.555972000" lon="1.859451000">
        <ele>245.60</ele>
        <time>2013-04-21T08:35:04Z</time>
      </trkpt>
      <trkpt lat="41.556047000" lon="1.859220000">
        <ele>247.90</ele>
        <time>2013-04-21T08:35:21Z</time>
      </trkpt>
      <trkpt lat="41.556129000" lon="1.859000000">
        <ele>248.90</ele>
        <time>2013-04-21T08:35:34Z</time>
      </trkpt>
      <trkpt lat="41.556210000" lon="1.858785000">
        <ele>248.90</ele>
        <time>2013-04-21T08:35:43Z</time>
      </trkpt>
      <trkpt lat="41.556227000" lon="1.858539000">
        <ele>249.60</ele>
        <time>2013-04-21T08:35:55Z</time>
      </trkpt>
      <trkpt lat="41.556268000" lon="1.858287000">
        <ele>246.90</ele>
        <time>2013-04-21T08:36:02Z</time>
      </trkpt>
      <trkpt lat="41.556324000" lon="1.858041000">
        <ele>245.20</ele>
        <time>2013-04-21T08:36:06Z</time>
      </trkpt>
      <trkpt lat="41.556413000" lon="1.857762000">
        <ele>239.60</ele>
        <time>2013-04-21T08:36:10Z</time>
      </trkpt>
      <trkpt lat="41.556552000" lon="1.857555000">
        <ele>235.30</ele>
        <time>2013-04-21T08:36:13Z</time>
      </trkpt>
      <trkpt lat="41.556742000" lon="1.857397000">
        <ele>230.60</ele>
        <time>2013-04-21T08:36:16Z</time>
      </trkpt>
      <trkpt lat="41.556884000" lon="1.857135000">
        <ele>228.70</ele>
        <time>2013-04-21T08:36:19Z</time>
      </trkpt>
      <trkpt lat="41.556997000" lon="1.856867000">
        <ele>226.80</ele>
        <time>2013-04-21T08:36:22Z</time>
      </trkpt>
      <trkpt lat="41.557136000" lon="1.856643000">
        <ele>225.60</ele>
        <time>2013-04-21T08:36:25Z</time>
      </trkpt>
      <trkpt lat="41.557311000" lon="1.856525000">
        <ele>223.20</ele>
        <time>2013-04-21T08:36:28Z</time>
      </trkpt>
      <trkpt lat="41.557495000" lon="1.856483000">
        <ele>221.20</ele>
        <time>2013-04-21T08:36:31Z</time>
      </trkpt>
      <trkpt lat="41.557661000" lon="1.856351000">
        <ele>224.80</ele>
        <time>2013-04-21T08:36:35Z</time>
      </trkpt>
      <trkpt lat="41.557543000" lon="1.856185000">
        <ele>229.30</ele>
        <time>2013-04-21T08:36:43Z</time>
      </trkpt>
      <trkpt lat="41.557371000" lon="1.856069000">
        <ele>231.20</ele>
        <time>2013-04-21T08:36:53Z</time>
      </trkpt>
      <trkpt lat="41.557202000" lon="1.855970000">
        <ele>233.60</ele>
        <time>2013-04-21T08:37:02Z</time>
      </trkpt>
      <trkpt lat="41.557025000" lon="1.855937000">
        <ele>234.20</ele>
        <time>2013-04-21T08:37:11Z</time>
      </trkpt>
      <trkpt lat="41.556847000" lon="1.855969000">
        <ele>236.00</ele>
        <time>2013-04-21T08:37:21Z</time>
      </trkpt>
      <trkpt lat="41.556663000" lon="1.856096000">
        <ele>239.30</ele>
        <time>2013-04-21T08:37:32Z</time>
      </trkpt>
      <trkpt lat="41.556475000" lon="1.856202000">
        <ele>241.30</ele>
        <time>2013-04-21T08:37:43Z</time>
      </trkpt>
      <trkpt lat="41.556304000" lon="1.856307000">
        <ele>243.80</ele>
        <time>2013-04-21T08:37:54Z</time>
      </trkpt>
      <trkpt lat="41.556118000" lon="1.856323000">
        <ele>245.70</ele>
        <time>2013-04-21T08:38:05Z</time>
      </trkpt>
      <trkpt lat="41.556034000" lon="1.856154000">
        <ele>246.80</ele>
        <time>2013-04-21T08:38:16Z</time>
      </trkpt>
      <trkpt lat="41.556106000" lon="1.855927000">
        <ele>248.20</ele>
        <time>2013-04-21T08:38:26Z</time>
      </trkpt>
      <trkpt lat="41.556159000" lon="1.855692000">
        <ele>249.00</ele>
        <time>2013-04-21T08:38:36Z</time>
      </trkpt>
      <trkpt lat="41.556219000" lon="1.855442000">
        <ele>249.70</ele>
        <time>2013-04-21T08:38:46Z</time>
      </trkpt>
      <trkpt lat="41.556328000" lon="1.855239000">
        <ele>251.20</ele>
        <time>2013-04-21T08:38:55Z</time>
      </trkpt>
      <trkpt lat="41.556473000" lon="1.855077000">
        <ele>251.90</ele>
        <time>2013-04-21T08:39:04Z</time>
      </trkpt>
      <trkpt lat="41.556556000" lon="1.854857000">
        <ele>251.30</ele>
        <time>2013-04-21T08:39:11Z</time>
      </trkpt>
      <trkpt lat="41.556619000" lon="1.854616000">
        <ele>252.30</ele>
        <time>2013-04-21T08:39:18Z</time>
      </trkpt>
      <trkpt lat="41.556796000" lon="1.854500000">
        <ele>253.80</ele>
        <time>2013-04-21T08:39:26Z</time>
      </trkpt>
      <trkpt lat="41.556953000" lon="1.854366000">
        <ele>254.30</ele>
        <time>2013-04-21T08:39:34Z</time>
      </trkpt>
      <trkpt lat="41.556970000" lon="1.854129000">
        <ele>253.70</ele>
        <time>2013-04-21T08:39:40Z</time>
      </trkpt>
      <trkpt lat="41.556784000" lon="1.854060000">
        <ele>255.30</ele>
        <time>2013-04-21T08:39:47Z</time>
      </trkpt>
      <trkpt lat="41.556593000" lon="1.854009000">
        <ele>256.00</ele>
        <time>2013-04-21T08:39:54Z</time>
      </trkpt>
      <trkpt lat="41.556399000" lon="1.853981000">
        <ele>257.00</ele>
        <time>2013-04-21T08:40:01Z</time>
      </trkpt>
      <trkpt lat="41.556225000" lon="1.854095000">
        <ele>257.90</ele>
        <time>2013-04-21T08:40:08Z</time>
      </trkpt>
      <trkpt lat="41.556089000" lon="1.854255000">
        <ele>258.80</ele>
        <time>2013-04-21T08:40:15Z</time>
      </trkpt>
      <trkpt lat="41.555936000" lon="1.854155000">
        <ele>260.10</ele>
        <time>2013-04-21T08:40:22Z</time>
      </trkpt>
      <trkpt lat="41.555872000" lon="1.853934000">
        <ele>262.70</ele>
        <time>2013-04-21T08:40:30Z</time>
      </trkpt>
      <trkpt lat="41.555823000" lon="1.853696000">
        <ele>260.90</ele>
        <time>2013-04-21T08:40:38Z</time>
      </trkpt>
      <trkpt lat="41.555753000" lon="1.853471000">
        <ele>260.30</ele>
        <time>2013-04-21T08:40:42Z</time>
      </trkpt>
      <trkpt lat="41.555552000" lon="1.853385000">
        <ele>262.50</ele>
        <time>2013-04-21T08:40:47Z</time>
      </trkpt>
      <trkpt lat="41.555411000" lon="1.853255000">
        <ele>266.30</ele>
        <time>2013-04-21T08:40:55Z</time>
      </trkpt>
      <trkpt lat="41.555307000" lon="1.853137000">
        <ele>266.50</ele>
        <time>2013-04-21T08:41:06Z</time>
      </trkpt>
      <trkpt lat="41.555117000" lon="1.853181000">
        <ele>265.70</ele>
        <time>2013-04-21T08:41:15Z</time>
      </trkpt>
      <trkpt lat="41.554932000" lon="1.853220000">
        <ele>265.10</ele>
        <time>2013-04-21T08:41:22Z</time>
      </trkpt>
      <trkpt lat="41.554731000" lon="1.853226000">
        <ele>264.70</ele>
        <time>2013-04-21T08:41:29Z</time>
      </trkpt>
      <trkpt lat="41.554550000" lon="1.853258000">
        <ele>264.40</ele>
        <time>2013-04-21T08:41:35Z</time>
      </trkpt>
      <trkpt lat="41.554362000" lon="1.853242000">
        <ele>263.60</ele>
        <time>2013-04-21T08:41:41Z</time>
      </trkpt>
      <trkpt lat="41.554153000" lon="1.853271000">
        <ele>263.40</ele>
        <time>2013-04-21T08:41:48Z</time>
      </trkpt>
      <trkpt lat="41.553954000" lon="1.853252000">
        <ele>262.50</ele>
        <time>2013-04-21T08:41:54Z</time>
      </trkpt>
      <trkpt lat="41.553820000" lon="1.853075000">
        <ele>261.60</ele>
        <time>2013-04-21T08:42:00Z</time>
      </trkpt>
      <trkpt lat="41.553781000" lon="1.852799000">
        <ele>257.80</ele>
        <time>2013-04-21T08:42:05Z</time>
      </trkpt>
      <trkpt lat="41.553859000" lon="1.852516000">
        <ele>256.20</ele>
        <time>2013-04-21T08:42:09Z</time>
      </trkpt>
      <trkpt lat="41.553970000" lon="1.852260000">
        <ele>255.90</ele>
        <time>2013-04-21T08:42:13Z</time>
      </trkpt>
      <trkpt lat="41.554082000" lon="1.852033000">
        <ele>255.60</ele>
        <time>2013-04-21T08:42:17Z</time>
      </trkpt>
      <trkpt lat="41.554127000" lon="1.851773000">
        <ele>256.00</ele>
        <time>2013-04-21T08:42:22Z</time>
      </trkpt>
      <trkpt lat="41.554195000" lon="1.851530000">
        <ele>254.50</ele>
        <time>2013-04-21T08:42:26Z</time>
      </trkpt>
      <trkpt lat="41.554149000" lon="1.851271000">
        <ele>252.90</ele>
        <time>2013-04-21T08:42:30Z</time>
      </trkpt>
      <trkpt lat="41.554060000" lon="1.851019000">
        <ele>252.60</ele>
        <time>2013-04-21T08:42:34Z</time>
      </trkpt>
      <trkpt lat="41.554026000" lon="1.850747000">
        <ele>253.20</ele>
        <time>2013-04-21T08:42:38Z</time>
      </trkpt>
      <trkpt lat="41.554009000" lon="1.850482000">
        <ele>258.50</ele>
        <time>2013-04-21T08:42:45Z</time>
      </trkpt>
      <trkpt lat="41.553936000" lon="1.850459000">
        <ele>258.70</ele>
        <time>2013-04-21T08:42:55Z</time>
      </trkpt>
      <trkpt lat="41.553806000" lon="1.850662000">
        <ele>257.00</ele>
        <time>2013-04-21T08:43:03Z</time>
      </trkpt>
      <trkpt lat="41.553693000" lon="1.850848000">
        <ele>255.50</ele>
        <time>2013-04-21T08:43:09Z</time>
      </trkpt>
      <trkpt lat="41.553521000" lon="1.851014000">
        <ele>253.90</ele>
        <time>2013-04-21T08:43:16Z</time>
      </trkpt>
      <trkpt lat="41.553374000" lon="1.850864000">
        <ele>252.30</ele>
        <time>2013-04-21T08:43:23Z</time>
      </trkpt>
      <trkpt lat="41.553289000" lon="1.850600000">
        <ele>247.40</ele>
        <time>2013-04-21T08:43:29Z</time>
      </trkpt>
      <trkpt lat="41.553241000" lon="1.850330000">
        <ele>246.90</ele>
        <time>2013-04-21T08:43:33Z</time>
      </trkpt>
      <trkpt lat="41.553268000" lon="1.850046000">
        <ele>247.60</ele>
        <time>2013-04-21T08:43:38Z</time>
      </trkpt>
      <trkpt lat="41.553290000" lon="1.849783000">
        <ele>247.50</ele>
        <time>2013-04-21T08:43:43Z</time>
      </trkpt>
      <trkpt lat="41.553294000" lon="1.849536000">
        <ele>247.40</ele>
        <time>2013-04-21T08:43:48Z</time>
      </trkpt>
      <trkpt lat="41.553394000" lon="1.849337000">
        <ele>248.50</ele>
        <time>2013-04-21T08:43:54Z</time>
      </trkpt>
      <trkpt lat="41.553574000" lon="1.849318000">
        <ele>249.80</ele>
        <time>2013-04-21T08:44:00Z</time>
      </trkpt>
      <trkpt lat="41.553770000" lon="1.849327000">
        <ele>249.90</ele>
        <time>2013-04-21T08:44:06Z</time>
      </trkpt>
      <trkpt lat="41.553934000" lon="1.849196000">
        <ele>250.60</ele>
        <time>2013-04-21T08:44:12Z</time>
      </trkpt>
      <trkpt lat="41.554070000" lon="1.849016000">
        <ele>251.10</ele>
        <time>2013-04-21T08:44:18Z</time>
      </trkpt>
      <trkpt lat="41.554205000" lon="1.848857000">
        <ele>251.60</ele>
        <time>2013-04-21T08:44:24Z</time>
      </trkpt>
      <trkpt lat="41.554343000" lon="1.848688000">
        <ele>252.40</ele>
        <time>2013-04-21T08:44:30Z</time>
      </trkpt>
      <trkpt lat="41.554477000" lon="1.848510000">
        <ele>253.30</ele>
        <time>2013-04-21T08:44:36Z</time>
      </trkpt>
      <trkpt lat="41.554481000" lon="1.848274000">
        <ele>253.30</ele>
        <time>2013-04-21T08:44:42Z</time>
      </trkpt>
      <trkpt lat="41.554383000" lon="1.848042000">
        <ele>253.30</ele>
        <time>2013-04-21T08:44:48Z</time>
      </trkpt>
      <trkpt lat="41.554319000" lon="1.847762000">
        <ele>253.40</ele>
        <time>2013-04-21T08:44:54Z</time>
      </trkpt>
      <trkpt lat="41.554226000" lon="1.847558000">
        <ele>252.80</ele>
        <time>2013-04-21T08:44:59Z</time>
      </trkpt>
      <trkpt lat="41.554146000" lon="1.847338000">
        <ele>253.10</ele>
        <time>2013-04-21T08:45:04Z</time>
      </trkpt>
      <trkpt lat="41.554068000" lon="1.847099000">
        <ele>253.30</ele>
        <time>2013-04-21T08:45:09Z</time>
      </trkpt>
      <trkpt lat="41.553980000" lon="1.846890000">
        <ele>253.60</ele>
        <time>2013-04-21T08:45:14Z</time>
      </trkpt>
      <trkpt lat="41.553795000" lon="1.846731000">
        <ele>254.50</ele>
        <time>2013-04-21T08:45:20Z</time>
      </trkpt>
      <trkpt lat="41.553673000" lon="1.846526000">
        <ele>254.00</ele>
        <time>2013-04-21T08:45:26Z</time>
      </trkpt>
      <trkpt lat="41.553671000" lon="1.846269000">
        <ele>254.00</ele>
        <time>2013-04-21T08:45:31Z</time>
      </trkpt>
      <trkpt lat="41.553670000" lon="1.846004000">
        <ele>254.50</ele>
        <time>2013-04-21T08:45:36Z</time>
      </trkpt>
      <trkpt lat="41.553681000" lon="1.845743000">
        <ele>254.50</ele>
        <time>2013-04-21T08:45:41Z</time>
      </trkpt>
      <trkpt lat="41.553703000" lon="1.845463000">
        <ele>256.10</ele>
        <time>2013-04-21T08:45:47Z</time>
      </trkpt>
      <trkpt lat="41.553739000" lon="1.845213000">
        <ele>257.60</ele>
        <time>2013-04-21T08:45:53Z</time>
      </trkpt>
      <trkpt lat="41.553780000" lon="1.844955000">
        <ele>258.00</ele>
        <time>2013-04-21T08:45:59Z</time>
      </trkpt>
      <trkpt lat="41.553814000" lon="1.844709000">
        <ele>258.80</ele>
        <time>2013-04-21T08:46:05Z</time>
      </trkpt>
      <trkpt lat="41.553845000" lon="1.844457000">
        <ele>259.40</ele>
        <time>2013-04-21T08:46:11Z</time>
      </trkpt>
      <trkpt lat="41.553872000" lon="1.844218000">
        <ele>260.00</ele>
        <time>2013-04-21T08:46:17Z</time>
      </trkpt>
      <trkpt lat="41.553912000" lon="1.843992000">
        <ele>260.80</ele>
        <time>2013-04-21T08:46:23Z</time>
      </trkpt>
      <trkpt lat="41.553978000" lon="1.843773000">
        <ele>261.50</ele>
        <time>2013-04-21T08:46:29Z</time>
      </trkpt>
      <trkpt lat="41.554084000" lon="1.843574000">
        <ele>261.90</ele>
        <time>2013-04-21T08:46:35Z</time>
      </trkpt>
      <trkpt lat="41.554177000" lon="1.843358000">
        <ele>262.70</ele>
        <time>2013-04-21T08:46:41Z</time>
      </trkpt>
      <trkpt lat="41.554272000" lon="1.843118000">
        <ele>263.10</ele>
        <time>2013-04-21T08:46:47Z</time>
      </trkpt>
      <trkpt lat="41.554391000" lon="1.842895000">
        <ele>263.60</ele>
        <time>2013-04-21T08:46:53Z</time>
      </trkpt>
      <trkpt lat="41.554491000" lon="1.842678000">
        <ele>264.00</ele>
        <time>2013-04-21T08:46:59Z</time>
      </trkpt>
      <trkpt lat="41.554588000" lon="1.842455000">
        <ele>264.60</ele>
        <time>2013-04-21T08:47:05Z</time>
      </trkpt>
      <trkpt lat="41.554685000" lon="1.842248000">
        <ele>265.30</ele>
        <time>2013-04-21T08:47:11Z</time>
      </trkpt>
      <trkpt lat="41.554772000" lon="1.842032000">
        <ele>266.00</ele>
        <time>2013-04-21T08:47:17Z</time>
      </trkpt>
      <trkpt lat="41.554869000" lon="1.841821000">
        <ele>266.50</ele>
        <time>2013-04-21T08:47:23Z</time>
      </trkpt>
      <trkpt lat="41.554960000" lon="1.841614000">
        <ele>266.90</ele>
        <time>2013-04-21T08:47:29Z</time>
      </trkpt>
      <trkpt lat="41.555055000" lon="1.841400000">
        <ele>267.80</ele>
        <time>2013-04-21T08:47:35Z</time>
      </trkpt>
      <trkpt lat="41.555152000" lon="1.841189000">
        <ele>268.80</ele>
        <time>2013-04-21T08:47:41Z</time>
      </trkpt>
      <trkpt lat="41.555274000" lon="1.840954000">
        <ele>270.10</ele>
        <time>2013-04-21T08:47:48Z</time>
      </trkpt>
      <trkpt lat="41.555408000" lon="1.840732000">
        <ele>271.40</ele>
        <time>2013-04-21T08:47:55Z</time>
      </trkpt>
      <trkpt lat="41.555529000" lon="1.840537000">
        <ele>272.50</ele>
        <time>2013-04-21T08:48:02Z</time>
      </trkpt>
      <trkpt lat="41.555657000" lon="1.840308000">
        <ele>273.20</ele>
        <time>2013-04-21T08:48:09Z</time>
      </trkpt>
      <trkpt lat="41.555794000" lon="1.840098000">
        <ele>274.40</ele>
        <time>2013-04-21T08:48:16Z</time>
      </trkpt>
      <trkpt lat="41.555932000" lon="1.839899000">
        <ele>275.10</ele>
        <time>2013-04-21T08:48:23Z</time>
      </trkpt>
      <trkpt lat="41.556055000" lon="1.839706000">
        <ele>276.20</ele>
        <time>2013-04-21T08:48:30Z</time>
      </trkpt>
      <trkpt lat="41.556186000" lon="1.839521000">
        <ele>277.20</ele>
        <time>2013-04-21T08:48:37Z</time>
      </trkpt>
      <trkpt lat="41.556319000" lon="1.839341000">
        <ele>278.10</ele>
        <time>2013-04-21T08:48:44Z</time>
      </trkpt>
      <trkpt lat="41.556476000" lon="1.839188000">
        <ele>279.00</ele>
        <time>2013-04-21T08:48:51Z</time>
      </trkpt>
      <trkpt lat="41.556599000" lon="1.838994000">
        <ele>280.30</ele>
        <time>2013-04-21T08:48:58Z</time>
      </trkpt>
      <trkpt lat="41.556745000" lon="1.838818000">
        <ele>281.50</ele>
        <time>2013-04-21T08:49:05Z</time>
      </trkpt>
      <trkpt lat="41.556895000" lon="1.838671000">
        <ele>282.30</ele>
        <time>2013-04-21T08:49:12Z</time>
      </trkpt>
      <trkpt lat="41.557073000" lon="1.838502000">
        <ele>283.60</ele>
        <time>2013-04-21T08:49:20Z</time>
      </trkpt>
      <trkpt lat="41.557219000" lon="1.838368000">
        <ele>284.50</ele>
        <time>2013-04-21T08:49:27Z</time>
      </trkpt>
      <trkpt lat="41.557399000" lon="1.838246000">
        <ele>285.50</ele>
        <time>2013-04-21T08:49:34Z</time>
      </trkpt>
      <trkpt lat="41.557569000" lon="1.838100000">
        <ele>285.20</ele>
        <time>2013-04-21T08:49:40Z</time>
      </trkpt>
      <trkpt lat="41.557737000" lon="1.837963000">
        <ele>286.10</ele>
        <time>2013-04-21T08:49:45Z</time>
      </trkpt>
      <trkpt lat="41.557914000" lon="1.837799000">
        <ele>286.70</ele>
        <time>2013-04-21T08:49:51Z</time>
      </trkpt>
      <trkpt lat="41.558075000" lon="1.837663000">
        <ele>288.60</ele>
        <time>2013-04-21T08:49:57Z</time>
      </trkpt>
      <trkpt lat="41.558257000" lon="1.837579000">
        <ele>287.90</ele>
        <time>2013-04-21T08:50:03Z</time>
      </trkpt>
      <trkpt lat="41.558427000" lon="1.837417000">
        <ele>289.20</ele>
        <time>2013-04-21T08:50:09Z</time>
      </trkpt>
      <trkpt lat="41.558542000" lon="1.837189000">
        <ele>291.90</ele>
        <time>2013-04-21T08:50:16Z</time>
      </trkpt>
      <trkpt lat="41.558668000" lon="1.836978000">
        <ele>292.70</ele>
        <time>2013-04-21T08:50:24Z</time>
      </trkpt>
      <trkpt lat="41.558875000" lon="1.836891000">
        <ele>290.90</ele>
        <time>2013-04-21T08:50:30Z</time>
      </trkpt>
      <trkpt lat="41.559071000" lon="1.836849000">
        <ele>290.10</ele>
        <time>2013-04-21T08:50:34Z</time>
      </trkpt>
      <trkpt lat="41.559250000" lon="1.836750000">
        <ele>292.70</ele>
        <time>2013-04-21T08:50:39Z</time>
      </trkpt>
      <trkpt lat="41.559391000" lon="1.836600000">
        <ele>295.10</ele>
        <time>2013-04-21T08:50:46Z</time>
      </trkpt>
      <trkpt lat="41.559544000" lon="1.836447000">
        <ele>297.40</ele>
        <time>2013-04-21T08:50:54Z</time>
      </trkpt>
      <trkpt lat="41.559619000" lon="1.836222000">
        <ele>298.60</ele>
        <time>2013-04-21T08:51:02Z</time>
      </trkpt>
      <trkpt lat="41.559721000" lon="1.836003000">
        <ele>300.40</ele>
        <time>2013-04-21T08:51:10Z</time>
      </trkpt>
      <trkpt lat="41.559807000" lon="1.835778000">
        <ele>301.80</ele>
        <time>2013-04-21T08:51:18Z</time>
      </trkpt>
      <trkpt lat="41.559932000" lon="1.835587000">
        <ele>303.30</ele>
        <time>2013-04-21T08:51:27Z</time>
      </trkpt>
      <trkpt lat="41.560069000" lon="1.835735000">
        <ele>303.50</ele>
        <time>2013-04-21T08:51:38Z</time>
      </trkpt>
      <trkpt lat="41.560216000" lon="1.835909000">
        <ele>303.80</ele>
        <time>2013-04-21T08:51:49Z</time>
      </trkpt>
      <trkpt lat="41.560335000" lon="1.836088000">
        <ele>303.60</ele>
        <time>2013-04-21T08:51:59Z</time>
      </trkpt>
      <trkpt lat="41.560471000" lon="1.836271000">
        <ele>303.80</ele>
        <time>2013-04-21T08:52:10Z</time>
      </trkpt>
      <trkpt lat="41.560605000" lon="1.836466000">
        <ele>303.00</ele>
        <time>2013-04-21T08:52:19Z</time>
      </trkpt>
      <trkpt lat="41.560749000" lon="1.836661000">
        <ele>303.00</ele>
        <time>2013-04-21T08:52:27Z</time>
      </trkpt>
      <trkpt lat="41.560917000" lon="1.836723000">
        <ele>303.40</ele>
        <time>2013-04-21T08:52:35Z</time>
      </trkpt>
      <trkpt lat="41.561087000" lon="1.836642000">
        <ele>304.40</ele>
        <time>2013-04-21T08:52:42Z</time>
      </trkpt>
      <trkpt lat="41.561228000" lon="1.836452000">
        <ele>307.00</ele>
        <time>2013-04-21T08:52:50Z</time>
      </trkpt>
      <trkpt lat="41.561352000" lon="1.836239000">
        <ele>307.50</ele>
        <time>2013-04-21T08:52:58Z</time>
      </trkpt>
      <trkpt lat="41.561456000" lon="1.836019000">
        <ele>309.40</ele>
        <time>2013-04-21T08:53:07Z</time>
      </trkpt>
      <trkpt lat="41.561555000" lon="1.835790000">
        <ele>310.90</ele>
        <time>2013-04-21T08:53:16Z</time>
      </trkpt>
      <trkpt lat="41.561649000" lon="1.835589000">
        <ele>312.20</ele>
        <time>2013-04-21T08:53:24Z</time>
      </trkpt>
      <trkpt lat="41.561756000" lon="1.835370000">
        <ele>313.50</ele>
        <time>2013-04-21T08:53:33Z</time>
      </trkpt>
      <trkpt lat="41.561833000" lon="1.835115000">
        <ele>314.50</ele>
        <time>2013-04-21T08:53:42Z</time>
      </trkpt>
      <trkpt lat="41.561916000" lon="1.834869000">
        <ele>315.20</ele>
        <time>2013-04-21T08:53:50Z</time>
      </trkpt>
      <trkpt lat="41.562010000" lon="1.834633000">
        <ele>316.60</ele>
        <time>2013-04-21T08:53:58Z</time>
      </trkpt>
      <trkpt lat="41.562106000" lon="1.834405000">
        <ele>317.70</ele>
        <time>2013-04-21T08:54:06Z</time>
      </trkpt>
      <trkpt lat="41.562205000" lon="1.834184000">
        <ele>319.70</ele>
        <time>2013-04-21T08:54:14Z</time>
      </trkpt>
      <trkpt lat="41.562299000" lon="1.833967000">
        <ele>320.40</ele>
        <time>2013-04-21T08:54:22Z</time>
      </trkpt>
      <trkpt lat="41.562370000" lon="1.833726000">
        <ele>322.20</ele>
        <time>2013-04-21T08:54:30Z</time>
      </trkpt>
      <trkpt lat="41.562409000" lon="1.833472000">
        <ele>323.20</ele>
        <time>2013-04-21T08:54:38Z</time>
      </trkpt>
      <trkpt lat="41.562455000" lon="1.833216000">
        <ele>324.70</ele>
        <time>2013-04-21T08:54:46Z</time>
      </trkpt>
      <trkpt lat="41.562503000" lon="1.832964000">
        <ele>326.10</ele>
        <time>2013-04-21T08:54:54Z</time>
      </trkpt>
      <trkpt lat="41.562549000" lon="1.832728000">
        <ele>327.30</ele>
        <time>2013-04-21T08:55:02Z</time>
      </trkpt>
      <trkpt lat="41.562643000" lon="1.832545000">
        <ele>328.50</ele>
        <time>2013-04-21T08:55:11Z</time>
      </trkpt>
      <trkpt lat="41.562826000" lon="1.832475000">
        <ele>329.30</ele>
        <time>2013-04-21T08:55:20Z</time>
      </trkpt>
      <trkpt lat="41.563002000" lon="1.832424000">
        <ele>329.70</ele>
        <time>2013-04-21T08:55:28Z</time>
      </trkpt>
      <trkpt lat="41.563192000" lon="1.832443000">
        <ele>330.50</ele>
        <time>2013-04-21T08:55:36Z</time>
      </trkpt>
      <trkpt lat="41.563381000" lon="1.832407000">
        <ele>331.00</ele>
        <time>2013-04-21T08:55:45Z</time>
      </trkpt>
      <trkpt lat="41.563559000" lon="1.832388000">
        <ele>332.20</ele>
        <time>2013-04-21T08:55:53Z</time>
      </trkpt>
      <trkpt lat="41.563751000" lon="1.832319000">
        <ele>333.90</ele>
        <time>2013-04-21T08:56:02Z</time>
      </trkpt>
      <trkpt lat="41.563903000" lon="1.832168000">
        <ele>335.40</ele>
        <time>2013-04-21T08:56:10Z</time>
      </trkpt>
      <trkpt lat="41.564035000" lon="1.832003000">
        <ele>336.80</ele>
        <time>2013-04-21T08:56:18Z</time>
      </trkpt>
      <trkpt lat="41.564189000" lon="1.831833000">
        <ele>338.60</ele>
        <time>2013-04-21T08:56:27Z</time>
      </trkpt>
      <trkpt lat="41.564255000" lon="1.831627000">
        <ele>342.00</ele>
        <time>2013-04-21T08:56:36Z</time>
      </trkpt>
      <trkpt lat="41.564145000" lon="1.831447000">
        <ele>340.60</ele>
        <time>2013-04-21T08:56:45Z</time>
      </trkpt>
      <trkpt lat="41.564138000" lon="1.831203000">
        <ele>340.70</ele>
        <time>2013-04-21T08:56:51Z</time>
      </trkpt>
      <trkpt lat="41.564189000" lon="1.830954000">
        <ele>341.90</ele>
        <time>2013-04-21T08:56:58Z</time>
      </trkpt>
      <trkpt lat="41.564227000" lon="1.830693000">
        <ele>342.20</ele>
        <time>2013-04-21T08:57:05Z</time>
      </trkpt>
      <trkpt lat="41.564263000" lon="1.830436000">
        <ele>343.20</ele>
        <time>2013-04-21T08:57:12Z</time>
      </trkpt>
      <trkpt lat="41.564312000" lon="1.830200000">
        <ele>344.00</ele>
        <time>2013-04-21T08:57:19Z</time>
      </trkpt>
      <trkpt lat="41.564360000" lon="1.829939000">
        <ele>344.80</ele>
        <time>2013-04-21T08:57:27Z</time>
      </trkpt>
      <trkpt lat="41.564408000" lon="1.829686000">
        <ele>345.70</ele>
        <time>2013-04-21T08:57:35Z</time>
      </trkpt>
      <trkpt lat="41.564447000" lon="1.829416000">
        <ele>346.50</ele>
        <time>2013-04-21T08:57:43Z</time>
      </trkpt>
      <trkpt lat="41.564480000" lon="1.829155000">
        <ele>346.90</ele>
        <time>2013-04-21T08:57:51Z</time>
      </trkpt>
      <trkpt lat="41.564519000" lon="1.828905000">
        <ele>347.40</ele>
        <time>2013-04-21T08:57:58Z</time>
      </trkpt>
      <trkpt lat="41.564570000" lon="1.828646000">
        <ele>347.70</ele>
        <time>2013-04-21T08:58:05Z</time>
      </trkpt>
      <trkpt lat="41.564606000" lon="1.828409000">
        <ele>347.70</ele>
        <time>2013-04-21T08:58:11Z</time>
      </trkpt>
      <trkpt lat="41.564656000" lon="1.828161000">
        <ele>347.90</ele>
        <time>2013-04-21T08:58:17Z</time>
      </trkpt>
      <trkpt lat="41.564701000" lon="1.827900000">
        <ele>348.30</ele>
        <time>2013-04-21T08:58:23Z</time>
      </trkpt>
      <trkpt lat="41.564743000" lon="1.827628000">
        <ele>348.30</ele>
        <time>2013-04-21T08:58:29Z</time>
      </trkpt>
      <trkpt lat="41.564789000" lon="1.827357000">
        <ele>348.70</ele>
        <time>2013-04-21T08:58:35Z</time>
      </trkpt>
      <trkpt lat="41.564829000" lon="1.827091000">
        <ele>348.80</ele>
        <time>2013-04-21T08:58:41Z</time>
      </trkpt>
      <trkpt lat="41.564882000" lon="1.826827000">
        <ele>349.10</ele>
        <time>2013-04-21T08:58:47Z</time>
      </trkpt>
      <trkpt lat="41.564916000" lon="1.826562000">
        <ele>349.30</ele>
        <time>2013-04-21T08:58:53Z</time>
      </trkpt>
      <trkpt lat="41.564949000" lon="1.826327000">
        <ele>349.90</ele>
        <time>2013-04-21T08:59:00Z</time>
      </trkpt>
      <trkpt lat="41.564996000" lon="1.826078000">
        <ele>348.70</ele>
        <time>2013-04-21T08:59:06Z</time>
      </trkpt>
      <trkpt lat="41.565034000" lon="1.825820000">
        <ele>347.80</ele>
        <time>2013-04-21T08:59:11Z</time>
      </trkpt>
      <trkpt lat="41.565063000" lon="1.825561000">
        <ele>347.20</ele>
        <time>2013-04-21T08:59:16Z</time>
      </trkpt>
      <trkpt lat="41.565106000" lon="1.825279000">
        <ele>346.60</ele>
        <time>2013-04-21T08:59:21Z</time>
      </trkpt>
      <trkpt lat="41.565283000" lon="1.825168000">
        <ele>346.90</ele>
        <time>2013-04-21T08:59:26Z</time>
      </trkpt>
      <trkpt lat="41.565455000" lon="1.825077000">
        <ele>347.70</ele>
        <time>2013-04-21T08:59:31Z</time>
      </trkpt>
      <trkpt lat="41.565647000" lon="1.824954000">
        <ele>348.40</ele>
        <time>2013-04-21T08:59:37Z</time>
      </trkpt>
      <trkpt lat="41.565816000" lon="1.824805000">
        <ele>349.70</ele>
        <time>2013-04-21T08:59:43Z</time>
      </trkpt>
      <trkpt lat="41.565987000" lon="1.824668000">
        <ele>349.70</ele>
        <time>2013-04-21T08:59:49Z</time>
      </trkpt>
      <trkpt lat="41.566165000" lon="1.824576000">
        <ele>350.60</ele>
        <time>2013-04-21T08:59:55Z</time>
      </trkpt>
      <trkpt lat="41.566319000" lon="1.824464000">
        <ele>352.00</ele>
        <time>2013-04-21T09:00:01Z</time>
      </trkpt>
      <trkpt lat="41.566493000" lon="1.824345000">
        <ele>353.40</ele>
        <time>2013-04-21T09:00:08Z</time>
      </trkpt>
      <trkpt lat="41.566656000" lon="1.824231000">
        <ele>355.20</ele>
        <time>2013-04-21T09:00:15Z</time>
      </trkpt>
      <trkpt lat="41.566811000" lon="1.824079000">
        <ele>356.10</ele>
        <time>2013-04-21T09:00:26Z</time>
      </trkpt>
      <trkpt lat="41.566982000" lon="1.823945000">
        <ele>357.90</ele>
        <time>2013-04-21T09:00:34Z</time>
      </trkpt>
      <trkpt lat="41.567153000" lon="1.823828000">
        <ele>359.50</ele>
        <time>2013-04-21T09:00:42Z</time>
      </trkpt>
      <trkpt lat="41.567322000" lon="1.823720000">
        <ele>361.30</ele>
        <time>2013-04-21T09:00:50Z</time>
      </trkpt>
      <trkpt lat="41.567485000" lon="1.823610000">
        <ele>362.80</ele>
        <time>2013-04-21T09:00:58Z</time>
      </trkpt>
      <trkpt lat="41.567648000" lon="1.823501000">
        <ele>364.50</ele>
        <time>2013-04-21T09:01:06Z</time>
      </trkpt>
      <trkpt lat="41.567827000" lon="1.823400000">
        <ele>366.50</ele>
        <time>2013-04-21T09:01:15Z</time>
      </trkpt>
      <trkpt lat="41.568020000" lon="1.823353000">
        <ele>367.60</ele>
        <time>2013-04-21T09:01:24Z</time>
      </trkpt>
      <trkpt lat="41.568197000" lon="1.823287000">
        <ele>369.80</ele>
        <time>2013-04-21T09:01:33Z</time>
      </trkpt>
      <trkpt lat="41.568375000" lon="1.823214000">
        <ele>371.60</ele>
        <time>2013-04-21T09:01:42Z</time>
      </trkpt>
      <trkpt lat="41.568630000" lon="1.823158000">
        <ele>372.70</ele>
        <time>2013-04-21T09:01:54Z</time>
      </trkpt>
      <trkpt lat="41.568824000" lon="1.823099000">
        <ele>375.70</ele>
        <time>2013-04-21T09:02:03Z</time>
      </trkpt>
      <trkpt lat="41.569011000" lon="1.823037000">
        <ele>377.70</ele>
        <time>2013-04-21T09:02:12Z</time>
      </trkpt>
      <trkpt lat="41.569168000" lon="1.823077000">
        <ele>378.80</ele>
        <time>2013-04-21T09:02:22Z</time>
      </trkpt>
      <trkpt lat="41.569223000" lon="1.823309000">
        <ele>379.50</ele>
        <time>2013-04-21T09:02:30Z</time>
      </trkpt>
      <trkpt lat="41.569302000" lon="1.823538000">
        <ele>379.70</ele>
        <time>2013-04-21T09:02:39Z</time>
      </trkpt>
      <trkpt lat="41.569337000" lon="1.823793000">
        <ele>380.30</ele>
        <time>2013-04-21T09:02:46Z</time>
      </trkpt>
      <trkpt lat="41.569361000" lon="1.824033000">
        <ele>381.30</ele>
        <time>2013-04-21T09:02:53Z</time>
      </trkpt>
      <trkpt lat="41.569380000" lon="1.824290000">
        <ele>381.70</ele>
        <time>2013-04-21T09:03:00Z</time>
      </trkpt>
      <trkpt lat="41.569396000" lon="1.824542000">
        <ele>382.20</ele>
        <time>2013-04-21T09:03:07Z</time>
      </trkpt>
      <trkpt lat="41.569415000" lon="1.824785000">
        <ele>382.60</ele>
        <time>2013-04-21T09:03:14Z</time>
      </trkpt>
      <trkpt lat="41.569423000" lon="1.825056000">
        <ele>382.80</ele>
        <time>2013-04-21T09:03:22Z</time>
      </trkpt>
      <trkpt lat="41.569431000" lon="1.825309000">
        <ele>383.20</ele>
        <time>2013-04-21T09:03:29Z</time>
      </trkpt>
      <trkpt lat="41.569442000" lon="1.825549000">
        <ele>383.50</ele>
        <time>2013-04-21T09:03:36Z</time>
      </trkpt>
      <trkpt lat="41.569436000" lon="1.825794000">
        <ele>383.60</ele>
        <time>2013-04-21T09:03:43Z</time>
      </trkpt>
      <trkpt lat="41.569431000" lon="1.826059000">
        <ele>383.90</ele>
        <time>2013-04-21T09:03:50Z</time>
      </trkpt>
      <trkpt lat="41.569489000" lon="1.826037000">
        <ele>384.10</ele>
        <time>2013-04-21T09:03:59Z</time>
      </trkpt>
      <trkpt lat="41.569551000" lon="1.825804000">
        <ele>385.70</ele>
        <time>2013-04-21T09:04:06Z</time>
      </trkpt>
      <trkpt lat="41.569617000" lon="1.825570000">
        <ele>387.40</ele>
        <time>2013-04-21T09:04:14Z</time>
      </trkpt>
      <trkpt lat="41.569634000" lon="1.825325000">
        <ele>388.90</ele>
        <time>2013-04-21T09:04:22Z</time>
      </trkpt>
      <trkpt lat="41.569608000" lon="1.825086000">
        <ele>388.50</ele>
        <time>2013-04-21T09:04:29Z</time>
      </trkpt>
      <trkpt lat="41.569590000" lon="1.824809000">
        <ele>388.80</ele>
        <time>2013-04-21T09:04:36Z</time>
      </trkpt>
      <trkpt lat="41.569577000" lon="1.824563000">
        <ele>387.10</ele>
        <time>2013-04-21T09:04:42Z</time>
      </trkpt>
      <trkpt lat="41.569554000" lon="1.824318000">
        <ele>386.70</ele>
        <time>2013-04-21T09:04:47Z</time>
      </trkpt>
      <trkpt lat="41.569555000" lon="1.824044000">
        <ele>385.70</ele>
        <time>2013-04-21T09:04:52Z</time>
      </trkpt>
      <trkpt lat="41.569538000" lon="1.823787000">
        <ele>386.00</ele>
        <time>2013-04-21T09:04:57Z</time>
      </trkpt>
      <trkpt lat="41.569541000" lon="1.823510000">
        <ele>385.60</ele>
        <time>2013-04-21T09:05:03Z</time>
      </trkpt>
      <trkpt lat="41.569570000" lon="1.823253000">
        <ele>385.10</ele>
        <time>2013-04-21T09:05:08Z</time>
      </trkpt>
      <trkpt lat="41.569664000" lon="1.823034000">
        <ele>386.50</ele>
        <time>2013-04-21T09:05:14Z</time>
      </trkpt>
      <trkpt lat="41.569737000" lon="1.822804000">
        <ele>386.90</ele>
        <time>2013-04-21T09:05:20Z</time>
      </trkpt>
      <trkpt lat="41.569821000" lon="1.822556000">
        <ele>387.00</ele>
        <time>2013-04-21T09:05:26Z</time>
      </trkpt>
      <trkpt lat="41.569895000" lon="1.822337000">
        <ele>386.40</ele>
        <time>2013-04-21T09:05:31Z</time>
      </trkpt>
      <trkpt lat="41.569969000" lon="1.822106000">
        <ele>386.10</ele>
        <time>2013-04-21T09:05:36Z</time>
      </trkpt>
      <trkpt lat="41.570047000" lon="1.821880000">
        <ele>386.30</ele>
        <time>2013-04-21T09:05:41Z</time>
      </trkpt>
      <trkpt lat="41.570109000" lon="1.821630000">
        <ele>386.20</ele>
        <time>2013-04-21T09:05:47Z</time>
      </trkpt>
      <trkpt lat="41.570117000" lon="1.821371000">
        <ele>387.30</ele>
        <time>2013-04-21T09:05:55Z</time>
      </trkpt>
      <trkpt lat="41.570119000" lon="1.821094000">
        <ele>386.30</ele>
        <time>2013-04-21T09:06:01Z</time>
      </trkpt>
      <trkpt lat="41.570115000" lon="1.820808000">
        <ele>386.10</ele>
        <time>2013-04-21T09:06:07Z</time>
      </trkpt>
      <trkpt lat="41.570065000" lon="1.820524000">
        <ele>385.90</ele>
        <time>2013-04-21T09:06:13Z</time>
      </trkpt>
      <trkpt lat="41.570179000" lon="1.820362000">
        <ele>386.20</ele>
        <time>2013-04-21T09:06:18Z</time>
      </trkpt>
      <trkpt lat="41.570263000" lon="1.820136000">
        <ele>388.10</ele>
        <time>2013-04-21T09:06:24Z</time>
      </trkpt>
      <trkpt lat="41.570287000" lon="1.819870000">
        <ele>387.60</ele>
        <time>2013-04-21T09:06:30Z</time>
      </trkpt>
      <trkpt lat="41.570314000" lon="1.819602000">
        <ele>386.90</ele>
        <time>2013-04-21T09:06:35Z</time>
      </trkpt>
      <trkpt lat="41.570349000" lon="1.819306000">
        <ele>386.20</ele>
        <time>2013-04-21T09:06:40Z</time>
      </trkpt>
      <trkpt lat="41.570371000" lon="1.819008000">
        <ele>386.20</ele>
        <time>2013-04-21T09:06:45Z</time>
      </trkpt>
      <trkpt lat="41.570375000" lon="1.818736000">
        <ele>386.90</ele>
        <time>2013-04-21T09:06:50Z</time>
      </trkpt>
      <trkpt lat="41.570399000" lon="1.818484000">
        <ele>387.50</ele>
        <time>2013-04-21T09:06:55Z</time>
      </trkpt>
      <trkpt lat="41.570425000" lon="1.818234000">
        <ele>388.30</ele>
        <time>2013-04-21T09:07:00Z</time>
      </trkpt>
      <trkpt lat="41.570440000" lon="1.817952000">
        <ele>389.20</ele>
        <time>2013-04-21T09:07:06Z</time>
      </trkpt>
      <trkpt lat="41.570460000" lon="1.817672000">
        <ele>390.00</ele>
        <time>2013-04-21T09:07:12Z</time>
      </trkpt>
      <trkpt lat="41.570481000" lon="1.817441000">
        <ele>390.30</ele>
        <time>2013-04-21T09:07:17Z</time>
      </trkpt>
      <trkpt lat="41.570539000" lon="1.817168000">
        <ele>390.30</ele>
        <time>2013-04-21T09:07:23Z</time>
      </trkpt>
      <trkpt lat="41.570702000" lon="1.816988000">
        <ele>389.30</ele>
        <time>2013-04-21T09:07:28Z</time>
      </trkpt>
      <trkpt lat="41.570808000" lon="1.816768000">
        <ele>390.90</ele>
        <time>2013-04-21T09:07:33Z</time>
      </trkpt>
      <trkpt lat="41.570901000" lon="1.816566000">
        <ele>393.00</ele>
        <time>2013-04-21T09:07:39Z</time>
      </trkpt>
      <trkpt lat="41.571004000" lon="1.816352000">
        <ele>395.20</ele>
        <time>2013-04-21T09:07:46Z</time>
      </trkpt>
      <trkpt lat="41.571076000" lon="1.816130000">
        <ele>395.30</ele>
        <time>2013-04-21T09:07:53Z</time>
      </trkpt>
      <trkpt lat="41.571167000" lon="1.815882000">
        <ele>395.90</ele>
        <time>2013-04-21T09:08:00Z</time>
      </trkpt>
      <trkpt lat="41.571204000" lon="1.815647000">
        <ele>396.00</ele>
        <time>2013-04-21T09:08:06Z</time>
      </trkpt>
      <trkpt lat="41.571202000" lon="1.815387000">
        <ele>396.40</ele>
        <time>2013-04-21T09:08:12Z</time>
      </trkpt>
      <trkpt lat="41.571182000" lon="1.815125000">
        <ele>396.70</ele>
        <time>2013-04-21T09:08:18Z</time>
      </trkpt>
      <trkpt lat="41.571186000" lon="1.814865000">
        <ele>397.00</ele>
        <time>2013-04-21T09:08:24Z</time>
      </trkpt>
      <trkpt lat="41.571277000" lon="1.814644000">
        <ele>397.90</ele>
        <time>2013-04-21T09:08:30Z</time>
      </trkpt>
      <trkpt lat="41.571341000" lon="1.814423000">
        <ele>399.00</ele>
        <time>2013-04-21T09:08:36Z</time>
      </trkpt>
      <trkpt lat="41.571436000" lon="1.814192000">
        <ele>400.20</ele>
        <time>2013-04-21T09:08:43Z</time>
      </trkpt>
      <trkpt lat="41.571534000" lon="1.813967000">
        <ele>401.10</ele>
        <time>2013-04-21T09:08:50Z</time>
      </trkpt>
      <trkpt lat="41.571623000" lon="1.813725000">
        <ele>402.00</ele>
        <time>2013-04-21T09:08:57Z</time>
      </trkpt>
      <trkpt lat="41.571689000" lon="1.813474000">
        <ele>402.90</ele>
        <time>2013-04-21T09:09:04Z</time>
      </trkpt>
      <trkpt lat="41.571709000" lon="1.813246000">
        <ele>403.80</ele>
        <time>2013-04-21T09:09:13Z</time>
      </trkpt>
      <trkpt lat="41.571767000" lon="1.813359000">
        <ele>403.60</ele>
        <time>2013-04-21T09:09:29Z</time>
      </trkpt>
      <trkpt lat="41.571948000" lon="1.813245000">
        <ele>405.00</ele>
        <time>2013-04-21T09:09:38Z</time>
      </trkpt>
      <trkpt lat="41.572117000" lon="1.813133000">
        <ele>406.60</ele>
        <time>2013-04-21T09:09:47Z</time>
      </trkpt>
      <trkpt lat="41.572293000" lon="1.812999000">
        <ele>408.10</ele>
        <time>2013-04-21T09:09:57Z</time>
      </trkpt>
      <trkpt lat="41.572476000" lon="1.812939000">
        <ele>409.60</ele>
        <time>2013-04-21T09:10:06Z</time>
      </trkpt>
      <trkpt lat="41.572666000" lon="1.812830000">
        <ele>411.00</ele>
        <time>2013-04-21T09:10:15Z</time>
      </trkpt>
      <trkpt lat="41.572854000" lon="1.812743000">
        <ele>412.50</ele>
        <time>2013-04-21T09:10:24Z</time>
      </trkpt>
      <trkpt lat="41.573027000" lon="1.812670000">
        <ele>413.90</ele>
        <time>2013-04-21T09:10:32Z</time>
      </trkpt>
      <trkpt lat="41.573209000" lon="1.812579000">
        <ele>415.40</ele>
        <time>2013-04-21T09:10:40Z</time>
      </trkpt>
      <trkpt lat="41.573389000" lon="1.812502000">
        <ele>416.60</ele>
        <time>2013-04-21T09:10:48Z</time>
      </trkpt>
      <trkpt lat="41.573563000" lon="1.812415000">
        <ele>417.90</ele>
        <time>2013-04-21T09:10:56Z</time>
      </trkpt>
      <trkpt lat="41.573678000" lon="1.812253000">
        <ele>418.90</ele>
        <time>2013-04-21T09:11:05Z</time>
      </trkpt>
      <trkpt lat="41.573666000" lon="1.811991000">
        <ele>418.80</ele>
        <time>2013-04-21T09:11:14Z</time>
      </trkpt>
      <trkpt lat="41.573712000" lon="1.811753000">
        <ele>418.50</ele>
        <time>2013-04-21T09:11:21Z</time>
      </trkpt>
      <trkpt lat="41.573760000" lon="1.811489000">
        <ele>418.10</ele>
        <time>2013-04-21T09:11:27Z</time>
      </trkpt>
      <trkpt lat="41.573804000" lon="1.811235000">
        <ele>417.80</ele>
        <time>2013-04-21T09:11:32Z</time>
      </trkpt>
      <trkpt lat="41.573856000" lon="1.810980000">
        <ele>417.90</ele>
        <time>2013-04-21T09:11:37Z</time>
      </trkpt>
      <trkpt lat="41.573908000" lon="1.810735000">
        <ele>418.10</ele>
        <time>2013-04-21T09:11:42Z</time>
      </trkpt>
      <trkpt lat="41.573967000" lon="1.810488000">
        <ele>418.50</ele>
        <time>2013-04-21T09:11:47Z</time>
      </trkpt>
      <trkpt lat="41.574048000" lon="1.810255000">
        <ele>418.70</ele>
        <time>2013-04-21T09:11:52Z</time>
      </trkpt>
      <trkpt lat="41.574132000" lon="1.810033000">
        <ele>419.00</ele>
        <time>2013-04-21T09:11:57Z</time>
      </trkpt>
      <trkpt lat="41.574217000" lon="1.809805000">
        <ele>418.70</ele>
        <time>2013-04-21T09:12:02Z</time>
      </trkpt>
      <trkpt lat="41.574303000" lon="1.809575000">
        <ele>418.40</ele>
        <time>2013-04-21T09:12:07Z</time>
      </trkpt>
      <trkpt lat="41.574415000" lon="1.809378000">
        <ele>417.20</ele>
        <time>2013-04-21T09:12:11Z</time>
      </trkpt>
      <trkpt lat="41.574569000" lon="1.809134000">
        <ele>414.80</ele>
        <time>2013-04-21T09:12:15Z</time>
      </trkpt>
      <trkpt lat="41.574648000" lon="1.808907000">
        <ele>414.30</ele>
        <time>2013-04-21T09:12:18Z</time>
      </trkpt>
      <trkpt lat="41.574674000" lon="1.808620000">
        <ele>415.60</ele>
        <time>2013-04-21T09:12:22Z</time>
      </trkpt>
      <trkpt lat="41.574659000" lon="1.808331000">
        <ele>417.00</ele>
        <time>2013-04-21T09:12:27Z</time>
      </trkpt>
      <trkpt lat="41.574650000" lon="1.808080000">
        <ele>418.20</ele>
        <time>2013-04-21T09:12:32Z</time>
      </trkpt>
      <trkpt lat="41.574629000" lon="1.807844000">
        <ele>419.00</ele>
        <time>2013-04-21T09:12:37Z</time>
      </trkpt>
      <trkpt lat="41.574589000" lon="1.807569000">
        <ele>419.70</ele>
        <time>2013-04-21T09:12:43Z</time>
      </trkpt>
      <trkpt lat="41.574578000" lon="1.807313000">
        <ele>419.70</ele>
        <time>2013-04-21T09:12:48Z</time>
      </trkpt>
      <trkpt lat="41.574604000" lon="1.807055000">
        <ele>419.30</ele>
        <time>2013-04-21T09:12:53Z</time>
      </trkpt>
      <trkpt lat="41.574657000" lon="1.806793000">
        <ele>419.30</ele>
        <time>2013-04-21T09:12:58Z</time>
      </trkpt>
      <trkpt lat="41.574712000" lon="1.806532000">
        <ele>418.50</ele>
        <time>2013-04-21T09:13:03Z</time>
      </trkpt>
      <trkpt lat="41.574811000" lon="1.806295000">
        <ele>418.40</ele>
        <time>2013-04-21T09:13:08Z</time>
      </trkpt>
      <trkpt lat="41.574957000" lon="1.806128000">
        <ele>419.40</ele>
        <time>2013-04-21T09:13:13Z</time>
      </trkpt>
      <trkpt lat="41.575145000" lon="1.806014000">
        <ele>420.40</ele>
        <time>2013-04-21T09:13:19Z</time>
      </trkpt>
      <trkpt lat="41.575319000" lon="1.805961000">
        <ele>421.40</ele>
        <time>2013-04-21T09:13:25Z</time>
      </trkpt>
      <trkpt lat="41.575524000" lon="1.805931000">
        <ele>422.80</ele>
        <time>2013-04-21T09:13:32Z</time>
      </trkpt>
      <trkpt lat="41.575719000" lon="1.805929000">
        <ele>424.20</ele>
        <time>2013-04-21T09:13:39Z</time>
      </trkpt>
      <trkpt lat="41.575911000" lon="1.805916000">
        <ele>425.20</ele>
        <time>2013-04-21T09:13:46Z</time>
      </trkpt>
      <trkpt lat="41.576100000" lon="1.805866000">
        <ele>426.20</ele>
        <time>2013-04-21T09:13:53Z</time>
      </trkpt>
      <trkpt lat="41.576282000" lon="1.805806000">
        <ele>427.30</ele>
        <time>2013-04-21T09:14:00Z</time>
      </trkpt>
      <trkpt lat="41.576477000" lon="1.805717000">
        <ele>428.80</ele>
        <time>2013-04-21T09:14:08Z</time>
      </trkpt>
      <trkpt lat="41.576645000" lon="1.805638000">
        <ele>429.70</ele>
        <time>2013-04-21T09:14:15Z</time>
      </trkpt>
      <trkpt lat="41.576830000" lon="1.805563000">
        <ele>430.70</ele>
        <time>2013-04-21T09:14:22Z</time>
      </trkpt>
      <trkpt lat="41.577004000" lon="1.805500000">
        <ele>431.60</ele>
        <time>2013-04-21T09:14:29Z</time>
      </trkpt>
      <trkpt lat="41.577177000" lon="1.805453000">
        <ele>432.70</ele>
        <time>2013-04-21T09:14:36Z</time>
      </trkpt>
      <trkpt lat="41.577362000" lon="1.805426000">
        <ele>433.70</ele>
        <time>2013-04-21T09:14:43Z</time>
      </trkpt>
      <trkpt lat="41.577552000" lon="1.805434000">
        <ele>434.70</ele>
        <time>2013-04-21T09:14:50Z</time>
      </trkpt>
      <trkpt lat="41.577731000" lon="1.805448000">
        <ele>435.90</ele>
        <time>2013-04-21T09:14:57Z</time>
      </trkpt>
      <trkpt lat="41.577918000" lon="1.805480000">
        <ele>436.80</ele>
        <time>2013-04-21T09:15:04Z</time>
      </trkpt>
      <trkpt lat="41.578104000" lon="1.805490000">
        <ele>437.90</ele>
        <time>2013-04-21T09:15:11Z</time>
      </trkpt>
      <trkpt lat="41.578286000" lon="1.805560000">
        <ele>438.50</ele>
        <time>2013-04-21T09:15:18Z</time>
      </trkpt>
      <trkpt lat="41.578460000" lon="1.805595000">
        <ele>439.80</ele>
        <time>2013-04-21T09:15:25Z</time>
      </trkpt>
      <trkpt lat="41.578636000" lon="1.805646000">
        <ele>440.90</ele>
        <time>2013-04-21T09:15:32Z</time>
      </trkpt>
      <trkpt lat="41.578840000" lon="1.805685000">
        <ele>442.40</ele>
        <time>2013-04-21T09:15:40Z</time>
      </trkpt>
      <trkpt lat="41.579040000" lon="1.805716000">
        <ele>443.60</ele>
        <time>2013-04-21T09:15:48Z</time>
      </trkpt>
      <trkpt lat="41.579224000" lon="1.805728000">
        <ele>444.80</ele>
        <time>2013-04-21T09:15:55Z</time>
      </trkpt>
      <trkpt lat="41.579404000" lon="1.805753000">
        <ele>446.40</ele>
        <time>2013-04-21T09:16:02Z</time>
      </trkpt>
      <trkpt lat="41.579608000" lon="1.805764000">
        <ele>447.70</ele>
        <time>2013-04-21T09:16:10Z</time>
      </trkpt>
      <trkpt lat="41.579816000" lon="1.805785000">
        <ele>449.30</ele>
        <time>2013-04-21T09:16:18Z</time>
      </trkpt>
      <trkpt lat="41.580012000" lon="1.805790000">
        <ele>450.60</ele>
        <time>2013-04-21T09:16:26Z</time>
      </trkpt>
      <trkpt lat="41.580220000" lon="1.805813000">
        <ele>451.90</ele>
        <time>2013-04-21T09:16:34Z</time>
      </trkpt>
      <trkpt lat="41.580418000" lon="1.805812000">
        <ele>453.20</ele>
        <time>2013-04-21T09:16:42Z</time>
      </trkpt>
      <trkpt lat="41.580606000" lon="1.805779000">
        <ele>455.00</ele>
        <time>2013-04-21T09:16:50Z</time>
      </trkpt>
      <trkpt lat="41.580786000" lon="1.805695000">
        <ele>456.70</ele>
        <time>2013-04-21T09:16:58Z</time>
      </trkpt>
      <trkpt lat="41.580969000" lon="1.805713000">
        <ele>458.30</ele>
        <time>2013-04-21T09:17:07Z</time>
      </trkpt>
      <trkpt lat="41.581063000" lon="1.805944000">
        <ele>459.30</ele>
        <time>2013-04-21T09:17:15Z</time>
      </trkpt>
      <trkpt lat="41.581199000" lon="1.806145000">
        <ele>460.20</ele>
        <time>2013-04-21T09:17:23Z</time>
      </trkpt>
      <trkpt lat="41.581355000" lon="1.806315000">
        <ele>461.00</ele>
        <time>2013-04-21T09:17:31Z</time>
      </trkpt>
      <trkpt lat="41.581515000" lon="1.806464000">
        <ele>462.20</ele>
        <time>2013-04-21T09:17:39Z</time>
      </trkpt>
      <trkpt lat="41.581673000" lon="1.806609000">
        <ele>463.50</ele>
        <time>2013-04-21T09:17:47Z</time>
      </trkpt>
      <trkpt lat="41.581835000" lon="1.806763000">
        <ele>464.50</ele>
        <time>2013-04-21T09:17:55Z</time>
      </trkpt>
      <trkpt lat="41.581990000" lon="1.806929000">
        <ele>465.20</ele>
        <time>2013-04-21T09:18:03Z</time>
      </trkpt>
      <trkpt lat="41.582162000" lon="1.807086000">
        <ele>465.70</ele>
        <time>2013-04-21T09:18:11Z</time>
      </trkpt>
      <trkpt lat="41.582317000" lon="1.807254000">
        <ele>466.70</ele>
        <time>2013-04-21T09:18:19Z</time>
      </trkpt>
      <trkpt lat="41.582459000" lon="1.807418000">
        <ele>467.70</ele>
        <time>2013-04-21T09:18:27Z</time>
      </trkpt>
      <trkpt lat="41.582555000" lon="1.807640000">
        <ele>469.00</ele>
        <time>2013-04-21T09:18:35Z</time>
      </trkpt>
      <trkpt lat="41.582629000" lon="1.807861000">
        <ele>470.60</ele>
        <time>2013-04-21T09:18:43Z</time>
      </trkpt>
      <trkpt lat="41.582708000" lon="1.808098000">
        <ele>472.40</ele>
        <time>2013-04-21T09:18:52Z</time>
      </trkpt>
      <trkpt lat="41.582792000" lon="1.808323000">
        <ele>473.90</ele>
        <time>2013-04-21T09:19:01Z</time>
      </trkpt>
      <trkpt lat="41.582927000" lon="1.808447000">
        <ele>475.80</ele>
        <time>2013-04-21T09:19:11Z</time>
      </trkpt>
      <trkpt lat="41.583079000" lon="1.808312000">
        <ele>476.60</ele>
        <time>2013-04-21T09:19:21Z</time>
      </trkpt>
      <trkpt lat="41.583180000" lon="1.808110000">
        <ele>477.10</ele>
        <time>2013-04-21T09:19:30Z</time>
      </trkpt>
      <trkpt lat="41.583258000" lon="1.807853000">
        <ele>476.60</ele>
        <time>2013-04-21T09:19:38Z</time>
      </trkpt>
      <trkpt lat="41.583322000" lon="1.807627000">
        <ele>476.50</ele>
        <time>2013-04-21T09:19:45Z</time>
      </trkpt>
      <trkpt lat="41.583388000" lon="1.807381000">
        <ele>476.80</ele>
        <time>2013-04-21T09:19:52Z</time>
      </trkpt>
      <trkpt lat="41.583467000" lon="1.807149000">
        <ele>477.20</ele>
        <time>2013-04-21T09:19:59Z</time>
      </trkpt>
      <trkpt lat="41.583524000" lon="1.806909000">
        <ele>478.30</ele>
        <time>2013-04-21T09:20:06Z</time>
      </trkpt>
      <trkpt lat="41.583575000" lon="1.806671000">
        <ele>479.90</ele>
        <time>2013-04-21T09:20:14Z</time>
      </trkpt>
      <trkpt lat="41.583631000" lon="1.806434000">
        <ele>481.30</ele>
        <time>2013-04-21T09:20:22Z</time>
      </trkpt>
      <trkpt lat="41.583663000" lon="1.806194000">
        <ele>483.40</ele>
        <time>2013-04-21T09:20:30Z</time>
      </trkpt>
      <trkpt lat="41.583772000" lon="1.805979000">
        <ele>485.50</ele>
        <time>2013-04-21T09:20:38Z</time>
      </trkpt>
      <trkpt lat="41.583953000" lon="1.805924000">
        <ele>488.20</ele>
        <time>2013-04-21T09:20:48Z</time>
      </trkpt>
      <trkpt lat="41.584120000" lon="1.805790000">
        <ele>490.40</ele>
        <time>2013-04-21T09:20:58Z</time>
      </trkpt>
      <trkpt lat="41.584300000" lon="1.805705000">
        <ele>492.40</ele>
        <time>2013-04-21T09:21:08Z</time>
      </trkpt>
      <trkpt lat="41.584459000" lon="1.805629000">
        <ele>493.20</ele>
        <time>2013-04-21T09:21:17Z</time>
      </trkpt>
      <trkpt lat="41.584650000" lon="1.805615000">
        <ele>495.40</ele>
        <time>2013-04-21T09:21:27Z</time>
      </trkpt>
      <trkpt lat="41.584838000" lon="1.805570000">
        <ele>496.90</ele>
        <time>2013-04-21T09:21:37Z</time>
      </trkpt>
      <trkpt lat="41.585006000" lon="1.805472000">
        <ele>496.80</ele>
        <time>2013-04-21T09:21:46Z</time>
      </trkpt>
      <trkpt lat="41.584978000" lon="1.805230000">
        <ele>497.80</ele>
        <time>2013-04-21T09:21:55Z</time>
      </trkpt>
      <trkpt lat="41.584879000" lon="1.805023000">
        <ele>498.10</ele>
        <time>2013-04-21T09:22:02Z</time>
      </trkpt>
      <trkpt lat="41.584803000" lon="1.804812000">
        <ele>498.70</ele>
        <time>2013-04-21T09:22:13Z</time>
      </trkpt>
      <trkpt lat="41.584877000" lon="1.804554000">
        <ele>497.90</ele>
        <time>2013-04-21T09:22:28Z</time>
      </trkpt>
      <trkpt lat="41.584981000" lon="1.804310000">
        <ele>497.90</ele>
        <time>2013-04-21T09:22:35Z</time>
      </trkpt>
      <trkpt lat="41.585069000" lon="1.804056000">
        <ele>498.30</ele>
        <time>2013-04-21T09:22:43Z</time>
      </trkpt>
      <trkpt lat="41.585164000" lon="1.803833000">
        <ele>498.40</ele>
        <time>2013-04-21T09:22:50Z</time>
      </trkpt>
      <trkpt lat="41.585280000" lon="1.803630000">
        <ele>498.20</ele>
        <time>2013-04-21T09:22:56Z</time>
      </trkpt>
      <trkpt lat="41.585390000" lon="1.803389000">
        <ele>496.70</ele>
        <time>2013-04-21T09:23:02Z</time>
      </trkpt>
      <trkpt lat="41.585457000" lon="1.803132000">
        <ele>496.20</ele>
        <time>2013-04-21T09:23:07Z</time>
      </trkpt>
      <trkpt lat="41.585494000" lon="1.802856000">
        <ele>497.60</ele>
        <time>2013-04-21T09:23:13Z</time>
      </trkpt>
      <trkpt lat="41.585498000" lon="1.802600000">
        <ele>498.90</ele>
        <time>2013-04-21T09:23:19Z</time>
      </trkpt>
      <trkpt lat="41.585562000" lon="1.802349000">
        <ele>499.00</ele>
        <time>2013-04-21T09:23:25Z</time>
      </trkpt>
      <trkpt lat="41.585669000" lon="1.802124000">
        <ele>497.60</ele>
        <time>2013-04-21T09:23:31Z</time>
      </trkpt>
      <trkpt lat="41.585849000" lon="1.802018000">
        <ele>497.50</ele>
        <time>2013-04-21T09:23:37Z</time>
      </trkpt>
      <trkpt lat="41.585955000" lon="1.801799000">
        <ele>497.50</ele>
        <time>2013-04-21T09:23:43Z</time>
      </trkpt>
      <trkpt lat="41.585968000" lon="1.801522000">
        <ele>497.60</ele>
        <time>2013-04-21T09:23:49Z</time>
      </trkpt>
      <trkpt lat="41.585887000" lon="1.801252000">
        <ele>497.90</ele>
        <time>2013-04-21T09:23:55Z</time>
      </trkpt>
      <trkpt lat="41.585716000" lon="1.801077000">
        <ele>499.70</ele>
        <time>2013-04-21T09:24:01Z</time>
      </trkpt>
      <trkpt lat="41.585612000" lon="1.800870000">
        <ele>500.50</ele>
        <time>2013-04-21T09:24:07Z</time>
      </trkpt>
      <trkpt lat="41.585689000" lon="1.800583000">
        <ele>497.60</ele>
        <time>2013-04-21T09:24:12Z</time>
      </trkpt>
      <trkpt lat="41.585837000" lon="1.800435000">
        <ele>495.30</ele>
        <time>2013-04-21T09:24:15Z</time>
      </trkpt>
      <trkpt lat="41.586023000" lon="1.800351000">
        <ele>494.40</ele>
        <time>2013-04-21T09:24:18Z</time>
      </trkpt>
      <trkpt lat="41.586175000" lon="1.800213000">
        <ele>494.70</ele>
        <time>2013-04-21T09:24:21Z</time>
      </trkpt>
      <trkpt lat="41.586345000" lon="1.799987000">
        <ele>493.60</ele>
        <time>2013-04-21T09:24:25Z</time>
      </trkpt>
      <trkpt lat="41.586459000" lon="1.799707000">
        <ele>490.60</ele>
        <time>2013-04-21T09:24:28Z</time>
      </trkpt>
      <trkpt lat="41.586601000" lon="1.799488000">
        <ele>493.60</ele>
        <time>2013-04-21T09:24:32Z</time>
      </trkpt>
      <trkpt lat="41.586810000" lon="1.799418000">
        <ele>495.70</ele>
        <time>2013-04-21T09:24:38Z</time>
      </trkpt>
      <trkpt lat="41.587020000" lon="1.799383000">
        <ele>495.20</ele>
        <time>2013-04-21T09:24:44Z</time>
      </trkpt>
      <trkpt lat="41.587208000" lon="1.799369000">
        <ele>494.50</ele>
        <time>2013-04-21T09:24:49Z</time>
      </trkpt>
      <trkpt lat="41.587417000" lon="1.799274000">
        <ele>494.80</ele>
        <time>2013-04-21T09:24:55Z</time>
      </trkpt>
      <trkpt lat="41.587605000" lon="1.799112000">
        <ele>496.30</ele>
        <time>2013-04-21T09:25:02Z</time>
      </trkpt>
      <trkpt lat="41.587719000" lon="1.798914000">
        <ele>496.80</ele>
        <time>2013-04-21T09:25:08Z</time>
      </trkpt>
      <trkpt lat="41.587756000" lon="1.798659000">
        <ele>497.40</ele>
        <time>2013-04-21T09:25:14Z</time>
      </trkpt>
      <trkpt lat="41.587827000" lon="1.798424000">
        <ele>501.40</ele>
        <time>2013-04-21T09:25:22Z</time>
      </trkpt>
      <trkpt lat="41.587886000" lon="1.798185000">
        <ele>505.20</ele>
        <time>2013-04-21T09:25:31Z</time>
      </trkpt>
      <trkpt lat="41.587816000" lon="1.797955000">
        <ele>508.00</ele>
        <time>2013-04-21T09:25:40Z</time>
      </trkpt>
      <trkpt lat="41.587849000" lon="1.797700000">
        <ele>510.90</ele>
        <time>2013-04-21T09:25:50Z</time>
      </trkpt>
      <trkpt lat="41.587865000" lon="1.797457000">
        <ele>512.80</ele>
        <time>2013-04-21T09:26:00Z</time>
      </trkpt>
      <trkpt lat="41.587843000" lon="1.797188000">
        <ele>514.90</ele>
        <time>2013-04-21T09:26:11Z</time>
      </trkpt>
      <trkpt lat="41.587893000" lon="1.796928000">
        <ele>515.20</ele>
        <time>2013-04-21T09:26:23Z</time>
      </trkpt>
      <trkpt lat="41.587887000" lon="1.796664000">
        <ele>514.90</ele>
        <time>2013-04-21T09:26:31Z</time>
      </trkpt>
      <trkpt lat="41.587956000" lon="1.796448000">
        <ele>516.10</ele>
        <time>2013-04-21T09:26:39Z</time>
      </trkpt>
      <trkpt lat="41.588120000" lon="1.796319000">
        <ele>519.70</ele>
        <time>2013-04-21T09:26:48Z</time>
      </trkpt>
      <trkpt lat="41.588238000" lon="1.796138000">
        <ele>522.50</ele>
        <time>2013-04-21T09:26:58Z</time>
      </trkpt>
      <trkpt lat="41.588275000" lon="1.795895000">
        <ele>525.80</ele>
        <time>2013-04-21T09:27:08Z</time>
      </trkpt>
      <trkpt lat="41.588343000" lon="1.795671000">
        <ele>526.30</ele>
        <time>2013-04-21T09:27:20Z</time>
      </trkpt>
      <trkpt lat="41.588446000" lon="1.795464000">
        <ele>527.10</ele>
        <time>2013-04-21T09:27:29Z</time>
      </trkpt>
      <trkpt lat="41.588551000" lon="1.795241000">
        <ele>527.50</ele>
        <time>2013-04-21T09:27:39Z</time>
      </trkpt>
      <trkpt lat="41.588649000" lon="1.795036000">
        <ele>527.10</ele>
        <time>2013-04-21T09:27:50Z</time>
      </trkpt>
      <trkpt lat="41.588728000" lon="1.794800000">
        <ele>526.10</ele>
        <time>2013-04-21T09:27:57Z</time>
      </trkpt>
      <trkpt lat="41.588830000" lon="1.794568000">
        <ele>526.10</ele>
        <time>2013-04-21T09:28:04Z</time>
      </trkpt>
      <trkpt lat="41.588942000" lon="1.794321000">
        <ele>525.20</ele>
        <time>2013-04-21T09:28:11Z</time>
      </trkpt>
      <trkpt lat="41.589066000" lon="1.794125000">
        <ele>522.40</ele>
        <time>2013-04-21T09:28:16Z</time>
      </trkpt>
      <trkpt lat="41.588988000" lon="1.793822000">
        <ele>518.40</ele>
        <time>2013-04-21T09:28:20Z</time>
      </trkpt>
      <trkpt lat="41.588925000" lon="1.793558000">
        <ele>517.20</ele>
        <time>2013-04-21T09:28:23Z</time>
      </trkpt>
      <trkpt lat="41.588719000" lon="1.793451000">
        <ele>518.10</ele>
        <time>2013-04-21T09:28:27Z</time>
      </trkpt>
      <trkpt lat="41.588496000" lon="1.793442000">
        <ele>516.60</ele>
        <time>2013-04-21T09:28:31Z</time>
      </trkpt>
      <trkpt lat="41.588261000" lon="1.793433000">
        <ele>515.00</ele>
        <time>2013-04-21T09:28:35Z</time>
      </trkpt>
      <trkpt lat="41.588036000" lon="1.793420000">
        <ele>513.50</ele>
        <time>2013-04-21T09:28:40Z</time>
      </trkpt>
      <trkpt lat="41.587825000" lon="1.793398000">
        <ele>511.70</ele>
        <time>2013-04-21T09:28:44Z</time>
      </trkpt>
      <trkpt lat="41.587644000" lon="1.793387000">
        <ele>510.00</ele>
        <time>2013-04-21T09:28:47Z</time>
      </trkpt>
      <trkpt lat="41.587460000" lon="1.793375000">
        <ele>509.20</ele>
        <time>2013-04-21T09:28:50Z</time>
      </trkpt>
      <trkpt lat="41.587318000" lon="1.793268000">
        <ele>508.80</ele>
        <time>2013-04-21T09:28:54Z</time>
      </trkpt>
      <trkpt lat="41.587351000" lon="1.793008000">
        <ele>508.80</ele>
        <time>2013-04-21T09:28:59Z</time>
      </trkpt>
      <trkpt lat="41.587399000" lon="1.792762000">
        <ele>508.10</ele>
        <time>2013-04-21T09:29:04Z</time>
      </trkpt>
      <trkpt lat="41.587434000" lon="1.792523000">
        <ele>509.20</ele>
        <time>2013-04-21T09:29:10Z</time>
      </trkpt>
      <trkpt lat="41.587465000" lon="1.792274000">
        <ele>508.90</ele>
        <time>2013-04-21T09:30:50Z</time>
      </trkpt>
      <trkpt lat="41.587488000" lon="1.792022000">
        <ele>508.10</ele>
        <time>2013-04-21T09:30:57Z</time>
      </trkpt>
      <trkpt lat="41.587525000" lon="1.791726000">
        <ele>506.50</ele>
        <time>2013-04-21T09:31:03Z</time>
      </trkpt>
      <trkpt lat="41.587556000" lon="1.791453000">
        <ele>506.50</ele>
        <time>2013-04-21T09:31:09Z</time>
      </trkpt>
      <trkpt lat="41.587596000" lon="1.791181000">
        <ele>505.70</ele>
        <time>2013-04-21T09:31:15Z</time>
      </trkpt>
      <trkpt lat="41.587646000" lon="1.790881000">
        <ele>503.90</ele>
        <time>2013-04-21T09:31:20Z</time>
      </trkpt>
      <trkpt lat="41.587721000" lon="1.790653000">
        <ele>502.40</ele>
        <time>2013-04-21T09:31:24Z</time>
      </trkpt>
      <trkpt lat="41.587881000" lon="1.790541000">
        <ele>500.50</ele>
        <time>2013-04-21T09:31:27Z</time>
      </trkpt>
      <trkpt lat="41.588087000" lon="1.790525000">
        <ele>498.50</ele>
        <time>2013-04-21T09:31:30Z</time>
      </trkpt>
      <trkpt lat="41.588295000" lon="1.790386000">
        <ele>495.30</ele>
        <time>2013-04-21T09:31:33Z</time>
      </trkpt>
      <trkpt lat="41.588461000" lon="1.790119000">
        <ele>491.60</ele>
        <time>2013-04-21T09:31:36Z</time>
      </trkpt>
      <trkpt lat="41.588518000" lon="1.789801000">
        <ele>490.80</ele>
        <time>2013-04-21T09:31:39Z</time>
      </trkpt>
      <trkpt lat="41.588542000" lon="1.789541000">
        <ele>492.10</ele>
        <time>2013-04-21T09:31:42Z</time>
      </trkpt>
      <trkpt lat="41.588690000" lon="1.789325000">
        <ele>492.50</ele>
        <time>2013-04-21T09:31:46Z</time>
      </trkpt>
      <trkpt lat="41.588836000" lon="1.789213000">
        <ele>493.90</ele>
        <time>2013-04-21T09:31:50Z</time>
      </trkpt>
      <trkpt lat="41.589014000" lon="1.789081000">
        <ele>495.20</ele>
        <time>2013-04-21T09:31:55Z</time>
      </trkpt>
      <trkpt lat="41.589145000" lon="1.788890000">
        <ele>496.00</ele>
        <time>2013-04-21T09:32:00Z</time>
      </trkpt>
      <trkpt lat="41.589258000" lon="1.788635000">
        <ele>497.10</ele>
        <time>2013-04-21T09:32:06Z</time>
      </trkpt>
      <trkpt lat="41.589384000" lon="1.788407000">
        <ele>498.00</ele>
        <time>2013-04-21T09:32:12Z</time>
      </trkpt>
      <trkpt lat="41.589507000" lon="1.788206000">
        <ele>499.20</ele>
        <time>2013-04-21T09:32:18Z</time>
      </trkpt>
      <trkpt lat="41.589599000" lon="1.788005000">
        <ele>500.20</ele>
        <time>2013-04-21T09:32:24Z</time>
      </trkpt>
      <trkpt lat="41.589651000" lon="1.787781000">
        <ele>501.20</ele>
        <time>2013-04-21T09:32:30Z</time>
      </trkpt>
      <trkpt lat="41.589490000" lon="1.787700000">
        <ele>502.60</ele>
        <time>2013-04-21T09:32:38Z</time>
      </trkpt>
      <trkpt lat="41.589346000" lon="1.787897000">
        <ele>503.00</ele>
        <time>2013-04-21T09:32:45Z</time>
      </trkpt>
      <trkpt lat="41.589220000" lon="1.788086000">
        <ele>504.00</ele>
        <time>2013-04-21T09:32:51Z</time>
      </trkpt>
      <trkpt lat="41.589057000" lon="1.788225000">
        <ele>505.20</ele>
        <time>2013-04-21T09:32:57Z</time>
      </trkpt>
      <trkpt lat="41.588901000" lon="1.788349000">
        <ele>506.20</ele>
        <time>2013-04-21T09:33:03Z</time>
      </trkpt>
      <trkpt lat="41.588722000" lon="1.788432000">
        <ele>506.80</ele>
        <time>2013-04-21T09:33:09Z</time>
      </trkpt>
      <trkpt lat="41.588527000" lon="1.788434000">
        <ele>509.10</ele>
        <time>2013-04-21T09:33:17Z</time>
      </trkpt>
      <trkpt lat="41.588554000" lon="1.788296000">
        <ele>511.80</ele>
        <time>2013-04-21T09:33:26Z</time>
      </trkpt>
      <trkpt lat="41.588728000" lon="1.788171000">
        <ele>513.30</ele>
        <time>2013-04-21T09:33:35Z</time>
      </trkpt>
      <trkpt lat="41.588883000" lon="1.788033000">
        <ele>515.70</ele>
        <time>2013-04-21T09:33:45Z</time>
      </trkpt>
      <trkpt lat="41.588972000" lon="1.787804000">
        <ele>518.20</ele>
        <time>2013-04-21T09:33:55Z</time>
      </trkpt>
      <trkpt lat="41.589044000" lon="1.787569000">
        <ele>521.20</ele>
        <time>2013-04-21T09:34:06Z</time>
      </trkpt>
      <trkpt lat="41.589108000" lon="1.787334000">
        <ele>524.60</ele>
        <time>2013-04-21T09:34:17Z</time>
      </trkpt>
      <trkpt lat="41.589152000" lon="1.787074000">
        <ele>526.60</ele>
        <time>2013-04-21T09:34:27Z</time>
      </trkpt>
      <trkpt lat="41.589145000" lon="1.786827000">
        <ele>528.30</ele>
        <time>2013-04-21T09:34:37Z</time>
      </trkpt>
      <trkpt lat="41.589082000" lon="1.786566000">
        <ele>530.30</ele>
        <time>2013-04-21T09:34:48Z</time>
      </trkpt>
      <trkpt lat="41.589018000" lon="1.786331000">
        <ele>530.00</ele>
        <time>2013-04-21T09:34:57Z</time>
      </trkpt>
      <trkpt lat="41.589029000" lon="1.786072000">
        <ele>530.10</ele>
        <time>2013-04-21T09:35:05Z</time>
      </trkpt>
      <trkpt lat="41.589082000" lon="1.785819000">
        <ele>530.20</ele>
        <time>2013-04-21T09:35:13Z</time>
      </trkpt>
      <trkpt lat="41.589155000" lon="1.785595000">
        <ele>531.20</ele>
        <time>2013-04-21T09:35:21Z</time>
      </trkpt>
      <trkpt lat="41.589227000" lon="1.785346000">
        <ele>531.90</ele>
        <time>2013-04-21T09:36:04Z</time>
      </trkpt>
      <trkpt lat="41.589262000" lon="1.785128000">
        <ele>533.40</ele>
        <time>2013-04-21T09:36:12Z</time>
      </trkpt>
      <trkpt lat="41.589096000" lon="1.784998000">
        <ele>534.10</ele>
        <time>2013-04-21T09:36:22Z</time>
      </trkpt>
      <trkpt lat="41.588948000" lon="1.784826000">
        <ele>532.70</ele>
        <time>2013-04-21T09:36:28Z</time>
      </trkpt>
      <trkpt lat="41.588791000" lon="1.784627000">
        <ele>531.60</ele>
        <time>2013-04-21T09:36:33Z</time>
      </trkpt>
      <trkpt lat="41.588700000" lon="1.784368000">
        <ele>530.80</ele>
        <time>2013-04-21T09:36:38Z</time>
      </trkpt>
      <trkpt lat="41.588619000" lon="1.784104000">
        <ele>530.90</ele>
        <time>2013-04-21T09:36:43Z</time>
      </trkpt>
      <trkpt lat="41.588491000" lon="1.783895000">
        <ele>531.20</ele>
        <time>2013-04-21T09:36:48Z</time>
      </trkpt>
      <trkpt lat="41.588357000" lon="1.783693000">
        <ele>531.70</ele>
        <time>2013-04-21T09:36:53Z</time>
      </trkpt>
      <trkpt lat="41.588248000" lon="1.783465000">
        <ele>532.20</ele>
        <time>2013-04-21T09:36:59Z</time>
      </trkpt>
      <trkpt lat="41.588191000" lon="1.783198000">
        <ele>531.70</ele>
        <time>2013-04-21T09:37:05Z</time>
      </trkpt>
      <trkpt lat="41.588075000" lon="1.783023000">
        <ele>529.90</ele>
        <time>2013-04-21T09:37:10Z</time>
      </trkpt>
      <trkpt lat="41.587839000" lon="1.783109000">
        <ele>526.00</ele>
        <time>2013-04-21T09:37:14Z</time>
      </trkpt>
      <trkpt lat="41.587604000" lon="1.783143000">
        <ele>523.60</ele>
        <time>2013-04-21T09:37:17Z</time>
      </trkpt>
      <trkpt lat="41.587352000" lon="1.783102000">
        <ele>520.40</ele>
        <time>2013-04-21T09:37:20Z</time>
      </trkpt>
      <trkpt lat="41.587173000" lon="1.783020000">
        <ele>519.60</ele>
        <time>2013-04-21T09:37:22Z</time>
      </trkpt>
      <trkpt lat="41.587002000" lon="1.782925000">
        <ele>519.20</ele>
        <time>2013-04-21T09:37:24Z</time>
      </trkpt>
      <trkpt lat="41.586752000" lon="1.782877000">
        <ele>520.10</ele>
        <time>2013-04-21T09:37:27Z</time>
      </trkpt>
      <trkpt lat="41.586550000" lon="1.782807000">
        <ele>521.90</ele>
        <time>2013-04-21T09:37:30Z</time>
      </trkpt>
      <trkpt lat="41.586431000" lon="1.782605000">
        <ele>522.90</ele>
        <time>2013-04-21T09:37:34Z</time>
      </trkpt>
      <trkpt lat="41.586343000" lon="1.782370000">
        <ele>522.50</ele>
        <time>2013-04-21T09:37:38Z</time>
      </trkpt>
      <trkpt lat="41.586273000" lon="1.782149000">
        <ele>522.80</ele>
        <time>2013-04-21T09:37:42Z</time>
      </trkpt>
      <trkpt lat="41.586237000" lon="1.781900000">
        <ele>522.30</ele>
        <time>2013-04-21T09:37:46Z</time>
      </trkpt>
      <trkpt lat="41.586209000" lon="1.781648000">
        <ele>522.20</ele>
        <time>2013-04-21T09:37:50Z</time>
      </trkpt>
      <trkpt lat="41.586161000" lon="1.781412000">
        <ele>522.50</ele>
        <time>2013-04-21T09:37:54Z</time>
      </trkpt>
      <trkpt lat="41.586090000" lon="1.781170000">
        <ele>523.10</ele>
        <time>2013-04-21T09:37:59Z</time>
      </trkpt>
      <trkpt lat="41.586141000" lon="1.780935000">
        <ele>523.70</ele>
        <time>2013-04-21T09:38:05Z</time>
      </trkpt>
      <trkpt lat="41.586349000" lon="1.780949000">
        <ele>525.20</ele>
        <time>2013-04-21T09:38:12Z</time>
      </trkpt>
      <trkpt lat="41.586536000" lon="1.780967000">
        <ele>526.80</ele>
        <time>2013-04-21T09:38:19Z</time>
      </trkpt>
      <trkpt lat="41.586759000" lon="1.780973000">
        <ele>528.40</ele>
        <time>2013-04-21T09:38:27Z</time>
      </trkpt>
      <trkpt lat="41.586962000" lon="1.780942000">
        <ele>530.50</ele>
        <time>2013-04-21T09:38:35Z</time>
      </trkpt>
      <trkpt lat="41.587161000" lon="1.780903000">
        <ele>532.80</ele>
        <time>2013-04-21T09:38:45Z</time>
      </trkpt>
      <trkpt lat="41.587404000" lon="1.780834000">
        <ele>533.80</ele>
        <time>2013-04-21T09:38:55Z</time>
      </trkpt>
      <trkpt lat="41.587616000" lon="1.780818000">
        <ele>535.00</ele>
        <time>2013-04-21T09:39:03Z</time>
      </trkpt>
      <trkpt lat="41.587847000" lon="1.780785000">
        <ele>536.60</ele>
        <time>2013-04-21T09:39:12Z</time>
      </trkpt>
      <trkpt lat="41.588004000" lon="1.780672000">
        <ele>537.40</ele>
        <time>2013-04-21T09:39:19Z</time>
      </trkpt>
      <trkpt lat="41.588226000" lon="1.780619000">
        <ele>539.20</ele>
        <time>2013-04-21T09:39:27Z</time>
      </trkpt>
      <trkpt lat="41.588426000" lon="1.780598000">
        <ele>541.10</ele>
        <time>2013-04-21T09:39:35Z</time>
      </trkpt>
      <trkpt lat="41.588618000" lon="1.780549000">
        <ele>542.20</ele>
        <time>2013-04-21T09:39:43Z</time>
      </trkpt>
      <trkpt lat="41.588801000" lon="1.780503000">
        <ele>543.50</ele>
        <time>2013-04-21T09:39:51Z</time>
      </trkpt>
      <trkpt lat="41.589009000" lon="1.780518000">
        <ele>545.00</ele>
        <time>2013-04-21T09:39:59Z</time>
      </trkpt>
      <trkpt lat="41.589176000" lon="1.780450000">
        <ele>546.30</ele>
        <time>2013-04-21T09:40:07Z</time>
      </trkpt>
      <trkpt lat="41.589376000" lon="1.780429000">
        <ele>547.40</ele>
        <time>2013-04-21T09:40:15Z</time>
      </trkpt>
      <trkpt lat="41.589556000" lon="1.780356000">
        <ele>548.50</ele>
        <time>2013-04-21T09:40:23Z</time>
      </trkpt>
      <trkpt lat="41.589741000" lon="1.780379000">
        <ele>550.00</ele>
        <time>2013-04-21T09:40:31Z</time>
      </trkpt>
      <trkpt lat="41.589910000" lon="1.780528000">
        <ele>551.50</ele>
        <time>2013-04-21T09:40:39Z</time>
      </trkpt>
      <trkpt lat="41.590111000" lon="1.780589000">
        <ele>552.60</ele>
        <time>2013-04-21T09:40:47Z</time>
      </trkpt>
      <trkpt lat="41.590297000" lon="1.780610000">
        <ele>554.10</ele>
        <time>2013-04-21T09:40:55Z</time>
      </trkpt>
      <trkpt lat="41.590489000" lon="1.780583000">
        <ele>555.40</ele>
        <time>2013-04-21T09:41:03Z</time>
      </trkpt>
      <trkpt lat="41.590694000" lon="1.780549000">
        <ele>556.30</ele>
        <time>2013-04-21T09:41:10Z</time>
      </trkpt>
      <trkpt lat="41.590878000" lon="1.780450000">
        <ele>557.30</ele>
        <time>2013-04-21T09:41:17Z</time>
      </trkpt>
      <trkpt lat="41.591073000" lon="1.780414000">
        <ele>558.70</ele>
        <time>2013-04-21T09:41:25Z</time>
      </trkpt>
      <trkpt lat="41.591251000" lon="1.780435000">
        <ele>560.00</ele>
        <time>2013-04-21T09:41:33Z</time>
      </trkpt>
      <trkpt lat="41.591450000" lon="1.780441000">
        <ele>562.20</ele>
        <time>2013-04-21T09:41:42Z</time>
      </trkpt>
      <trkpt lat="41.591636000" lon="1.780463000">
        <ele>563.60</ele>
        <time>2013-04-21T09:41:51Z</time>
      </trkpt>
      <trkpt lat="41.591843000" lon="1.780406000">
        <ele>565.20</ele>
        <time>2013-04-21T09:41:59Z</time>
      </trkpt>
      <trkpt lat="41.592038000" lon="1.780366000">
        <ele>566.40</ele>
        <time>2013-04-21T09:42:07Z</time>
      </trkpt>
      <trkpt lat="41.592244000" lon="1.780335000">
        <ele>567.70</ele>
        <time>2013-04-21T09:42:14Z</time>
      </trkpt>
      <trkpt lat="41.592449000" lon="1.780296000">
        <ele>569.30</ele>
        <time>2013-04-21T09:42:21Z</time>
      </trkpt>
      <trkpt lat="41.592761000" lon="1.780181000">
        <ele>570.50</ele>
        <time>2013-04-21T09:42:33Z</time>
      </trkpt>
      <trkpt lat="41.592961000" lon="1.780096000">
        <ele>573.20</ele>
        <time>2013-04-21T09:42:41Z</time>
      </trkpt>
      <trkpt lat="41.593140000" lon="1.780024000">
        <ele>574.50</ele>
        <time>2013-04-21T09:42:48Z</time>
      </trkpt>
      <trkpt lat="41.593277000" lon="1.779844000">
        <ele>575.70</ele>
        <time>2013-04-21T09:42:55Z</time>
      </trkpt>
      <trkpt lat="41.593429000" lon="1.779656000">
        <ele>574.70</ele>
        <time>2013-04-21T09:43:02Z</time>
      </trkpt>
      <trkpt lat="41.593573000" lon="1.779483000">
        <ele>574.70</ele>
        <time>2013-04-21T09:43:08Z</time>
      </trkpt>
      <trkpt lat="41.593697000" lon="1.779253000">
        <ele>574.90</ele>
        <time>2013-04-21T09:43:15Z</time>
      </trkpt>
      <trkpt lat="41.593859000" lon="1.779073000">
        <ele>573.30</ele>
        <time>2013-04-21T09:43:22Z</time>
      </trkpt>
      <trkpt lat="41.594047000" lon="1.778943000">
        <ele>570.30</ele>
        <time>2013-04-21T09:43:26Z</time>
      </trkpt>
      <trkpt lat="41.594202000" lon="1.778787000">
        <ele>571.90</ele>
        <time>2013-04-21T09:43:30Z</time>
      </trkpt>
      <trkpt lat="41.594086000" lon="1.778573000">
        <ele>575.40</ele>
        <time>2013-04-21T09:43:40Z</time>
      </trkpt>
      <trkpt lat="41.593949000" lon="1.778425000">
        <ele>577.50</ele>
        <time>2013-04-21T09:43:51Z</time>
      </trkpt>
      <trkpt lat="41.593938000" lon="1.778200000">
        <ele>581.00</ele>
        <time>2013-04-21T09:44:03Z</time>
      </trkpt>
      <trkpt lat="41.594056000" lon="1.778016000">
        <ele>583.10</ele>
        <time>2013-04-21T09:44:15Z</time>
      </trkpt>
      <trkpt lat="41.594229000" lon="1.777931000">
        <ele>584.60</ele>
        <time>2013-04-21T09:44:26Z</time>
      </trkpt>
      <trkpt lat="41.594409000" lon="1.777848000">
        <ele>586.20</ele>
        <time>2013-04-21T09:44:36Z</time>
      </trkpt>
      <trkpt lat="41.594553000" lon="1.777662000">
        <ele>588.40</ele>
        <time>2013-04-21T09:44:46Z</time>
      </trkpt>
      <trkpt lat="41.594698000" lon="1.777527000">
        <ele>590.40</ele>
        <time>2013-04-21T09:44:56Z</time>
      </trkpt>
      <trkpt lat="41.594882000" lon="1.777416000">
        <ele>592.80</ele>
        <time>2013-04-21T09:45:07Z</time>
      </trkpt>
      <trkpt lat="41.595055000" lon="1.777293000">
        <ele>593.80</ele>
        <time>2013-04-21T09:45:17Z</time>
      </trkpt>
      <trkpt lat="41.595210000" lon="1.777115000">
        <ele>595.80</ele>
        <time>2013-04-21T09:45:27Z</time>
      </trkpt>
      <trkpt lat="41.595332000" lon="1.776914000">
        <ele>597.60</ele>
        <time>2013-04-21T09:45:37Z</time>
      </trkpt>
      <trkpt lat="41.595509000" lon="1.776769000">
        <ele>599.10</ele>
        <time>2013-04-21T09:45:47Z</time>
      </trkpt>
      <trkpt lat="41.595642000" lon="1.776563000">
        <ele>601.40</ele>
        <time>2013-04-21T09:45:57Z</time>
      </trkpt>
      <trkpt lat="41.595823000" lon="1.776454000">
        <ele>603.30</ele>
        <time>2013-04-21T09:46:07Z</time>
      </trkpt>
      <trkpt lat="41.595947000" lon="1.776280000">
        <ele>605.00</ele>
        <time>2013-04-21T09:46:17Z</time>
      </trkpt>
      <trkpt lat="41.596062000" lon="1.776076000">
        <ele>606.60</ele>
        <time>2013-04-21T09:46:27Z</time>
      </trkpt>
      <trkpt lat="41.596252000" lon="1.775981000">
        <ele>608.50</ele>
        <time>2013-04-21T09:46:38Z</time>
      </trkpt>
      <trkpt lat="41.596454000" lon="1.775887000">
        <ele>610.80</ele>
        <time>2013-04-21T09:46:49Z</time>
      </trkpt>
      <trkpt lat="41.596630000" lon="1.775746000">
        <ele>612.20</ele>
        <time>2013-04-21T09:46:59Z</time>
      </trkpt>
      <trkpt lat="41.596806000" lon="1.775604000">
        <ele>613.70</ele>
        <time>2013-04-21T09:47:09Z</time>
      </trkpt>
      <trkpt lat="41.596970000" lon="1.775462000">
        <ele>616.20</ele>
        <time>2013-04-21T09:47:19Z</time>
      </trkpt>
      <trkpt lat="41.597146000" lon="1.775316000">
        <ele>618.10</ele>
        <time>2013-04-21T09:47:29Z</time>
      </trkpt>
      <trkpt lat="41.597275000" lon="1.775150000">
        <ele>620.60</ele>
        <time>2013-04-21T09:47:38Z</time>
      </trkpt>
      <trkpt lat="41.597342000" lon="1.774924000">
        <ele>622.40</ele>
        <time>2013-04-21T09:47:47Z</time>
      </trkpt>
      <trkpt lat="41.597445000" lon="1.774711000">
        <ele>623.40</ele>
        <time>2013-04-21T09:47:56Z</time>
      </trkpt>
      <trkpt lat="41.597528000" lon="1.774475000">
        <ele>624.00</ele>
        <time>2013-04-21T09:48:04Z</time>
      </trkpt>
      <trkpt lat="41.597644000" lon="1.774281000">
        <ele>625.20</ele>
        <time>2013-04-21T09:48:12Z</time>
      </trkpt>
      <trkpt lat="41.597794000" lon="1.774093000">
        <ele>626.00</ele>
        <time>2013-04-21T09:48:20Z</time>
      </trkpt>
      <trkpt lat="41.597960000" lon="1.773960000">
        <ele>627.10</ele>
        <time>2013-04-21T09:48:28Z</time>
      </trkpt>
      <trkpt lat="41.598128000" lon="1.773826000">
        <ele>627.90</ele>
        <time>2013-04-21T09:48:36Z</time>
      </trkpt>
      <trkpt lat="41.598237000" lon="1.773620000">
        <ele>628.90</ele>
        <time>2013-04-21T09:48:44Z</time>
      </trkpt>
      <trkpt lat="41.598408000" lon="1.773491000">
        <ele>630.20</ele>
        <time>2013-04-21T09:48:52Z</time>
      </trkpt>
      <trkpt lat="41.598563000" lon="1.773354000">
        <ele>632.30</ele>
        <time>2013-04-21T09:49:01Z</time>
      </trkpt>
      <trkpt lat="41.598664000" lon="1.773331000">
        <ele>632.60</ele>
        <time>2013-04-21T09:53:07Z</time>
      </trkpt>
      <trkpt lat="41.598601000" lon="1.773241000">
        <ele>632.40</ele>
        <time>2013-04-21T09:58:17Z</time>
      </trkpt>
      <trkpt lat="41.598545000" lon="1.772986000">
        <ele>633.00</ele>
        <time>2013-04-21T09:58:25Z</time>
      </trkpt>
      <trkpt lat="41.598445000" lon="1.772773000">
        <ele>633.20</ele>
        <time>2013-04-21T09:58:32Z</time>
      </trkpt>
      <trkpt lat="41.598313000" lon="1.772572000">
        <ele>634.40</ele>
        <time>2013-04-21T09:58:39Z</time>
      </trkpt>
      <trkpt lat="41.598289000" lon="1.772309000">
        <ele>635.60</ele>
        <time>2013-04-21T09:58:47Z</time>
      </trkpt>
      <trkpt lat="41.598387000" lon="1.772103000">
        <ele>635.80</ele>
        <time>2013-04-21T09:58:55Z</time>
      </trkpt>
      <trkpt lat="41.598513000" lon="1.771905000">
        <ele>636.40</ele>
        <time>2013-04-21T09:59:02Z</time>
      </trkpt>
      <trkpt lat="41.598647000" lon="1.771726000">
        <ele>635.50</ele>
        <time>2013-04-21T09:59:08Z</time>
      </trkpt>
      <trkpt lat="41.598814000" lon="1.771612000">
        <ele>633.00</ele>
        <time>2013-04-21T09:59:12Z</time>
      </trkpt>
      <trkpt lat="41.599028000" lon="1.771500000">
        <ele>631.20</ele>
        <time>2013-04-21T09:59:16Z</time>
      </trkpt>
      <trkpt lat="41.599192000" lon="1.771382000">
        <ele>630.90</ele>
        <time>2013-04-21T09:59:19Z</time>
      </trkpt>
      <trkpt lat="41.599435000" lon="1.771357000">
        <ele>630.60</ele>
        <time>2013-04-21T09:59:23Z</time>
      </trkpt>
      <trkpt lat="41.599621000" lon="1.771293000">
        <ele>627.70</ele>
        <time>2013-04-21T09:59:26Z</time>
      </trkpt>
      <trkpt lat="41.599810000" lon="1.771121000">
        <ele>626.50</ele>
        <time>2013-04-21T09:59:29Z</time>
      </trkpt>
      <trkpt lat="41.599861000" lon="1.770831000">
        <ele>623.70</ele>
        <time>2013-04-21T09:59:32Z</time>
      </trkpt>
      <trkpt lat="41.599841000" lon="1.770531000">
        <ele>623.10</ele>
        <time>2013-04-21T09:59:35Z</time>
      </trkpt>
      <trkpt lat="41.599894000" lon="1.770278000">
        <ele>622.90</ele>
        <time>2013-04-21T09:59:38Z</time>
      </trkpt>
      <trkpt lat="41.600079000" lon="1.770123000">
        <ele>622.80</ele>
        <time>2013-04-21T09:59:42Z</time>
      </trkpt>
      <trkpt lat="41.600292000" lon="1.770051000">
        <ele>622.90</ele>
        <time>2013-04-21T09:59:46Z</time>
      </trkpt>
      <trkpt lat="41.600495000" lon="1.769905000">
        <ele>622.00</ele>
        <time>2013-04-21T09:59:50Z</time>
      </trkpt>
      <trkpt lat="41.600693000" lon="1.769798000">
        <ele>620.60</ele>
        <time>2013-04-21T09:59:54Z</time>
      </trkpt>
      <trkpt lat="41.600903000" lon="1.769777000">
        <ele>621.50</ele>
        <time>2013-04-21T09:59:58Z</time>
      </trkpt>
      <trkpt lat="41.601116000" lon="1.769762000">
        <ele>620.80</ele>
        <time>2013-04-21T10:00:02Z</time>
      </trkpt>
      <trkpt lat="41.601357000" lon="1.769690000">
        <ele>619.60</ele>
        <time>2013-04-21T10:00:06Z</time>
      </trkpt>
      <trkpt lat="41.601534000" lon="1.769613000">
        <ele>618.50</ele>
        <time>2013-04-21T10:00:09Z</time>
      </trkpt>
      <trkpt lat="41.601729000" lon="1.769557000">
        <ele>617.80</ele>
        <time>2013-04-21T10:00:12Z</time>
      </trkpt>
      <trkpt lat="41.601927000" lon="1.769452000">
        <ele>617.40</ele>
        <time>2013-04-21T10:00:16Z</time>
      </trkpt>
      <trkpt lat="41.601848000" lon="1.769262000">
        <ele>617.90</ele>
        <time>2013-04-21T10:00:21Z</time>
      </trkpt>
      <trkpt lat="41.601629000" lon="1.769248000">
        <ele>617.80</ele>
        <time>2013-04-21T10:00:26Z</time>
      </trkpt>
      <trkpt lat="41.601434000" lon="1.769253000">
        <ele>617.50</ele>
        <time>2013-04-21T10:00:30Z</time>
      </trkpt>
      <trkpt lat="41.601256000" lon="1.769256000">
        <ele>618.20</ele>
        <time>2013-04-21T10:00:34Z</time>
      </trkpt>
      <trkpt lat="41.601056000" lon="1.769258000">
        <ele>616.50</ele>
        <time>2013-04-21T10:00:38Z</time>
      </trkpt>
      <trkpt lat="41.600854000" lon="1.769215000">
        <ele>618.70</ele>
        <time>2013-04-21T10:00:42Z</time>
      </trkpt>
      <trkpt lat="41.600736000" lon="1.769042000">
        <ele>621.80</ele>
        <time>2013-04-21T10:00:47Z</time>
      </trkpt>
      <trkpt lat="41.600565000" lon="1.768947000">
        <ele>623.30</ele>
        <time>2013-04-21T10:00:53Z</time>
      </trkpt>
      <trkpt lat="41.600380000" lon="1.768943000">
        <ele>624.30</ele>
        <time>2013-04-21T10:00:59Z</time>
      </trkpt>
      <trkpt lat="41.600174000" lon="1.768926000">
        <ele>625.60</ele>
        <time>2013-04-21T10:01:06Z</time>
      </trkpt>
      <trkpt lat="41.599991000" lon="1.768843000">
        <ele>626.40</ele>
        <time>2013-04-21T10:01:13Z</time>
      </trkpt>
      <trkpt lat="41.599822000" lon="1.768927000">
        <ele>627.30</ele>
        <time>2013-04-21T10:01:21Z</time>
      </trkpt>
      <trkpt lat="41.599641000" lon="1.769055000">
        <ele>628.00</ele>
        <time>2013-04-21T10:01:30Z</time>
      </trkpt>
      <trkpt lat="41.599456000" lon="1.769137000">
        <ele>628.90</ele>
        <time>2013-04-21T10:01:38Z</time>
      </trkpt>
      <trkpt lat="41.599282000" lon="1.769223000">
        <ele>628.10</ele>
        <time>2013-04-21T10:01:44Z</time>
      </trkpt>
      <trkpt lat="41.599089000" lon="1.769173000">
        <ele>629.00</ele>
        <time>2013-04-21T10:01:51Z</time>
      </trkpt>
      <trkpt lat="41.598915000" lon="1.769076000">
        <ele>629.50</ele>
        <time>2013-04-21T10:01:57Z</time>
      </trkpt>
      <trkpt lat="41.598711000" lon="1.768944000">
        <ele>628.90</ele>
        <time>2013-04-21T10:02:03Z</time>
      </trkpt>
      <trkpt lat="41.598523000" lon="1.768786000">
        <ele>628.60</ele>
        <time>2013-04-21T10:02:08Z</time>
      </trkpt>
      <trkpt lat="41.598347000" lon="1.768639000">
        <ele>628.20</ele>
        <time>2013-04-21T10:02:13Z</time>
      </trkpt>
      <trkpt lat="41.598161000" lon="1.768540000">
        <ele>627.10</ele>
        <time>2013-04-21T10:02:18Z</time>
      </trkpt>
      <trkpt lat="41.597985000" lon="1.768519000">
        <ele>628.10</ele>
        <time>2013-04-21T10:02:23Z</time>
      </trkpt>
      <trkpt lat="41.597881000" lon="1.768731000">
        <ele>625.00</ele>
        <time>2013-04-21T10:02:27Z</time>
      </trkpt>
      <trkpt lat="41.597701000" lon="1.768900000">
        <ele>621.70</ele>
        <time>2013-04-21T10:02:30Z</time>
      </trkpt>
      <trkpt lat="41.597433000" lon="1.769017000">
        <ele>616.10</ele>
        <time>2013-04-21T10:02:33Z</time>
      </trkpt>
      <trkpt lat="41.597238000" lon="1.769101000">
        <ele>614.10</ele>
        <time>2013-04-21T10:02:35Z</time>
      </trkpt>
      <trkpt lat="41.597043000" lon="1.769183000">
        <ele>612.90</ele>
        <time>2013-04-21T10:02:37Z</time>
      </trkpt>
      <trkpt lat="41.596847000" lon="1.769251000">
        <ele>611.60</ele>
        <time>2013-04-21T10:02:39Z</time>
      </trkpt>
      <trkpt lat="41.596662000" lon="1.769290000">
        <ele>610.00</ele>
        <time>2013-04-21T10:02:41Z</time>
      </trkpt>
      <trkpt lat="41.596482000" lon="1.769266000">
        <ele>610.20</ele>
        <time>2013-04-21T10:02:43Z</time>
      </trkpt>
      <trkpt lat="41.596233000" lon="1.769141000">
        <ele>609.20</ele>
        <time>2013-04-21T10:02:46Z</time>
      </trkpt>
      <trkpt lat="41.595998000" lon="1.768965000">
        <ele>607.30</ele>
        <time>2013-04-21T10:02:49Z</time>
      </trkpt>
      <trkpt lat="41.595764000" lon="1.768804000">
        <ele>607.60</ele>
        <time>2013-04-21T10:02:52Z</time>
      </trkpt>
      <trkpt lat="41.595538000" lon="1.768665000">
        <ele>607.20</ele>
        <time>2013-04-21T10:02:55Z</time>
      </trkpt>
      <trkpt lat="41.595346000" lon="1.768547000">
        <ele>608.20</ele>
        <time>2013-04-21T10:02:58Z</time>
      </trkpt>
      <trkpt lat="41.595183000" lon="1.768430000">
        <ele>607.90</ele>
        <time>2013-04-21T10:03:01Z</time>
      </trkpt>
      <trkpt lat="41.594976000" lon="1.768379000">
        <ele>607.60</ele>
        <time>2013-04-21T10:03:05Z</time>
      </trkpt>
      <trkpt lat="41.594796000" lon="1.768336000">
        <ele>606.50</ele>
        <time>2013-04-21T10:03:11Z</time>
      </trkpt>
      <trkpt lat="41.594606000" lon="1.768268000">
        <ele>603.20</ele>
        <time>2013-04-21T10:04:05Z</time>
      </trkpt>
      <trkpt lat="41.594418000" lon="1.768106000">
        <ele>597.40</ele>
        <time>2013-04-21T10:04:09Z</time>
      </trkpt>
      <trkpt lat="41.594393000" lon="1.767831000">
        <ele>591.90</ele>
        <time>2013-04-21T10:04:12Z</time>
      </trkpt>
      <trkpt lat="41.594453000" lon="1.767541000">
        <ele>592.30</ele>
        <time>2013-04-21T10:04:15Z</time>
      </trkpt>
      <trkpt lat="41.594603000" lon="1.767339000">
        <ele>592.70</ele>
        <time>2013-04-21T10:04:19Z</time>
      </trkpt>
      <trkpt lat="41.594840000" lon="1.767312000">
        <ele>595.40</ele>
        <time>2013-04-21T10:04:41Z</time>
      </trkpt>
      <trkpt lat="41.595006000" lon="1.767266000">
        <ele>598.10</ele>
        <time>2013-04-21T10:04:51Z</time>
      </trkpt>
      <trkpt lat="41.595210000" lon="1.767239000">
        <ele>598.90</ele>
        <time>2013-04-21T10:05:01Z</time>
      </trkpt>
      <trkpt lat="41.595390000" lon="1.767192000">
        <ele>597.50</ele>
        <time>2013-04-21T10:05:07Z</time>
      </trkpt>
      <trkpt lat="41.595536000" lon="1.767033000">
        <ele>596.30</ele>
        <time>2013-04-21T10:05:12Z</time>
      </trkpt>
      <trkpt lat="41.595618000" lon="1.766810000">
        <ele>594.70</ele>
        <time>2013-04-21T10:05:16Z</time>
      </trkpt>
      <trkpt lat="41.595722000" lon="1.766558000">
        <ele>592.50</ele>
        <time>2013-04-21T10:05:20Z</time>
      </trkpt>
      <trkpt lat="41.595861000" lon="1.766330000">
        <ele>592.50</ele>
        <time>2013-04-21T10:05:24Z</time>
      </trkpt>
      <trkpt lat="41.595974000" lon="1.766141000">
        <ele>592.70</ele>
        <time>2013-04-21T10:05:29Z</time>
      </trkpt>
      <trkpt lat="41.596146000" lon="1.766040000">
        <ele>593.00</ele>
        <time>2013-04-21T10:05:34Z</time>
      </trkpt>
      <trkpt lat="41.596350000" lon="1.766045000">
        <ele>593.90</ele>
        <time>2013-04-21T10:05:40Z</time>
      </trkpt>
      <trkpt lat="41.596542000" lon="1.766021000">
        <ele>594.10</ele>
        <time>2013-04-21T10:05:46Z</time>
      </trkpt>
      <trkpt lat="41.596726000" lon="1.766093000">
        <ele>593.50</ele>
        <time>2013-04-21T10:05:52Z</time>
      </trkpt>
      <trkpt lat="41.596910000" lon="1.766158000">
        <ele>593.10</ele>
        <time>2013-04-21T10:05:57Z</time>
      </trkpt>
      <trkpt lat="41.596975000" lon="1.765933000">
        <ele>591.00</ele>
        <time>2013-04-21T10:06:02Z</time>
      </trkpt>
      <trkpt lat="41.596957000" lon="1.765676000">
        <ele>589.40</ele>
        <time>2013-04-21T10:06:06Z</time>
      </trkpt>
      <trkpt lat="41.597012000" lon="1.765384000">
        <ele>587.90</ele>
        <time>2013-04-21T10:06:10Z</time>
      </trkpt>
      <trkpt lat="41.597179000" lon="1.765225000">
        <ele>587.10</ele>
        <time>2013-04-21T10:06:14Z</time>
      </trkpt>
      <trkpt lat="41.597372000" lon="1.765148000">
        <ele>587.00</ele>
        <time>2013-04-21T10:06:18Z</time>
      </trkpt>
      <trkpt lat="41.597578000" lon="1.765084000">
        <ele>586.30</ele>
        <time>2013-04-21T10:06:22Z</time>
      </trkpt>
      <trkpt lat="41.597788000" lon="1.765013000">
        <ele>585.00</ele>
        <time>2013-04-21T10:06:26Z</time>
      </trkpt>
      <trkpt lat="41.597939000" lon="1.764881000">
        <ele>584.70</ele>
        <time>2013-04-21T10:06:30Z</time>
      </trkpt>
      <trkpt lat="41.597887000" lon="1.764650000">
        <ele>585.50</ele>
        <time>2013-04-21T10:06:35Z</time>
      </trkpt>
      <trkpt lat="41.597757000" lon="1.764459000">
        <ele>585.30</ele>
        <time>2013-04-21T10:06:40Z</time>
      </trkpt>
      <trkpt lat="41.597563000" lon="1.764312000">
        <ele>584.00</ele>
        <time>2013-04-21T10:06:45Z</time>
      </trkpt>
      <trkpt lat="41.597382000" lon="1.764175000">
        <ele>581.80</ele>
        <time>2013-04-21T10:06:49Z</time>
      </trkpt>
      <trkpt lat="41.597215000" lon="1.763987000">
        <ele>579.40</ele>
        <time>2013-04-21T10:06:53Z</time>
      </trkpt>
      <trkpt lat="41.597139000" lon="1.763719000">
        <ele>578.10</ele>
        <time>2013-04-21T10:06:57Z</time>
      </trkpt>
      <trkpt lat="41.597175000" lon="1.763482000">
        <ele>576.00</ele>
        <time>2013-04-21T10:07:01Z</time>
      </trkpt>
      <trkpt lat="41.597300000" lon="1.763312000">
        <ele>573.80</ele>
        <time>2013-04-21T10:07:05Z</time>
      </trkpt>
      <trkpt lat="41.597448000" lon="1.763105000">
        <ele>571.90</ele>
        <time>2013-04-21T10:07:09Z</time>
      </trkpt>
      <trkpt lat="41.597610000" lon="1.762854000">
        <ele>569.40</ele>
        <time>2013-04-21T10:07:13Z</time>
      </trkpt>
      <trkpt lat="41.597774000" lon="1.762710000">
        <ele>568.20</ele>
        <time>2013-04-21T10:07:16Z</time>
      </trkpt>
      <trkpt lat="41.597937000" lon="1.762589000">
        <ele>568.20</ele>
        <time>2013-04-21T10:07:19Z</time>
      </trkpt>
      <trkpt lat="41.598101000" lon="1.762487000">
        <ele>567.40</ele>
        <time>2013-04-21T10:07:22Z</time>
      </trkpt>
      <trkpt lat="41.598305000" lon="1.762342000">
        <ele>566.80</ele>
        <time>2013-04-21T10:07:26Z</time>
      </trkpt>
      <trkpt lat="41.598465000" lon="1.762171000">
        <ele>565.80</ele>
        <time>2013-04-21T10:07:30Z</time>
      </trkpt>
      <trkpt lat="41.598616000" lon="1.761976000">
        <ele>565.20</ele>
        <time>2013-04-21T10:07:34Z</time>
      </trkpt>
      <trkpt lat="41.598773000" lon="1.761798000">
        <ele>565.50</ele>
        <time>2013-04-21T10:07:38Z</time>
      </trkpt>
      <trkpt lat="41.598730000" lon="1.761589000">
        <ele>565.50</ele>
        <time>2013-04-21T10:07:43Z</time>
      </trkpt>
      <trkpt lat="41.598550000" lon="1.761623000">
        <ele>565.90</ele>
        <time>2013-04-21T10:07:48Z</time>
      </trkpt>
      <trkpt lat="41.598368000" lon="1.761659000">
        <ele>567.10</ele>
        <time>2013-04-21T10:07:55Z</time>
      </trkpt>
      <trkpt lat="41.598166000" lon="1.761671000">
        <ele>568.80</ele>
        <time>2013-04-21T10:08:00Z</time>
      </trkpt>
      <trkpt lat="41.597967000" lon="1.761656000">
        <ele>568.80</ele>
        <time>2013-04-21T10:08:05Z</time>
      </trkpt>
      <trkpt lat="41.597773000" lon="1.761691000">
        <ele>568.70</ele>
        <time>2013-04-21T10:08:10Z</time>
      </trkpt>
      <trkpt lat="41.597606000" lon="1.761818000">
        <ele>569.30</ele>
        <time>2013-04-21T10:08:15Z</time>
      </trkpt>
      <trkpt lat="41.597432000" lon="1.761907000">
        <ele>570.30</ele>
        <time>2013-04-21T10:08:20Z</time>
      </trkpt>
      <trkpt lat="41.597246000" lon="1.761963000">
        <ele>570.30</ele>
        <time>2013-04-21T10:08:25Z</time>
      </trkpt>
      <trkpt lat="41.597045000" lon="1.762068000">
        <ele>571.30</ele>
        <time>2013-04-21T10:08:31Z</time>
      </trkpt>
      <trkpt lat="41.596867000" lon="1.762176000">
        <ele>572.90</ele>
        <time>2013-04-21T10:08:37Z</time>
      </trkpt>
      <trkpt lat="41.596678000" lon="1.762137000">
        <ele>574.00</ele>
        <time>2013-04-21T10:08:43Z</time>
      </trkpt>
      <trkpt lat="41.596477000" lon="1.762100000">
        <ele>574.60</ele>
        <time>2013-04-21T10:08:49Z</time>
      </trkpt>
      <trkpt lat="41.596284000" lon="1.762162000">
        <ele>575.00</ele>
        <time>2013-04-21T10:08:55Z</time>
      </trkpt>
      <trkpt lat="41.596109000" lon="1.762197000">
        <ele>576.30</ele>
        <time>2013-04-21T10:09:01Z</time>
      </trkpt>
      <trkpt lat="41.595929000" lon="1.762331000">
        <ele>575.10</ele>
        <time>2013-04-21T10:09:06Z</time>
      </trkpt>
      <trkpt lat="41.595773000" lon="1.762463000">
        <ele>574.30</ele>
        <time>2013-04-21T10:09:10Z</time>
      </trkpt>
      <trkpt lat="41.595609000" lon="1.762559000">
        <ele>574.10</ele>
        <time>2013-04-21T10:09:14Z</time>
      </trkpt>
      <trkpt lat="41.595410000" lon="1.762571000">
        <ele>573.90</ele>
        <time>2013-04-21T10:09:19Z</time>
      </trkpt>
      <trkpt lat="41.595194000" lon="1.762513000">
        <ele>573.20</ele>
        <time>2013-04-21T10:09:24Z</time>
      </trkpt>
      <trkpt lat="41.595005000" lon="1.762426000">
        <ele>573.90</ele>
        <time>2013-04-21T10:09:29Z</time>
      </trkpt>
      <trkpt lat="41.594820000" lon="1.762371000">
        <ele>575.30</ele>
        <time>2013-04-21T10:09:34Z</time>
      </trkpt>
      <trkpt lat="41.594778000" lon="1.762112000">
        <ele>575.00</ele>
        <time>2013-04-21T10:09:40Z</time>
      </trkpt>
      <trkpt lat="41.594858000" lon="1.761838000">
        <ele>573.50</ele>
        <time>2013-04-21T10:09:45Z</time>
      </trkpt>
      <trkpt lat="41.594871000" lon="1.761585000">
        <ele>574.30</ele>
        <time>2013-04-21T10:09:50Z</time>
      </trkpt>
      <trkpt lat="41.595025000" lon="1.761426000">
        <ele>575.00</ele>
        <time>2013-04-21T10:09:55Z</time>
      </trkpt>
      <trkpt lat="41.595172000" lon="1.761224000">
        <ele>574.40</ele>
        <time>2013-04-21T10:10:00Z</time>
      </trkpt>
      <trkpt lat="41.595296000" lon="1.761026000">
        <ele>574.00</ele>
        <time>2013-04-21T10:10:05Z</time>
      </trkpt>
      <trkpt lat="41.595348000" lon="1.760756000">
        <ele>573.40</ele>
        <time>2013-04-21T10:10:10Z</time>
      </trkpt>
      <trkpt lat="41.595311000" lon="1.760503000">
        <ele>572.40</ele>
        <time>2013-04-21T10:10:14Z</time>
      </trkpt>
      <trkpt lat="41.595149000" lon="1.760321000">
        <ele>573.90</ele>
        <time>2013-04-21T10:10:19Z</time>
      </trkpt>
      <trkpt lat="41.594947000" lon="1.760259000">
        <ele>575.60</ele>
        <time>2013-04-21T10:10:24Z</time>
      </trkpt>
      <trkpt lat="41.594764000" lon="1.760158000">
        <ele>576.30</ele>
        <time>2013-04-21T10:10:29Z</time>
      </trkpt>
      <trkpt lat="41.594581000" lon="1.760011000">
        <ele>577.10</ele>
        <time>2013-04-21T10:10:35Z</time>
      </trkpt>
      <trkpt lat="41.594377000" lon="1.759909000">
        <ele>574.80</ele>
        <time>2013-04-21T10:10:41Z</time>
      </trkpt>
      <trkpt lat="41.594247000" lon="1.759697000">
        <ele>571.90</ele>
        <time>2013-04-21T10:10:46Z</time>
      </trkpt>
      <trkpt lat="41.594380000" lon="1.759537000">
        <ele>570.20</ele>
        <time>2013-04-21T10:10:51Z</time>
      </trkpt>
      <trkpt lat="41.594612000" lon="1.759558000">
        <ele>568.20</ele>
        <time>2013-04-21T10:10:56Z</time>
      </trkpt>
      <trkpt lat="41.594795000" lon="1.759515000">
        <ele>567.70</ele>
        <time>2013-04-21T10:11:00Z</time>
      </trkpt>
      <trkpt lat="41.594987000" lon="1.759386000">
        <ele>565.80</ele>
        <time>2013-04-21T10:11:04Z</time>
      </trkpt>
      <trkpt lat="41.595148000" lon="1.759204000">
        <ele>565.30</ele>
        <time>2013-04-21T10:11:08Z</time>
      </trkpt>
      <trkpt lat="41.595251000" lon="1.758979000">
        <ele>565.20</ele>
        <time>2013-04-21T10:11:12Z</time>
      </trkpt>
      <trkpt lat="41.595179000" lon="1.758727000">
        <ele>564.20</ele>
        <time>2013-04-21T10:11:17Z</time>
      </trkpt>
      <trkpt lat="41.595065000" lon="1.758540000">
        <ele>563.20</ele>
        <time>2013-04-21T10:11:21Z</time>
      </trkpt>
      <trkpt lat="41.595016000" lon="1.758295000">
        <ele>562.00</ele>
        <time>2013-04-21T10:11:25Z</time>
      </trkpt>
      <trkpt lat="41.594959000" lon="1.758036000">
        <ele>559.90</ele>
        <time>2013-04-21T10:11:29Z</time>
      </trkpt>
      <trkpt lat="41.594987000" lon="1.757780000">
        <ele>560.00</ele>
        <time>2013-04-21T10:11:33Z</time>
      </trkpt>
      <trkpt lat="41.594985000" lon="1.757518000">
        <ele>559.50</ele>
        <time>2013-04-21T10:11:37Z</time>
      </trkpt>
      <trkpt lat="41.594983000" lon="1.757270000">
        <ele>558.30</ele>
        <time>2013-04-21T10:11:41Z</time>
      </trkpt>
      <trkpt lat="41.595123000" lon="1.757067000">
        <ele>556.90</ele>
        <time>2013-04-21T10:11:46Z</time>
      </trkpt>
      <trkpt lat="41.595319000" lon="1.757142000">
        <ele>555.50</ele>
        <time>2013-04-21T10:11:50Z</time>
      </trkpt>
      <trkpt lat="41.595519000" lon="1.757233000">
        <ele>555.20</ele>
        <time>2013-04-21T10:11:54Z</time>
      </trkpt>
      <trkpt lat="41.595725000" lon="1.757286000">
        <ele>555.60</ele>
        <time>2013-04-21T10:11:58Z</time>
      </trkpt>
      <trkpt lat="41.595840000" lon="1.757104000">
        <ele>555.80</ele>
        <time>2013-04-21T10:12:02Z</time>
      </trkpt>
      <trkpt lat="41.595876000" lon="1.756858000">
        <ele>555.90</ele>
        <time>2013-04-21T10:12:06Z</time>
      </trkpt>
      <trkpt lat="41.595933000" lon="1.756609000">
        <ele>554.40</ele>
        <time>2013-04-21T10:12:10Z</time>
      </trkpt>
      <trkpt lat="41.596108000" lon="1.756432000">
        <ele>553.30</ele>
        <time>2013-04-21T10:12:14Z</time>
      </trkpt>
      <trkpt lat="41.596335000" lon="1.756377000">
        <ele>553.20</ele>
        <time>2013-04-21T10:12:18Z</time>
      </trkpt>
      <trkpt lat="41.596537000" lon="1.756317000">
        <ele>553.20</ele>
        <time>2013-04-21T10:12:22Z</time>
      </trkpt>
      <trkpt lat="41.596634000" lon="1.756093000">
        <ele>552.90</ele>
        <time>2013-04-21T10:12:26Z</time>
      </trkpt>
      <trkpt lat="41.596607000" lon="1.755830000">
        <ele>551.90</ele>
        <time>2013-04-21T10:12:30Z</time>
      </trkpt>
      <trkpt lat="41.596513000" lon="1.755558000">
        <ele>551.50</ele>
        <time>2013-04-21T10:12:34Z</time>
      </trkpt>
      <trkpt lat="41.596371000" lon="1.755350000">
        <ele>551.10</ele>
        <time>2013-04-21T10:12:38Z</time>
      </trkpt>
      <trkpt lat="41.596258000" lon="1.755116000">
        <ele>552.10</ele>
        <time>2013-04-21T10:12:42Z</time>
      </trkpt>
      <trkpt lat="41.596162000" lon="1.754871000">
        <ele>551.60</ele>
        <time>2013-04-21T10:12:46Z</time>
      </trkpt>
      <trkpt lat="41.596153000" lon="1.754615000">
        <ele>550.90</ele>
        <time>2013-04-21T10:12:50Z</time>
      </trkpt>
      <trkpt lat="41.596266000" lon="1.754350000">
        <ele>549.00</ele>
        <time>2013-04-21T10:12:54Z</time>
      </trkpt>
      <trkpt lat="41.596270000" lon="1.754111000">
        <ele>547.90</ele>
        <time>2013-04-21T10:12:57Z</time>
      </trkpt>
      <trkpt lat="41.596250000" lon="1.753834000">
        <ele>547.40</ele>
        <time>2013-04-21T10:13:01Z</time>
      </trkpt>
      <trkpt lat="41.596416000" lon="1.753665000">
        <ele>544.30</ele>
        <time>2013-04-21T10:13:05Z</time>
      </trkpt>
      <trkpt lat="41.596639000" lon="1.753580000">
        <ele>543.20</ele>
        <time>2013-04-21T10:13:09Z</time>
      </trkpt>
      <trkpt lat="41.596852000" lon="1.753490000">
        <ele>543.30</ele>
        <time>2013-04-21T10:13:13Z</time>
      </trkpt>
      <trkpt lat="41.597025000" lon="1.753362000">
        <ele>543.40</ele>
        <time>2013-04-21T10:13:17Z</time>
      </trkpt>
      <trkpt lat="41.596988000" lon="1.753164000">
        <ele>543.10</ele>
        <time>2013-04-21T10:13:21Z</time>
      </trkpt>
      <trkpt lat="41.596853000" lon="1.752930000">
        <ele>543.80</ele>
        <time>2013-04-21T10:13:26Z</time>
      </trkpt>
      <trkpt lat="41.596715000" lon="1.752757000">
        <ele>543.70</ele>
        <time>2013-04-21T10:13:30Z</time>
      </trkpt>
      <trkpt lat="41.596534000" lon="1.752655000">
        <ele>544.00</ele>
        <time>2013-04-21T10:13:34Z</time>
      </trkpt>
      <trkpt lat="41.596351000" lon="1.752571000">
        <ele>544.40</ele>
        <time>2013-04-21T10:13:38Z</time>
      </trkpt>
      <trkpt lat="41.596160000" lon="1.752565000">
        <ele>545.00</ele>
        <time>2013-04-21T10:13:42Z</time>
      </trkpt>
      <trkpt lat="41.595942000" lon="1.752546000">
        <ele>545.80</ele>
        <time>2013-04-21T10:13:47Z</time>
      </trkpt>
      <trkpt lat="41.595875000" lon="1.752344000">
        <ele>544.20</ele>
        <time>2013-04-21T10:13:51Z</time>
      </trkpt>
      <trkpt lat="41.595948000" lon="1.752099000">
        <ele>542.50</ele>
        <time>2013-04-21T10:13:55Z</time>
      </trkpt>
      <trkpt lat="41.596079000" lon="1.751897000">
        <ele>540.00</ele>
        <time>2013-04-21T10:13:59Z</time>
      </trkpt>
      <trkpt lat="41.596235000" lon="1.751664000">
        <ele>539.40</ele>
        <time>2013-04-21T10:14:03Z</time>
      </trkpt>
      <trkpt lat="41.596375000" lon="1.751437000">
        <ele>538.70</ele>
        <time>2013-04-21T10:14:07Z</time>
      </trkpt>
      <trkpt lat="41.596539000" lon="1.751244000">
        <ele>535.90</ele>
        <time>2013-04-21T10:14:11Z</time>
      </trkpt>
      <trkpt lat="41.596688000" lon="1.751035000">
        <ele>536.20</ele>
        <time>2013-04-21T10:14:15Z</time>
      </trkpt>
      <trkpt lat="41.596819000" lon="1.750800000">
        <ele>534.90</ele>
        <time>2013-04-21T10:14:19Z</time>
      </trkpt>
      <trkpt lat="41.596960000" lon="1.750650000">
        <ele>540.10</ele>
        <time>2013-04-21T10:15:35Z</time>
      </trkpt>
      <trkpt lat="41.597083000" lon="1.750556000">
        <ele>542.60</ele>
        <time>2013-04-21T10:16:10Z</time>
      </trkpt>
      <trkpt lat="41.597242000" lon="1.750437000">
        <ele>544.70</ele>
        <time>2013-04-21T10:16:42Z</time>
      </trkpt>
      <trkpt lat="41.597420000" lon="1.750364000">
        <ele>548.40</ele>
        <time>2013-04-21T10:16:52Z</time>
      </trkpt>
      <trkpt lat="41.597592000" lon="1.750299000">
        <ele>552.70</ele>
        <time>2013-04-21T10:17:05Z</time>
      </trkpt>
      <trkpt lat="41.597768000" lon="1.750226000">
        <ele>557.20</ele>
        <time>2013-04-21T10:17:19Z</time>
      </trkpt>
      <trkpt lat="41.597941000" lon="1.750111000">
        <ele>560.70</ele>
        <time>2013-04-21T10:17:35Z</time>
      </trkpt>
      <trkpt lat="41.598113000" lon="1.750009000">
        <ele>562.30</ele>
        <time>2013-04-21T10:17:49Z</time>
      </trkpt>
      <trkpt lat="41.598281000" lon="1.749894000">
        <ele>563.50</ele>
        <time>2013-04-21T10:18:04Z</time>
      </trkpt>
      <trkpt lat="41.598420000" lon="1.749755000">
        <ele>564.10</ele>
        <time>2013-04-21T10:18:45Z</time>
      </trkpt>
      <trkpt lat="41.598606000" lon="1.749629000">
        <ele>563.90</ele>
        <time>2013-04-21T10:18:53Z</time>
      </trkpt>
      <trkpt lat="41.598772000" lon="1.749540000">
        <ele>563.50</ele>
        <time>2013-04-21T10:18:59Z</time>
      </trkpt>
      <trkpt lat="41.598976000" lon="1.749482000">
        <ele>565.70</ele>
        <time>2013-04-21T10:19:06Z</time>
      </trkpt>
      <trkpt lat="41.599182000" lon="1.749436000">
        <ele>566.30</ele>
        <time>2013-04-21T10:19:13Z</time>
      </trkpt>
      <trkpt lat="41.599381000" lon="1.749378000">
        <ele>569.50</ele>
        <time>2013-04-21T10:19:22Z</time>
      </trkpt>
      <trkpt lat="41.599504000" lon="1.749247000">
        <ele>572.60</ele>
        <time>2013-04-21T10:20:24Z</time>
      </trkpt>
      <trkpt lat="41.599540000" lon="1.748979000">
        <ele>567.60</ele>
        <time>2013-04-21T10:20:35Z</time>
      </trkpt>
      <trkpt lat="41.599392000" lon="1.748923000">
        <ele>569.30</ele>
        <time>2013-04-21T10:20:49Z</time>
      </trkpt>
      <trkpt lat="41.599231000" lon="1.749053000">
        <ele>571.20</ele>
        <time>2013-04-21T10:21:03Z</time>
      </trkpt>
      <trkpt lat="41.598959000" lon="1.749156000">
        <ele>569.00</ele>
        <time>2013-04-21T10:21:14Z</time>
      </trkpt>
      <trkpt lat="41.598757000" lon="1.749146000">
        <ele>569.30</ele>
        <time>2013-04-21T10:21:23Z</time>
      </trkpt>
      <trkpt lat="41.598528000" lon="1.749133000">
        <ele>567.50</ele>
        <time>2013-04-21T10:21:45Z</time>
      </trkpt>
      <trkpt lat="41.598333000" lon="1.749184000">
        <ele>565.40</ele>
        <time>2013-04-21T10:21:51Z</time>
      </trkpt>
      <trkpt lat="41.598140000" lon="1.749216000">
        <ele>565.50</ele>
        <time>2013-04-21T10:21:57Z</time>
      </trkpt>
      <trkpt lat="41.597949000" lon="1.749243000">
        <ele>566.00</ele>
        <time>2013-04-21T10:22:03Z</time>
      </trkpt>
      <trkpt lat="41.597743000" lon="1.749255000">
        <ele>566.50</ele>
        <time>2013-04-21T10:22:10Z</time>
      </trkpt>
      <trkpt lat="41.597550000" lon="1.749309000">
        <ele>565.50</ele>
        <time>2013-04-21T10:22:17Z</time>
      </trkpt>
      <trkpt lat="41.597351000" lon="1.749373000">
        <ele>563.90</ele>
        <time>2013-04-21T10:22:22Z</time>
      </trkpt>
      <trkpt lat="41.597176000" lon="1.749425000">
        <ele>564.80</ele>
        <time>2013-04-21T10:23:13Z</time>
      </trkpt>
      <trkpt lat="41.596984000" lon="1.749516000">
        <ele>566.40</ele>
        <time>2013-04-21T10:23:22Z</time>
      </trkpt>
      <trkpt lat="41.596807000" lon="1.749556000">
        <ele>567.20</ele>
        <time>2013-04-21T10:23:29Z</time>
      </trkpt>
      <trkpt lat="41.596611000" lon="1.749575000">
        <ele>568.00</ele>
        <time>2013-04-21T10:23:42Z</time>
      </trkpt>
      <trkpt lat="41.596425000" lon="1.749644000">
        <ele>570.10</ele>
        <time>2013-04-21T10:23:49Z</time>
      </trkpt>
      <trkpt lat="41.596229000" lon="1.749691000">
        <ele>571.60</ele>
        <time>2013-04-21T10:23:57Z</time>
      </trkpt>
      <trkpt lat="41.596061000" lon="1.749736000">
        <ele>571.80</ele>
        <time>2013-04-21T10:24:15Z</time>
      </trkpt>
      <trkpt lat="41.595865000" lon="1.749818000">
        <ele>573.30</ele>
        <time>2013-04-21T10:24:23Z</time>
      </trkpt>
      <trkpt lat="41.595673000" lon="1.749862000">
        <ele>575.30</ele>
        <time>2013-04-21T10:24:30Z</time>
      </trkpt>
      <trkpt lat="41.595487000" lon="1.749902000">
        <ele>575.60</ele>
        <time>2013-04-21T10:24:37Z</time>
      </trkpt>
      <trkpt lat="41.595301000" lon="1.749817000">
        <ele>575.40</ele>
        <time>2013-04-21T10:24:44Z</time>
      </trkpt>
      <trkpt lat="41.595177000" lon="1.749609000">
        <ele>575.90</ele>
        <time>2013-04-21T10:24:50Z</time>
      </trkpt>
      <trkpt lat="41.595148000" lon="1.749328000">
        <ele>576.00</ele>
        <time>2013-04-21T10:24:56Z</time>
      </trkpt>
      <trkpt lat="41.595180000" lon="1.749054000">
        <ele>576.30</ele>
        <time>2013-04-21T10:25:02Z</time>
      </trkpt>
      <trkpt lat="41.595240000" lon="1.748780000">
        <ele>576.50</ele>
        <time>2013-04-21T10:25:08Z</time>
      </trkpt>
      <trkpt lat="41.595281000" lon="1.748529000">
        <ele>576.20</ele>
        <time>2013-04-21T10:25:13Z</time>
      </trkpt>
      <trkpt lat="41.595339000" lon="1.748291000">
        <ele>576.70</ele>
        <time>2013-04-21T10:25:18Z</time>
      </trkpt>
      <trkpt lat="41.595409000" lon="1.748048000">
        <ele>578.10</ele>
        <time>2013-04-21T10:25:24Z</time>
      </trkpt>
      <trkpt lat="41.595487000" lon="1.747801000">
        <ele>576.10</ele>
        <time>2013-04-21T10:25:30Z</time>
      </trkpt>
      <trkpt lat="41.595613000" lon="1.747592000">
        <ele>575.10</ele>
        <time>2013-04-21T10:25:35Z</time>
      </trkpt>
      <trkpt lat="41.595797000" lon="1.747481000">
        <ele>575.00</ele>
        <time>2013-04-21T10:25:40Z</time>
      </trkpt>
      <trkpt lat="41.595982000" lon="1.747415000">
        <ele>573.20</ele>
        <time>2013-04-21T10:25:44Z</time>
      </trkpt>
      <trkpt lat="41.596164000" lon="1.747291000">
        <ele>572.40</ele>
        <time>2013-04-21T10:25:48Z</time>
      </trkpt>
      <trkpt lat="41.596342000" lon="1.747145000">
        <ele>570.20</ele>
        <time>2013-04-21T10:25:53Z</time>
      </trkpt>
      <trkpt lat="41.596484000" lon="1.746964000">
        <ele>569.70</ele>
        <time>2013-04-21T10:25:59Z</time>
      </trkpt>
      <trkpt lat="41.596532000" lon="1.746711000">
        <ele>569.80</ele>
        <time>2013-04-21T10:26:07Z</time>
      </trkpt>
      <trkpt lat="41.596430000" lon="1.746535000">
        <ele>571.20</ele>
        <time>2013-04-21T10:26:13Z</time>
      </trkpt>
      <trkpt lat="41.596281000" lon="1.746359000">
        <ele>572.90</ele>
        <time>2013-04-21T10:26:20Z</time>
      </trkpt>
      <trkpt lat="41.596150000" lon="1.746167000">
        <ele>574.50</ele>
        <time>2013-04-21T10:26:27Z</time>
      </trkpt>
      <trkpt lat="41.596041000" lon="1.745952000">
        <ele>576.70</ele>
        <time>2013-04-21T10:26:34Z</time>
      </trkpt>
      <trkpt lat="41.596017000" lon="1.745537000">
        <ele>578.70</ele>
        <time>2013-04-21T10:26:46Z</time>
      </trkpt>
      <trkpt lat="41.596009000" lon="1.745262000">
        <ele>581.70</ele>
        <time>2013-04-21T10:26:55Z</time>
      </trkpt>
      <trkpt lat="41.595963000" lon="1.745004000">
        <ele>583.90</ele>
        <time>2013-04-21T10:27:04Z</time>
      </trkpt>
      <trkpt lat="41.595964000" lon="1.744734000">
        <ele>587.10</ele>
        <time>2013-04-21T10:27:36Z</time>
      </trkpt>
      <trkpt lat="41.596020000" lon="1.744500000">
        <ele>588.90</ele>
        <time>2013-04-21T10:27:48Z</time>
      </trkpt>
      <trkpt lat="41.596145000" lon="1.744287000">
        <ele>591.10</ele>
        <time>2013-04-21T10:28:00Z</time>
      </trkpt>
      <trkpt lat="41.596270000" lon="1.744069000">
        <ele>592.90</ele>
        <time>2013-04-21T10:28:10Z</time>
      </trkpt>
      <trkpt lat="41.596395000" lon="1.743897000">
        <ele>593.70</ele>
        <time>2013-04-21T10:28:18Z</time>
      </trkpt>
      <trkpt lat="41.596596000" lon="1.743883000">
        <ele>594.30</ele>
        <time>2013-04-21T10:28:26Z</time>
      </trkpt>
      <trkpt lat="41.596790000" lon="1.743905000">
        <ele>595.70</ele>
        <time>2013-04-21T10:28:34Z</time>
      </trkpt>
      <trkpt lat="41.596973000" lon="1.743975000">
        <ele>596.80</ele>
        <time>2013-04-21T10:28:42Z</time>
      </trkpt>
      <trkpt lat="41.597136000" lon="1.744057000">
        <ele>598.10</ele>
        <time>2013-04-21T10:28:50Z</time>
      </trkpt>
      <trkpt lat="41.597267000" lon="1.744241000">
        <ele>599.30</ele>
        <time>2013-04-21T10:28:58Z</time>
      </trkpt>
      <trkpt lat="41.597409000" lon="1.744442000">
        <ele>600.50</ele>
        <time>2013-04-21T10:29:06Z</time>
      </trkpt>
      <trkpt lat="41.597554000" lon="1.744622000">
        <ele>602.70</ele>
        <time>2013-04-21T10:29:14Z</time>
      </trkpt>
      <trkpt lat="41.597712000" lon="1.744772000">
        <ele>605.00</ele>
        <time>2013-04-21T10:29:23Z</time>
      </trkpt>
      <trkpt lat="41.597815000" lon="1.744980000">
        <ele>607.50</ele>
        <time>2013-04-21T10:29:32Z</time>
      </trkpt>
      <trkpt lat="41.597845000" lon="1.745235000">
        <ele>609.70</ele>
        <time>2013-04-21T10:29:44Z</time>
      </trkpt>
      <trkpt lat="41.597994000" lon="1.745374000">
        <ele>610.60</ele>
        <time>2013-04-21T10:29:54Z</time>
      </trkpt>
      <trkpt lat="41.598187000" lon="1.745416000">
        <ele>611.00</ele>
        <time>2013-04-21T10:30:03Z</time>
      </trkpt>
      <trkpt lat="41.598398000" lon="1.745365000">
        <ele>611.60</ele>
        <time>2013-04-21T10:30:12Z</time>
      </trkpt>
      <trkpt lat="41.598533000" lon="1.745202000">
        <ele>612.90</ele>
        <time>2013-04-21T10:30:21Z</time>
      </trkpt>
      <trkpt lat="41.598626000" lon="1.744994000">
        <ele>615.40</ele>
        <time>2013-04-21T10:30:30Z</time>
      </trkpt>
      <trkpt lat="41.598787000" lon="1.744847000">
        <ele>617.50</ele>
        <time>2013-04-21T10:30:40Z</time>
      </trkpt>
      <trkpt lat="41.598975000" lon="1.744760000">
        <ele>619.30</ele>
        <time>2013-04-21T10:30:50Z</time>
      </trkpt>
      <trkpt lat="41.599151000" lon="1.744700000">
        <ele>620.80</ele>
        <time>2013-04-21T10:31:00Z</time>
      </trkpt>
      <trkpt lat="41.599291000" lon="1.744529000">
        <ele>621.80</ele>
        <time>2013-04-21T10:31:14Z</time>
      </trkpt>
      <trkpt lat="41.599447000" lon="1.744416000">
        <ele>623.40</ele>
        <time>2013-04-21T10:31:28Z</time>
      </trkpt>
      <trkpt lat="41.599634000" lon="1.744357000">
        <ele>623.40</ele>
        <time>2013-04-21T10:31:42Z</time>
      </trkpt>
      <trkpt lat="41.599808000" lon="1.744428000">
        <ele>623.80</ele>
        <time>2013-04-21T10:31:56Z</time>
      </trkpt>
      <trkpt lat="41.599947000" lon="1.744585000">
        <ele>625.10</ele>
        <time>2013-04-21T10:32:07Z</time>
      </trkpt>
      <trkpt lat="41.600092000" lon="1.744754000">
        <ele>625.90</ele>
        <time>2013-04-21T10:32:17Z</time>
      </trkpt>
      <trkpt lat="41.600264000" lon="1.744858000">
        <ele>626.40</ele>
        <time>2013-04-21T10:32:27Z</time>
      </trkpt>
      <trkpt lat="41.600427000" lon="1.744970000">
        <ele>627.90</ele>
        <time>2013-04-21T10:32:37Z</time>
      </trkpt>
      <trkpt lat="41.600581000" lon="1.745098000">
        <ele>628.40</ele>
        <time>2013-04-21T10:32:45Z</time>
      </trkpt>
      <trkpt lat="41.600759000" lon="1.745189000">
        <ele>628.80</ele>
        <time>2013-04-21T10:32:54Z</time>
      </trkpt>
      <trkpt lat="41.600951000" lon="1.745178000">
        <ele>628.20</ele>
        <time>2013-04-21T10:33:01Z</time>
      </trkpt>
      <trkpt lat="41.601061000" lon="1.744973000">
        <ele>626.50</ele>
        <time>2013-04-21T10:33:06Z</time>
      </trkpt>
      <trkpt lat="41.601231000" lon="1.744778000">
        <ele>625.70</ele>
        <time>2013-04-21T10:33:11Z</time>
      </trkpt>
      <trkpt lat="41.601417000" lon="1.744706000">
        <ele>624.40</ele>
        <time>2013-04-21T10:33:15Z</time>
      </trkpt>
      <trkpt lat="41.601597000" lon="1.744592000">
        <ele>623.80</ele>
        <time>2013-04-21T10:33:21Z</time>
      </trkpt>
      <trkpt lat="41.601736000" lon="1.744375000">
        <ele>621.40</ele>
        <time>2013-04-21T10:33:26Z</time>
      </trkpt>
      <trkpt lat="41.601867000" lon="1.744110000">
        <ele>619.40</ele>
        <time>2013-04-21T10:33:30Z</time>
      </trkpt>
      <trkpt lat="41.601979000" lon="1.743881000">
        <ele>616.90</ele>
        <time>2013-04-21T10:33:33Z</time>
      </trkpt>
      <trkpt lat="41.602101000" lon="1.743633000">
        <ele>615.90</ele>
        <time>2013-04-21T10:33:36Z</time>
      </trkpt>
      <trkpt lat="41.602229000" lon="1.743369000">
        <ele>614.70</ele>
        <time>2013-04-21T10:33:39Z</time>
      </trkpt>
      <trkpt lat="41.602365000" lon="1.743110000">
        <ele>614.70</ele>
        <time>2013-04-21T10:33:42Z</time>
      </trkpt>
      <trkpt lat="41.602481000" lon="1.742849000">
        <ele>614.50</ele>
        <time>2013-04-21T10:33:45Z</time>
      </trkpt>
      <trkpt lat="41.602601000" lon="1.742619000">
        <ele>615.00</ele>
        <time>2013-04-21T10:33:48Z</time>
      </trkpt>
      <trkpt lat="41.602706000" lon="1.742415000">
        <ele>615.60</ele>
        <time>2013-04-21T10:33:51Z</time>
      </trkpt>
      <trkpt lat="41.602827000" lon="1.742168000">
        <ele>617.00</ele>
        <time>2013-04-21T10:33:55Z</time>
      </trkpt>
      <trkpt lat="41.602932000" lon="1.741930000">
        <ele>616.90</ele>
        <time>2013-04-21T10:33:59Z</time>
      </trkpt>
      <trkpt lat="41.603043000" lon="1.741704000">
        <ele>615.20</ele>
        <time>2013-04-21T10:34:03Z</time>
      </trkpt>
      <trkpt lat="41.603169000" lon="1.741434000">
        <ele>614.40</ele>
        <time>2013-04-21T10:34:07Z</time>
      </trkpt>
      <trkpt lat="41.603272000" lon="1.741199000">
        <ele>612.40</ele>
        <time>2013-04-21T10:34:10Z</time>
      </trkpt>
      <trkpt lat="41.603339000" lon="1.740934000">
        <ele>610.40</ele>
        <time>2013-04-21T10:34:13Z</time>
      </trkpt>
      <trkpt lat="41.603363000" lon="1.740626000">
        <ele>608.00</ele>
        <time>2013-04-21T10:34:16Z</time>
      </trkpt>
      <trkpt lat="41.603329000" lon="1.740303000">
        <ele>606.70</ele>
        <time>2013-04-21T10:34:19Z</time>
      </trkpt>
      <trkpt lat="41.603259000" lon="1.739992000">
        <ele>606.10</ele>
        <time>2013-04-21T10:34:22Z</time>
      </trkpt>
      <trkpt lat="41.603184000" lon="1.739729000">
        <ele>605.50</ele>
        <time>2013-04-21T10:34:25Z</time>
      </trkpt>
      <trkpt lat="41.603110000" lon="1.739474000">
        <ele>606.00</ele>
        <time>2013-04-21T10:34:28Z</time>
      </trkpt>
      <trkpt lat="41.603030000" lon="1.739226000">
        <ele>605.60</ele>
        <time>2013-04-21T10:34:31Z</time>
      </trkpt>
      <trkpt lat="41.602948000" lon="1.738990000">
        <ele>605.10</ele>
        <time>2013-04-21T10:34:34Z</time>
      </trkpt>
      <trkpt lat="41.602877000" lon="1.738766000">
        <ele>604.80</ele>
        <time>2013-04-21T10:34:37Z</time>
      </trkpt>
      <trkpt lat="41.602769000" lon="1.738483000">
        <ele>605.20</ele>
        <time>2013-04-21T10:34:41Z</time>
      </trkpt>
      <trkpt lat="41.602621000" lon="1.738253000">
        <ele>605.60</ele>
        <time>2013-04-21T10:34:45Z</time>
      </trkpt>
      <trkpt lat="41.602468000" lon="1.738062000">
        <ele>605.60</ele>
        <time>2013-04-21T10:34:49Z</time>
      </trkpt>
      <trkpt lat="41.602326000" lon="1.737904000">
        <ele>605.90</ele>
        <time>2013-04-21T10:34:53Z</time>
      </trkpt>
      <trkpt lat="41.602175000" lon="1.737754000">
        <ele>606.30</ele>
        <time>2013-04-21T10:34:58Z</time>
      </trkpt>
      <trkpt lat="41.602040000" lon="1.737717000">
        <ele>607.40</ele>
        <time>2013-04-21T10:35:05Z</time>
      </trkpt>
      <trkpt lat="41.601906000" lon="1.737574000">
        <ele>607.10</ele>
        <time>2013-04-21T10:35:27Z</time>
      </trkpt>
      <trkpt lat="41.602092000" lon="1.737628000">
        <ele>597.60</ele>
        <time>2013-04-21T11:37:25Z</time>
      </trkpt>
      <trkpt lat="41.602089000" lon="1.737371000">
        <ele>596.90</ele>
        <time>2013-04-21T11:37:34Z</time>
      </trkpt>
      <trkpt lat="41.601983000" lon="1.737167000">
        <ele>596.80</ele>
        <time>2013-04-21T11:37:39Z</time>
      </trkpt>
      <trkpt lat="41.601871000" lon="1.736974000">
        <ele>595.70</ele>
        <time>2013-04-21T11:37:43Z</time>
      </trkpt>
      <trkpt lat="41.601729000" lon="1.736798000">
        <ele>594.70</ele>
        <time>2013-04-21T11:37:47Z</time>
      </trkpt>
      <trkpt lat="41.601532000" lon="1.736649000">
        <ele>595.40</ele>
        <time>2013-04-21T11:37:51Z</time>
      </trkpt>
      <trkpt lat="41.601327000" lon="1.736557000">
        <ele>596.00</ele>
        <time>2013-04-21T11:37:55Z</time>
      </trkpt>
      <trkpt lat="41.601135000" lon="1.736495000">
        <ele>596.90</ele>
        <time>2013-04-21T11:37:59Z</time>
      </trkpt>
      <trkpt lat="41.600956000" lon="1.736427000">
        <ele>597.80</ele>
        <time>2013-04-21T11:38:03Z</time>
      </trkpt>
      <trkpt lat="41.600746000" lon="1.736346000">
        <ele>598.90</ele>
        <time>2013-04-21T11:38:08Z</time>
      </trkpt>
      <trkpt lat="41.600548000" lon="1.736283000">
        <ele>599.90</ele>
        <time>2013-04-21T11:38:13Z</time>
      </trkpt>
      <trkpt lat="41.600351000" lon="1.736221000">
        <ele>600.90</ele>
        <time>2013-04-21T11:38:18Z</time>
      </trkpt>
      <trkpt lat="41.600165000" lon="1.736157000">
        <ele>601.40</ele>
        <time>2013-04-21T11:38:23Z</time>
      </trkpt>
      <trkpt lat="41.599981000" lon="1.736064000">
        <ele>602.60</ele>
        <time>2013-04-21T11:38:28Z</time>
      </trkpt>
      <trkpt lat="41.599827000" lon="1.735949000">
        <ele>602.70</ele>
        <time>2013-04-21T11:38:33Z</time>
      </trkpt>
      <trkpt lat="41.599672000" lon="1.735757000">
        <ele>604.60</ele>
        <time>2013-04-21T11:38:39Z</time>
      </trkpt>
      <trkpt lat="41.599555000" lon="1.735520000">
        <ele>605.70</ele>
        <time>2013-04-21T11:38:45Z</time>
      </trkpt>
      <trkpt lat="41.599477000" lon="1.735245000">
        <ele>606.00</ele>
        <time>2013-04-21T11:38:51Z</time>
      </trkpt>
      <trkpt lat="41.599415000" lon="1.734988000">
        <ele>605.50</ele>
        <time>2013-04-21T11:38:56Z</time>
      </trkpt>
      <trkpt lat="41.599360000" lon="1.734722000">
        <ele>604.20</ele>
        <time>2013-04-21T11:39:00Z</time>
      </trkpt>
      <trkpt lat="41.599305000" lon="1.734482000">
        <ele>602.70</ele>
        <time>2013-04-21T11:39:03Z</time>
      </trkpt>
      <trkpt lat="41.599237000" lon="1.734230000">
        <ele>601.40</ele>
        <time>2013-04-21T11:39:06Z</time>
      </trkpt>
      <trkpt lat="41.599137000" lon="1.733986000">
        <ele>601.00</ele>
        <time>2013-04-21T11:39:09Z</time>
      </trkpt>
      <trkpt lat="41.599012000" lon="1.733757000">
        <ele>600.40</ele>
        <time>2013-04-21T11:39:12Z</time>
      </trkpt>
      <trkpt lat="41.598847000" lon="1.733596000">
        <ele>600.40</ele>
        <time>2013-04-21T11:39:15Z</time>
      </trkpt>
      <trkpt lat="41.598672000" lon="1.733481000">
        <ele>600.70</ele>
        <time>2013-04-21T11:39:18Z</time>
      </trkpt>
      <trkpt lat="41.598495000" lon="1.733412000">
        <ele>601.20</ele>
        <time>2013-04-21T11:39:21Z</time>
      </trkpt>
      <trkpt lat="41.598314000" lon="1.733340000">
        <ele>601.10</ele>
        <time>2013-04-21T11:39:24Z</time>
      </trkpt>
      <trkpt lat="41.598144000" lon="1.733247000">
        <ele>601.70</ele>
        <time>2013-04-21T11:39:27Z</time>
      </trkpt>
      <trkpt lat="41.597970000" lon="1.733044000">
        <ele>602.30</ele>
        <time>2013-04-21T11:39:31Z</time>
      </trkpt>
      <trkpt lat="41.597872000" lon="1.732800000">
        <ele>602.60</ele>
        <time>2013-04-21T11:39:35Z</time>
      </trkpt>
      <trkpt lat="41.597779000" lon="1.732565000">
        <ele>602.60</ele>
        <time>2013-04-21T11:39:39Z</time>
      </trkpt>
      <trkpt lat="41.597563000" lon="1.732500000">
        <ele>601.80</ele>
        <time>2013-04-21T11:39:43Z</time>
      </trkpt>
      <trkpt lat="41.597377000" lon="1.732550000">
        <ele>602.40</ele>
        <time>2013-04-21T11:39:47Z</time>
      </trkpt>
      <trkpt lat="41.597171000" lon="1.732660000">
        <ele>602.70</ele>
        <time>2013-04-21T11:39:52Z</time>
      </trkpt>
      <trkpt lat="41.596991000" lon="1.732748000">
        <ele>604.30</ele>
        <time>2013-04-21T11:39:57Z</time>
      </trkpt>
      <trkpt lat="41.596789000" lon="1.732792000">
        <ele>606.40</ele>
        <time>2013-04-21T11:40:04Z</time>
      </trkpt>
      <trkpt lat="41.596616000" lon="1.732846000">
        <ele>608.40</ele>
        <time>2013-04-21T11:40:11Z</time>
      </trkpt>
      <trkpt lat="41.596462000" lon="1.732996000">
        <ele>610.70</ele>
        <time>2013-04-21T11:40:20Z</time>
      </trkpt>
      <trkpt lat="41.596332000" lon="1.733223000">
        <ele>611.70</ele>
        <time>2013-04-21T11:40:28Z</time>
      </trkpt>
      <trkpt lat="41.596147000" lon="1.733298000">
        <ele>613.20</ele>
        <time>2013-04-21T11:40:36Z</time>
      </trkpt>
      <trkpt lat="41.596012000" lon="1.733111000">
        <ele>612.70</ele>
        <time>2013-04-21T11:40:43Z</time>
      </trkpt>
      <trkpt lat="41.595929000" lon="1.732887000">
        <ele>611.80</ele>
        <time>2013-04-21T11:40:48Z</time>
      </trkpt>
      <trkpt lat="41.595825000" lon="1.732673000">
        <ele>612.20</ele>
        <time>2013-04-21T11:40:53Z</time>
      </trkpt>
      <trkpt lat="41.595658000" lon="1.732538000">
        <ele>611.90</ele>
        <time>2013-04-21T11:40:58Z</time>
      </trkpt>
      <trkpt lat="41.595477000" lon="1.732490000">
        <ele>612.70</ele>
        <time>2013-04-21T11:41:03Z</time>
      </trkpt>
      <trkpt lat="41.595262000" lon="1.732503000">
        <ele>613.00</ele>
        <time>2013-04-21T11:41:09Z</time>
      </trkpt>
      <trkpt lat="41.595076000" lon="1.732591000">
        <ele>613.10</ele>
        <time>2013-04-21T11:41:14Z</time>
      </trkpt>
      <trkpt lat="41.594895000" lon="1.732674000">
        <ele>613.70</ele>
        <time>2013-04-21T11:41:20Z</time>
      </trkpt>
      <trkpt lat="41.594722000" lon="1.732749000">
        <ele>615.10</ele>
        <time>2013-04-21T11:41:27Z</time>
      </trkpt>
      <trkpt lat="41.594577000" lon="1.732889000">
        <ele>616.80</ele>
        <time>2013-04-21T11:41:34Z</time>
      </trkpt>
      <trkpt lat="41.594453000" lon="1.733099000">
        <ele>617.90</ele>
        <time>2013-04-21T11:41:41Z</time>
      </trkpt>
      <trkpt lat="41.594313000" lon="1.733277000">
        <ele>618.60</ele>
        <time>2013-04-21T11:41:48Z</time>
      </trkpt>
      <trkpt lat="41.594137000" lon="1.733438000">
        <ele>618.40</ele>
        <time>2013-04-21T11:41:55Z</time>
      </trkpt>
      <trkpt lat="41.593964000" lon="1.733594000">
        <ele>617.90</ele>
        <time>2013-04-21T11:42:00Z</time>
      </trkpt>
      <trkpt lat="41.593782000" lon="1.733737000">
        <ele>617.80</ele>
        <time>2013-04-21T11:42:05Z</time>
      </trkpt>
      <trkpt lat="41.593575000" lon="1.733836000">
        <ele>618.00</ele>
        <time>2013-04-21T11:42:10Z</time>
      </trkpt>
      <trkpt lat="41.593377000" lon="1.733924000">
        <ele>618.20</ele>
        <time>2013-04-21T11:42:15Z</time>
      </trkpt>
      <trkpt lat="41.593181000" lon="1.734017000">
        <ele>618.20</ele>
        <time>2013-04-21T11:42:20Z</time>
      </trkpt>
      <trkpt lat="41.592970000" lon="1.734030000">
        <ele>619.00</ele>
        <time>2013-04-21T11:42:25Z</time>
      </trkpt>
      <trkpt lat="41.592790000" lon="1.733941000">
        <ele>619.00</ele>
        <time>2013-04-21T11:42:30Z</time>
      </trkpt>
      <trkpt lat="41.592624000" lon="1.733844000">
        <ele>620.00</ele>
        <time>2013-04-21T11:42:35Z</time>
      </trkpt>
      <trkpt lat="41.592459000" lon="1.733976000">
        <ele>619.70</ele>
        <time>2013-04-21T11:42:40Z</time>
      </trkpt>
      <trkpt lat="41.592289000" lon="1.734121000">
        <ele>619.70</ele>
        <time>2013-04-21T11:42:45Z</time>
      </trkpt>
      <trkpt lat="41.592090000" lon="1.734147000">
        <ele>620.20</ele>
        <time>2013-04-21T11:42:50Z</time>
      </trkpt>
      <trkpt lat="41.591893000" lon="1.734215000">
        <ele>622.40</ele>
        <time>2013-04-21T11:42:56Z</time>
      </trkpt>
      <trkpt lat="41.591700000" lon="1.734297000">
        <ele>624.90</ele>
        <time>2013-04-21T11:43:03Z</time>
      </trkpt>
      <trkpt lat="41.591547000" lon="1.734431000">
        <ele>625.90</ele>
        <time>2013-04-21T11:43:10Z</time>
      </trkpt>
      <trkpt lat="41.591418000" lon="1.734636000">
        <ele>625.00</ele>
        <time>2013-04-21T11:43:17Z</time>
      </trkpt>
      <trkpt lat="41.591260000" lon="1.734798000">
        <ele>622.60</ele>
        <time>2013-04-21T11:43:21Z</time>
      </trkpt>
      <trkpt lat="41.591063000" lon="1.734881000">
        <ele>619.40</ele>
        <time>2013-04-21T11:43:24Z</time>
      </trkpt>
      <trkpt lat="41.590842000" lon="1.734939000">
        <ele>618.00</ele>
        <time>2013-04-21T11:43:27Z</time>
      </trkpt>
      <trkpt lat="41.590599000" lon="1.734999000">
        <ele>616.20</ele>
        <time>2013-04-21T11:43:30Z</time>
      </trkpt>
      <trkpt lat="41.590366000" lon="1.735070000">
        <ele>616.60</ele>
        <time>2013-04-21T11:43:33Z</time>
      </trkpt>
      <trkpt lat="41.590161000" lon="1.735164000">
        <ele>616.40</ele>
        <time>2013-04-21T11:43:36Z</time>
      </trkpt>
      <trkpt lat="41.589979000" lon="1.735230000">
        <ele>617.40</ele>
        <time>2013-04-21T11:43:39Z</time>
      </trkpt>
      <trkpt lat="41.589808000" lon="1.735295000">
        <ele>620.40</ele>
        <time>2013-04-21T11:43:44Z</time>
      </trkpt>
      <trkpt lat="41.589677000" lon="1.735465000">
        <ele>622.80</ele>
        <time>2013-04-21T11:43:51Z</time>
      </trkpt>
      <trkpt lat="41.589649000" lon="1.735736000">
        <ele>625.60</ele>
        <time>2013-04-21T11:43:59Z</time>
      </trkpt>
      <trkpt lat="41.589570000" lon="1.735994000">
        <ele>627.90</ele>
        <time>2013-04-21T11:44:07Z</time>
      </trkpt>
      <trkpt lat="41.589475000" lon="1.736226000">
        <ele>629.90</ele>
        <time>2013-04-21T11:44:15Z</time>
      </trkpt>
      <trkpt lat="41.589427000" lon="1.736452000">
        <ele>632.00</ele>
        <time>2013-04-21T11:44:23Z</time>
      </trkpt>
      <trkpt lat="41.589316000" lon="1.736660000">
        <ele>635.40</ele>
        <time>2013-04-21T11:44:32Z</time>
      </trkpt>
      <trkpt lat="41.589135000" lon="1.736616000">
        <ele>638.30</ele>
        <time>2013-04-21T11:44:42Z</time>
      </trkpt>
      <trkpt lat="41.588986000" lon="1.736443000">
        <ele>640.60</ele>
        <time>2013-04-21T11:44:52Z</time>
      </trkpt>
      <trkpt lat="41.588846000" lon="1.736263000">
        <ele>643.50</ele>
        <time>2013-04-21T11:45:03Z</time>
      </trkpt>
      <trkpt lat="41.588732000" lon="1.736040000">
        <ele>645.90</ele>
        <time>2013-04-21T11:45:14Z</time>
      </trkpt>
      <trkpt lat="41.588610000" lon="1.735831000">
        <ele>648.90</ele>
        <time>2013-04-21T11:45:25Z</time>
      </trkpt>
      <trkpt lat="41.588505000" lon="1.735632000">
        <ele>651.50</ele>
        <time>2013-04-21T11:45:36Z</time>
      </trkpt>
      <trkpt lat="41.588371000" lon="1.735458000">
        <ele>654.20</ele>
        <time>2013-04-21T11:45:48Z</time>
      </trkpt>
      <trkpt lat="41.588277000" lon="1.735240000">
        <ele>657.70</ele>
        <time>2013-04-21T11:46:00Z</time>
      </trkpt>
      <trkpt lat="41.588147000" lon="1.735042000">
        <ele>661.00</ele>
        <time>2013-04-21T11:46:12Z</time>
      </trkpt>
      <trkpt lat="41.587993000" lon="1.734955000">
        <ele>662.30</ele>
        <time>2013-04-21T11:46:22Z</time>
      </trkpt>
      <trkpt lat="41.587812000" lon="1.734882000">
        <ele>663.90</ele>
        <time>2013-04-21T11:46:33Z</time>
      </trkpt>
      <trkpt lat="41.587621000" lon="1.734824000">
        <ele>665.70</ele>
        <time>2013-04-21T11:46:44Z</time>
      </trkpt>
      <trkpt lat="41.587434000" lon="1.734803000">
        <ele>667.20</ele>
        <time>2013-04-21T11:46:56Z</time>
      </trkpt>
      <trkpt lat="41.587281000" lon="1.734684000">
        <ele>667.80</ele>
        <time>2013-04-21T11:47:36Z</time>
      </trkpt>
      <trkpt lat="41.587109000" lon="1.734538000">
        <ele>668.30</ele>
        <time>2013-04-21T11:47:45Z</time>
      </trkpt>
      <trkpt lat="41.586949000" lon="1.734397000">
        <ele>668.80</ele>
        <time>2013-04-21T11:47:51Z</time>
      </trkpt>
      <trkpt lat="41.586823000" lon="1.734219000">
        <ele>669.10</ele>
        <time>2013-04-21T11:47:57Z</time>
      </trkpt>
      <trkpt lat="41.586620000" lon="1.734191000">
        <ele>669.10</ele>
        <time>2013-04-21T11:48:03Z</time>
      </trkpt>
      <trkpt lat="41.586423000" lon="1.734199000">
        <ele>668.50</ele>
        <time>2013-04-21T11:48:08Z</time>
      </trkpt>
      <trkpt lat="41.586292000" lon="1.734029000">
        <ele>668.90</ele>
        <time>2013-04-21T11:48:13Z</time>
      </trkpt>
      <trkpt lat="41.586135000" lon="1.733901000">
        <ele>669.00</ele>
        <time>2013-04-21T11:48:18Z</time>
      </trkpt>
      <trkpt lat="41.585942000" lon="1.733913000">
        <ele>669.30</ele>
        <time>2013-04-21T11:48:23Z</time>
      </trkpt>
      <trkpt lat="41.585749000" lon="1.733835000">
        <ele>670.60</ele>
        <time>2013-04-21T11:48:29Z</time>
      </trkpt>
      <trkpt lat="41.585714000" lon="1.733598000">
        <ele>670.80</ele>
        <time>2013-04-21T11:48:35Z</time>
      </trkpt>
      <trkpt lat="41.585839000" lon="1.733368000">
        <ele>671.10</ele>
        <time>2013-04-21T11:48:41Z</time>
      </trkpt>
      <trkpt lat="41.585992000" lon="1.733178000">
        <ele>670.60</ele>
        <time>2013-04-21T11:48:46Z</time>
      </trkpt>
      <trkpt lat="41.586133000" lon="1.733027000">
        <ele>671.40</ele>
        <time>2013-04-21T11:48:51Z</time>
      </trkpt>
      <trkpt lat="41.586300000" lon="1.732855000">
        <ele>672.40</ele>
        <time>2013-04-21T11:48:57Z</time>
      </trkpt>
      <trkpt lat="41.586314000" lon="1.732601000">
        <ele>672.80</ele>
        <time>2013-04-21T11:49:03Z</time>
      </trkpt>
      <trkpt lat="41.586162000" lon="1.732474000">
        <ele>673.60</ele>
        <time>2013-04-21T11:49:09Z</time>
      </trkpt>
      <trkpt lat="41.585955000" lon="1.732491000">
        <ele>673.90</ele>
        <time>2013-04-21T11:49:15Z</time>
      </trkpt>
      <trkpt lat="41.585768000" lon="1.732506000">
        <ele>674.10</ele>
        <time>2013-04-21T11:49:20Z</time>
      </trkpt>
      <trkpt lat="41.585583000" lon="1.732512000">
        <ele>674.60</ele>
        <time>2013-04-21T11:49:25Z</time>
      </trkpt>
      <trkpt lat="41.585396000" lon="1.732543000">
        <ele>674.40</ele>
        <time>2013-04-21T11:49:30Z</time>
      </trkpt>
      <trkpt lat="41.585220000" lon="1.732479000">
        <ele>674.50</ele>
        <time>2013-04-21T11:49:35Z</time>
      </trkpt>
      <trkpt lat="41.585183000" lon="1.732220000">
        <ele>674.30</ele>
        <time>2013-04-21T11:49:40Z</time>
      </trkpt>
      <trkpt lat="41.585042000" lon="1.732204000">
        <ele>674.80</ele>
        <time>2013-04-21T11:49:45Z</time>
      </trkpt>
      <trkpt lat="41.584882000" lon="1.732355000">
        <ele>675.60</ele>
        <time>2013-04-21T11:49:50Z</time>
      </trkpt>
      <trkpt lat="41.584700000" lon="1.732404000">
        <ele>676.30</ele>
        <time>2013-04-21T11:49:55Z</time>
      </trkpt>
      <trkpt lat="41.584545000" lon="1.732266000">
        <ele>676.70</ele>
        <time>2013-04-21T11:50:00Z</time>
      </trkpt>
      <trkpt lat="41.584410000" lon="1.732033000">
        <ele>678.50</ele>
        <time>2013-04-21T11:50:06Z</time>
      </trkpt>
      <trkpt lat="41.584318000" lon="1.731814000">
        <ele>678.60</ele>
        <time>2013-04-21T11:50:11Z</time>
      </trkpt>
      <trkpt lat="41.584198000" lon="1.731635000">
        <ele>678.60</ele>
        <time>2013-04-21T11:50:16Z</time>
      </trkpt>
      <trkpt lat="41.584037000" lon="1.731499000">
        <ele>679.10</ele>
        <time>2013-04-21T11:50:21Z</time>
      </trkpt>
      <trkpt lat="41.583940000" lon="1.731265000">
        <ele>679.30</ele>
        <time>2013-04-21T11:50:26Z</time>
      </trkpt>
      <trkpt lat="41.583863000" lon="1.731008000">
        <ele>680.00</ele>
        <time>2013-04-21T11:50:31Z</time>
      </trkpt>
      <trkpt lat="41.583744000" lon="1.730773000">
        <ele>679.20</ele>
        <time>2013-04-21T11:50:36Z</time>
      </trkpt>
      <trkpt lat="41.583624000" lon="1.730545000">
        <ele>679.40</ele>
        <time>2013-04-21T11:50:41Z</time>
      </trkpt>
      <trkpt lat="41.583557000" lon="1.730287000">
        <ele>679.80</ele>
        <time>2013-04-21T11:50:46Z</time>
      </trkpt>
      <trkpt lat="41.583432000" lon="1.730199000">
        <ele>679.50</ele>
        <time>2013-04-21T11:50:51Z</time>
      </trkpt>
      <trkpt lat="41.583272000" lon="1.730405000">
        <ele>679.30</ele>
        <time>2013-04-21T11:50:56Z</time>
      </trkpt>
      <trkpt lat="41.583113000" lon="1.730555000">
        <ele>680.60</ele>
        <time>2013-04-21T11:51:01Z</time>
      </trkpt>
      <trkpt lat="41.582979000" lon="1.730777000">
        <ele>679.30</ele>
        <time>2013-04-21T11:51:06Z</time>
      </trkpt>
      <trkpt lat="41.582900000" lon="1.731001000">
        <ele>678.20</ele>
        <time>2013-04-21T11:51:10Z</time>
      </trkpt>
      <trkpt lat="41.582856000" lon="1.731264000">
        <ele>676.90</ele>
        <time>2013-04-21T11:51:14Z</time>
      </trkpt>
      <trkpt lat="41.582851000" lon="1.731525000">
        <ele>676.00</ele>
        <time>2013-04-21T11:51:18Z</time>
      </trkpt>
      <trkpt lat="41.582682000" lon="1.731615000">
        <ele>674.70</ele>
        <time>2013-04-21T11:51:22Z</time>
      </trkpt>
      <trkpt lat="41.582455000" lon="1.731614000">
        <ele>675.00</ele>
        <time>2013-04-21T11:51:27Z</time>
      </trkpt>
      <trkpt lat="41.582274000" lon="1.731528000">
        <ele>674.20</ele>
        <time>2013-04-21T11:51:32Z</time>
      </trkpt>
      <trkpt lat="41.582220000" lon="1.731255000">
        <ele>675.20</ele>
        <time>2013-04-21T11:51:37Z</time>
      </trkpt>
      <trkpt lat="41.582104000" lon="1.731040000">
        <ele>677.70</ele>
        <time>2013-04-21T11:51:43Z</time>
      </trkpt>
      <trkpt lat="41.581992000" lon="1.730810000">
        <ele>679.10</ele>
        <time>2013-04-21T11:51:50Z</time>
      </trkpt>
      <trkpt lat="41.581913000" lon="1.730548000">
        <ele>679.50</ele>
        <time>2013-04-21T11:51:56Z</time>
      </trkpt>
      <trkpt lat="41.581821000" lon="1.730324000">
        <ele>681.50</ele>
        <time>2013-04-21T11:52:02Z</time>
      </trkpt>
      <trkpt lat="41.581718000" lon="1.730095000">
        <ele>683.40</ele>
        <time>2013-04-21T11:52:09Z</time>
      </trkpt>
      <trkpt lat="41.581607000" lon="1.729894000">
        <ele>685.10</ele>
        <time>2013-04-21T11:52:16Z</time>
      </trkpt>
      <trkpt lat="41.581516000" lon="1.729695000">
        <ele>684.00</ele>
        <time>2013-04-21T11:52:28Z</time>
      </trkpt>
      <trkpt lat="41.581543000" lon="1.729424000">
        <ele>679.80</ele>
        <time>2013-04-21T11:52:34Z</time>
      </trkpt>
      <trkpt lat="41.581562000" lon="1.729164000">
        <ele>676.20</ele>
        <time>2013-04-21T11:52:38Z</time>
      </trkpt>
      <trkpt lat="41.581568000" lon="1.728853000">
        <ele>672.80</ele>
        <time>2013-04-21T11:52:42Z</time>
      </trkpt>
      <trkpt lat="41.581572000" lon="1.728601000">
        <ele>670.90</ele>
        <time>2013-04-21T11:52:45Z</time>
      </trkpt>
      <trkpt lat="41.581579000" lon="1.728301000">
        <ele>669.40</ele>
        <time>2013-04-21T11:52:49Z</time>
      </trkpt>
      <trkpt lat="41.581580000" lon="1.728057000">
        <ele>668.60</ele>
        <time>2013-04-21T11:52:57Z</time>
      </trkpt>
      <trkpt lat="41.581564000" lon="1.727808000">
        <ele>668.10</ele>
        <time>2013-04-21T11:53:02Z</time>
      </trkpt>
      <trkpt lat="41.581549000" lon="1.727551000">
        <ele>668.90</ele>
        <time>2013-04-21T11:53:07Z</time>
      </trkpt>
      <trkpt lat="41.581550000" lon="1.727278000">
        <ele>670.30</ele>
        <time>2013-04-21T11:53:13Z</time>
      </trkpt>
      <trkpt lat="41.581562000" lon="1.727027000">
        <ele>672.00</ele>
        <time>2013-04-21T11:53:19Z</time>
      </trkpt>
      <trkpt lat="41.581558000" lon="1.726763000">
        <ele>672.40</ele>
        <time>2013-04-21T11:53:25Z</time>
      </trkpt>
      <trkpt lat="41.581539000" lon="1.726482000">
        <ele>671.90</ele>
        <time>2013-04-21T11:53:31Z</time>
      </trkpt>
      <trkpt lat="41.581497000" lon="1.726179000">
        <ele>669.70</ele>
        <time>2013-04-21T11:53:36Z</time>
      </trkpt>
      <trkpt lat="41.581452000" lon="1.725926000">
        <ele>666.80</ele>
        <time>2013-04-21T11:53:39Z</time>
      </trkpt>
      <trkpt lat="41.581354000" lon="1.725654000">
        <ele>665.10</ele>
        <time>2013-04-21T11:53:42Z</time>
      </trkpt>
      <trkpt lat="41.581211000" lon="1.725400000">
        <ele>662.80</ele>
        <time>2013-04-21T11:53:45Z</time>
      </trkpt>
      <trkpt lat="41.581044000" lon="1.725159000">
        <ele>659.80</ele>
        <time>2013-04-21T11:53:48Z</time>
      </trkpt>
      <trkpt lat="41.580925000" lon="1.724902000">
        <ele>657.40</ele>
        <time>2013-04-21T11:53:51Z</time>
      </trkpt>
      <trkpt lat="41.580820000" lon="1.724602000">
        <ele>652.00</ele>
        <time>2013-04-21T11:53:54Z</time>
      </trkpt>
      <trkpt lat="41.580666000" lon="1.724319000">
        <ele>647.80</ele>
        <time>2013-04-21T11:53:57Z</time>
      </trkpt>
      <trkpt lat="41.580495000" lon="1.724075000">
        <ele>644.30</ele>
        <time>2013-04-21T11:54:00Z</time>
      </trkpt>
      <trkpt lat="41.580330000" lon="1.723839000">
        <ele>640.20</ele>
        <time>2013-04-21T11:54:03Z</time>
      </trkpt>
      <trkpt lat="41.580217000" lon="1.723591000">
        <ele>639.10</ele>
        <time>2013-04-21T11:54:06Z</time>
      </trkpt>
      <trkpt lat="41.580242000" lon="1.723282000">
        <ele>637.00</ele>
        <time>2013-04-21T11:54:09Z</time>
      </trkpt>
      <trkpt lat="41.580271000" lon="1.722951000">
        <ele>633.30</ele>
        <time>2013-04-21T11:54:12Z</time>
      </trkpt>
      <trkpt lat="41.580238000" lon="1.722651000">
        <ele>632.40</ele>
        <time>2013-04-21T11:54:15Z</time>
      </trkpt>
      <trkpt lat="41.580163000" lon="1.722383000">
        <ele>630.60</ele>
        <time>2013-04-21T11:54:18Z</time>
      </trkpt>
      <trkpt lat="41.580099000" lon="1.722103000">
        <ele>629.20</ele>
        <time>2013-04-21T11:54:21Z</time>
      </trkpt>
      <trkpt lat="41.580127000" lon="1.721826000">
        <ele>629.20</ele>
        <time>2013-04-21T11:54:24Z</time>
      </trkpt>
      <trkpt lat="41.580169000" lon="1.721535000">
        <ele>630.70</ele>
        <time>2013-04-21T11:54:28Z</time>
      </trkpt>
      <trkpt lat="41.580184000" lon="1.721276000">
        <ele>631.60</ele>
        <time>2013-04-21T11:54:33Z</time>
      </trkpt>
      <trkpt lat="41.580219000" lon="1.721046000">
        <ele>632.60</ele>
        <time>2013-04-21T11:54:40Z</time>
      </trkpt>
      <trkpt lat="41.580184000" lon="1.720800000">
        <ele>633.10</ele>
        <time>2013-04-21T11:54:51Z</time>
      </trkpt>
      <trkpt lat="41.580045000" lon="1.720651000">
        <ele>633.40</ele>
        <time>2013-04-21T11:55:00Z</time>
      </trkpt>
      <trkpt lat="41.579871000" lon="1.720567000">
        <ele>632.30</ele>
        <time>2013-04-21T11:55:05Z</time>
      </trkpt>
      <trkpt lat="41.579662000" lon="1.720564000">
        <ele>631.60</ele>
        <time>2013-04-21T11:55:10Z</time>
      </trkpt>
      <trkpt lat="41.579486000" lon="1.720663000">
        <ele>629.30</ele>
        <time>2013-04-21T11:55:14Z</time>
      </trkpt>
      <trkpt lat="41.579252000" lon="1.720723000">
        <ele>625.50</ele>
        <time>2013-04-21T11:55:18Z</time>
      </trkpt>
      <trkpt lat="41.579095000" lon="1.720566000">
        <ele>622.80</ele>
        <time>2013-04-21T11:55:21Z</time>
      </trkpt>
      <trkpt lat="41.578968000" lon="1.720329000">
        <ele>617.70</ele>
        <time>2013-04-21T11:55:24Z</time>
      </trkpt>
      <trkpt lat="41.578794000" lon="1.720146000">
        <ele>613.00</ele>
        <time>2013-04-21T11:55:27Z</time>
      </trkpt>
      <trkpt lat="41.578600000" lon="1.720061000">
        <ele>609.60</ele>
        <time>2013-04-21T11:55:30Z</time>
      </trkpt>
      <trkpt lat="41.578393000" lon="1.720097000">
        <ele>604.50</ele>
        <time>2013-04-21T11:55:33Z</time>
      </trkpt>
      <trkpt lat="41.578165000" lon="1.720170000">
        <ele>600.80</ele>
        <time>2013-04-21T11:55:36Z</time>
      </trkpt>
      <trkpt lat="41.577960000" lon="1.720157000">
        <ele>598.20</ele>
        <time>2013-04-21T11:55:39Z</time>
      </trkpt>
      <trkpt lat="41.577780000" lon="1.720094000">
        <ele>594.60</ele>
        <time>2013-04-21T11:55:42Z</time>
      </trkpt>
      <trkpt lat="41.577599000" lon="1.720060000">
        <ele>590.30</ele>
        <time>2013-04-21T11:55:45Z</time>
      </trkpt>
      <trkpt lat="41.577461000" lon="1.720258000">
        <ele>586.20</ele>
        <time>2013-04-21T11:55:49Z</time>
      </trkpt>
      <trkpt lat="41.577484000" lon="1.720528000">
        <ele>582.70</ele>
        <time>2013-04-21T11:55:52Z</time>
      </trkpt>
      <trkpt lat="41.577496000" lon="1.720826000">
        <ele>579.70</ele>
        <time>2013-04-21T11:55:55Z</time>
      </trkpt>
      <trkpt lat="41.577420000" lon="1.721065000">
        <ele>577.00</ele>
        <time>2013-04-21T11:55:58Z</time>
      </trkpt>
      <trkpt lat="41.577339000" lon="1.721278000">
        <ele>574.40</ele>
        <time>2013-04-21T11:56:01Z</time>
      </trkpt>
      <trkpt lat="41.577284000" lon="1.721557000">
        <ele>570.80</ele>
        <time>2013-04-21T11:56:04Z</time>
      </trkpt>
      <trkpt lat="41.577222000" lon="1.721855000">
        <ele>567.30</ele>
        <time>2013-04-21T11:56:07Z</time>
      </trkpt>
      <trkpt lat="41.577172000" lon="1.722140000">
        <ele>564.00</ele>
        <time>2013-04-21T11:56:10Z</time>
      </trkpt>
      <trkpt lat="41.577149000" lon="1.722443000">
        <ele>560.10</ele>
        <time>2013-04-21T11:56:13Z</time>
      </trkpt>
      <trkpt lat="41.577124000" lon="1.722734000">
        <ele>556.40</ele>
        <time>2013-04-21T11:56:16Z</time>
      </trkpt>
      <trkpt lat="41.577085000" lon="1.723019000">
        <ele>553.60</ele>
        <time>2013-04-21T11:56:19Z</time>
      </trkpt>
      <trkpt lat="41.577004000" lon="1.723287000">
        <ele>551.10</ele>
        <time>2013-04-21T11:56:22Z</time>
      </trkpt>
      <trkpt lat="41.576865000" lon="1.723505000">
        <ele>549.10</ele>
        <time>2013-04-21T11:56:25Z</time>
      </trkpt>
      <trkpt lat="41.576687000" lon="1.723682000">
        <ele>544.90</ele>
        <time>2013-04-21T11:56:28Z</time>
      </trkpt>
      <trkpt lat="41.576448000" lon="1.723788000">
        <ele>541.60</ele>
        <time>2013-04-21T11:56:31Z</time>
      </trkpt>
      <trkpt lat="41.576266000" lon="1.723792000">
        <ele>539.50</ele>
        <time>2013-04-21T11:56:33Z</time>
      </trkpt>
      <trkpt lat="41.576001000" lon="1.723675000">
        <ele>538.10</ele>
        <time>2013-04-21T11:56:36Z</time>
      </trkpt>
      <trkpt lat="41.575756000" lon="1.723591000">
        <ele>536.50</ele>
        <time>2013-04-21T11:56:39Z</time>
      </trkpt>
      <trkpt lat="41.575519000" lon="1.723663000">
        <ele>536.80</ele>
        <time>2013-04-21T11:56:42Z</time>
      </trkpt>
      <trkpt lat="41.575344000" lon="1.723835000">
        <ele>536.40</ele>
        <time>2013-04-21T11:56:45Z</time>
      </trkpt>
      <trkpt lat="41.575204000" lon="1.724011000">
        <ele>536.20</ele>
        <time>2013-04-21T11:56:48Z</time>
      </trkpt>
      <trkpt lat="41.575052000" lon="1.724156000">
        <ele>534.80</ele>
        <time>2013-04-21T11:56:51Z</time>
      </trkpt>
      <trkpt lat="41.574876000" lon="1.724322000">
        <ele>533.60</ele>
        <time>2013-04-21T11:56:54Z</time>
      </trkpt>
      <trkpt lat="41.574688000" lon="1.724488000">
        <ele>532.40</ele>
        <time>2013-04-21T11:56:57Z</time>
      </trkpt>
      <trkpt lat="41.574546000" lon="1.724704000">
        <ele>531.50</ele>
        <time>2013-04-21T11:57:00Z</time>
      </trkpt>
      <trkpt lat="41.574390000" lon="1.724886000">
        <ele>531.50</ele>
        <time>2013-04-21T11:57:03Z</time>
      </trkpt>
      <trkpt lat="41.574191000" lon="1.725002000">
        <ele>529.80</ele>
        <time>2013-04-21T11:57:06Z</time>
      </trkpt>
      <trkpt lat="41.573967000" lon="1.725062000">
        <ele>528.90</ele>
        <time>2013-04-21T11:57:09Z</time>
      </trkpt>
      <trkpt lat="41.573729000" lon="1.725122000">
        <ele>526.90</ele>
        <time>2013-04-21T11:57:12Z</time>
      </trkpt>
      <trkpt lat="41.573492000" lon="1.725197000">
        <ele>525.10</ele>
        <time>2013-04-21T11:57:15Z</time>
      </trkpt>
      <trkpt lat="41.573247000" lon="1.725271000">
        <ele>523.30</ele>
        <time>2013-04-21T11:57:18Z</time>
      </trkpt>
      <trkpt lat="41.572999000" lon="1.725376000">
        <ele>521.00</ele>
        <time>2013-04-21T11:57:21Z</time>
      </trkpt>
      <trkpt lat="41.572792000" lon="1.725578000">
        <ele>521.20</ele>
        <time>2013-04-21T11:57:24Z</time>
      </trkpt>
      <trkpt lat="41.572557000" lon="1.725716000">
        <ele>520.80</ele>
        <time>2013-04-21T11:57:27Z</time>
      </trkpt>
      <trkpt lat="41.572387000" lon="1.725806000">
        <ele>518.20</ele>
        <time>2013-04-21T11:57:29Z</time>
      </trkpt>
      <trkpt lat="41.572207000" lon="1.725914000">
        <ele>515.70</ele>
        <time>2013-04-21T11:57:31Z</time>
      </trkpt>
      <trkpt lat="41.572028000" lon="1.726002000">
        <ele>514.10</ele>
        <time>2013-04-21T11:57:33Z</time>
      </trkpt>
      <trkpt lat="41.571865000" lon="1.726102000">
        <ele>513.10</ele>
        <time>2013-04-21T11:57:35Z</time>
      </trkpt>
      <trkpt lat="41.571649000" lon="1.726256000">
        <ele>510.80</ele>
        <time>2013-04-21T11:57:38Z</time>
      </trkpt>
      <trkpt lat="41.571441000" lon="1.726478000">
        <ele>505.60</ele>
        <time>2013-04-21T11:57:41Z</time>
      </trkpt>
      <trkpt lat="41.571282000" lon="1.726676000">
        <ele>501.10</ele>
        <time>2013-04-21T11:57:43Z</time>
      </trkpt>
      <trkpt lat="41.571106000" lon="1.726893000">
        <ele>500.00</ele>
        <time>2013-04-21T11:57:45Z</time>
      </trkpt>
      <trkpt lat="41.570948000" lon="1.727092000">
        <ele>501.80</ele>
        <time>2013-04-21T11:57:47Z</time>
      </trkpt>
      <trkpt lat="41.570803000" lon="1.727235000">
        <ele>503.00</ele>
        <time>2013-04-21T11:57:49Z</time>
      </trkpt>
      <trkpt lat="41.570649000" lon="1.727443000">
        <ele>504.00</ele>
        <time>2013-04-21T11:57:52Z</time>
      </trkpt>
      <trkpt lat="41.570497000" lon="1.727644000">
        <ele>502.80</ele>
        <time>2013-04-21T11:57:55Z</time>
      </trkpt>
      <trkpt lat="41.570269000" lon="1.727672000">
        <ele>500.80</ele>
        <time>2013-04-21T11:57:58Z</time>
      </trkpt>
      <trkpt lat="41.570037000" lon="1.727557000">
        <ele>500.30</ele>
        <time>2013-04-21T11:58:01Z</time>
      </trkpt>
      <trkpt lat="41.569815000" lon="1.727412000">
        <ele>496.10</ele>
        <time>2013-04-21T11:58:04Z</time>
      </trkpt>
      <trkpt lat="41.569582000" lon="1.727268000">
        <ele>492.60</ele>
        <time>2013-04-21T11:58:07Z</time>
      </trkpt>
      <trkpt lat="41.569354000" lon="1.727213000">
        <ele>488.60</ele>
        <time>2013-04-21T11:58:10Z</time>
      </trkpt>
      <trkpt lat="41.569130000" lon="1.727323000">
        <ele>486.10</ele>
        <time>2013-04-21T11:58:13Z</time>
      </trkpt>
      <trkpt lat="41.568888000" lon="1.727452000">
        <ele>484.30</ele>
        <time>2013-04-21T11:58:16Z</time>
      </trkpt>
      <trkpt lat="41.568656000" lon="1.727537000">
        <ele>483.10</ele>
        <time>2013-04-21T11:58:19Z</time>
      </trkpt>
      <trkpt lat="41.568442000" lon="1.727606000">
        <ele>483.20</ele>
        <time>2013-04-21T11:58:22Z</time>
      </trkpt>
      <trkpt lat="41.568372000" lon="1.727623000">
        <ele>485.70</ele>
        <time>2013-04-21T11:58:33Z</time>
      </trkpt>
      <trkpt lat="41.568466000" lon="1.727744000">
        <ele>487.00</ele>
        <time>2013-04-21T11:58:41Z</time>
      </trkpt>
      <trkpt lat="41.568373000" lon="1.727976000">
        <ele>490.70</ele>
        <time>2013-04-21T11:58:53Z</time>
      </trkpt>
      <trkpt lat="41.568354000" lon="1.728223000">
        <ele>493.70</ele>
        <time>2013-04-21T11:59:04Z</time>
      </trkpt>
      <trkpt lat="41.568507000" lon="1.728366000">
        <ele>496.20</ele>
        <time>2013-04-21T11:59:15Z</time>
      </trkpt>
      <trkpt lat="41.568695000" lon="1.728357000">
        <ele>497.80</ele>
        <time>2013-04-21T11:59:25Z</time>
      </trkpt>
      <trkpt lat="41.568875000" lon="1.728267000">
        <ele>499.60</ele>
        <time>2013-04-21T11:59:35Z</time>
      </trkpt>
      <trkpt lat="41.569028000" lon="1.728108000">
        <ele>500.30</ele>
        <time>2013-04-21T11:59:45Z</time>
      </trkpt>
      <trkpt lat="41.569315000" lon="1.727843000">
        <ele>501.10</ele>
        <time>2013-04-21T11:59:59Z</time>
      </trkpt>
      <trkpt lat="41.569498000" lon="1.727856000">
        <ele>504.50</ele>
        <time>2013-04-21T12:00:08Z</time>
      </trkpt>
      <trkpt lat="41.569690000" lon="1.727927000">
        <ele>507.20</ele>
        <time>2013-04-21T12:00:19Z</time>
      </trkpt>
      <trkpt lat="41.569858000" lon="1.728015000">
        <ele>509.90</ele>
        <time>2013-04-21T12:00:30Z</time>
      </trkpt>
      <trkpt lat="41.570007000" lon="1.728179000">
        <ele>512.20</ele>
        <time>2013-04-21T12:00:41Z</time>
      </trkpt>
      <trkpt lat="41.570155000" lon="1.728331000">
        <ele>515.40</ele>
        <time>2013-04-21T12:00:52Z</time>
      </trkpt>
      <trkpt lat="41.570187000" lon="1.728550000">
        <ele>518.70</ele>
        <time>2013-04-21T12:01:04Z</time>
      </trkpt>
      <trkpt lat="41.570044000" lon="1.728719000">
        <ele>521.30</ele>
        <time>2013-04-21T12:01:15Z</time>
      </trkpt>
      <trkpt lat="41.569873000" lon="1.728829000">
        <ele>521.70</ele>
        <time>2013-04-21T12:01:25Z</time>
      </trkpt>
      <trkpt lat="41.569694000" lon="1.728884000">
        <ele>520.70</ele>
        <time>2013-04-21T12:01:31Z</time>
      </trkpt>
      <trkpt lat="41.569514000" lon="1.728937000">
        <ele>521.90</ele>
        <time>2013-04-21T12:01:37Z</time>
      </trkpt>
      <trkpt lat="41.569346000" lon="1.729008000">
        <ele>524.00</ele>
        <time>2013-04-21T12:01:44Z</time>
      </trkpt>
      <trkpt lat="41.569181000" lon="1.729113000">
        <ele>526.40</ele>
        <time>2013-04-21T12:01:52Z</time>
      </trkpt>
      <trkpt lat="41.569125000" lon="1.729345000">
        <ele>526.80</ele>
        <time>2013-04-21T12:02:06Z</time>
      </trkpt>
      <trkpt lat="41.569219000" lon="1.729603000">
        <ele>521.60</ele>
        <time>2013-04-21T12:02:12Z</time>
      </trkpt>
      <trkpt lat="41.569326000" lon="1.729810000">
        <ele>520.10</ele>
        <time>2013-04-21T12:02:15Z</time>
      </trkpt>
      <trkpt lat="41.569423000" lon="1.730021000">
        <ele>517.90</ele>
        <time>2013-04-21T12:02:18Z</time>
      </trkpt>
      <trkpt lat="41.569502000" lon="1.730243000">
        <ele>515.20</ele>
        <time>2013-04-21T12:02:21Z</time>
      </trkpt>
      <trkpt lat="41.569559000" lon="1.730489000">
        <ele>515.40</ele>
        <time>2013-04-21T12:02:25Z</time>
      </trkpt>
      <trkpt lat="41.569390000" lon="1.730445000">
        <ele>516.30</ele>
        <time>2013-04-21T12:02:31Z</time>
      </trkpt>
      <trkpt lat="41.569206000" lon="1.730351000">
        <ele>519.40</ele>
        <time>2013-04-21T12:02:39Z</time>
      </trkpt>
      <trkpt lat="41.569006000" lon="1.730310000">
        <ele>520.30</ele>
        <time>2013-04-21T12:02:47Z</time>
      </trkpt>
      <trkpt lat="41.568816000" lon="1.730285000">
        <ele>521.60</ele>
        <time>2013-04-21T12:02:55Z</time>
      </trkpt>
      <trkpt lat="41.568614000" lon="1.730262000">
        <ele>522.60</ele>
        <time>2013-04-21T12:03:03Z</time>
      </trkpt>
      <trkpt lat="41.568430000" lon="1.730317000">
        <ele>524.10</ele>
        <time>2013-04-21T12:03:11Z</time>
      </trkpt>
      <trkpt lat="41.568256000" lon="1.730413000">
        <ele>525.70</ele>
        <time>2013-04-21T12:03:19Z</time>
      </trkpt>
      <trkpt lat="41.568213000" lon="1.730635000">
        <ele>526.70</ele>
        <time>2013-04-21T12:03:27Z</time>
      </trkpt>
      <trkpt lat="41.568237000" lon="1.730904000">
        <ele>526.20</ele>
        <time>2013-04-21T12:03:34Z</time>
      </trkpt>
      <trkpt lat="41.568248000" lon="1.731156000">
        <ele>526.80</ele>
        <time>2013-04-21T12:03:40Z</time>
      </trkpt>
      <trkpt lat="41.568259000" lon="1.731422000">
        <ele>528.40</ele>
        <time>2013-04-21T12:03:47Z</time>
      </trkpt>
      <trkpt lat="41.568333000" lon="1.731681000">
        <ele>529.30</ele>
        <time>2013-04-21T12:03:55Z</time>
      </trkpt>
      <trkpt lat="41.568471000" lon="1.731842000">
        <ele>529.60</ele>
        <time>2013-04-21T12:04:01Z</time>
      </trkpt>
      <trkpt lat="41.568651000" lon="1.731918000">
        <ele>530.60</ele>
        <time>2013-04-21T12:04:08Z</time>
      </trkpt>
      <trkpt lat="41.568830000" lon="1.731967000">
        <ele>533.20</ele>
        <time>2013-04-21T12:04:15Z</time>
      </trkpt>
      <trkpt lat="41.569008000" lon="1.732047000">
        <ele>535.80</ele>
        <time>2013-04-21T12:04:24Z</time>
      </trkpt>
      <trkpt lat="41.569013000" lon="1.732244000">
        <ele>538.30</ele>
        <time>2013-04-21T12:04:34Z</time>
      </trkpt>
      <trkpt lat="41.568837000" lon="1.732334000">
        <ele>541.40</ele>
        <time>2013-04-21T12:04:44Z</time>
      </trkpt>
      <trkpt lat="41.568644000" lon="1.732371000">
        <ele>544.30</ele>
        <time>2013-04-21T12:04:55Z</time>
      </trkpt>
      <trkpt lat="41.568466000" lon="1.732414000">
        <ele>545.10</ele>
        <time>2013-04-21T12:05:05Z</time>
      </trkpt>
      <trkpt lat="41.568318000" lon="1.732577000">
        <ele>545.70</ele>
        <time>2013-04-21T12:05:15Z</time>
      </trkpt>
      <trkpt lat="41.568310000" lon="1.732811000">
        <ele>545.90</ele>
        <time>2013-04-21T12:05:23Z</time>
      </trkpt>
      <trkpt lat="41.568347000" lon="1.733075000">
        <ele>546.60</ele>
        <time>2013-04-21T12:05:31Z</time>
      </trkpt>
      <trkpt lat="41.568415000" lon="1.733316000">
        <ele>547.00</ele>
        <time>2013-04-21T12:05:39Z</time>
      </trkpt>
      <trkpt lat="41.568346000" lon="1.733547000">
        <ele>548.30</ele>
        <time>2013-04-21T12:05:47Z</time>
      </trkpt>
      <trkpt lat="41.568204000" lon="1.733708000">
        <ele>549.90</ele>
        <time>2013-04-21T12:05:55Z</time>
      </trkpt>
      <trkpt lat="41.568100000" lon="1.733928000">
        <ele>550.40</ele>
        <time>2013-04-21T12:06:03Z</time>
      </trkpt>
      <trkpt lat="41.567914000" lon="1.734039000">
        <ele>553.10</ele>
        <time>2013-04-21T12:06:11Z</time>
      </trkpt>
      <trkpt lat="41.567731000" lon="1.734083000">
        <ele>553.80</ele>
        <time>2013-04-21T12:06:19Z</time>
      </trkpt>
      <trkpt lat="41.567593000" lon="1.734271000">
        <ele>552.20</ele>
        <time>2013-04-21T12:06:27Z</time>
      </trkpt>
      <trkpt lat="41.567721000" lon="1.734469000">
        <ele>552.60</ele>
        <time>2013-04-21T12:06:34Z</time>
      </trkpt>
      <trkpt lat="41.567873000" lon="1.734617000">
        <ele>553.10</ele>
        <time>2013-04-21T12:06:41Z</time>
      </trkpt>
      <trkpt lat="41.568033000" lon="1.734510000">
        <ele>556.20</ele>
        <time>2013-04-21T12:06:50Z</time>
      </trkpt>
      <trkpt lat="41.568179000" lon="1.734557000">
        <ele>559.60</ele>
        <time>2013-04-21T12:06:59Z</time>
      </trkpt>
      <trkpt lat="41.568295000" lon="1.734750000">
        <ele>560.90</ele>
        <time>2013-04-21T12:07:08Z</time>
      </trkpt>
      <trkpt lat="41.568419000" lon="1.734931000">
        <ele>563.00</ele>
        <time>2013-04-21T12:07:18Z</time>
      </trkpt>
      <trkpt lat="41.568571000" lon="1.735086000">
        <ele>566.20</ele>
        <time>2013-04-21T12:07:29Z</time>
      </trkpt>
      <trkpt lat="41.568775000" lon="1.735135000">
        <ele>568.50</ele>
        <time>2013-04-21T12:07:40Z</time>
      </trkpt>
      <trkpt lat="41.568956000" lon="1.735237000">
        <ele>568.30</ele>
        <time>2013-04-21T12:07:50Z</time>
      </trkpt>
      <trkpt lat="41.569140000" lon="1.735330000">
        <ele>568.50</ele>
        <time>2013-04-21T12:07:57Z</time>
      </trkpt>
      <trkpt lat="41.569317000" lon="1.735435000">
        <ele>569.40</ele>
        <time>2013-04-21T12:08:04Z</time>
      </trkpt>
      <trkpt lat="41.569351000" lon="1.735632000">
        <ele>569.80</ele>
        <time>2013-04-21T12:08:11Z</time>
      </trkpt>
      <trkpt lat="41.569205000" lon="1.735788000">
        <ele>572.30</ele>
        <time>2013-04-21T12:08:20Z</time>
      </trkpt>
      <trkpt lat="41.569076000" lon="1.735978000">
        <ele>573.10</ele>
        <time>2013-04-21T12:08:33Z</time>
      </trkpt>
      <trkpt lat="41.568947000" lon="1.736175000">
        <ele>573.90</ele>
        <time>2013-04-21T12:08:42Z</time>
      </trkpt>
      <trkpt lat="41.568891000" lon="1.736435000">
        <ele>573.40</ele>
        <time>2013-04-21T12:08:48Z</time>
      </trkpt>
      <trkpt lat="41.568872000" lon="1.736677000">
        <ele>573.50</ele>
        <time>2013-04-21T12:08:53Z</time>
      </trkpt>
      <trkpt lat="41.568935000" lon="1.736921000">
        <ele>574.10</ele>
        <time>2013-04-21T12:08:58Z</time>
      </trkpt>
      <trkpt lat="41.569119000" lon="1.736969000">
        <ele>575.10</ele>
        <time>2013-04-21T12:09:04Z</time>
      </trkpt>
      <trkpt lat="41.569292000" lon="1.736870000">
        <ele>574.70</ele>
        <time>2013-04-21T12:09:09Z</time>
      </trkpt>
      <trkpt lat="41.569484000" lon="1.736809000">
        <ele>574.90</ele>
        <time>2013-04-21T12:09:14Z</time>
      </trkpt>
      <trkpt lat="41.569652000" lon="1.736861000">
        <ele>574.10</ele>
        <time>2013-04-21T12:09:19Z</time>
      </trkpt>
      <trkpt lat="41.569577000" lon="1.737109000">
        <ele>571.00</ele>
        <time>2013-04-21T12:09:24Z</time>
      </trkpt>
      <trkpt lat="41.569448000" lon="1.737399000">
        <ele>567.70</ele>
        <time>2013-04-21T12:09:28Z</time>
      </trkpt>
      <trkpt lat="41.569397000" lon="1.737655000">
        <ele>565.30</ele>
        <time>2013-04-21T12:09:31Z</time>
      </trkpt>
      <trkpt lat="41.569444000" lon="1.737953000">
        <ele>560.90</ele>
        <time>2013-04-21T12:09:35Z</time>
      </trkpt>
      <trkpt lat="41.569298000" lon="1.738101000">
        <ele>558.50</ele>
        <time>2013-04-21T12:09:39Z</time>
      </trkpt>
      <trkpt lat="41.569101000" lon="1.738094000">
        <ele>555.80</ele>
        <time>2013-04-21T12:09:42Z</time>
      </trkpt>
      <trkpt lat="41.568933000" lon="1.738208000">
        <ele>552.40</ele>
        <time>2013-04-21T12:09:45Z</time>
      </trkpt>
      <trkpt lat="41.568712000" lon="1.738265000">
        <ele>550.10</ele>
        <time>2013-04-21T12:09:49Z</time>
      </trkpt>
      <trkpt lat="41.568513000" lon="1.738259000">
        <ele>545.00</ele>
        <time>2013-04-21T12:09:52Z</time>
      </trkpt>
      <trkpt lat="41.568286000" lon="1.738283000">
        <ele>543.30</ele>
        <time>2013-04-21T12:09:55Z</time>
      </trkpt>
      <trkpt lat="41.568049000" lon="1.738354000">
        <ele>541.30</ele>
        <time>2013-04-21T12:09:58Z</time>
      </trkpt>
      <trkpt lat="41.567808000" lon="1.738373000">
        <ele>538.80</ele>
        <time>2013-04-21T12:10:01Z</time>
      </trkpt>
      <trkpt lat="41.567562000" lon="1.738393000">
        <ele>536.50</ele>
        <time>2013-04-21T12:10:04Z</time>
      </trkpt>
      <trkpt lat="41.567328000" lon="1.738472000">
        <ele>535.40</ele>
        <time>2013-04-21T12:10:07Z</time>
      </trkpt>
      <trkpt lat="41.567118000" lon="1.738601000">
        <ele>535.50</ele>
        <time>2013-04-21T12:10:10Z</time>
      </trkpt>
      <trkpt lat="41.566905000" lon="1.738709000">
        <ele>533.60</ele>
        <time>2013-04-21T12:10:14Z</time>
      </trkpt>
      <trkpt lat="41.566668000" lon="1.738657000">
        <ele>528.20</ele>
        <time>2013-04-21T12:10:18Z</time>
      </trkpt>
      <trkpt lat="41.566429000" lon="1.738562000">
        <ele>524.90</ele>
        <time>2013-04-21T12:10:21Z</time>
      </trkpt>
      <trkpt lat="41.566174000" lon="1.738518000">
        <ele>521.10</ele>
        <time>2013-04-21T12:10:24Z</time>
      </trkpt>
      <trkpt lat="41.565939000" lon="1.738493000">
        <ele>519.40</ele>
        <time>2013-04-21T12:10:27Z</time>
      </trkpt>
      <trkpt lat="41.565671000" lon="1.738491000">
        <ele>513.70</ele>
        <time>2013-04-21T12:10:30Z</time>
      </trkpt>
      <trkpt lat="41.565474000" lon="1.738508000">
        <ele>512.00</ele>
        <time>2013-04-21T12:10:32Z</time>
      </trkpt>
      <trkpt lat="41.565288000" lon="1.738547000">
        <ele>510.80</ele>
        <time>2013-04-21T12:10:34Z</time>
      </trkpt>
      <trkpt lat="41.565042000" lon="1.738650000">
        <ele>510.30</ele>
        <time>2013-04-21T12:10:37Z</time>
      </trkpt>
      <trkpt lat="41.564854000" lon="1.738843000">
        <ele>508.90</ele>
        <time>2013-04-21T12:10:40Z</time>
      </trkpt>
      <trkpt lat="41.564735000" lon="1.739104000">
        <ele>506.80</ele>
        <time>2013-04-21T12:10:43Z</time>
      </trkpt>
      <trkpt lat="41.564649000" lon="1.739423000">
        <ele>505.30</ele>
        <time>2013-04-21T12:10:46Z</time>
      </trkpt>
      <trkpt lat="41.564527000" lon="1.739718000">
        <ele>504.80</ele>
        <time>2013-04-21T12:10:49Z</time>
      </trkpt>
      <trkpt lat="41.564356000" lon="1.739969000">
        <ele>503.60</ele>
        <time>2013-04-21T12:10:52Z</time>
      </trkpt>
      <trkpt lat="41.564163000" lon="1.740175000">
        <ele>502.10</ele>
        <time>2013-04-21T12:10:55Z</time>
      </trkpt>
      <trkpt lat="41.563956000" lon="1.740349000">
        <ele>500.00</ele>
        <time>2013-04-21T12:10:58Z</time>
      </trkpt>
      <trkpt lat="41.563739000" lon="1.740505000">
        <ele>498.40</ele>
        <time>2013-04-21T12:11:01Z</time>
      </trkpt>
      <trkpt lat="41.563555000" lon="1.740734000">
        <ele>494.20</ele>
        <time>2013-04-21T12:11:04Z</time>
      </trkpt>
      <trkpt lat="41.563390000" lon="1.741014000">
        <ele>491.30</ele>
        <time>2013-04-21T12:11:07Z</time>
      </trkpt>
      <trkpt lat="41.563223000" lon="1.741291000">
        <ele>487.60</ele>
        <time>2013-04-21T12:11:10Z</time>
      </trkpt>
      <trkpt lat="41.563082000" lon="1.741575000">
        <ele>486.20</ele>
        <time>2013-04-21T12:11:13Z</time>
      </trkpt>
      <trkpt lat="41.562977000" lon="1.741760000">
        <ele>486.30</ele>
        <time>2013-04-21T12:11:16Z</time>
      </trkpt>
      <trkpt lat="41.562795000" lon="1.741892000">
        <ele>480.30</ele>
        <time>2013-04-21T12:11:20Z</time>
      </trkpt>
      <trkpt lat="41.562630000" lon="1.742100000">
        <ele>475.50</ele>
        <time>2013-04-21T12:11:23Z</time>
      </trkpt>
      <trkpt lat="41.562485000" lon="1.742326000">
        <ele>474.10</ele>
        <time>2013-04-21T12:11:26Z</time>
      </trkpt>
      <trkpt lat="41.562307000" lon="1.742356000">
        <ele>473.80</ele>
        <time>2013-04-21T12:11:29Z</time>
      </trkpt>
      <trkpt lat="41.562120000" lon="1.742207000">
        <ele>472.10</ele>
        <time>2013-04-21T12:11:33Z</time>
      </trkpt>
      <trkpt lat="41.561895000" lon="1.742268000">
        <ele>470.30</ele>
        <time>2013-04-21T12:11:37Z</time>
      </trkpt>
      <trkpt lat="41.561655000" lon="1.742305000">
        <ele>467.20</ele>
        <time>2013-04-21T12:11:41Z</time>
      </trkpt>
      <trkpt lat="41.561464000" lon="1.742391000">
        <ele>465.60</ele>
        <time>2013-04-21T12:11:44Z</time>
      </trkpt>
      <trkpt lat="41.561264000" lon="1.742420000">
        <ele>463.60</ele>
        <time>2013-04-21T12:11:47Z</time>
      </trkpt>
      <trkpt lat="41.561052000" lon="1.742349000">
        <ele>462.50</ele>
        <time>2013-04-21T12:11:51Z</time>
      </trkpt>
      <trkpt lat="41.560886000" lon="1.742431000">
        <ele>458.70</ele>
        <time>2013-04-21T12:11:55Z</time>
      </trkpt>
      <trkpt lat="41.560760000" lon="1.742605000">
        <ele>454.40</ele>
        <time>2013-04-21T12:12:01Z</time>
      </trkpt>
      <trkpt lat="41.560536000" lon="1.742663000">
        <ele>450.70</ele>
        <time>2013-04-21T12:12:06Z</time>
      </trkpt>
      <trkpt lat="41.560343000" lon="1.742766000">
        <ele>446.00</ele>
        <time>2013-04-21T12:12:09Z</time>
      </trkpt>
      <trkpt lat="41.560143000" lon="1.742915000">
        <ele>443.50</ele>
        <time>2013-04-21T12:12:12Z</time>
      </trkpt>
      <trkpt lat="41.560014000" lon="1.743102000">
        <ele>442.90</ele>
        <time>2013-04-21T12:12:15Z</time>
      </trkpt>
      <trkpt lat="41.559871000" lon="1.743302000">
        <ele>440.50</ele>
        <time>2013-04-21T12:12:18Z</time>
      </trkpt>
      <trkpt lat="41.559725000" lon="1.743506000">
        <ele>439.60</ele>
        <time>2013-04-21T12:12:21Z</time>
      </trkpt>
      <trkpt lat="41.559537000" lon="1.743618000">
        <ele>439.90</ele>
        <time>2013-04-21T12:12:24Z</time>
      </trkpt>
      <trkpt lat="41.559361000" lon="1.743694000">
        <ele>438.80</ele>
        <time>2013-04-21T12:12:27Z</time>
      </trkpt>
      <trkpt lat="41.559132000" lon="1.743717000">
        <ele>436.30</ele>
        <time>2013-04-21T12:12:31Z</time>
      </trkpt>
      <trkpt lat="41.558962000" lon="1.743768000">
        <ele>435.00</ele>
        <time>2013-04-21T12:12:34Z</time>
      </trkpt>
      <trkpt lat="41.558890000" lon="1.744012000">
        <ele>433.40</ele>
        <time>2013-04-21T12:12:38Z</time>
      </trkpt>
      <trkpt lat="41.558714000" lon="1.744048000">
        <ele>431.50</ele>
        <time>2013-04-21T12:12:44Z</time>
      </trkpt>
      <trkpt lat="41.558521000" lon="1.743922000">
        <ele>427.20</ele>
        <time>2013-04-21T12:12:48Z</time>
      </trkpt>
      <trkpt lat="41.558309000" lon="1.743854000">
        <ele>424.60</ele>
        <time>2013-04-21T12:12:52Z</time>
      </trkpt>
      <trkpt lat="41.558137000" lon="1.743765000">
        <ele>420.00</ele>
        <time>2013-04-21T12:12:55Z</time>
      </trkpt>
      <trkpt lat="41.557970000" lon="1.743644000">
        <ele>418.10</ele>
        <time>2013-04-21T12:12:58Z</time>
      </trkpt>
      <trkpt lat="41.557794000" lon="1.743516000">
        <ele>413.20</ele>
        <time>2013-04-21T12:13:01Z</time>
      </trkpt>
      <trkpt lat="41.557616000" lon="1.743534000">
        <ele>414.10</ele>
        <time>2013-04-21T12:13:04Z</time>
      </trkpt>
      <trkpt lat="41.557448000" lon="1.743714000">
        <ele>413.90</ele>
        <time>2013-04-21T12:13:08Z</time>
      </trkpt>
      <trkpt lat="41.557304000" lon="1.743953000">
        <ele>413.40</ele>
        <time>2013-04-21T12:13:13Z</time>
      </trkpt>
      <trkpt lat="41.557151000" lon="1.744138000">
        <ele>413.10</ele>
        <time>2013-04-21T12:13:18Z</time>
      </trkpt>
      <trkpt lat="41.557007000" lon="1.744309000">
        <ele>413.00</ele>
        <time>2013-04-21T12:13:23Z</time>
      </trkpt>
      <trkpt lat="41.556876000" lon="1.744488000">
        <ele>412.10</ele>
        <time>2013-04-21T12:13:28Z</time>
      </trkpt>
      <trkpt lat="41.556719000" lon="1.744655000">
        <ele>411.80</ele>
        <time>2013-04-21T12:13:33Z</time>
      </trkpt>
      <trkpt lat="41.556541000" lon="1.744767000">
        <ele>411.80</ele>
        <time>2013-04-21T12:13:38Z</time>
      </trkpt>
      <trkpt lat="41.556366000" lon="1.744944000">
        <ele>411.60</ele>
        <time>2013-04-21T12:13:43Z</time>
      </trkpt>
      <trkpt lat="41.556175000" lon="1.745094000">
        <ele>411.20</ele>
        <time>2013-04-21T12:13:48Z</time>
      </trkpt>
      <trkpt lat="41.555990000" lon="1.745184000">
        <ele>411.30</ele>
        <time>2013-04-21T12:13:53Z</time>
      </trkpt>
      <trkpt lat="41.555789000" lon="1.745283000">
        <ele>411.00</ele>
        <time>2013-04-21T12:13:58Z</time>
      </trkpt>
      <trkpt lat="41.555589000" lon="1.745323000">
        <ele>410.60</ele>
        <time>2013-04-21T12:14:03Z</time>
      </trkpt>
      <trkpt lat="41.555395000" lon="1.745351000">
        <ele>410.40</ele>
        <time>2013-04-21T12:14:08Z</time>
      </trkpt>
      <trkpt lat="41.555188000" lon="1.745378000">
        <ele>410.10</ele>
        <time>2013-04-21T12:14:14Z</time>
      </trkpt>
      <trkpt lat="41.554986000" lon="1.745449000">
        <ele>410.00</ele>
        <time>2013-04-21T12:14:20Z</time>
      </trkpt>
      <trkpt lat="41.554829000" lon="1.745566000">
        <ele>410.00</ele>
        <time>2013-04-21T12:14:26Z</time>
      </trkpt>
      <trkpt lat="41.554791000" lon="1.745834000">
        <ele>410.40</ele>
        <time>2013-04-21T12:14:32Z</time>
      </trkpt>
      <trkpt lat="41.554786000" lon="1.746100000">
        <ele>412.00</ele>
        <time>2013-04-21T12:14:38Z</time>
      </trkpt>
      <trkpt lat="41.554786000" lon="1.746353000">
        <ele>413.30</ele>
        <time>2013-04-21T12:14:44Z</time>
      </trkpt>
      <trkpt lat="41.554782000" lon="1.746594000">
        <ele>414.60</ele>
        <time>2013-04-21T12:14:50Z</time>
      </trkpt>
      <trkpt lat="41.554729000" lon="1.746847000">
        <ele>416.10</ele>
        <time>2013-04-21T12:14:57Z</time>
      </trkpt>
      <trkpt lat="41.554638000" lon="1.747075000">
        <ele>416.60</ele>
        <time>2013-04-21T12:15:03Z</time>
      </trkpt>
      <trkpt lat="41.554522000" lon="1.747276000">
        <ele>417.20</ele>
        <time>2013-04-21T12:15:09Z</time>
      </trkpt>
      <trkpt lat="41.554483000" lon="1.747500000">
        <ele>418.10</ele>
        <time>2013-04-21T12:15:15Z</time>
      </trkpt>
      <trkpt lat="41.554581000" lon="1.747714000">
        <ele>419.30</ele>
        <time>2013-04-21T12:15:21Z</time>
      </trkpt>
      <trkpt lat="41.554491000" lon="1.747941000">
        <ele>419.10</ele>
        <time>2013-04-21T12:15:28Z</time>
      </trkpt>
      <trkpt lat="41.554460000" lon="1.748186000">
        <ele>418.40</ele>
        <time>2013-04-21T12:15:33Z</time>
      </trkpt>
      <trkpt lat="41.554370000" lon="1.748464000">
        <ele>417.80</ele>
        <time>2013-04-21T12:15:38Z</time>
      </trkpt>
      <trkpt lat="41.554269000" lon="1.748677000">
        <ele>416.80</ele>
        <time>2013-04-21T12:15:42Z</time>
      </trkpt>
      <trkpt lat="41.554159000" lon="1.748878000">
        <ele>416.80</ele>
        <time>2013-04-21T12:15:46Z</time>
      </trkpt>
      <trkpt lat="41.554047000" lon="1.749089000">
        <ele>416.10</ele>
        <time>2013-04-21T12:15:50Z</time>
      </trkpt>
      <trkpt lat="41.553932000" lon="1.749308000">
        <ele>415.40</ele>
        <time>2013-04-21T12:15:54Z</time>
      </trkpt>
      <trkpt lat="41.553802000" lon="1.749492000">
        <ele>415.50</ele>
        <time>2013-04-21T12:15:58Z</time>
      </trkpt>
      <trkpt lat="41.553648000" lon="1.749663000">
        <ele>414.80</ele>
        <time>2013-04-21T12:16:02Z</time>
      </trkpt>
      <trkpt lat="41.553485000" lon="1.749814000">
        <ele>414.70</ele>
        <time>2013-04-21T12:16:06Z</time>
      </trkpt>
      <trkpt lat="41.553307000" lon="1.749992000">
        <ele>414.50</ele>
        <time>2013-04-21T12:16:11Z</time>
      </trkpt>
      <trkpt lat="41.553183000" lon="1.750179000">
        <ele>413.60</ele>
        <time>2013-04-21T12:16:15Z</time>
      </trkpt>
      <trkpt lat="41.553072000" lon="1.750447000">
        <ele>411.80</ele>
        <time>2013-04-21T12:16:19Z</time>
      </trkpt>
      <trkpt lat="41.552998000" lon="1.750701000">
        <ele>410.00</ele>
        <time>2013-04-21T12:16:22Z</time>
      </trkpt>
      <trkpt lat="41.552907000" lon="1.750975000">
        <ele>408.30</ele>
        <time>2013-04-21T12:16:25Z</time>
      </trkpt>
      <trkpt lat="41.552792000" lon="1.751257000">
        <ele>406.80</ele>
        <time>2013-04-21T12:16:28Z</time>
      </trkpt>
      <trkpt lat="41.552670000" lon="1.751534000">
        <ele>405.80</ele>
        <time>2013-04-21T12:16:31Z</time>
      </trkpt>
      <trkpt lat="41.552567000" lon="1.751798000">
        <ele>406.00</ele>
        <time>2013-04-21T12:16:34Z</time>
      </trkpt>
      <trkpt lat="41.552467000" lon="1.752030000">
        <ele>406.90</ele>
        <time>2013-04-21T12:16:37Z</time>
      </trkpt>
      <trkpt lat="41.552360000" lon="1.752296000">
        <ele>408.40</ele>
        <time>2013-04-21T12:16:41Z</time>
      </trkpt>
      <trkpt lat="41.552259000" lon="1.752531000">
        <ele>409.40</ele>
        <time>2013-04-21T12:16:45Z</time>
      </trkpt>
      <trkpt lat="41.552158000" lon="1.752765000">
        <ele>409.30</ele>
        <time>2013-04-21T12:16:49Z</time>
      </trkpt>
      <trkpt lat="41.552040000" lon="1.752980000">
        <ele>409.60</ele>
        <time>2013-04-21T12:16:53Z</time>
      </trkpt>
      <trkpt lat="41.551895000" lon="1.753165000">
        <ele>409.50</ele>
        <time>2013-04-21T12:16:57Z</time>
      </trkpt>
      <trkpt lat="41.551742000" lon="1.753341000">
        <ele>409.30</ele>
        <time>2013-04-21T12:17:01Z</time>
      </trkpt>
      <trkpt lat="41.551588000" lon="1.753502000">
        <ele>409.80</ele>
        <time>2013-04-21T12:17:05Z</time>
      </trkpt>
      <trkpt lat="41.551421000" lon="1.753699000">
        <ele>411.40</ele>
        <time>2013-04-21T12:17:10Z</time>
      </trkpt>
      <trkpt lat="41.551271000" lon="1.753893000">
        <ele>412.30</ele>
        <time>2013-04-21T12:17:15Z</time>
      </trkpt>
      <trkpt lat="41.551164000" lon="1.754112000">
        <ele>413.30</ele>
        <time>2013-04-21T12:17:20Z</time>
      </trkpt>
      <trkpt lat="41.551072000" lon="1.754322000">
        <ele>414.40</ele>
        <time>2013-04-21T12:17:25Z</time>
      </trkpt>
      <trkpt lat="41.550959000" lon="1.754529000">
        <ele>415.50</ele>
        <time>2013-04-21T12:17:31Z</time>
      </trkpt>
      <trkpt lat="41.550834000" lon="1.754719000">
        <ele>416.00</ele>
        <time>2013-04-21T12:17:37Z</time>
      </trkpt>
      <trkpt lat="41.550759000" lon="1.754943000">
        <ele>417.00</ele>
        <time>2013-04-21T12:17:43Z</time>
      </trkpt>
      <trkpt lat="41.550769000" lon="1.755183000">
        <ele>418.00</ele>
        <time>2013-04-21T12:17:49Z</time>
      </trkpt>
      <trkpt lat="41.550777000" lon="1.755410000">
        <ele>418.50</ele>
        <time>2013-04-21T12:17:55Z</time>
      </trkpt>
      <trkpt lat="41.550771000" lon="1.755682000">
        <ele>419.90</ele>
        <time>2013-04-21T12:18:02Z</time>
      </trkpt>
      <trkpt lat="41.550741000" lon="1.755937000">
        <ele>421.40</ele>
        <time>2013-04-21T12:18:09Z</time>
      </trkpt>
      <trkpt lat="41.550670000" lon="1.756190000">
        <ele>423.30</ele>
        <time>2013-04-21T12:18:16Z</time>
      </trkpt>
      <trkpt lat="41.550516000" lon="1.756352000">
        <ele>424.40</ele>
        <time>2013-04-21T12:18:23Z</time>
      </trkpt>
      <trkpt lat="41.550419000" lon="1.756539000">
        <ele>424.80</ele>
        <time>2013-04-21T12:18:29Z</time>
      </trkpt>
      <trkpt lat="41.550376000" lon="1.756757000">
        <ele>424.30</ele>
        <time>2013-04-21T12:18:34Z</time>
      </trkpt>
      <trkpt lat="41.550230000" lon="1.756914000">
        <ele>422.60</ele>
        <time>2013-04-21T12:18:38Z</time>
      </trkpt>
      <trkpt lat="41.550011000" lon="1.757084000">
        <ele>420.70</ele>
        <time>2013-04-21T12:18:42Z</time>
      </trkpt>
      <trkpt lat="41.549830000" lon="1.757232000">
        <ele>419.20</ele>
        <time>2013-04-21T12:18:45Z</time>
      </trkpt>
      <trkpt lat="41.549632000" lon="1.757420000">
        <ele>415.70</ele>
        <time>2013-04-21T12:18:48Z</time>
      </trkpt>
      <trkpt lat="41.549493000" lon="1.757574000">
        <ele>413.70</ele>
        <time>2013-04-21T12:18:50Z</time>
      </trkpt>
      <trkpt lat="41.549350000" lon="1.757739000">
        <ele>412.40</ele>
        <time>2013-04-21T12:18:52Z</time>
      </trkpt>
      <trkpt lat="41.549201000" lon="1.757909000">
        <ele>411.40</ele>
        <time>2013-04-21T12:18:54Z</time>
      </trkpt>
      <trkpt lat="41.549063000" lon="1.758100000">
        <ele>410.50</ele>
        <time>2013-04-21T12:18:56Z</time>
      </trkpt>
      <trkpt lat="41.548914000" lon="1.758274000">
        <ele>408.70</ele>
        <time>2013-04-21T12:18:58Z</time>
      </trkpt>
      <trkpt lat="41.548747000" lon="1.758417000">
        <ele>407.60</ele>
        <time>2013-04-21T12:19:00Z</time>
      </trkpt>
      <trkpt lat="41.548570000" lon="1.758560000">
        <ele>406.10</ele>
        <time>2013-04-21T12:19:02Z</time>
      </trkpt>
      <trkpt lat="41.548389000" lon="1.758678000">
        <ele>405.70</ele>
        <time>2013-04-21T12:19:04Z</time>
      </trkpt>
      <trkpt lat="41.548205000" lon="1.758738000">
        <ele>404.90</ele>
        <time>2013-04-21T12:19:06Z</time>
      </trkpt>
      <trkpt lat="41.547945000" lon="1.758697000">
        <ele>405.40</ele>
        <time>2013-04-21T12:19:09Z</time>
      </trkpt>
      <trkpt lat="41.547714000" lon="1.758635000">
        <ele>407.10</ele>
        <time>2013-04-21T12:19:12Z</time>
      </trkpt>
      <trkpt lat="41.547501000" lon="1.758584000">
        <ele>407.40</ele>
        <time>2013-04-21T12:19:15Z</time>
      </trkpt>
      <trkpt lat="41.547296000" lon="1.758546000">
        <ele>408.30</ele>
        <time>2013-04-21T12:19:18Z</time>
      </trkpt>
      <trkpt lat="41.547102000" lon="1.758499000">
        <ele>408.20</ele>
        <time>2013-04-21T12:19:21Z</time>
      </trkpt>
      <trkpt lat="41.546906000" lon="1.758475000">
        <ele>408.10</ele>
        <time>2013-04-21T12:19:24Z</time>
      </trkpt>
      <trkpt lat="41.546699000" lon="1.758453000">
        <ele>406.90</ele>
        <time>2013-04-21T12:19:27Z</time>
      </trkpt>
      <trkpt lat="41.546487000" lon="1.758416000">
        <ele>406.30</ele>
        <time>2013-04-21T12:19:30Z</time>
      </trkpt>
      <trkpt lat="41.546263000" lon="1.758420000">
        <ele>404.90</ele>
        <time>2013-04-21T12:19:33Z</time>
      </trkpt>
      <trkpt lat="41.546031000" lon="1.758482000">
        <ele>403.50</ele>
        <time>2013-04-21T12:19:36Z</time>
      </trkpt>
      <trkpt lat="41.545807000" lon="1.758596000">
        <ele>402.80</ele>
        <time>2013-04-21T12:19:39Z</time>
      </trkpt>
      <trkpt lat="41.545595000" lon="1.758745000">
        <ele>402.00</ele>
        <time>2013-04-21T12:19:42Z</time>
      </trkpt>
      <trkpt lat="41.545381000" lon="1.758900000">
        <ele>401.30</ele>
        <time>2013-04-21T12:19:45Z</time>
      </trkpt>
      <trkpt lat="41.545192000" lon="1.759104000">
        <ele>401.00</ele>
        <time>2013-04-21T12:19:48Z</time>
      </trkpt>
      <trkpt lat="41.545036000" lon="1.759356000">
        <ele>400.00</ele>
        <time>2013-04-21T12:19:51Z</time>
      </trkpt>
      <trkpt lat="41.544896000" lon="1.759623000">
        <ele>399.20</ele>
        <time>2013-04-21T12:19:54Z</time>
      </trkpt>
      <trkpt lat="41.544723000" lon="1.759856000">
        <ele>398.50</ele>
        <time>2013-04-21T12:19:57Z</time>
      </trkpt>
      <trkpt lat="41.544502000" lon="1.759999000">
        <ele>397.20</ele>
        <time>2013-04-21T12:20:00Z</time>
      </trkpt>
      <trkpt lat="41.544321000" lon="1.760111000">
        <ele>397.20</ele>
        <time>2013-04-21T12:20:03Z</time>
      </trkpt>
      <trkpt lat="41.544127000" lon="1.760244000">
        <ele>396.60</ele>
        <time>2013-04-21T12:20:07Z</time>
      </trkpt>
      <trkpt lat="41.543915000" lon="1.760309000">
        <ele>395.90</ele>
        <time>2013-04-21T12:20:11Z</time>
      </trkpt>
      <trkpt lat="41.543698000" lon="1.760355000">
        <ele>395.50</ele>
        <time>2013-04-21T12:20:15Z</time>
      </trkpt>
      <trkpt lat="41.543459000" lon="1.760426000">
        <ele>395.10</ele>
        <time>2013-04-21T12:20:19Z</time>
      </trkpt>
      <trkpt lat="41.543283000" lon="1.760473000">
        <ele>394.90</ele>
        <time>2013-04-21T12:20:22Z</time>
      </trkpt>
      <trkpt lat="41.543095000" lon="1.760527000">
        <ele>394.10</ele>
        <time>2013-04-21T12:20:25Z</time>
      </trkpt>
      <trkpt lat="41.542890000" lon="1.760572000">
        <ele>393.60</ele>
        <time>2013-04-21T12:20:28Z</time>
      </trkpt>
      <trkpt lat="41.542676000" lon="1.760616000">
        <ele>392.50</ele>
        <time>2013-04-21T12:20:31Z</time>
      </trkpt>
      <trkpt lat="41.542454000" lon="1.760676000">
        <ele>390.50</ele>
        <time>2013-04-21T12:20:34Z</time>
      </trkpt>
      <trkpt lat="41.542227000" lon="1.760726000">
        <ele>390.10</ele>
        <time>2013-04-21T12:20:37Z</time>
      </trkpt>
      <trkpt lat="41.542000000" lon="1.760786000">
        <ele>389.60</ele>
        <time>2013-04-21T12:20:40Z</time>
      </trkpt>
      <trkpt lat="41.541777000" lon="1.760833000">
        <ele>390.20</ele>
        <time>2013-04-21T12:20:43Z</time>
      </trkpt>
      <trkpt lat="41.541600000" lon="1.760886000">
        <ele>390.50</ele>
        <time>2013-04-21T12:20:49Z</time>
      </trkpt>
      <trkpt lat="41.541749000" lon="1.761017000">
        <ele>391.10</ele>
        <time>2013-04-21T12:20:56Z</time>
      </trkpt>
      <trkpt lat="41.541777000" lon="1.761248000">
        <ele>390.60</ele>
        <time>2013-04-21T12:21:12Z</time>
      </trkpt>
      <trkpt lat="41.541652000" lon="1.761445000">
        <ele>390.10</ele>
        <time>2013-04-21T12:21:20Z</time>
      </trkpt>
      <trkpt lat="41.541486000" lon="1.761656000">
        <ele>389.20</ele>
        <time>2013-04-21T12:21:26Z</time>
      </trkpt>
      <trkpt lat="41.541337000" lon="1.761845000">
        <ele>387.20</ele>
        <time>2013-04-21T12:21:30Z</time>
      </trkpt>
      <trkpt lat="41.541174000" lon="1.762057000">
        <ele>386.20</ele>
        <time>2013-04-21T12:21:34Z</time>
      </trkpt>
      <trkpt lat="41.541032000" lon="1.762224000">
        <ele>385.50</ele>
        <time>2013-04-21T12:21:37Z</time>
      </trkpt>
      <trkpt lat="41.540887000" lon="1.762399000">
        <ele>384.40</ele>
        <time>2013-04-21T12:21:40Z</time>
      </trkpt>
      <trkpt lat="41.540745000" lon="1.762576000">
        <ele>383.90</ele>
        <time>2013-04-21T12:21:43Z</time>
      </trkpt>
      <trkpt lat="41.540601000" lon="1.762750000">
        <ele>382.30</ele>
        <time>2013-04-21T12:21:46Z</time>
      </trkpt>
      <trkpt lat="41.540463000" lon="1.762921000">
        <ele>383.40</ele>
        <time>2013-04-21T12:21:49Z</time>
      </trkpt>
      <trkpt lat="41.540376000" lon="1.763153000">
        <ele>383.20</ele>
        <time>2013-04-21T12:21:53Z</time>
      </trkpt>
      <trkpt lat="41.540333000" lon="1.763394000">
        <ele>383.00</ele>
        <time>2013-04-21T12:21:59Z</time>
      </trkpt>
      <trkpt lat="41.540310000" lon="1.763633000">
        <ele>381.70</ele>
        <time>2013-04-21T12:22:04Z</time>
      </trkpt>
      <trkpt lat="41.540161000" lon="1.763779000">
        <ele>381.60</ele>
        <time>2013-04-21T12:22:09Z</time>
      </trkpt>
      <trkpt lat="41.539995000" lon="1.763933000">
        <ele>380.70</ele>
        <time>2013-04-21T12:22:15Z</time>
      </trkpt>
      <trkpt lat="41.539834000" lon="1.764091000">
        <ele>380.20</ele>
        <time>2013-04-21T12:22:21Z</time>
      </trkpt>
      <trkpt lat="41.539707000" lon="1.764257000">
        <ele>379.50</ele>
        <time>2013-04-21T12:22:27Z</time>
      </trkpt>
      <trkpt lat="41.539594000" lon="1.764450000">
        <ele>378.90</ele>
        <time>2013-04-21T12:22:33Z</time>
      </trkpt>
      <trkpt lat="41.539467000" lon="1.764552000">
        <ele>378.70</ele>
        <time>2013-04-21T12:22:54Z</time>
      </trkpt>
      <trkpt lat="41.539419000" lon="1.764286000">
        <ele>378.10</ele>
        <time>2013-04-21T12:23:05Z</time>
      </trkpt>
      <trkpt lat="41.539305000" lon="1.764083000">
        <ele>376.70</ele>
        <time>2013-04-21T12:23:10Z</time>
      </trkpt>
      <trkpt lat="41.539191000" lon="1.763882000">
        <ele>376.30</ele>
        <time>2013-04-21T12:23:14Z</time>
      </trkpt>
      <trkpt lat="41.539035000" lon="1.763770000">
        <ele>374.10</ele>
        <time>2013-04-21T12:23:18Z</time>
      </trkpt>
      <trkpt lat="41.538874000" lon="1.763924000">
        <ele>373.20</ele>
        <time>2013-04-21T12:23:22Z</time>
      </trkpt>
      <trkpt lat="41.538701000" lon="1.764090000">
        <ele>372.60</ele>
        <time>2013-04-21T12:23:26Z</time>
      </trkpt>
      <trkpt lat="41.538535000" lon="1.764266000">
        <ele>371.50</ele>
        <time>2013-04-21T12:23:30Z</time>
      </trkpt>
      <trkpt lat="41.538381000" lon="1.764419000">
        <ele>371.10</ele>
        <time>2013-04-21T12:23:34Z</time>
      </trkpt>
      <trkpt lat="41.538220000" lon="1.764591000">
        <ele>368.80</ele>
        <time>2013-04-21T12:23:38Z</time>
      </trkpt>
      <trkpt lat="41.538064000" lon="1.764732000">
        <ele>366.60</ele>
        <time>2013-04-21T12:23:41Z</time>
      </trkpt>
      <trkpt lat="41.537910000" lon="1.764882000">
        <ele>365.30</ele>
        <time>2013-04-21T12:23:44Z</time>
      </trkpt>
      <trkpt lat="41.537770000" lon="1.765032000">
        <ele>366.20</ele>
        <time>2013-04-21T12:23:48Z</time>
      </trkpt>
      <trkpt lat="41.537586000" lon="1.765196000">
        <ele>366.20</ele>
        <time>2013-04-21T12:23:53Z</time>
      </trkpt>
      <trkpt lat="41.537447000" lon="1.765350000">
        <ele>365.90</ele>
        <time>2013-04-21T12:23:57Z</time>
      </trkpt>
      <trkpt lat="41.537306000" lon="1.765504000">
        <ele>365.40</ele>
        <time>2013-04-21T12:24:01Z</time>
      </trkpt>
      <trkpt lat="41.537138000" lon="1.765693000">
        <ele>366.20</ele>
        <time>2013-04-21T12:24:06Z</time>
      </trkpt>
      <trkpt lat="41.537083000" lon="1.765939000">
        <ele>366.40</ele>
        <time>2013-04-21T12:24:11Z</time>
      </trkpt>
      <trkpt lat="41.537206000" lon="1.766165000">
        <ele>367.20</ele>
        <time>2013-04-21T12:24:16Z</time>
      </trkpt>
      <trkpt lat="41.537326000" lon="1.766360000">
        <ele>367.50</ele>
        <time>2013-04-21T12:24:21Z</time>
      </trkpt>
      <trkpt lat="41.537420000" lon="1.766588000">
        <ele>367.20</ele>
        <time>2013-04-21T12:24:27Z</time>
      </trkpt>
      <trkpt lat="41.537297000" lon="1.766771000">
        <ele>365.20</ele>
        <time>2013-04-21T12:24:32Z</time>
      </trkpt>
      <trkpt lat="41.537114000" lon="1.766947000">
        <ele>364.70</ele>
        <time>2013-04-21T12:24:37Z</time>
      </trkpt>
      <trkpt lat="41.536948000" lon="1.767112000">
        <ele>364.90</ele>
        <time>2013-04-21T12:24:41Z</time>
      </trkpt>
      <trkpt lat="41.536793000" lon="1.767271000">
        <ele>363.60</ele>
        <time>2013-04-21T12:24:45Z</time>
      </trkpt>
      <trkpt lat="41.536630000" lon="1.767440000">
        <ele>362.60</ele>
        <time>2013-04-21T12:24:49Z</time>
      </trkpt>
      <trkpt lat="41.536463000" lon="1.767616000">
        <ele>361.70</ele>
        <time>2013-04-21T12:24:53Z</time>
      </trkpt>
      <trkpt lat="41.536296000" lon="1.767795000">
        <ele>361.10</ele>
        <time>2013-04-21T12:24:57Z</time>
      </trkpt>
      <trkpt lat="41.536145000" lon="1.767945000">
        <ele>361.60</ele>
        <time>2013-04-21T12:25:01Z</time>
      </trkpt>
      <trkpt lat="41.536012000" lon="1.768109000">
        <ele>361.10</ele>
        <time>2013-04-21T12:25:06Z</time>
      </trkpt>
      <trkpt lat="41.535844000" lon="1.768303000">
        <ele>360.40</ele>
        <time>2013-04-21T12:25:11Z</time>
      </trkpt>
      <trkpt lat="41.535670000" lon="1.768470000">
        <ele>360.40</ele>
        <time>2013-04-21T12:25:16Z</time>
      </trkpt>
      <trkpt lat="41.535498000" lon="1.768631000">
        <ele>360.40</ele>
        <time>2013-04-21T12:25:21Z</time>
      </trkpt>
      <trkpt lat="41.535343000" lon="1.768772000">
        <ele>360.20</ele>
        <time>2013-04-21T12:25:28Z</time>
      </trkpt>
      <trkpt lat="41.535178000" lon="1.768939000">
        <ele>359.90</ele>
        <time>2013-04-21T12:25:33Z</time>
      </trkpt>
      <trkpt lat="41.535035000" lon="1.769095000">
        <ele>359.40</ele>
        <time>2013-04-21T12:25:37Z</time>
      </trkpt>
      <trkpt lat="41.534900000" lon="1.769271000">
        <ele>359.10</ele>
        <time>2013-04-21T12:25:41Z</time>
      </trkpt>
      <trkpt lat="41.534758000" lon="1.769443000">
        <ele>358.60</ele>
        <time>2013-04-21T12:25:45Z</time>
      </trkpt>
      <trkpt lat="41.534619000" lon="1.769636000">
        <ele>358.10</ele>
        <time>2013-04-21T12:25:50Z</time>
      </trkpt>
      <trkpt lat="41.534479000" lon="1.769806000">
        <ele>357.70</ele>
        <time>2013-04-21T12:25:55Z</time>
      </trkpt>
      <trkpt lat="41.534338000" lon="1.769991000">
        <ele>356.80</ele>
        <time>2013-04-21T12:26:00Z</time>
      </trkpt>
      <trkpt lat="41.534184000" lon="1.769908000">
        <ele>355.70</ele>
        <time>2013-04-21T12:26:07Z</time>
      </trkpt>
      <trkpt lat="41.534070000" lon="1.769686000">
        <ele>355.20</ele>
        <time>2013-04-21T12:26:17Z</time>
      </trkpt>
      <trkpt lat="41.533929000" lon="1.769858000">
        <ele>355.30</ele>
        <time>2013-04-21T12:26:24Z</time>
      </trkpt>
      <trkpt lat="41.533809000" lon="1.770077000">
        <ele>355.20</ele>
        <time>2013-04-21T12:26:29Z</time>
      </trkpt>
      <trkpt lat="41.533709000" lon="1.770282000">
        <ele>354.80</ele>
        <time>2013-04-21T12:26:33Z</time>
      </trkpt>
      <trkpt lat="41.533589000" lon="1.770539000">
        <ele>353.80</ele>
        <time>2013-04-21T12:26:38Z</time>
      </trkpt>
      <trkpt lat="41.533499000" lon="1.770767000">
        <ele>353.90</ele>
        <time>2013-04-21T12:26:44Z</time>
      </trkpt>
      <trkpt lat="41.533411000" lon="1.771007000">
        <ele>352.60</ele>
        <time>2013-04-21T12:26:49Z</time>
      </trkpt>
      <trkpt lat="41.533319000" lon="1.771226000">
        <ele>351.80</ele>
        <time>2013-04-21T12:26:53Z</time>
      </trkpt>
      <trkpt lat="41.533210000" lon="1.771473000">
        <ele>350.60</ele>
        <time>2013-04-21T12:26:57Z</time>
      </trkpt>
      <trkpt lat="41.533097000" lon="1.771748000">
        <ele>350.30</ele>
        <time>2013-04-21T12:27:01Z</time>
      </trkpt>
      <trkpt lat="41.533007000" lon="1.771955000">
        <ele>349.00</ele>
        <time>2013-04-21T12:27:04Z</time>
      </trkpt>
      <trkpt lat="41.532853000" lon="1.772166000">
        <ele>349.60</ele>
        <time>2013-04-21T12:27:08Z</time>
      </trkpt>
      <trkpt lat="41.532718000" lon="1.772332000">
        <ele>349.00</ele>
        <time>2013-04-21T12:27:12Z</time>
      </trkpt>
      <trkpt lat="41.532577000" lon="1.772492000">
        <ele>348.10</ele>
        <time>2013-04-21T12:27:16Z</time>
      </trkpt>
      <trkpt lat="41.532410000" lon="1.772674000">
        <ele>346.10</ele>
        <time>2013-04-21T12:27:20Z</time>
      </trkpt>
      <trkpt lat="41.532225000" lon="1.772886000">
        <ele>345.90</ele>
        <time>2013-04-21T12:27:24Z</time>
      </trkpt>
      <trkpt lat="41.532064000" lon="1.773089000">
        <ele>345.80</ele>
        <time>2013-04-21T12:27:28Z</time>
      </trkpt>
      <trkpt lat="41.531913000" lon="1.773268000">
        <ele>346.20</ele>
        <time>2013-04-21T12:27:32Z</time>
      </trkpt>
      <trkpt lat="41.531799000" lon="1.773407000">
        <ele>345.20</ele>
        <time>2013-04-21T12:27:56Z</time>
      </trkpt>
      <trkpt lat="41.531617000" lon="1.773576000">
        <ele>343.40</ele>
        <time>2013-04-21T12:28:01Z</time>
      </trkpt>
      <trkpt lat="41.531462000" lon="1.773730000">
        <ele>343.00</ele>
        <time>2013-04-21T12:28:05Z</time>
      </trkpt>
      <trkpt lat="41.531300000" lon="1.773934000">
        <ele>341.40</ele>
        <time>2013-04-21T12:28:09Z</time>
      </trkpt>
      <trkpt lat="41.531125000" lon="1.774148000">
        <ele>341.10</ele>
        <time>2013-04-21T12:28:13Z</time>
      </trkpt>
      <trkpt lat="41.530957000" lon="1.774351000">
        <ele>340.60</ele>
        <time>2013-04-21T12:28:17Z</time>
      </trkpt>
      <trkpt lat="41.530813000" lon="1.774517000">
        <ele>340.40</ele>
        <time>2013-04-21T12:28:21Z</time>
      </trkpt>
      <trkpt lat="41.530642000" lon="1.774489000">
        <ele>340.40</ele>
        <time>2013-04-21T12:28:29Z</time>
      </trkpt>
      <trkpt lat="41.530470000" lon="1.774320000">
        <ele>340.60</ele>
        <time>2013-04-21T12:28:35Z</time>
      </trkpt>
      <trkpt lat="41.530289000" lon="1.774387000">
        <ele>339.50</ele>
        <time>2013-04-21T12:28:40Z</time>
      </trkpt>
      <trkpt lat="41.530148000" lon="1.774553000">
        <ele>338.80</ele>
        <time>2013-04-21T12:28:44Z</time>
      </trkpt>
      <trkpt lat="41.530002000" lon="1.774739000">
        <ele>338.10</ele>
        <time>2013-04-21T12:28:48Z</time>
      </trkpt>
      <trkpt lat="41.529835000" lon="1.774921000">
        <ele>337.30</ele>
        <time>2013-04-21T12:28:52Z</time>
      </trkpt>
      <trkpt lat="41.529659000" lon="1.775115000">
        <ele>335.60</ele>
        <time>2013-04-21T12:28:56Z</time>
      </trkpt>
      <trkpt lat="41.529483000" lon="1.775312000">
        <ele>335.80</ele>
        <time>2013-04-21T12:29:00Z</time>
      </trkpt>
      <trkpt lat="41.529305000" lon="1.775519000">
        <ele>334.10</ele>
        <time>2013-04-21T12:29:04Z</time>
      </trkpt>
      <trkpt lat="41.529122000" lon="1.775729000">
        <ele>333.10</ele>
        <time>2013-04-21T12:29:08Z</time>
      </trkpt>
      <trkpt lat="41.528955000" lon="1.775946000">
        <ele>332.90</ele>
        <time>2013-04-21T12:29:12Z</time>
      </trkpt>
      <trkpt lat="41.528832000" lon="1.776128000">
        <ele>331.70</ele>
        <time>2013-04-21T12:29:15Z</time>
      </trkpt>
      <trkpt lat="41.528728000" lon="1.776331000">
        <ele>330.90</ele>
        <time>2013-04-21T12:29:18Z</time>
      </trkpt>
      <trkpt lat="41.528617000" lon="1.776534000">
        <ele>330.00</ele>
        <time>2013-04-21T12:29:21Z</time>
      </trkpt>
      <trkpt lat="41.528467000" lon="1.776775000">
        <ele>330.80</ele>
        <time>2013-04-21T12:29:25Z</time>
      </trkpt>
      <trkpt lat="41.528333000" lon="1.777024000">
        <ele>329.80</ele>
        <time>2013-04-21T12:29:29Z</time>
      </trkpt>
      <trkpt lat="41.528196000" lon="1.777282000">
        <ele>329.30</ele>
        <time>2013-04-21T12:29:33Z</time>
      </trkpt>
      <trkpt lat="41.528091000" lon="1.777480000">
        <ele>328.90</ele>
        <time>2013-04-21T12:29:36Z</time>
      </trkpt>
      <trkpt lat="41.527991000" lon="1.777686000">
        <ele>328.10</ele>
        <time>2013-04-21T12:29:39Z</time>
      </trkpt>
      <trkpt lat="41.527889000" lon="1.777913000">
        <ele>326.90</ele>
        <time>2013-04-21T12:29:42Z</time>
      </trkpt>
      <trkpt lat="41.527785000" lon="1.778162000">
        <ele>326.40</ele>
        <time>2013-04-21T12:29:45Z</time>
      </trkpt>
      <trkpt lat="41.527674000" lon="1.778408000">
        <ele>326.80</ele>
        <time>2013-04-21T12:29:48Z</time>
      </trkpt>
      <trkpt lat="41.527623000" lon="1.778641000">
        <ele>327.40</ele>
        <time>2013-04-21T12:29:51Z</time>
      </trkpt>
      <trkpt lat="41.527749000" lon="1.778805000">
        <ele>327.50</ele>
        <time>2013-04-21T12:30:00Z</time>
      </trkpt>
      <trkpt lat="41.527825000" lon="1.779032000">
        <ele>326.90</ele>
        <time>2013-04-21T12:30:05Z</time>
      </trkpt>
      <trkpt lat="41.527742000" lon="1.779259000">
        <ele>326.10</ele>
        <time>2013-04-21T12:30:09Z</time>
      </trkpt>
      <trkpt lat="41.527601000" lon="1.779469000">
        <ele>326.00</ele>
        <time>2013-04-21T12:30:13Z</time>
      </trkpt>
      <trkpt lat="41.527461000" lon="1.779686000">
        <ele>326.60</ele>
        <time>2013-04-21T12:30:17Z</time>
      </trkpt>
      <trkpt lat="41.527334000" lon="1.779891000">
        <ele>326.40</ele>
        <time>2013-04-21T12:30:21Z</time>
      </trkpt>
      <trkpt lat="41.527215000" lon="1.780119000">
        <ele>325.80</ele>
        <time>2013-04-21T12:30:25Z</time>
      </trkpt>
      <trkpt lat="41.527063000" lon="1.780338000">
        <ele>324.00</ele>
        <time>2013-04-21T12:30:29Z</time>
      </trkpt>
      <trkpt lat="41.526931000" lon="1.780506000">
        <ele>322.70</ele>
        <time>2013-04-21T12:30:32Z</time>
      </trkpt>
      <trkpt lat="41.526792000" lon="1.780666000">
        <ele>322.50</ele>
        <time>2013-04-21T12:30:35Z</time>
      </trkpt>
      <trkpt lat="41.526648000" lon="1.780888000">
        <ele>323.10</ele>
        <time>2013-04-21T12:30:39Z</time>
      </trkpt>
      <trkpt lat="41.526562000" lon="1.781191000">
        <ele>320.80</ele>
        <time>2013-04-21T12:30:43Z</time>
      </trkpt>
      <trkpt lat="41.526458000" lon="1.781387000">
        <ele>320.60</ele>
        <time>2013-04-21T12:30:46Z</time>
      </trkpt>
      <trkpt lat="41.526320000" lon="1.781631000">
        <ele>320.00</ele>
        <time>2013-04-21T12:30:50Z</time>
      </trkpt>
      <trkpt lat="41.526166000" lon="1.781855000">
        <ele>319.30</ele>
        <time>2013-04-21T12:30:54Z</time>
      </trkpt>
      <trkpt lat="41.526043000" lon="1.782036000">
        <ele>318.90</ele>
        <time>2013-04-21T12:30:57Z</time>
      </trkpt>
      <trkpt lat="41.525839000" lon="1.782364000">
        <ele>318.70</ele>
        <time>2013-04-21T12:31:02Z</time>
      </trkpt>
      <trkpt lat="41.525661000" lon="1.782661000">
        <ele>316.00</ele>
        <time>2013-04-21T12:31:06Z</time>
      </trkpt>
      <trkpt lat="41.525380000" lon="1.783141000">
        <ele>314.80</ele>
        <time>2013-04-21T12:31:12Z</time>
      </trkpt>
      <trkpt lat="41.525211000" lon="1.783475000">
        <ele>312.30</ele>
        <time>2013-04-21T12:31:16Z</time>
      </trkpt>
      <trkpt lat="41.525089000" lon="1.783720000">
        <ele>312.00</ele>
        <time>2013-04-21T12:31:19Z</time>
      </trkpt>
      <trkpt lat="41.524960000" lon="1.783961000">
        <ele>311.10</ele>
        <time>2013-04-21T12:31:22Z</time>
      </trkpt>
      <trkpt lat="41.524835000" lon="1.784182000">
        <ele>310.60</ele>
        <time>2013-04-21T12:31:25Z</time>
      </trkpt>
      <trkpt lat="41.524744000" lon="1.784410000">
        <ele>309.80</ele>
        <time>2013-04-21T12:31:28Z</time>
      </trkpt>
      <trkpt lat="41.524676000" lon="1.784653000">
        <ele>309.20</ele>
        <time>2013-04-21T12:31:31Z</time>
      </trkpt>
      <trkpt lat="41.524642000" lon="1.784927000">
        <ele>306.50</ele>
        <time>2013-04-21T12:31:34Z</time>
      </trkpt>
      <trkpt lat="41.524600000" lon="1.785235000">
        <ele>305.50</ele>
        <time>2013-04-21T12:31:37Z</time>
      </trkpt>
      <trkpt lat="41.524552000" lon="1.785547000">
        <ele>305.10</ele>
        <time>2013-04-21T12:31:40Z</time>
      </trkpt>
      <trkpt lat="41.524494000" lon="1.785862000">
        <ele>303.90</ele>
        <time>2013-04-21T12:31:43Z</time>
      </trkpt>
      <trkpt lat="41.524410000" lon="1.786161000">
        <ele>302.70</ele>
        <time>2013-04-21T12:31:46Z</time>
      </trkpt>
      <trkpt lat="41.524297000" lon="1.786450000">
        <ele>302.10</ele>
        <time>2013-04-21T12:31:49Z</time>
      </trkpt>
      <trkpt lat="41.524170000" lon="1.786720000">
        <ele>301.70</ele>
        <time>2013-04-21T12:31:52Z</time>
      </trkpt>
      <trkpt lat="41.524087000" lon="1.787009000">
        <ele>301.30</ele>
        <time>2013-04-21T12:31:55Z</time>
      </trkpt>
      <trkpt lat="41.523980000" lon="1.787283000">
        <ele>301.10</ele>
        <time>2013-04-21T12:31:58Z</time>
      </trkpt>
      <trkpt lat="41.523851000" lon="1.787518000">
        <ele>301.00</ele>
        <time>2013-04-21T12:32:01Z</time>
      </trkpt>
      <trkpt lat="41.523775000" lon="1.787783000">
        <ele>301.30</ele>
        <time>2013-04-21T12:32:04Z</time>
      </trkpt>
      <trkpt lat="41.523710000" lon="1.788038000">
        <ele>301.20</ele>
        <time>2013-04-21T12:32:07Z</time>
      </trkpt>
      <trkpt lat="41.523614000" lon="1.788265000">
        <ele>301.30</ele>
        <time>2013-04-21T12:32:10Z</time>
      </trkpt>
      <trkpt lat="41.523471000" lon="1.788494000">
        <ele>299.30</ele>
        <time>2013-04-21T12:32:13Z</time>
      </trkpt>
      <trkpt lat="41.523303000" lon="1.788719000">
        <ele>298.20</ele>
        <time>2013-04-21T12:32:16Z</time>
      </trkpt>
      <trkpt lat="41.523123000" lon="1.788891000">
        <ele>297.80</ele>
        <time>2013-04-21T12:32:19Z</time>
      </trkpt>
      <trkpt lat="41.522945000" lon="1.789045000">
        <ele>298.00</ele>
        <time>2013-04-21T12:32:22Z</time>
      </trkpt>
      <trkpt lat="41.522864000" lon="1.789300000">
        <ele>298.30</ele>
        <time>2013-04-21T12:32:25Z</time>
      </trkpt>
      <trkpt lat="41.522787000" lon="1.789549000">
        <ele>298.40</ele>
        <time>2013-04-21T12:32:28Z</time>
      </trkpt>
      <trkpt lat="41.522698000" lon="1.789779000">
        <ele>298.00</ele>
        <time>2013-04-21T12:32:31Z</time>
      </trkpt>
      <trkpt lat="41.522577000" lon="1.789945000">
        <ele>297.80</ele>
        <time>2013-04-21T12:32:34Z</time>
      </trkpt>
      <trkpt lat="41.522428000" lon="1.789834000">
        <ele>299.00</ele>
        <time>2013-04-21T12:32:43Z</time>
      </trkpt>
      <trkpt lat="41.522245000" lon="1.789725000">
        <ele>297.90</ele>
        <time>2013-04-21T12:32:50Z</time>
      </trkpt>
      <trkpt lat="41.522045000" lon="1.789556000">
        <ele>295.00</ele>
        <time>2013-04-21T12:32:54Z</time>
      </trkpt>
      <trkpt lat="41.521874000" lon="1.789347000">
        <ele>292.80</ele>
        <time>2013-04-21T12:32:57Z</time>
      </trkpt>
      <trkpt lat="41.521677000" lon="1.789233000">
        <ele>292.00</ele>
        <time>2013-04-21T12:33:00Z</time>
      </trkpt>
      <trkpt lat="41.521465000" lon="1.789322000">
        <ele>289.40</ele>
        <time>2013-04-21T12:33:03Z</time>
      </trkpt>
      <trkpt lat="41.521291000" lon="1.789494000">
        <ele>288.90</ele>
        <time>2013-04-21T12:33:06Z</time>
      </trkpt>
      <trkpt lat="41.521110000" lon="1.789593000">
        <ele>289.40</ele>
        <time>2013-04-21T12:33:09Z</time>
      </trkpt>
      <trkpt lat="41.520926000" lon="1.789561000">
        <ele>289.30</ele>
        <time>2013-04-21T12:33:12Z</time>
      </trkpt>
      <trkpt lat="41.520697000" lon="1.789519000">
        <ele>289.70</ele>
        <time>2013-04-21T12:33:16Z</time>
      </trkpt>
      <trkpt lat="41.520500000" lon="1.789667000">
        <ele>290.20</ele>
        <time>2013-04-21T12:33:20Z</time>
      </trkpt>
      <trkpt lat="41.520302000" lon="1.789784000">
        <ele>289.90</ele>
        <time>2013-04-21T12:33:24Z</time>
      </trkpt>
      <trkpt lat="41.520089000" lon="1.789863000">
        <ele>290.50</ele>
        <time>2013-04-21T12:33:28Z</time>
      </trkpt>
      <trkpt lat="41.519856000" lon="1.789931000">
        <ele>289.10</ele>
        <time>2013-04-21T12:33:32Z</time>
      </trkpt>
      <trkpt lat="41.519675000" lon="1.789952000">
        <ele>289.50</ele>
        <time>2013-04-21T12:33:35Z</time>
      </trkpt>
      <trkpt lat="41.519503000" lon="1.790023000">
        <ele>289.10</ele>
        <time>2013-04-21T12:33:38Z</time>
      </trkpt>
      <trkpt lat="41.519334000" lon="1.790151000">
        <ele>288.40</ele>
        <time>2013-04-21T12:33:41Z</time>
      </trkpt>
      <trkpt lat="41.519168000" lon="1.790306000">
        <ele>287.90</ele>
        <time>2013-04-21T12:33:44Z</time>
      </trkpt>
      <trkpt lat="41.518990000" lon="1.790438000">
        <ele>287.40</ele>
        <time>2013-04-21T12:33:47Z</time>
      </trkpt>
      <trkpt lat="41.518809000" lon="1.790566000">
        <ele>287.40</ele>
        <time>2013-04-21T12:33:50Z</time>
      </trkpt>
      <trkpt lat="41.518655000" lon="1.790702000">
        <ele>288.50</ele>
        <time>2013-04-21T12:33:53Z</time>
      </trkpt>
      <trkpt lat="41.518495000" lon="1.790914000">
        <ele>289.00</ele>
        <time>2013-04-21T12:33:57Z</time>
      </trkpt>
      <trkpt lat="41.518343000" lon="1.791150000">
        <ele>289.40</ele>
        <time>2013-04-21T12:34:01Z</time>
      </trkpt>
      <trkpt lat="41.518193000" lon="1.791395000">
        <ele>288.90</ele>
        <time>2013-04-21T12:34:05Z</time>
      </trkpt>
      <trkpt lat="41.518063000" lon="1.791583000">
        <ele>287.70</ele>
        <time>2013-04-21T12:34:08Z</time>
      </trkpt>
      <trkpt lat="41.517925000" lon="1.791787000">
        <ele>287.50</ele>
        <time>2013-04-21T12:34:11Z</time>
      </trkpt>
      <trkpt lat="41.517785000" lon="1.791995000">
        <ele>286.30</ele>
        <time>2013-04-21T12:34:14Z</time>
      </trkpt>
      <trkpt lat="41.517645000" lon="1.792205000">
        <ele>285.80</ele>
        <time>2013-04-21T12:34:17Z</time>
      </trkpt>
      <trkpt lat="41.517492000" lon="1.792362000">
        <ele>284.10</ele>
        <time>2013-04-21T12:34:20Z</time>
      </trkpt>
      <trkpt lat="41.517304000" lon="1.792470000">
        <ele>282.80</ele>
        <time>2013-04-21T12:34:23Z</time>
      </trkpt>
      <trkpt lat="41.517146000" lon="1.792655000">
        <ele>281.10</ele>
        <time>2013-04-21T12:34:26Z</time>
      </trkpt>
      <trkpt lat="41.517008000" lon="1.792884000">
        <ele>280.70</ele>
        <time>2013-04-21T12:34:29Z</time>
      </trkpt>
      <trkpt lat="41.516900000" lon="1.793132000">
        <ele>280.80</ele>
        <time>2013-04-21T12:34:32Z</time>
      </trkpt>
      <trkpt lat="41.516815000" lon="1.793373000">
        <ele>281.40</ele>
        <time>2013-04-21T12:34:35Z</time>
      </trkpt>
      <trkpt lat="41.516703000" lon="1.793610000">
        <ele>280.20</ele>
        <time>2013-04-21T12:34:38Z</time>
      </trkpt>
      <trkpt lat="41.516616000" lon="1.793853000">
        <ele>281.20</ele>
        <time>2013-04-21T12:34:41Z</time>
      </trkpt>
      <trkpt lat="41.516532000" lon="1.794092000">
        <ele>280.40</ele>
        <time>2013-04-21T12:34:44Z</time>
      </trkpt>
      <trkpt lat="41.516433000" lon="1.794318000">
        <ele>281.00</ele>
        <time>2013-04-21T12:34:47Z</time>
      </trkpt>
      <trkpt lat="41.516370000" lon="1.794569000">
        <ele>280.30</ele>
        <time>2013-04-21T12:34:50Z</time>
      </trkpt>
      <trkpt lat="41.516282000" lon="1.794812000">
        <ele>279.30</ele>
        <time>2013-04-21T12:34:53Z</time>
      </trkpt>
      <trkpt lat="41.516161000" lon="1.795020000">
        <ele>279.90</ele>
        <time>2013-04-21T12:34:56Z</time>
      </trkpt>
      <trkpt lat="41.516098000" lon="1.795244000">
        <ele>280.30</ele>
        <time>2013-04-21T12:34:59Z</time>
      </trkpt>
      <trkpt lat="41.515970000" lon="1.795500000">
        <ele>280.10</ele>
        <time>2013-04-21T12:35:03Z</time>
      </trkpt>
      <trkpt lat="41.515865000" lon="1.795700000">
        <ele>279.60</ele>
        <time>2013-04-21T12:35:06Z</time>
      </trkpt>
      <trkpt lat="41.515754000" lon="1.795899000">
        <ele>279.40</ele>
        <time>2013-04-21T12:35:09Z</time>
      </trkpt>
      <trkpt lat="41.515636000" lon="1.796107000">
        <ele>278.20</ele>
        <time>2013-04-21T12:35:12Z</time>
      </trkpt>
      <trkpt lat="41.515515000" lon="1.796322000">
        <ele>278.00</ele>
        <time>2013-04-21T12:35:15Z</time>
      </trkpt>
      <trkpt lat="41.515394000" lon="1.796544000">
        <ele>277.00</ele>
        <time>2013-04-21T12:35:18Z</time>
      </trkpt>
      <trkpt lat="41.515277000" lon="1.796769000">
        <ele>276.20</ele>
        <time>2013-04-21T12:35:21Z</time>
      </trkpt>
      <trkpt lat="41.515150000" lon="1.797000000">
        <ele>275.60</ele>
        <time>2013-04-21T12:35:24Z</time>
      </trkpt>
      <trkpt lat="41.515018000" lon="1.797235000">
        <ele>274.50</ele>
        <time>2013-04-21T12:35:27Z</time>
      </trkpt>
      <trkpt lat="41.514881000" lon="1.797476000">
        <ele>274.10</ele>
        <time>2013-04-21T12:35:30Z</time>
      </trkpt>
      <trkpt lat="41.514746000" lon="1.797713000">
        <ele>273.30</ele>
        <time>2013-04-21T12:35:33Z</time>
      </trkpt>
      <trkpt lat="41.514614000" lon="1.797942000">
        <ele>273.20</ele>
        <time>2013-04-21T12:35:36Z</time>
      </trkpt>
      <trkpt lat="41.514476000" lon="1.798160000">
        <ele>273.20</ele>
        <time>2013-04-21T12:35:39Z</time>
      </trkpt>
      <trkpt lat="41.514355000" lon="1.798374000">
        <ele>272.90</ele>
        <time>2013-04-21T12:35:42Z</time>
      </trkpt>
      <trkpt lat="41.514224000" lon="1.798575000">
        <ele>273.00</ele>
        <time>2013-04-21T12:35:45Z</time>
      </trkpt>
      <trkpt lat="41.514086000" lon="1.798766000">
        <ele>272.90</ele>
        <time>2013-04-21T12:35:48Z</time>
      </trkpt>
      <trkpt lat="41.513944000" lon="1.798943000">
        <ele>272.80</ele>
        <time>2013-04-21T12:35:51Z</time>
      </trkpt>
      <trkpt lat="41.513808000" lon="1.799124000">
        <ele>272.10</ele>
        <time>2013-04-21T12:35:54Z</time>
      </trkpt>
      <trkpt lat="41.513708000" lon="1.799368000">
        <ele>270.80</ele>
        <time>2013-04-21T12:35:57Z</time>
      </trkpt>
      <trkpt lat="41.513631000" lon="1.799647000">
        <ele>269.50</ele>
        <time>2013-04-21T12:36:00Z</time>
      </trkpt>
      <trkpt lat="41.513597000" lon="1.799912000">
        <ele>268.70</ele>
        <time>2013-04-21T12:36:03Z</time>
      </trkpt>
      <trkpt lat="41.513617000" lon="1.800227000">
        <ele>266.80</ele>
        <time>2013-04-21T12:36:06Z</time>
      </trkpt>
      <trkpt lat="41.513619000" lon="1.800547000">
        <ele>265.60</ele>
        <time>2013-04-21T12:36:09Z</time>
      </trkpt>
      <trkpt lat="41.513612000" lon="1.800853000">
        <ele>265.10</ele>
        <time>2013-04-21T12:36:12Z</time>
      </trkpt>
      <trkpt lat="41.513582000" lon="1.801130000">
        <ele>265.50</ele>
        <time>2013-04-21T12:36:15Z</time>
      </trkpt>
      <trkpt lat="41.513551000" lon="1.801391000">
        <ele>264.80</ele>
        <time>2013-04-21T12:36:18Z</time>
      </trkpt>
      <trkpt lat="41.513527000" lon="1.801669000">
        <ele>263.20</ele>
        <time>2013-04-21T12:36:21Z</time>
      </trkpt>
      <trkpt lat="41.513506000" lon="1.801935000">
        <ele>263.10</ele>
        <time>2013-04-21T12:36:24Z</time>
      </trkpt>
      <trkpt lat="41.513517000" lon="1.802241000">
        <ele>261.30</ele>
        <time>2013-04-21T12:36:28Z</time>
      </trkpt>
      <trkpt lat="41.513534000" lon="1.802507000">
        <ele>259.90</ele>
        <time>2013-04-21T12:36:31Z</time>
      </trkpt>
      <trkpt lat="41.513559000" lon="1.802782000">
        <ele>258.90</ele>
        <time>2013-04-21T12:36:34Z</time>
      </trkpt>
      <trkpt lat="41.513587000" lon="1.803077000">
        <ele>256.90</ele>
        <time>2013-04-21T12:36:37Z</time>
      </trkpt>
      <trkpt lat="41.513623000" lon="1.803380000">
        <ele>254.80</ele>
        <time>2013-04-21T12:36:40Z</time>
      </trkpt>
      <trkpt lat="41.513553000" lon="1.803671000">
        <ele>253.00</ele>
        <time>2013-04-21T12:36:43Z</time>
      </trkpt>
      <trkpt lat="41.513515000" lon="1.803983000">
        <ele>250.50</ele>
        <time>2013-04-21T12:36:46Z</time>
      </trkpt>
      <trkpt lat="41.513478000" lon="1.804329000">
        <ele>246.90</ele>
        <time>2013-04-21T12:36:49Z</time>
      </trkpt>
      <trkpt lat="41.513448000" lon="1.804574000">
        <ele>244.20</ele>
        <time>2013-04-21T12:36:51Z</time>
      </trkpt>
      <trkpt lat="41.513408000" lon="1.804824000">
        <ele>242.20</ele>
        <time>2013-04-21T12:36:53Z</time>
      </trkpt>
      <trkpt lat="41.513362000" lon="1.805075000">
        <ele>240.60</ele>
        <time>2013-04-21T12:36:55Z</time>
      </trkpt>
      <trkpt lat="41.513309000" lon="1.805305000">
        <ele>239.50</ele>
        <time>2013-04-21T12:36:57Z</time>
      </trkpt>
      <trkpt lat="41.513257000" lon="1.805601000">
        <ele>239.30</ele>
        <time>2013-04-21T12:37:00Z</time>
      </trkpt>
      <trkpt lat="41.513181000" lon="1.805864000">
        <ele>236.80</ele>
        <time>2013-04-21T12:37:04Z</time>
      </trkpt>
      <trkpt lat="41.512963000" lon="1.806000000">
        <ele>232.20</ele>
        <time>2013-04-21T12:37:08Z</time>
      </trkpt>
      <trkpt lat="41.512792000" lon="1.806141000">
        <ele>228.80</ele>
        <time>2013-04-21T12:37:11Z</time>
      </trkpt>
      <trkpt lat="41.512608000" lon="1.806302000">
        <ele>224.40</ele>
        <time>2013-04-21T12:37:14Z</time>
      </trkpt>
      <trkpt lat="41.512384000" lon="1.806397000">
        <ele>221.20</ele>
        <time>2013-04-21T12:37:18Z</time>
      </trkpt>
      <trkpt lat="41.512227000" lon="1.806543000">
        <ele>217.60</ele>
        <time>2013-04-21T12:37:21Z</time>
      </trkpt>
      <trkpt lat="41.512058000" lon="1.806714000">
        <ele>214.40</ele>
        <time>2013-04-21T12:37:24Z</time>
      </trkpt>
      <trkpt lat="41.511882000" lon="1.806840000">
        <ele>212.00</ele>
        <time>2013-04-21T12:37:27Z</time>
      </trkpt>
      <trkpt lat="41.511662000" lon="1.806790000">
        <ele>208.20</ele>
        <time>2013-04-21T12:37:31Z</time>
      </trkpt>
      <trkpt lat="41.511462000" lon="1.806804000">
        <ele>203.70</ele>
        <time>2013-04-21T12:37:36Z</time>
      </trkpt>
      <trkpt lat="41.511267000" lon="1.806895000">
        <ele>198.80</ele>
        <time>2013-04-21T12:37:41Z</time>
      </trkpt>
      <trkpt lat="41.511095000" lon="1.806954000">
        <ele>199.00</ele>
        <time>2013-04-21T12:37:47Z</time>
      </trkpt>
      <trkpt lat="41.510907000" lon="1.807082000">
        <ele>199.00</ele>
        <time>2013-04-21T12:37:53Z</time>
      </trkpt>
      <trkpt lat="41.510912000" lon="1.807327000">
        <ele>198.20</ele>
        <time>2013-04-21T12:37:58Z</time>
      </trkpt>
      <trkpt lat="41.510884000" lon="1.807576000">
        <ele>197.70</ele>
        <time>2013-04-21T12:38:03Z</time>
      </trkpt>
      <trkpt lat="41.510770000" lon="1.807808000">
        <ele>197.40</ele>
        <time>2013-04-21T12:38:08Z</time>
      </trkpt>
      <trkpt lat="41.510596000" lon="1.807968000">
        <ele>197.50</ele>
        <time>2013-04-21T12:38:13Z</time>
      </trkpt>
      <trkpt lat="41.510411000" lon="1.808112000">
        <ele>197.50</ele>
        <time>2013-04-21T12:38:18Z</time>
      </trkpt>
      <trkpt lat="41.510277000" lon="1.808318000">
        <ele>197.20</ele>
        <time>2013-04-21T12:38:23Z</time>
      </trkpt>
      <trkpt lat="41.510114000" lon="1.808494000">
        <ele>196.20</ele>
        <time>2013-04-21T12:38:28Z</time>
      </trkpt>
      <trkpt lat="41.510036000" lon="1.808721000">
        <ele>196.80</ele>
        <time>2013-04-21T12:38:34Z</time>
      </trkpt>
      <trkpt lat="41.510205000" lon="1.808918000">
        <ele>196.20</ele>
        <time>2013-04-21T12:38:40Z</time>
      </trkpt>
      <trkpt lat="41.510194000" lon="1.809153000">
        <ele>197.80</ele>
        <time>2013-04-21T12:38:47Z</time>
      </trkpt>
      <trkpt lat="41.510101000" lon="1.809359000">
        <ele>199.50</ele>
        <time>2013-04-21T12:38:53Z</time>
      </trkpt>
      <trkpt lat="41.509898000" lon="1.809520000">
        <ele>197.00</ele>
        <time>2013-04-21T12:38:59Z</time>
      </trkpt>
      <trkpt lat="41.509723000" lon="1.809588000">
        <ele>195.50</ele>
        <time>2013-04-21T12:39:02Z</time>
      </trkpt>
      <trkpt lat="41.509549000" lon="1.809675000">
        <ele>194.50</ele>
        <time>2013-04-21T12:39:05Z</time>
      </trkpt>
      <trkpt lat="41.509384000" lon="1.809771000">
        <ele>193.60</ele>
        <time>2013-04-21T12:39:09Z</time>
      </trkpt>
      <trkpt lat="41.509188000" lon="1.809892000">
        <ele>193.90</ele>
        <time>2013-04-21T12:39:15Z</time>
      </trkpt>
      <trkpt lat="41.509037000" lon="1.810063000">
        <ele>192.60</ele>
        <time>2013-04-21T12:39:19Z</time>
      </trkpt>
      <trkpt lat="41.508911000" lon="1.810246000">
        <ele>191.70</ele>
        <time>2013-04-21T12:39:23Z</time>
      </trkpt>
      <trkpt lat="41.508785000" lon="1.810468000">
        <ele>191.30</ele>
        <time>2013-04-21T12:39:27Z</time>
      </trkpt>
      <trkpt lat="41.508620000" lon="1.810597000">
        <ele>192.90</ele>
        <time>2013-04-21T12:39:31Z</time>
      </trkpt>
      <trkpt lat="41.508418000" lon="1.810680000">
        <ele>194.40</ele>
        <time>2013-04-21T12:39:36Z</time>
      </trkpt>
      <trkpt lat="41.508207000" lon="1.810722000">
        <ele>195.90</ele>
        <time>2013-04-21T12:39:42Z</time>
      </trkpt>
      <trkpt lat="41.508004000" lon="1.810699000">
        <ele>198.60</ele>
        <time>2013-04-21T12:39:49Z</time>
      </trkpt>
      <trkpt lat="41.507811000" lon="1.810677000">
        <ele>201.80</ele>
        <time>2013-04-21T12:39:57Z</time>
      </trkpt>
      <trkpt lat="41.507643000" lon="1.810757000">
        <ele>205.90</ele>
        <time>2013-04-21T12:40:07Z</time>
      </trkpt>
      <trkpt lat="41.507532000" lon="1.810939000">
        <ele>209.60</ele>
        <time>2013-04-21T12:40:18Z</time>
      </trkpt>
      <trkpt lat="41.507421000" lon="1.810962000">
        <ele>212.10</ele>
        <time>2013-04-21T12:40:31Z</time>
      </trkpt>
      <trkpt lat="41.507326000" lon="1.810744000">
        <ele>215.00</ele>
        <time>2013-04-21T12:40:42Z</time>
      </trkpt>
      <trkpt lat="41.507222000" lon="1.810524000">
        <ele>218.40</ele>
        <time>2013-04-21T12:40:55Z</time>
      </trkpt>
      <trkpt lat="41.507128000" lon="1.810309000">
        <ele>222.10</ele>
        <time>2013-04-21T12:41:08Z</time>
      </trkpt>
      <trkpt lat="41.507013000" lon="1.810121000">
        <ele>225.10</ele>
        <time>2013-04-21T12:41:20Z</time>
      </trkpt>
      <trkpt lat="41.506892000" lon="1.809962000">
        <ele>228.00</ele>
        <time>2013-04-21T12:41:32Z</time>
      </trkpt>
      <trkpt lat="41.506740000" lon="1.809816000">
        <ele>232.00</ele>
        <time>2013-04-21T12:41:45Z</time>
      </trkpt>
      <trkpt lat="41.506585000" lon="1.809691000">
        <ele>233.60</ele>
        <time>2013-04-21T12:42:01Z</time>
      </trkpt>
      <trkpt lat="41.506480000" lon="1.809720000">
        <ele>234.60</ele>
        <time>2013-04-21T12:42:12Z</time>
      </trkpt>
      <trkpt lat="41.506299000" lon="1.809741000">
        <ele>235.60</ele>
        <time>2013-04-21T12:42:24Z</time>
      </trkpt>
      <trkpt lat="41.506123000" lon="1.809845000">
        <ele>236.30</ele>
        <time>2013-04-21T12:42:36Z</time>
      </trkpt>
      <trkpt lat="41.505944000" lon="1.809925000">
        <ele>236.90</ele>
        <time>2013-04-21T12:42:48Z</time>
      </trkpt>
      <trkpt lat="41.505778000" lon="1.810034000">
        <ele>237.20</ele>
        <time>2013-04-21T12:42:58Z</time>
      </trkpt>
      <trkpt lat="41.505589000" lon="1.810135000">
        <ele>238.50</ele>
        <time>2013-04-21T12:43:08Z</time>
      </trkpt>
      <trkpt lat="41.505395000" lon="1.810228000">
        <ele>239.60</ele>
        <time>2013-04-21T12:43:18Z</time>
      </trkpt>
      <trkpt lat="41.505205000" lon="1.810271000">
        <ele>241.80</ele>
        <time>2013-04-21T12:43:29Z</time>
      </trkpt>
      <trkpt lat="41.505017000" lon="1.810287000">
        <ele>243.60</ele>
        <time>2013-04-21T12:43:39Z</time>
      </trkpt>
      <trkpt lat="41.504840000" lon="1.810260000">
        <ele>244.10</ele>
        <time>2013-04-21T12:43:50Z</time>
      </trkpt>
      <trkpt lat="41.504672000" lon="1.810163000">
        <ele>246.00</ele>
        <time>2013-04-21T12:44:00Z</time>
      </trkpt>
      <trkpt lat="41.504480000" lon="1.810064000">
        <ele>247.50</ele>
        <time>2013-04-21T12:44:09Z</time>
      </trkpt>
      <trkpt lat="41.504305000" lon="1.809981000">
        <ele>248.90</ele>
        <time>2013-04-21T12:44:17Z</time>
      </trkpt>
      <trkpt lat="41.504137000" lon="1.809876000">
        <ele>250.50</ele>
        <time>2013-04-21T12:44:25Z</time>
      </trkpt>
      <trkpt lat="41.504182000" lon="1.809648000">
        <ele>253.60</ele>
        <time>2013-04-21T12:44:35Z</time>
      </trkpt>
      <trkpt lat="41.504277000" lon="1.809421000">
        <ele>255.90</ele>
        <time>2013-04-21T12:44:45Z</time>
      </trkpt>
      <trkpt lat="41.504379000" lon="1.809201000">
        <ele>257.20</ele>
        <time>2013-04-21T12:44:55Z</time>
      </trkpt>
      <trkpt lat="41.504395000" lon="1.808961000">
        <ele>258.20</ele>
        <time>2013-04-21T12:45:04Z</time>
      </trkpt>
      <trkpt lat="41.504328000" lon="1.808713000">
        <ele>259.00</ele>
        <time>2013-04-21T12:45:12Z</time>
      </trkpt>
      <trkpt lat="41.504139000" lon="1.808737000">
        <ele>260.20</ele>
        <time>2013-04-21T12:45:20Z</time>
      </trkpt>
      <trkpt lat="41.504000000" lon="1.808933000">
        <ele>260.00</ele>
        <time>2013-04-21T12:45:28Z</time>
      </trkpt>
      <trkpt lat="41.503840000" lon="1.809108000">
        <ele>259.10</ele>
        <time>2013-04-21T12:45:34Z</time>
      </trkpt>
      <trkpt lat="41.503688000" lon="1.809301000">
        <ele>258.50</ele>
        <time>2013-04-21T12:45:39Z</time>
      </trkpt>
      <trkpt lat="41.503557000" lon="1.809480000">
        <ele>257.70</ele>
        <time>2013-04-21T12:45:43Z</time>
      </trkpt>
      <trkpt lat="41.503426000" lon="1.809701000">
        <ele>256.20</ele>
        <time>2013-04-21T12:45:47Z</time>
      </trkpt>
      <trkpt lat="41.503251000" lon="1.809801000">
        <ele>255.60</ele>
        <time>2013-04-21T12:45:51Z</time>
      </trkpt>
      <trkpt lat="41.503049000" lon="1.809760000">
        <ele>257.20</ele>
        <time>2013-04-21T12:45:56Z</time>
      </trkpt>
      <trkpt lat="41.502855000" lon="1.809880000">
        <ele>257.80</ele>
        <time>2013-04-21T12:46:02Z</time>
      </trkpt>
      <trkpt lat="41.502675000" lon="1.810034000">
        <ele>259.40</ele>
        <time>2013-04-21T12:46:08Z</time>
      </trkpt>
      <trkpt lat="41.502528000" lon="1.810163000">
        <ele>261.20</ele>
        <time>2013-04-21T12:46:16Z</time>
      </trkpt>
      <trkpt lat="41.502364000" lon="1.810321000">
        <ele>260.20</ele>
        <time>2013-04-21T12:46:43Z</time>
      </trkpt>
      <trkpt lat="41.502151000" lon="1.810446000">
        <ele>257.40</ele>
        <time>2013-04-21T12:46:48Z</time>
      </trkpt>
      <trkpt lat="41.501980000" lon="1.810546000">
        <ele>255.70</ele>
        <time>2013-04-21T12:46:51Z</time>
      </trkpt>
      <trkpt lat="41.501774000" lon="1.810699000">
        <ele>254.40</ele>
        <time>2013-04-21T12:46:55Z</time>
      </trkpt>
      <trkpt lat="41.501603000" lon="1.810809000">
        <ele>252.40</ele>
        <time>2013-04-21T12:46:58Z</time>
      </trkpt>
      <trkpt lat="41.501413000" lon="1.810948000">
        <ele>250.60</ele>
        <time>2013-04-21T12:47:01Z</time>
      </trkpt>
      <trkpt lat="41.501212000" lon="1.811106000">
        <ele>249.40</ele>
        <time>2013-04-21T12:47:05Z</time>
      </trkpt>
      <trkpt lat="41.501094000" lon="1.811336000">
        <ele>247.70</ele>
        <time>2013-04-21T12:47:09Z</time>
      </trkpt>
      <trkpt lat="41.501031000" lon="1.811621000">
        <ele>246.70</ele>
        <time>2013-04-21T12:47:13Z</time>
      </trkpt>
      <trkpt lat="41.500966000" lon="1.811918000">
        <ele>245.70</ele>
        <time>2013-04-21T12:47:17Z</time>
      </trkpt>
      <trkpt lat="41.500895000" lon="1.812215000">
        <ele>245.00</ele>
        <time>2013-04-21T12:47:21Z</time>
      </trkpt>
      <trkpt lat="41.500844000" lon="1.812442000">
        <ele>245.20</ele>
        <time>2013-04-21T12:47:24Z</time>
      </trkpt>
      <trkpt lat="41.500782000" lon="1.812739000">
        <ele>244.30</ele>
        <time>2013-04-21T12:47:28Z</time>
      </trkpt>
      <trkpt lat="41.500719000" lon="1.813025000">
        <ele>244.10</ele>
        <time>2013-04-21T12:47:32Z</time>
      </trkpt>
      <trkpt lat="41.500661000" lon="1.813280000">
        <ele>244.20</ele>
        <time>2013-04-21T12:47:36Z</time>
      </trkpt>
      <trkpt lat="41.500611000" lon="1.813519000">
        <ele>244.10</ele>
        <time>2013-04-21T12:47:40Z</time>
      </trkpt>
      <trkpt lat="41.500543000" lon="1.813751000">
        <ele>244.60</ele>
        <time>2013-04-21T12:47:44Z</time>
      </trkpt>
      <trkpt lat="41.500446000" lon="1.813988000">
        <ele>245.80</ele>
        <time>2013-04-21T12:47:49Z</time>
      </trkpt>
      <trkpt lat="41.500336000" lon="1.814203000">
        <ele>246.60</ele>
        <time>2013-04-21T12:47:54Z</time>
      </trkpt>
      <trkpt lat="41.500227000" lon="1.814421000">
        <ele>247.00</ele>
        <time>2013-04-21T12:47:59Z</time>
      </trkpt>
      <trkpt lat="41.500140000" lon="1.814633000">
        <ele>247.70</ele>
        <time>2013-04-21T12:48:04Z</time>
      </trkpt>
      <trkpt lat="41.500026000" lon="1.814845000">
        <ele>247.30</ele>
        <time>2013-04-21T12:48:09Z</time>
      </trkpt>
      <trkpt lat="41.499880000" lon="1.815048000">
        <ele>247.40</ele>
        <time>2013-04-21T12:48:14Z</time>
      </trkpt>
      <trkpt lat="41.499778000" lon="1.815259000">
        <ele>247.20</ele>
        <time>2013-04-21T12:48:18Z</time>
      </trkpt>
      <trkpt lat="41.499646000" lon="1.815475000">
        <ele>246.10</ele>
        <time>2013-04-21T12:48:22Z</time>
      </trkpt>
      <trkpt lat="41.499507000" lon="1.815708000">
        <ele>245.50</ele>
        <time>2013-04-21T12:48:26Z</time>
      </trkpt>
      <trkpt lat="41.499343000" lon="1.815896000">
        <ele>244.50</ele>
        <time>2013-04-21T12:48:30Z</time>
      </trkpt>
      <trkpt lat="41.499236000" lon="1.816106000">
        <ele>245.90</ele>
        <time>2013-04-21T12:48:34Z</time>
      </trkpt>
      <trkpt lat="41.499229000" lon="1.816383000">
        <ele>247.50</ele>
        <time>2013-04-21T12:48:39Z</time>
      </trkpt>
      <trkpt lat="41.499209000" lon="1.816633000">
        <ele>248.20</ele>
        <time>2013-04-21T12:48:44Z</time>
      </trkpt>
      <trkpt lat="41.499183000" lon="1.816908000">
        <ele>249.50</ele>
        <time>2013-04-21T12:48:50Z</time>
      </trkpt>
      <trkpt lat="41.499170000" lon="1.817146000">
        <ele>252.70</ele>
        <time>2013-04-21T12:48:56Z</time>
      </trkpt>
      <trkpt lat="41.499156000" lon="1.817407000">
        <ele>256.80</ele>
        <time>2013-04-21T12:49:03Z</time>
      </trkpt>
      <trkpt lat="41.499117000" lon="1.817642000">
        <ele>259.40</ele>
        <time>2013-04-21T12:49:10Z</time>
      </trkpt>
      <trkpt lat="41.499177000" lon="1.817898000">
        <ele>262.00</ele>
        <time>2013-04-21T12:49:18Z</time>
      </trkpt>
      <trkpt lat="41.499318000" lon="1.818042000">
        <ele>264.00</ele>
        <time>2013-04-21T12:49:26Z</time>
      </trkpt>
      <trkpt lat="41.499470000" lon="1.818183000">
        <ele>266.40</ele>
        <time>2013-04-21T12:49:35Z</time>
      </trkpt>
      <trkpt lat="41.499611000" lon="1.818368000">
        <ele>268.60</ele>
        <time>2013-04-21T12:49:45Z</time>
      </trkpt>
      <trkpt lat="41.499699000" lon="1.818547000">
        <ele>270.40</ele>
        <time>2013-04-21T12:49:55Z</time>
      </trkpt>
      <trkpt lat="41.499738000" lon="1.818805000">
        <ele>271.70</ele>
        <time>2013-04-21T12:50:04Z</time>
      </trkpt>
      <trkpt lat="41.499799000" lon="1.819036000">
        <ele>273.00</ele>
        <time>2013-04-21T12:50:11Z</time>
      </trkpt>
      <trkpt lat="41.499872000" lon="1.819261000">
        <ele>273.90</ele>
        <time>2013-04-21T12:50:18Z</time>
      </trkpt>
      <trkpt lat="41.499987000" lon="1.819451000">
        <ele>274.70</ele>
        <time>2013-04-21T12:50:25Z</time>
      </trkpt>
      <trkpt lat="41.500128000" lon="1.819633000">
        <ele>275.40</ele>
        <time>2013-04-21T12:50:32Z</time>
      </trkpt>
      <trkpt lat="41.500275000" lon="1.819835000">
        <ele>276.40</ele>
        <time>2013-04-21T12:50:39Z</time>
      </trkpt>
      <trkpt lat="41.500377000" lon="1.820035000">
        <ele>276.80</ele>
        <time>2013-04-21T12:50:45Z</time>
      </trkpt>
      <trkpt lat="41.500384000" lon="1.820274000">
        <ele>277.70</ele>
        <time>2013-04-21T12:50:51Z</time>
      </trkpt>
      <trkpt lat="41.500353000" lon="1.820516000">
        <ele>278.20</ele>
        <time>2013-04-21T12:50:57Z</time>
      </trkpt>
      <trkpt lat="41.500313000" lon="1.820774000">
        <ele>278.60</ele>
        <time>2013-04-21T12:51:03Z</time>
      </trkpt>
      <trkpt lat="41.500266000" lon="1.821033000">
        <ele>279.40</ele>
        <time>2013-04-21T12:51:09Z</time>
      </trkpt>
      <trkpt lat="41.500234000" lon="1.821285000">
        <ele>280.20</ele>
        <time>2013-04-21T12:51:15Z</time>
      </trkpt>
      <trkpt lat="41.500242000" lon="1.821543000">
        <ele>280.90</ele>
        <time>2013-04-21T12:51:21Z</time>
      </trkpt>
      <trkpt lat="41.500344000" lon="1.821777000">
        <ele>281.50</ele>
        <time>2013-04-21T12:51:27Z</time>
      </trkpt>
      <trkpt lat="41.500537000" lon="1.821907000">
        <ele>281.60</ele>
        <time>2013-04-21T12:51:33Z</time>
      </trkpt>
      <trkpt lat="41.500703000" lon="1.822038000">
        <ele>281.20</ele>
        <time>2013-04-21T12:51:38Z</time>
      </trkpt>
      <trkpt lat="41.500804000" lon="1.822250000">
        <ele>282.00</ele>
        <time>2013-04-21T12:51:43Z</time>
      </trkpt>
      <trkpt lat="41.500887000" lon="1.822466000">
        <ele>282.90</ele>
        <time>2013-04-21T12:51:48Z</time>
      </trkpt>
      <trkpt lat="41.500985000" lon="1.822675000">
        <ele>283.50</ele>
        <time>2013-04-21T12:51:53Z</time>
      </trkpt>
      <trkpt lat="41.501112000" lon="1.822855000">
        <ele>284.00</ele>
        <time>2013-04-21T12:51:58Z</time>
      </trkpt>
      <trkpt lat="41.501268000" lon="1.823061000">
        <ele>284.80</ele>
        <time>2013-04-21T12:52:04Z</time>
      </trkpt>
      <trkpt lat="41.501377000" lon="1.823252000">
        <ele>285.60</ele>
        <time>2013-04-21T12:52:09Z</time>
      </trkpt>
      <trkpt lat="41.501424000" lon="1.823479000">
        <ele>286.30</ele>
        <time>2013-04-21T12:52:14Z</time>
      </trkpt>
      <trkpt lat="41.501426000" lon="1.823760000">
        <ele>287.30</ele>
        <time>2013-04-21T12:52:20Z</time>
      </trkpt>
      <trkpt lat="41.501425000" lon="1.824007000">
        <ele>288.20</ele>
        <time>2013-04-21T12:52:25Z</time>
      </trkpt>
      <trkpt lat="41.501395000" lon="1.824283000">
        <ele>289.10</ele>
        <time>2013-04-21T12:52:31Z</time>
      </trkpt>
      <trkpt lat="41.501332000" lon="1.824568000">
        <ele>290.30</ele>
        <time>2013-04-21T12:52:37Z</time>
      </trkpt>
      <trkpt lat="41.501273000" lon="1.824805000">
        <ele>290.80</ele>
        <time>2013-04-21T12:52:42Z</time>
      </trkpt>
      <trkpt lat="41.501217000" lon="1.825031000">
        <ele>291.90</ele>
        <time>2013-04-21T12:52:47Z</time>
      </trkpt>
      <trkpt lat="41.501166000" lon="1.825309000">
        <ele>293.30</ele>
        <time>2013-04-21T12:52:53Z</time>
      </trkpt>
      <trkpt lat="41.501179000" lon="1.825551000">
        <ele>294.10</ele>
        <time>2013-04-21T12:52:58Z</time>
      </trkpt>
      <trkpt lat="41.501223000" lon="1.825788000">
        <ele>294.90</ele>
        <time>2013-04-21T12:53:03Z</time>
      </trkpt>
      <trkpt lat="41.501280000" lon="1.826015000">
        <ele>295.50</ele>
        <time>2013-04-21T12:53:08Z</time>
      </trkpt>
      <trkpt lat="41.501338000" lon="1.826256000">
        <ele>294.80</ele>
        <time>2013-04-21T12:53:13Z</time>
      </trkpt>
      <trkpt lat="41.501384000" lon="1.826525000">
        <ele>295.20</ele>
        <time>2013-04-21T12:53:18Z</time>
      </trkpt>
      <trkpt lat="41.501395000" lon="1.826771000">
        <ele>294.90</ele>
        <time>2013-04-21T12:53:22Z</time>
      </trkpt>
      <trkpt lat="41.501358000" lon="1.827032000">
        <ele>294.10</ele>
        <time>2013-04-21T12:53:26Z</time>
      </trkpt>
      <trkpt lat="41.501281000" lon="1.827284000">
        <ele>294.40</ele>
        <time>2013-04-21T12:53:30Z</time>
      </trkpt>
      <trkpt lat="41.501179000" lon="1.827517000">
        <ele>294.90</ele>
        <time>2013-04-21T12:53:34Z</time>
      </trkpt>
      <trkpt lat="41.501077000" lon="1.827748000">
        <ele>294.30</ele>
        <time>2013-04-21T12:53:38Z</time>
      </trkpt>
      <trkpt lat="41.500995000" lon="1.828008000">
        <ele>293.50</ele>
        <time>2013-04-21T12:53:42Z</time>
      </trkpt>
      <trkpt lat="41.500915000" lon="1.828303000">
        <ele>293.40</ele>
        <time>2013-04-21T12:53:46Z</time>
      </trkpt>
      <trkpt lat="41.500858000" lon="1.828547000">
        <ele>291.70</ele>
        <time>2013-04-21T12:53:49Z</time>
      </trkpt>
      <trkpt lat="41.500801000" lon="1.828785000">
        <ele>291.50</ele>
        <time>2013-04-21T12:53:52Z</time>
      </trkpt>
      <trkpt lat="41.500742000" lon="1.829033000">
        <ele>290.20</ele>
        <time>2013-04-21T12:53:55Z</time>
      </trkpt>
      <trkpt lat="41.500683000" lon="1.829285000">
        <ele>289.90</ele>
        <time>2013-04-21T12:53:58Z</time>
      </trkpt>
      <trkpt lat="41.500617000" lon="1.829548000">
        <ele>288.40</ele>
        <time>2013-04-21T12:54:01Z</time>
      </trkpt>
      <trkpt lat="41.500551000" lon="1.829816000">
        <ele>288.30</ele>
        <time>2013-04-21T12:54:04Z</time>
      </trkpt>
      <trkpt lat="41.500485000" lon="1.830083000">
        <ele>287.00</ele>
        <time>2013-04-21T12:54:07Z</time>
      </trkpt>
      <trkpt lat="41.500421000" lon="1.830359000">
        <ele>287.10</ele>
        <time>2013-04-21T12:54:10Z</time>
      </trkpt>
      <trkpt lat="41.500404000" lon="1.830646000">
        <ele>287.10</ele>
        <time>2013-04-21T12:54:13Z</time>
      </trkpt>
      <trkpt lat="41.500412000" lon="1.830946000">
        <ele>287.10</ele>
        <time>2013-04-21T12:54:16Z</time>
      </trkpt>
      <trkpt lat="41.500442000" lon="1.831244000">
        <ele>285.40</ele>
        <time>2013-04-21T12:54:19Z</time>
      </trkpt>
      <trkpt lat="41.500480000" lon="1.831542000">
        <ele>285.00</ele>
        <time>2013-04-21T12:54:22Z</time>
      </trkpt>
      <trkpt lat="41.500513000" lon="1.831838000">
        <ele>285.10</ele>
        <time>2013-04-21T12:54:25Z</time>
      </trkpt>
      <trkpt lat="41.500548000" lon="1.832116000">
        <ele>285.30</ele>
        <time>2013-04-21T12:54:28Z</time>
      </trkpt>
      <trkpt lat="41.500565000" lon="1.832387000">
        <ele>284.60</ele>
        <time>2013-04-21T12:54:31Z</time>
      </trkpt>
      <trkpt lat="41.500516000" lon="1.832652000">
        <ele>284.50</ele>
        <time>2013-04-21T12:54:34Z</time>
      </trkpt>
      <trkpt lat="41.500420000" lon="1.832879000">
        <ele>284.80</ele>
        <time>2013-04-21T12:54:37Z</time>
      </trkpt>
      <trkpt lat="41.500312000" lon="1.833100000">
        <ele>285.00</ele>
        <time>2013-04-21T12:54:40Z</time>
      </trkpt>
      <trkpt lat="41.500186000" lon="1.833304000">
        <ele>285.10</ele>
        <time>2013-04-21T12:54:43Z</time>
      </trkpt>
      <trkpt lat="41.500034000" lon="1.833483000">
        <ele>285.20</ele>
        <time>2013-04-21T12:54:46Z</time>
      </trkpt>
      <trkpt lat="41.499870000" lon="1.833629000">
        <ele>284.10</ele>
        <time>2013-04-21T12:54:49Z</time>
      </trkpt>
      <trkpt lat="41.499715000" lon="1.833780000">
        <ele>283.90</ele>
        <time>2013-04-21T12:54:52Z</time>
      </trkpt>
      <trkpt lat="41.499562000" lon="1.833976000">
        <ele>283.00</ele>
        <time>2013-04-21T12:54:55Z</time>
      </trkpt>
      <trkpt lat="41.499451000" lon="1.834289000">
        <ele>282.60</ele>
        <time>2013-04-21T12:55:12Z</time>
      </trkpt>
      <trkpt lat="41.499326000" lon="1.834584000">
        <ele>282.20</ele>
        <time>2013-04-21T12:55:30Z</time>
      </trkpt>
      <trkpt lat="41.499180000" lon="1.834913000">
        <ele>281.80</ele>
        <time>2013-04-21T12:55:50Z</time>
      </trkpt>
      <trkpt lat="41.498980000" lon="1.835380000">
        <ele>281.30</ele>
        <time>2013-04-21T12:56:17Z</time>
      </trkpt>
      <trkpt lat="41.498861000" lon="1.835703000">
        <ele>280.90</ele>
        <time>2013-04-21T12:56:36Z</time>
      </trkpt>
      <trkpt lat="41.498710000" lon="1.835951000">
        <ele>280.50</ele>
        <time>2013-04-21T12:56:52Z</time>
      </trkpt>
      <trkpt lat="41.498674000" lon="1.836058000">
        <ele>280.40</ele>
        <time>2013-04-21T12:56:58Z</time>
      </trkpt>
      <trkpt lat="41.498637000" lon="1.836165000">
        <ele>280.30</ele>
        <time>2013-04-21T12:57:05Z</time>
      </trkpt>
      <trkpt lat="41.498636000" lon="1.836167000">
        <ele>280.30</ele>
        <time>2013-04-21T12:57:05Z</time>
      </trkpt>
      <trkpt lat="41.498569000" lon="1.836370000">
        <ele>280.30</ele>
        <time>2013-04-21T12:58:52Z</time>
      </trkpt>
      <trkpt lat="41.498481000" lon="1.836575000">
        <ele>281.00</ele>
        <time>2013-04-21T12:58:58Z</time>
      </trkpt>
      <trkpt lat="41.498388000" lon="1.836810000">
        <ele>280.50</ele>
        <time>2013-04-21T12:59:03Z</time>
      </trkpt>
      <trkpt lat="41.498295000" lon="1.837021000">
        <ele>278.70</ele>
        <time>2013-04-21T12:59:07Z</time>
      </trkpt>
      <trkpt lat="41.498270000" lon="1.837252000">
        <ele>279.20</ele>
        <time>2013-04-21T12:59:33Z</time>
      </trkpt>
      <trkpt lat="41.498263000" lon="1.837546000">
        <ele>277.40</ele>
        <time>2013-04-21T12:59:39Z</time>
      </trkpt>
      <trkpt lat="41.498385000" lon="1.837803000">
        <ele>276.40</ele>
        <time>2013-04-21T12:59:43Z</time>
      </trkpt>
      <trkpt lat="41.498563000" lon="1.838012000">
        <ele>275.70</ele>
        <time>2013-04-21T12:59:47Z</time>
      </trkpt>
      <trkpt lat="41.498727000" lon="1.838150000">
        <ele>275.30</ele>
        <time>2013-04-21T12:59:50Z</time>
      </trkpt>
      <trkpt lat="41.498910000" lon="1.838310000">
        <ele>274.20</ele>
        <time>2013-04-21T12:59:54Z</time>
      </trkpt>
      <trkpt lat="41.499084000" lon="1.838438000">
        <ele>274.30</ele>
        <time>2013-04-21T12:59:59Z</time>
      </trkpt>
      <trkpt lat="41.499260000" lon="1.838498000">
        <ele>275.10</ele>
        <time>2013-04-21T13:00:03Z</time>
      </trkpt>
      <trkpt lat="41.499466000" lon="1.838550000">
        <ele>276.20</ele>
        <time>2013-04-21T13:00:09Z</time>
      </trkpt>
      <trkpt lat="41.499666000" lon="1.838558000">
        <ele>275.80</ele>
        <time>2013-04-21T13:00:15Z</time>
      </trkpt>
      <trkpt lat="41.499885000" lon="1.838546000">
        <ele>274.90</ele>
        <time>2013-04-21T13:00:20Z</time>
      </trkpt>
      <trkpt lat="41.500092000" lon="1.838546000">
        <ele>273.00</ele>
        <time>2013-04-21T13:00:24Z</time>
      </trkpt>
      <trkpt lat="41.500281000" lon="1.838624000">
        <ele>270.00</ele>
        <time>2013-04-21T13:00:27Z</time>
      </trkpt>
      <trkpt lat="41.500480000" lon="1.838760000">
        <ele>268.00</ele>
        <time>2013-04-21T13:00:30Z</time>
      </trkpt>
      <trkpt lat="41.500665000" lon="1.838982000">
        <ele>265.50</ele>
        <time>2013-04-21T13:00:33Z</time>
      </trkpt>
      <trkpt lat="41.500846000" lon="1.839228000">
        <ele>262.20</ele>
        <time>2013-04-21T13:00:36Z</time>
      </trkpt>
      <trkpt lat="41.501018000" lon="1.839523000">
        <ele>259.70</ele>
        <time>2013-04-21T13:00:39Z</time>
      </trkpt>
      <trkpt lat="41.501150000" lon="1.839726000">
        <ele>257.40</ele>
        <time>2013-04-21T13:00:41Z</time>
      </trkpt>
      <trkpt lat="41.501312000" lon="1.839911000">
        <ele>256.10</ele>
        <time>2013-04-21T13:00:43Z</time>
      </trkpt>
      <trkpt lat="41.501481000" lon="1.840090000">
        <ele>254.60</ele>
        <time>2013-04-21T13:00:45Z</time>
      </trkpt>
      <trkpt lat="41.501658000" lon="1.840196000">
        <ele>254.60</ele>
        <time>2013-04-21T13:00:47Z</time>
      </trkpt>
      <trkpt lat="41.501854000" lon="1.840372000">
        <ele>256.60</ele>
        <time>2013-04-21T13:00:50Z</time>
      </trkpt>
      <trkpt lat="41.502028000" lon="1.840531000">
        <ele>258.20</ele>
        <time>2013-04-21T13:00:53Z</time>
      </trkpt>
      <trkpt lat="41.502209000" lon="1.840602000">
        <ele>259.10</ele>
        <time>2013-04-21T13:00:56Z</time>
      </trkpt>
      <trkpt lat="41.502388000" lon="1.840671000">
        <ele>259.50</ele>
        <time>2013-04-21T13:00:59Z</time>
      </trkpt>
      <trkpt lat="41.502567000" lon="1.840764000">
        <ele>260.00</ele>
        <time>2013-04-21T13:01:02Z</time>
      </trkpt>
      <trkpt lat="41.502738000" lon="1.840856000">
        <ele>260.30</ele>
        <time>2013-04-21T13:01:05Z</time>
      </trkpt>
      <trkpt lat="41.502961000" lon="1.840970000">
        <ele>260.70</ele>
        <time>2013-04-21T13:01:09Z</time>
      </trkpt>
      <trkpt lat="41.503182000" lon="1.841038000">
        <ele>261.60</ele>
        <time>2013-04-21T13:01:13Z</time>
      </trkpt>
      <trkpt lat="41.503380000" lon="1.841074000">
        <ele>262.90</ele>
        <time>2013-04-21T13:01:17Z</time>
      </trkpt>
      <trkpt lat="41.503551000" lon="1.841172000">
        <ele>264.80</ele>
        <time>2013-04-21T13:01:21Z</time>
      </trkpt>
      <trkpt lat="41.503748000" lon="1.841291000">
        <ele>264.80</ele>
        <time>2013-04-21T13:01:26Z</time>
      </trkpt>
      <trkpt lat="41.503913000" lon="1.841221000">
        <ele>265.50</ele>
        <time>2013-04-21T13:01:30Z</time>
      </trkpt>
      <trkpt lat="41.504075000" lon="1.841065000">
        <ele>268.00</ele>
        <time>2013-04-21T13:01:35Z</time>
      </trkpt>
      <trkpt lat="41.504257000" lon="1.841012000">
        <ele>269.50</ele>
        <time>2013-04-21T13:01:40Z</time>
      </trkpt>
      <trkpt lat="41.504470000" lon="1.841001000">
        <ele>268.40</ele>
        <time>2013-04-21T13:01:45Z</time>
      </trkpt>
      <trkpt lat="41.504700000" lon="1.841050000">
        <ele>265.00</ele>
        <time>2013-04-21T13:01:49Z</time>
      </trkpt>
      <trkpt lat="41.504895000" lon="1.841153000">
        <ele>264.00</ele>
        <time>2013-04-21T13:01:52Z</time>
      </trkpt>
      <trkpt lat="41.505063000" lon="1.841291000">
        <ele>264.40</ele>
        <time>2013-04-21T13:01:55Z</time>
      </trkpt>
      <trkpt lat="41.505216000" lon="1.841445000">
        <ele>264.50</ele>
        <time>2013-04-21T13:01:58Z</time>
      </trkpt>
      <trkpt lat="41.505392000" lon="1.841645000">
        <ele>265.70</ele>
        <time>2013-04-21T13:02:02Z</time>
      </trkpt>
      <trkpt lat="41.505541000" lon="1.841827000">
        <ele>267.10</ele>
        <time>2013-04-21T13:02:06Z</time>
      </trkpt>
      <trkpt lat="41.505676000" lon="1.841992000">
        <ele>268.60</ele>
        <time>2013-04-21T13:02:10Z</time>
      </trkpt>
      <trkpt lat="41.505839000" lon="1.842178000">
        <ele>268.20</ele>
        <time>2013-04-21T13:02:15Z</time>
      </trkpt>
      <trkpt lat="41.505996000" lon="1.842346000">
        <ele>270.40</ele>
        <time>2013-04-21T13:02:20Z</time>
      </trkpt>
      <trkpt lat="41.506170000" lon="1.842488000">
        <ele>273.00</ele>
        <time>2013-04-21T13:02:26Z</time>
      </trkpt>
      <trkpt lat="41.506340000" lon="1.842605000">
        <ele>274.30</ele>
        <time>2013-04-21T13:02:32Z</time>
      </trkpt>
      <trkpt lat="41.506505000" lon="1.842715000">
        <ele>276.40</ele>
        <time>2013-04-21T13:02:38Z</time>
      </trkpt>
      <trkpt lat="41.506683000" lon="1.842859000">
        <ele>278.30</ele>
        <time>2013-04-21T13:02:45Z</time>
      </trkpt>
      <trkpt lat="41.506810000" lon="1.843063000">
        <ele>279.30</ele>
        <time>2013-04-21T13:02:52Z</time>
      </trkpt>
      <trkpt lat="41.506954000" lon="1.843240000">
        <ele>279.70</ele>
        <time>2013-04-21T13:02:59Z</time>
      </trkpt>
      <trkpt lat="41.507082000" lon="1.843404000">
        <ele>279.80</ele>
        <time>2013-04-21T13:03:06Z</time>
      </trkpt>
      <trkpt lat="41.507225000" lon="1.843592000">
        <ele>280.50</ele>
        <time>2013-04-21T13:03:14Z</time>
      </trkpt>
      <trkpt lat="41.507216000" lon="1.843827000">
        <ele>281.80</ele>
        <time>2013-04-21T13:03:21Z</time>
      </trkpt>
      <trkpt lat="41.507136000" lon="1.844067000">
        <ele>282.50</ele>
        <time>2013-04-21T13:03:27Z</time>
      </trkpt>
      <trkpt lat="41.507150000" lon="1.844334000">
        <ele>282.50</ele>
        <time>2013-04-21T13:03:33Z</time>
      </trkpt>
      <trkpt lat="41.507287000" lon="1.844543000">
        <ele>280.90</ele>
        <time>2013-04-21T13:03:38Z</time>
      </trkpt>
      <trkpt lat="41.507436000" lon="1.844709000">
        <ele>280.50</ele>
        <time>2013-04-21T13:03:42Z</time>
      </trkpt>
      <trkpt lat="41.507470000" lon="1.844932000">
        <ele>281.10</ele>
        <time>2013-04-21T13:03:47Z</time>
      </trkpt>
      <trkpt lat="41.507303000" lon="1.845100000">
        <ele>281.80</ele>
        <time>2013-04-21T13:03:52Z</time>
      </trkpt>
      <trkpt lat="41.507149000" lon="1.845301000">
        <ele>281.60</ele>
        <time>2013-04-21T13:03:57Z</time>
      </trkpt>
      <trkpt lat="41.507118000" lon="1.845547000">
        <ele>280.60</ele>
        <time>2013-04-21T13:04:02Z</time>
      </trkpt>
      <trkpt lat="41.507419000" lon="1.845865000">
        <ele>279.50</ele>
        <time>2013-04-21T13:04:09Z</time>
      </trkpt>
      <trkpt lat="41.507517000" lon="1.846140000">
        <ele>276.30</ele>
        <time>2013-04-21T13:04:13Z</time>
      </trkpt>
      <trkpt lat="41.507717000" lon="1.846573000">
        <ele>275.60</ele>
        <time>2013-04-21T13:04:20Z</time>
      </trkpt>
      <trkpt lat="41.507638000" lon="1.846888000">
        <ele>272.00</ele>
        <time>2013-04-21T13:04:25Z</time>
      </trkpt>
      <trkpt lat="41.507454000" lon="1.847131000">
        <ele>268.70</ele>
        <time>2013-04-21T13:04:29Z</time>
      </trkpt>
      <trkpt lat="41.507264000" lon="1.847270000">
        <ele>267.40</ele>
        <time>2013-04-21T13:04:32Z</time>
      </trkpt>
      <trkpt lat="41.507128000" lon="1.847480000">
        <ele>269.00</ele>
        <time>2013-04-21T13:04:36Z</time>
      </trkpt>
      <trkpt lat="41.507158000" lon="1.847754000">
        <ele>268.20</ele>
        <time>2013-04-21T13:04:41Z</time>
      </trkpt>
      <trkpt lat="41.507164000" lon="1.848016000">
        <ele>268.20</ele>
        <time>2013-04-21T13:04:46Z</time>
      </trkpt>
      <trkpt lat="41.507102000" lon="1.848289000">
        <ele>268.30</ele>
        <time>2013-04-21T13:04:52Z</time>
      </trkpt>
      <trkpt lat="41.507050000" lon="1.848563000">
        <ele>268.80</ele>
        <time>2013-04-21T13:04:57Z</time>
      </trkpt>
      <trkpt lat="41.507029000" lon="1.848841000">
        <ele>269.00</ele>
        <time>2013-04-21T13:05:02Z</time>
      </trkpt>
      <trkpt lat="41.507025000" lon="1.849103000">
        <ele>269.80</ele>
        <time>2013-04-21T13:05:07Z</time>
      </trkpt>
      <trkpt lat="41.507046000" lon="1.849340000">
        <ele>269.00</ele>
        <time>2013-04-21T13:05:17Z</time>
      </trkpt>
      <trkpt lat="41.507031000" lon="1.849596000">
        <ele>266.10</ele>
        <time>2013-04-21T13:05:21Z</time>
      </trkpt>
      <trkpt lat="41.507018000" lon="1.849898000">
        <ele>261.90</ele>
        <time>2013-04-21T13:05:25Z</time>
      </trkpt>
      <trkpt lat="41.506998000" lon="1.850201000">
        <ele>258.10</ele>
        <time>2013-04-21T13:05:29Z</time>
      </trkpt>
      <trkpt lat="41.506852000" lon="1.850496000">
        <ele>256.00</ele>
        <time>2013-04-21T13:05:33Z</time>
      </trkpt>
      <trkpt lat="41.506701000" lon="1.850729000">
        <ele>254.10</ele>
        <time>2013-04-21T13:05:36Z</time>
      </trkpt>
      <trkpt lat="41.506558000" lon="1.850990000">
        <ele>252.30</ele>
        <time>2013-04-21T13:05:39Z</time>
      </trkpt>
      <trkpt lat="41.506459000" lon="1.851298000">
        <ele>251.30</ele>
        <time>2013-04-21T13:05:42Z</time>
      </trkpt>
      <trkpt lat="41.506473000" lon="1.851606000">
        <ele>250.00</ele>
        <time>2013-04-21T13:05:45Z</time>
      </trkpt>
      <trkpt lat="41.506560000" lon="1.851872000">
        <ele>250.20</ele>
        <time>2013-04-21T13:05:48Z</time>
      </trkpt>
      <trkpt lat="41.506612000" lon="1.852122000">
        <ele>251.60</ele>
        <time>2013-04-21T13:05:51Z</time>
      </trkpt>
      <trkpt lat="41.506692000" lon="1.852387000">
        <ele>252.70</ele>
        <time>2013-04-21T13:05:55Z</time>
      </trkpt>
      <trkpt lat="41.506740000" lon="1.852626000">
        <ele>253.50</ele>
        <time>2013-04-21T13:05:59Z</time>
      </trkpt>
      <trkpt lat="41.506780000" lon="1.852873000">
        <ele>253.70</ele>
        <time>2013-04-21T13:06:03Z</time>
      </trkpt>
      <trkpt lat="41.506847000" lon="1.853121000">
        <ele>254.10</ele>
        <time>2013-04-21T13:06:07Z</time>
      </trkpt>
      <trkpt lat="41.506912000" lon="1.853374000">
        <ele>254.40</ele>
        <time>2013-04-21T13:06:11Z</time>
      </trkpt>
      <trkpt lat="41.506970000" lon="1.853621000">
        <ele>254.80</ele>
        <time>2013-04-21T13:06:15Z</time>
      </trkpt>
      <trkpt lat="41.507047000" lon="1.853852000">
        <ele>257.20</ele>
        <time>2013-04-21T13:06:19Z</time>
      </trkpt>
      <trkpt lat="41.507190000" lon="1.854038000">
        <ele>258.00</ele>
        <time>2013-04-21T13:06:24Z</time>
      </trkpt>
      <trkpt lat="41.507344000" lon="1.854194000">
        <ele>253.50</ele>
        <time>2013-04-21T13:06:29Z</time>
      </trkpt>
      <trkpt lat="41.507538000" lon="1.854206000">
        <ele>248.10</ele>
        <time>2013-04-21T13:06:34Z</time>
      </trkpt>
      <trkpt lat="41.507765000" lon="1.854234000">
        <ele>242.60</ele>
        <time>2013-04-21T13:06:38Z</time>
      </trkpt>
      <trkpt lat="41.507986000" lon="1.854308000">
        <ele>240.80</ele>
        <time>2013-04-21T13:06:41Z</time>
      </trkpt>
      <trkpt lat="41.508204000" lon="1.854405000">
        <ele>240.60</ele>
        <time>2013-04-21T13:06:44Z</time>
      </trkpt>
      <trkpt lat="41.508371000" lon="1.854561000">
        <ele>240.30</ele>
        <time>2013-04-21T13:06:47Z</time>
      </trkpt>
      <trkpt lat="41.508546000" lon="1.854784000">
        <ele>240.90</ele>
        <time>2013-04-21T13:06:51Z</time>
      </trkpt>
      <trkpt lat="41.508599000" lon="1.855028000">
        <ele>240.40</ele>
        <time>2013-04-21T13:06:54Z</time>
      </trkpt>
      <trkpt lat="41.508569000" lon="1.855280000">
        <ele>240.30</ele>
        <time>2013-04-21T13:06:57Z</time>
      </trkpt>
      <trkpt lat="41.508564000" lon="1.855532000">
        <ele>240.10</ele>
        <time>2013-04-21T13:07:00Z</time>
      </trkpt>
      <trkpt lat="41.508597000" lon="1.855788000">
        <ele>239.10</ele>
        <time>2013-04-21T13:07:03Z</time>
      </trkpt>
      <trkpt lat="41.508640000" lon="1.856042000">
        <ele>238.80</ele>
        <time>2013-04-21T13:07:06Z</time>
      </trkpt>
      <trkpt lat="41.508659000" lon="1.856288000">
        <ele>238.40</ele>
        <time>2013-04-21T13:07:09Z</time>
      </trkpt>
      <trkpt lat="41.508618000" lon="1.856533000">
        <ele>238.10</ele>
        <time>2013-04-21T13:07:12Z</time>
      </trkpt>
      <trkpt lat="41.508570000" lon="1.856845000">
        <ele>237.20</ele>
        <time>2013-04-21T13:07:16Z</time>
      </trkpt>
      <trkpt lat="41.508511000" lon="1.857083000">
        <ele>235.60</ele>
        <time>2013-04-21T13:07:19Z</time>
      </trkpt>
      <trkpt lat="41.508418000" lon="1.857291000">
        <ele>234.50</ele>
        <time>2013-04-21T13:07:22Z</time>
      </trkpt>
      <trkpt lat="41.508331000" lon="1.857519000">
        <ele>231.80</ele>
        <time>2013-04-21T13:07:25Z</time>
      </trkpt>
      <trkpt lat="41.508256000" lon="1.857829000">
        <ele>228.30</ele>
        <time>2013-04-21T13:07:28Z</time>
      </trkpt>
      <trkpt lat="41.508215000" lon="1.858174000">
        <ele>226.00</ele>
        <time>2013-04-21T13:07:31Z</time>
      </trkpt>
      <trkpt lat="41.508146000" lon="1.858492000">
        <ele>226.50</ele>
        <time>2013-04-21T13:07:34Z</time>
      </trkpt>
      <trkpt lat="41.508096000" lon="1.858798000">
        <ele>225.10</ele>
        <time>2013-04-21T13:07:37Z</time>
      </trkpt>
      <trkpt lat="41.508063000" lon="1.859079000">
        <ele>227.00</ele>
        <time>2013-04-21T13:07:40Z</time>
      </trkpt>
      <trkpt lat="41.508070000" lon="1.859322000">
        <ele>227.30</ele>
        <time>2013-04-21T13:07:43Z</time>
      </trkpt>
      <trkpt lat="41.508145000" lon="1.859621000">
        <ele>225.80</ele>
        <time>2013-04-21T13:07:47Z</time>
      </trkpt>
      <trkpt lat="41.508242000" lon="1.859884000">
        <ele>222.20</ele>
        <time>2013-04-21T13:07:50Z</time>
      </trkpt>
      <trkpt lat="41.508383000" lon="1.860141000">
        <ele>219.40</ele>
        <time>2013-04-21T13:07:53Z</time>
      </trkpt>
      <trkpt lat="41.508511000" lon="1.860395000">
        <ele>217.90</ele>
        <time>2013-04-21T13:07:56Z</time>
      </trkpt>
      <trkpt lat="41.508613000" lon="1.860620000">
        <ele>216.40</ele>
        <time>2013-04-21T13:07:59Z</time>
      </trkpt>
      <trkpt lat="41.508726000" lon="1.860849000">
        <ele>214.70</ele>
        <time>2013-04-21T13:08:03Z</time>
      </trkpt>
      <trkpt lat="41.508842000" lon="1.861070000">
        <ele>212.30</ele>
        <time>2013-04-21T13:08:07Z</time>
      </trkpt>
      <trkpt lat="41.508948000" lon="1.861274000">
        <ele>209.60</ele>
        <time>2013-04-21T13:08:10Z</time>
      </trkpt>
      <trkpt lat="41.509042000" lon="1.861514000">
        <ele>206.80</ele>
        <time>2013-04-21T13:08:13Z</time>
      </trkpt>
      <trkpt lat="41.509125000" lon="1.861753000">
        <ele>204.90</ele>
        <time>2013-04-21T13:08:16Z</time>
      </trkpt>
      <trkpt lat="41.509257000" lon="1.861952000">
        <ele>202.80</ele>
        <time>2013-04-21T13:08:19Z</time>
      </trkpt>
      <trkpt lat="41.509466000" lon="1.862039000">
        <ele>201.60</ele>
        <time>2013-04-21T13:08:22Z</time>
      </trkpt>
      <trkpt lat="41.509676000" lon="1.862042000">
        <ele>202.00</ele>
        <time>2013-04-21T13:08:25Z</time>
      </trkpt>
      <trkpt lat="41.509896000" lon="1.862056000">
        <ele>202.40</ele>
        <time>2013-04-21T13:08:29Z</time>
      </trkpt>
      <trkpt lat="41.510077000" lon="1.862106000">
        <ele>202.80</ele>
        <time>2013-04-21T13:08:33Z</time>
      </trkpt>
      <trkpt lat="41.510283000" lon="1.862151000">
        <ele>202.90</ele>
        <time>2013-04-21T13:08:39Z</time>
      </trkpt>
      <trkpt lat="41.510490000" lon="1.862198000">
        <ele>200.60</ele>
        <time>2013-04-21T13:08:44Z</time>
      </trkpt>
      <trkpt lat="41.510705000" lon="1.862349000">
        <ele>197.10</ele>
        <time>2013-04-21T13:08:48Z</time>
      </trkpt>
      <trkpt lat="41.510883000" lon="1.862472000">
        <ele>196.40</ele>
        <time>2013-04-21T13:08:51Z</time>
      </trkpt>
      <trkpt lat="41.511065000" lon="1.862550000">
        <ele>196.10</ele>
        <time>2013-04-21T13:08:54Z</time>
      </trkpt>
      <trkpt lat="41.511259000" lon="1.862519000">
        <ele>195.10</ele>
        <time>2013-04-21T13:08:57Z</time>
      </trkpt>
      <trkpt lat="41.511458000" lon="1.862428000">
        <ele>193.10</ele>
        <time>2013-04-21T13:09:00Z</time>
      </trkpt>
      <trkpt lat="41.511662000" lon="1.862332000">
        <ele>189.60</ele>
        <time>2013-04-21T13:09:03Z</time>
      </trkpt>
      <trkpt lat="41.511900000" lon="1.862325000">
        <ele>186.30</ele>
        <time>2013-04-21T13:09:06Z</time>
      </trkpt>
      <trkpt lat="41.512131000" lon="1.862423000">
        <ele>182.90</ele>
        <time>2013-04-21T13:09:09Z</time>
      </trkpt>
      <trkpt lat="41.512304000" lon="1.862608000">
        <ele>181.90</ele>
        <time>2013-04-21T13:09:12Z</time>
      </trkpt>
      <trkpt lat="41.512469000" lon="1.862795000">
        <ele>181.80</ele>
        <time>2013-04-21T13:09:15Z</time>
      </trkpt>
      <trkpt lat="41.512682000" lon="1.862899000">
        <ele>183.70</ele>
        <time>2013-04-21T13:09:19Z</time>
      </trkpt>
      <trkpt lat="41.512875000" lon="1.862938000">
        <ele>184.10</ele>
        <time>2013-04-21T13:09:23Z</time>
      </trkpt>
      <trkpt lat="41.513048000" lon="1.863066000">
        <ele>184.10</ele>
        <time>2013-04-21T13:09:27Z</time>
      </trkpt>
      <trkpt lat="41.513175000" lon="1.863281000">
        <ele>183.90</ele>
        <time>2013-04-21T13:09:31Z</time>
      </trkpt>
      <trkpt lat="41.513298000" lon="1.863499000">
        <ele>185.00</ele>
        <time>2013-04-21T13:09:35Z</time>
      </trkpt>
      <trkpt lat="41.513391000" lon="1.863716000">
        <ele>184.60</ele>
        <time>2013-04-21T13:09:39Z</time>
      </trkpt>
      <trkpt lat="41.513480000" lon="1.863925000">
        <ele>185.30</ele>
        <time>2013-04-21T13:09:43Z</time>
      </trkpt>
      <trkpt lat="41.513636000" lon="1.864145000">
        <ele>186.30</ele>
        <time>2013-04-21T13:09:48Z</time>
      </trkpt>
      <trkpt lat="41.513778000" lon="1.864354000">
        <ele>185.80</ele>
        <time>2013-04-21T13:09:53Z</time>
      </trkpt>
      <trkpt lat="41.513848000" lon="1.864583000">
        <ele>185.50</ele>
        <time>2013-04-21T13:09:57Z</time>
      </trkpt>
      <trkpt lat="41.513903000" lon="1.864843000">
        <ele>183.60</ele>
        <time>2013-04-21T13:10:01Z</time>
      </trkpt>
      <trkpt lat="41.513959000" lon="1.865124000">
        <ele>183.60</ele>
        <time>2013-04-21T13:10:05Z</time>
      </trkpt>
      <trkpt lat="41.514008000" lon="1.865401000">
        <ele>184.70</ele>
        <time>2013-04-21T13:10:09Z</time>
      </trkpt>
      <trkpt lat="41.514011000" lon="1.865668000">
        <ele>185.70</ele>
        <time>2013-04-21T13:10:13Z</time>
      </trkpt>
      <trkpt lat="41.514001000" lon="1.865925000">
        <ele>187.40</ele>
        <time>2013-04-21T13:10:17Z</time>
      </trkpt>
      <trkpt lat="41.514074000" lon="1.866145000">
        <ele>188.70</ele>
        <time>2013-04-21T13:10:21Z</time>
      </trkpt>
      <trkpt lat="41.514194000" lon="1.866331000">
        <ele>190.10</ele>
        <time>2013-04-21T13:10:25Z</time>
      </trkpt>
      <trkpt lat="41.514289000" lon="1.866588000">
        <ele>190.30</ele>
        <time>2013-04-21T13:10:30Z</time>
      </trkpt>
      <trkpt lat="41.514339000" lon="1.866834000">
        <ele>191.40</ele>
        <time>2013-04-21T13:10:35Z</time>
      </trkpt>
      <trkpt lat="41.514433000" lon="1.867062000">
        <ele>193.60</ele>
        <time>2013-04-21T13:10:41Z</time>
      </trkpt>
      <trkpt lat="41.514518000" lon="1.867268000">
        <ele>195.20</ele>
        <time>2013-04-21T13:10:47Z</time>
      </trkpt>
      <trkpt lat="41.514632000" lon="1.867475000">
        <ele>197.10</ele>
        <time>2013-04-21T13:10:54Z</time>
      </trkpt>
      <trkpt lat="41.514730000" lon="1.867710000">
        <ele>197.30</ele>
        <time>2013-04-21T13:11:03Z</time>
      </trkpt>
      <trkpt lat="41.514834000" lon="1.867930000">
        <ele>197.40</ele>
        <time>2013-04-21T13:11:10Z</time>
      </trkpt>
      <trkpt lat="41.514927000" lon="1.868171000">
        <ele>197.20</ele>
        <time>2013-04-21T13:11:16Z</time>
      </trkpt>
      <trkpt lat="41.514967000" lon="1.868425000">
        <ele>197.00</ele>
        <time>2013-04-21T13:11:21Z</time>
      </trkpt>
      <trkpt lat="41.515011000" lon="1.868665000">
        <ele>197.40</ele>
        <time>2013-04-21T13:11:26Z</time>
      </trkpt>
      <trkpt lat="41.515080000" lon="1.868897000">
        <ele>196.20</ele>
        <time>2013-04-21T13:11:31Z</time>
      </trkpt>
      <trkpt lat="41.514996000" lon="1.869170000">
        <ele>194.10</ele>
        <time>2013-04-21T13:11:36Z</time>
      </trkpt>
      <trkpt lat="41.514895000" lon="1.869424000">
        <ele>194.40</ele>
        <time>2013-04-21T13:11:41Z</time>
      </trkpt>
      <trkpt lat="41.514828000" lon="1.869651000">
        <ele>194.30</ele>
        <time>2013-04-21T13:11:45Z</time>
      </trkpt>
      <trkpt lat="41.514768000" lon="1.869898000">
        <ele>194.60</ele>
        <time>2013-04-21T13:11:49Z</time>
      </trkpt>
      <trkpt lat="41.514721000" lon="1.870175000">
        <ele>195.40</ele>
        <time>2013-04-21T13:11:54Z</time>
      </trkpt>
      <trkpt lat="41.514773000" lon="1.870427000">
        <ele>194.10</ele>
        <time>2013-04-21T13:11:58Z</time>
      </trkpt>
      <trkpt lat="41.514852000" lon="1.870709000">
        <ele>193.80</ele>
        <time>2013-04-21T13:12:02Z</time>
      </trkpt>
      <trkpt lat="41.514934000" lon="1.870978000">
        <ele>193.90</ele>
        <time>2013-04-21T13:12:06Z</time>
      </trkpt>
      <trkpt lat="41.515028000" lon="1.871191000">
        <ele>191.70</ele>
        <time>2013-04-21T13:12:09Z</time>
      </trkpt>
      <trkpt lat="41.515162000" lon="1.871429000">
        <ele>189.50</ele>
        <time>2013-04-21T13:12:12Z</time>
      </trkpt>
      <trkpt lat="41.515297000" lon="1.871684000">
        <ele>188.30</ele>
        <time>2013-04-21T13:12:15Z</time>
      </trkpt>
      <trkpt lat="41.515423000" lon="1.871944000">
        <ele>188.00</ele>
        <time>2013-04-21T13:12:18Z</time>
      </trkpt>
      <trkpt lat="41.515541000" lon="1.872176000">
        <ele>188.40</ele>
        <time>2013-04-21T13:12:21Z</time>
      </trkpt>
      <trkpt lat="41.515660000" lon="1.872390000">
        <ele>188.00</ele>
        <time>2013-04-21T13:12:25Z</time>
      </trkpt>
      <trkpt lat="41.515658000" lon="1.872597000">
        <ele>185.70</ele>
        <time>2013-04-21T13:12:49Z</time>
      </trkpt>
      <trkpt lat="41.515451000" lon="1.872637000">
        <ele>183.20</ele>
        <time>2013-04-21T13:12:57Z</time>
      </trkpt>
      <trkpt lat="41.515238000" lon="1.872671000">
        <ele>180.70</ele>
        <time>2013-04-21T13:13:02Z</time>
      </trkpt>
      <trkpt lat="41.515099000" lon="1.872943000">
        <ele>178.20</ele>
        <time>2013-04-21T13:13:06Z</time>
      </trkpt>
      <trkpt lat="41.514968000" lon="1.873202000">
        <ele>175.80</ele>
        <time>2013-04-21T13:13:10Z</time>
      </trkpt>
      <trkpt lat="41.514864000" lon="1.873421000">
        <ele>172.00</ele>
        <time>2013-04-21T13:13:13Z</time>
      </trkpt>
      <trkpt lat="41.514724000" lon="1.873680000">
        <ele>168.90</ele>
        <time>2013-04-21T13:13:16Z</time>
      </trkpt>
      <trkpt lat="41.514622000" lon="1.873968000">
        <ele>167.80</ele>
        <time>2013-04-21T13:13:19Z</time>
      </trkpt>
      <trkpt lat="41.514497000" lon="1.874237000">
        <ele>165.50</ele>
        <time>2013-04-21T13:13:22Z</time>
      </trkpt>
      <trkpt lat="41.514363000" lon="1.874415000">
        <ele>163.40</ele>
        <time>2013-04-21T13:13:25Z</time>
      </trkpt>
      <trkpt lat="41.514215000" lon="1.874674000">
        <ele>159.20</ele>
        <time>2013-04-21T13:13:29Z</time>
      </trkpt>
      <trkpt lat="41.514104000" lon="1.874884000">
        <ele>157.00</ele>
        <time>2013-04-21T13:13:32Z</time>
      </trkpt>
      <trkpt lat="41.513976000" lon="1.875054000">
        <ele>157.00</ele>
        <time>2013-04-21T13:13:37Z</time>
      </trkpt>
      <trkpt lat="41.513820000" lon="1.875035000">
        <ele>153.90</ele>
        <time>2013-04-21T13:13:45Z</time>
      </trkpt>
      <trkpt lat="41.513648000" lon="1.875190000">
        <ele>148.90</ele>
        <time>2013-04-21T13:13:51Z</time>
      </trkpt>
      <trkpt lat="41.513473000" lon="1.875236000">
        <ele>145.70</ele>
        <time>2013-04-21T13:13:56Z</time>
      </trkpt>
      <trkpt lat="41.513316000" lon="1.875090000">
        <ele>140.30</ele>
        <time>2013-04-21T13:14:02Z</time>
      </trkpt>
      <trkpt lat="41.513218000" lon="1.874882000">
        <ele>137.40</ele>
        <time>2013-04-21T13:14:07Z</time>
      </trkpt>
      <trkpt lat="41.513083000" lon="1.874991000">
        <ele>136.40</ele>
        <time>2013-04-21T13:14:12Z</time>
      </trkpt>
      <trkpt lat="41.513100000" lon="1.875226000">
        <ele>136.20</ele>
        <time>2013-04-21T13:14:17Z</time>
      </trkpt>
      <trkpt lat="41.513163000" lon="1.875460000">
        <ele>136.20</ele>
        <time>2013-04-21T13:14:23Z</time>
      </trkpt>
      <trkpt lat="41.513150000" lon="1.875728000">
        <ele>134.90</ele>
        <time>2013-04-21T13:14:29Z</time>
      </trkpt>
      <trkpt lat="41.513257000" lon="1.875974000">
        <ele>133.90</ele>
        <time>2013-04-21T13:14:35Z</time>
      </trkpt>
      <trkpt lat="41.513460000" lon="1.876045000">
        <ele>136.40</ele>
        <time>2013-04-21T13:14:43Z</time>
      </trkpt>
      <trkpt lat="41.513470000" lon="1.876300000">
        <ele>134.30</ele>
        <time>2013-04-21T13:14:48Z</time>
      </trkpt>
      <trkpt lat="41.513466000" lon="1.876535000">
        <ele>135.50</ele>
        <time>2013-04-21T13:14:55Z</time>
      </trkpt>
      <trkpt lat="41.513597000" lon="1.876688000">
        <ele>136.10</ele>
        <time>2013-04-21T13:15:01Z</time>
      </trkpt>
      <trkpt lat="41.513761000" lon="1.876891000">
        <ele>134.20</ele>
        <time>2013-04-21T13:15:06Z</time>
      </trkpt>
      <trkpt lat="41.513949000" lon="1.877014000">
        <ele>130.90</ele>
        <time>2013-04-21T13:15:10Z</time>
      </trkpt>
      <trkpt lat="41.514136000" lon="1.877141000">
        <ele>130.80</ele>
        <time>2013-04-21T13:15:14Z</time>
      </trkpt>
      <trkpt lat="41.514256000" lon="1.877344000">
        <ele>131.20</ele>
        <time>2013-04-21T13:15:18Z</time>
      </trkpt>
      <trkpt lat="41.514372000" lon="1.877574000">
        <ele>130.30</ele>
        <time>2013-04-21T13:15:22Z</time>
      </trkpt>
      <trkpt lat="41.514465000" lon="1.877806000">
        <ele>129.40</ele>
        <time>2013-04-21T13:15:26Z</time>
      </trkpt>
      <trkpt lat="41.514574000" lon="1.878021000">
        <ele>129.30</ele>
        <time>2013-04-21T13:15:30Z</time>
      </trkpt>
      <trkpt lat="41.514697000" lon="1.878222000">
        <ele>129.40</ele>
        <time>2013-04-21T13:15:34Z</time>
      </trkpt>
      <trkpt lat="41.514848000" lon="1.878438000">
        <ele>128.70</ele>
        <time>2013-04-21T13:15:39Z</time>
      </trkpt>
      <trkpt lat="41.514854000" lon="1.878684000">
        <ele>128.40</ele>
        <time>2013-04-21T13:15:43Z</time>
      </trkpt>
      <trkpt lat="41.514881000" lon="1.878967000">
        <ele>127.50</ele>
        <time>2013-04-21T13:15:48Z</time>
      </trkpt>
      <trkpt lat="41.515038000" lon="1.879169000">
        <ele>126.90</ele>
        <time>2013-04-21T13:15:53Z</time>
      </trkpt>
      <trkpt lat="41.515052000" lon="1.879406000">
        <ele>126.80</ele>
        <time>2013-04-21T13:15:58Z</time>
      </trkpt>
      <trkpt lat="41.515030000" lon="1.879679000">
        <ele>127.50</ele>
        <time>2013-04-21T13:16:03Z</time>
      </trkpt>
      <trkpt lat="41.515115000" lon="1.879937000">
        <ele>127.20</ele>
        <time>2013-04-21T13:16:08Z</time>
      </trkpt>
      <trkpt lat="41.515252000" lon="1.880139000">
        <ele>124.00</ele>
        <time>2013-04-21T13:16:12Z</time>
      </trkpt>
      <trkpt lat="41.515317000" lon="1.880400000">
        <ele>123.70</ele>
        <time>2013-04-21T13:16:16Z</time>
      </trkpt>
      <trkpt lat="41.515381000" lon="1.880644000">
        <ele>123.40</ele>
        <time>2013-04-21T13:16:20Z</time>
      </trkpt>
      <trkpt lat="41.515420000" lon="1.880879000">
        <ele>123.50</ele>
        <time>2013-04-21T13:16:24Z</time>
      </trkpt>
      <trkpt lat="41.515452000" lon="1.881125000">
        <ele>122.80</ele>
        <time>2013-04-21T13:16:28Z</time>
      </trkpt>
      <trkpt lat="41.515507000" lon="1.881390000">
        <ele>122.00</ele>
        <time>2013-04-21T13:16:32Z</time>
      </trkpt>
      <trkpt lat="41.515504000" lon="1.881662000">
        <ele>122.30</ele>
        <time>2013-04-21T13:16:36Z</time>
      </trkpt>
      <trkpt lat="41.515555000" lon="1.881900000">
        <ele>122.10</ele>
        <time>2013-04-21T13:16:40Z</time>
      </trkpt>
      <trkpt lat="41.515601000" lon="1.882138000">
        <ele>122.30</ele>
        <time>2013-04-21T13:16:44Z</time>
      </trkpt>
      <trkpt lat="41.515704000" lon="1.882406000">
        <ele>121.50</ele>
        <time>2013-04-21T13:16:49Z</time>
      </trkpt>
      <trkpt lat="41.515782000" lon="1.882649000">
        <ele>121.20</ele>
        <time>2013-04-21T13:16:53Z</time>
      </trkpt>
      <trkpt lat="41.515769000" lon="1.882904000">
        <ele>122.00</ele>
        <time>2013-04-21T13:16:57Z</time>
      </trkpt>
      <trkpt lat="41.515709000" lon="1.883158000">
        <ele>122.30</ele>
        <time>2013-04-21T13:17:02Z</time>
      </trkpt>
      <trkpt lat="41.515548000" lon="1.883262000">
        <ele>121.80</ele>
        <time>2013-04-21T13:17:10Z</time>
      </trkpt>
      <trkpt lat="41.515561000" lon="1.883514000">
        <ele>121.30</ele>
        <time>2013-04-21T13:17:15Z</time>
      </trkpt>
      <trkpt lat="41.515659000" lon="1.883732000">
        <ele>121.10</ele>
        <time>2013-04-21T13:17:19Z</time>
      </trkpt>
      <trkpt lat="41.515808000" lon="1.883890000">
        <ele>120.90</ele>
        <time>2013-04-21T13:17:23Z</time>
      </trkpt>
      <trkpt lat="41.515979000" lon="1.884038000">
        <ele>119.70</ele>
        <time>2013-04-21T13:17:27Z</time>
      </trkpt>
      <trkpt lat="41.516111000" lon="1.884241000">
        <ele>119.20</ele>
        <time>2013-04-21T13:17:31Z</time>
      </trkpt>
      <trkpt lat="41.516129000" lon="1.884521000">
        <ele>118.20</ele>
        <time>2013-04-21T13:17:36Z</time>
      </trkpt>
      <trkpt lat="41.515955000" lon="1.884684000">
        <ele>117.80</ele>
        <time>2013-04-21T13:17:40Z</time>
      </trkpt>
      <trkpt lat="41.515830000" lon="1.884898000">
        <ele>116.90</ele>
        <time>2013-04-21T13:17:44Z</time>
      </trkpt>
      <trkpt lat="41.515737000" lon="1.885126000">
        <ele>117.50</ele>
        <time>2013-04-21T13:17:48Z</time>
      </trkpt>
      <trkpt lat="41.515719000" lon="1.885381000">
        <ele>117.50</ele>
        <time>2013-04-21T13:17:53Z</time>
      </trkpt>
      <trkpt lat="41.515691000" lon="1.885651000">
        <ele>117.00</ele>
        <time>2013-04-21T13:17:58Z</time>
      </trkpt>
      <trkpt lat="41.515626000" lon="1.885902000">
        <ele>115.70</ele>
        <time>2013-04-21T13:18:02Z</time>
      </trkpt>
      <trkpt lat="41.515553000" lon="1.886183000">
        <ele>114.70</ele>
        <time>2013-04-21T13:18:07Z</time>
      </trkpt>
      <trkpt lat="41.515580000" lon="1.886417000">
        <ele>114.70</ele>
        <time>2013-04-21T13:18:11Z</time>
      </trkpt>
      <trkpt lat="41.515588000" lon="1.886678000">
        <ele>113.30</ele>
        <time>2013-04-21T13:18:16Z</time>
      </trkpt>
      <trkpt lat="41.515582000" lon="1.886948000">
        <ele>113.70</ele>
        <time>2013-04-21T13:18:21Z</time>
      </trkpt>
      <trkpt lat="41.515477000" lon="1.887181000">
        <ele>113.90</ele>
        <time>2013-04-21T13:18:25Z</time>
      </trkpt>
      <trkpt lat="41.515336000" lon="1.887382000">
        <ele>113.40</ele>
        <time>2013-04-21T13:18:30Z</time>
      </trkpt>
      <trkpt lat="41.515205000" lon="1.887664000">
        <ele>111.50</ele>
        <time>2013-04-21T13:18:38Z</time>
      </trkpt>
      <trkpt lat="41.515262000" lon="1.887919000">
        <ele>110.70</ele>
        <time>2013-04-21T13:18:42Z</time>
      </trkpt>
      <trkpt lat="41.515229000" lon="1.888227000">
        <ele>109.80</ele>
        <time>2013-04-21T13:18:47Z</time>
      </trkpt>
      <trkpt lat="41.515026000" lon="1.888347000">
        <ele>109.50</ele>
        <time>2013-04-21T13:18:52Z</time>
      </trkpt>
      <trkpt lat="41.514893000" lon="1.888487000">
        <ele>109.60</ele>
        <time>2013-04-21T13:18:57Z</time>
      </trkpt>
      <trkpt lat="41.514972000" lon="1.888731000">
        <ele>108.10</ele>
        <time>2013-04-21T13:19:01Z</time>
      </trkpt>
      <trkpt lat="41.514949000" lon="1.889023000">
        <ele>108.90</ele>
        <time>2013-04-21T13:19:06Z</time>
      </trkpt>
      <trkpt lat="41.514817000" lon="1.889215000">
        <ele>108.40</ele>
        <time>2013-04-21T13:19:10Z</time>
      </trkpt>
      <trkpt lat="41.514727000" lon="1.889466000">
        <ele>107.30</ele>
        <time>2013-04-21T13:19:14Z</time>
      </trkpt>
      <trkpt lat="41.514571000" lon="1.889670000">
        <ele>107.70</ele>
        <time>2013-04-21T13:19:18Z</time>
      </trkpt>
      <trkpt lat="41.514461000" lon="1.889898000">
        <ele>107.30</ele>
        <time>2013-04-21T13:19:22Z</time>
      </trkpt>
      <trkpt lat="41.514436000" lon="1.890194000">
        <ele>106.70</ele>
        <time>2013-04-21T13:19:26Z</time>
      </trkpt>
      <trkpt lat="41.514518000" lon="1.890441000">
        <ele>106.50</ele>
        <time>2013-04-21T13:19:30Z</time>
      </trkpt>
      <trkpt lat="41.514535000" lon="1.890692000">
        <ele>108.00</ele>
        <time>2013-04-21T13:19:36Z</time>
      </trkpt>
      <trkpt lat="41.514546000" lon="1.890707000">
        <ele>107.30</ele>
        <time>2013-04-21T13:19:48Z</time>
      </trkpt>
      <trkpt lat="41.514402000" lon="1.890642000">
        <ele>107.30</ele>
        <time>2013-04-21T13:19:55Z</time>
      </trkpt>
      <trkpt lat="41.514258000" lon="1.890865000">
        <ele>104.50</ele>
        <time>2013-04-21T13:20:01Z</time>
      </trkpt>
      <trkpt lat="41.514212000" lon="1.891104000">
        <ele>105.10</ele>
        <time>2013-04-21T13:20:05Z</time>
      </trkpt>
      <trkpt lat="41.514258000" lon="1.891368000">
        <ele>105.80</ele>
        <time>2013-04-21T13:20:10Z</time>
      </trkpt>
      <trkpt lat="41.514203000" lon="1.891656000">
        <ele>104.80</ele>
        <time>2013-04-21T13:20:15Z</time>
      </trkpt>
      <trkpt lat="41.514057000" lon="1.891897000">
        <ele>105.50</ele>
        <time>2013-04-21T13:20:21Z</time>
      </trkpt>
      <trkpt lat="41.513967000" lon="1.892181000">
        <ele>106.60</ele>
        <time>2013-04-21T13:20:29Z</time>
      </trkpt>
      <trkpt lat="41.513920000" lon="1.892488000">
        <ele>102.80</ele>
        <time>2013-04-21T13:20:34Z</time>
      </trkpt>
      <trkpt lat="41.514002000" lon="1.892746000">
        <ele>102.10</ele>
        <time>2013-04-21T13:20:38Z</time>
      </trkpt>
      <trkpt lat="41.514078000" lon="1.892986000">
        <ele>101.00</ele>
        <time>2013-04-21T13:20:42Z</time>
      </trkpt>
      <trkpt lat="41.514238000" lon="1.893144000">
        <ele>100.80</ele>
        <time>2013-04-21T13:20:48Z</time>
      </trkpt>
      <trkpt lat="41.514415000" lon="1.893312000">
        <ele>103.60</ele>
        <time>2013-04-21T13:20:56Z</time>
      </trkpt>
      <trkpt lat="41.514517000" lon="1.893535000">
        <ele>103.10</ele>
        <time>2013-04-21T13:21:01Z</time>
      </trkpt>
      <trkpt lat="41.514405000" lon="1.893759000">
        <ele>98.10</ele>
        <time>2013-04-21T13:21:06Z</time>
      </trkpt>
      <trkpt lat="41.514198000" lon="1.893786000">
        <ele>98.00</ele>
        <time>2013-04-21T13:21:10Z</time>
      </trkpt>
      <trkpt lat="41.514065000" lon="1.893927000">
        <ele>97.80</ele>
        <time>2013-04-21T13:21:15Z</time>
      </trkpt>
      <trkpt lat="41.513903000" lon="1.894214000">
        <ele>96.30</ele>
        <time>2013-04-21T13:21:19Z</time>
      </trkpt>
      <trkpt lat="41.513890000" lon="1.894474000">
        <ele>99.40</ele>
        <time>2013-04-21T13:21:25Z</time>
      </trkpt>
      <trkpt lat="41.513985000" lon="1.894675000">
        <ele>102.80</ele>
        <time>2013-04-21T13:21:33Z</time>
      </trkpt>
      <trkpt lat="41.514092000" lon="1.894937000">
        <ele>104.30</ele>
        <time>2013-04-21T13:21:42Z</time>
      </trkpt>
      <trkpt lat="41.514174000" lon="1.895170000">
        <ele>106.80</ele>
        <time>2013-04-21T13:21:51Z</time>
      </trkpt>
      <trkpt lat="41.514161000" lon="1.895426000">
        <ele>109.00</ele>
        <time>2013-04-21T13:22:00Z</time>
      </trkpt>
      <trkpt lat="41.514136000" lon="1.895682000">
        <ele>109.40</ele>
        <time>2013-04-21T13:22:08Z</time>
      </trkpt>
      <trkpt lat="41.514169000" lon="1.895905000">
        <ele>111.50</ele>
        <time>2013-04-21T13:22:15Z</time>
      </trkpt>
      <trkpt lat="41.514129000" lon="1.896145000">
        <ele>113.60</ele>
        <time>2013-04-21T13:22:26Z</time>
      </trkpt>
      <trkpt lat="41.514032000" lon="1.896399000">
        <ele>111.50</ele>
        <time>2013-04-21T13:22:35Z</time>
      </trkpt>
      <trkpt lat="41.513977000" lon="1.896666000">
        <ele>110.20</ele>
        <time>2013-04-21T13:22:40Z</time>
      </trkpt>
      <trkpt lat="41.513878000" lon="1.896885000">
        <ele>108.30</ele>
        <time>2013-04-21T13:22:44Z</time>
      </trkpt>
      <trkpt lat="41.514008000" lon="1.897050000">
        <ele>111.90</ele>
        <time>2013-04-21T13:22:50Z</time>
      </trkpt>
      <trkpt lat="41.514180000" lon="1.897186000">
        <ele>113.40</ele>
        <time>2013-04-21T13:22:56Z</time>
      </trkpt>
      <trkpt lat="41.514299000" lon="1.897427000">
        <ele>113.50</ele>
        <time>2013-04-21T13:23:03Z</time>
      </trkpt>
      <trkpt lat="41.514368000" lon="1.897688000">
        <ele>113.60</ele>
        <time>2013-04-21T13:23:10Z</time>
      </trkpt>
      <trkpt lat="41.514433000" lon="1.897946000">
        <ele>112.90</ele>
        <time>2013-04-21T13:23:16Z</time>
      </trkpt>
      <trkpt lat="41.514491000" lon="1.898171000">
        <ele>113.30</ele>
        <time>2013-04-21T13:23:21Z</time>
      </trkpt>
      <trkpt lat="41.514543000" lon="1.898411000">
        <ele>113.40</ele>
        <time>2013-04-21T13:23:26Z</time>
      </trkpt>
      <trkpt lat="41.514604000" lon="1.898654000">
        <ele>114.10</ele>
        <time>2013-04-21T13:23:31Z</time>
      </trkpt>
      <trkpt lat="41.514669000" lon="1.898889000">
        <ele>113.80</ele>
        <time>2013-04-21T13:23:36Z</time>
      </trkpt>
      <trkpt lat="41.514726000" lon="1.899129000">
        <ele>113.90</ele>
        <time>2013-04-21T13:23:41Z</time>
      </trkpt>
      <trkpt lat="41.514869000" lon="1.899283000">
        <ele>114.10</ele>
        <time>2013-04-21T13:23:48Z</time>
      </trkpt>
      <trkpt lat="41.515076000" lon="1.899177000">
        <ele>113.70</ele>
        <time>2013-04-21T13:23:53Z</time>
      </trkpt>
      <trkpt lat="41.515276000" lon="1.899070000">
        <ele>112.80</ele>
        <time>2013-04-21T13:23:57Z</time>
      </trkpt>
      <trkpt lat="41.515499000" lon="1.898939000">
        <ele>112.10</ele>
        <time>2013-04-21T13:24:01Z</time>
      </trkpt>
      <trkpt lat="41.515668000" lon="1.898845000">
        <ele>111.40</ele>
        <time>2013-04-21T13:24:04Z</time>
      </trkpt>
      <trkpt lat="41.515802000" lon="1.898969000">
        <ele>110.60</ele>
        <time>2013-04-21T13:24:07Z</time>
      </trkpt>
      <trkpt lat="41.515845000" lon="1.899271000">
        <ele>110.30</ele>
        <time>2013-04-21T13:24:11Z</time>
      </trkpt>
      <trkpt lat="41.515880000" lon="1.899566000">
        <ele>109.20</ele>
        <time>2013-04-21T13:24:15Z</time>
      </trkpt>
      <trkpt lat="41.515904000" lon="1.899859000">
        <ele>109.50</ele>
        <time>2013-04-21T13:24:19Z</time>
      </trkpt>
      <trkpt lat="41.515923000" lon="1.900135000">
        <ele>108.80</ele>
        <time>2013-04-21T13:24:23Z</time>
      </trkpt>
      <trkpt lat="41.515951000" lon="1.900371000">
        <ele>109.00</ele>
        <time>2013-04-21T13:24:29Z</time>
      </trkpt>
      <trkpt lat="41.515976000" lon="1.900647000">
        <ele>108.10</ele>
        <time>2013-04-21T13:24:37Z</time>
      </trkpt>
      <trkpt lat="41.516005000" lon="1.900913000">
        <ele>107.10</ele>
        <time>2013-04-21T13:24:42Z</time>
      </trkpt>
      <trkpt lat="41.516035000" lon="1.901193000">
        <ele>107.00</ele>
        <time>2013-04-21T13:24:47Z</time>
      </trkpt>
      <trkpt lat="41.516062000" lon="1.901442000">
        <ele>105.90</ele>
        <time>2013-04-21T13:24:51Z</time>
      </trkpt>
      <trkpt lat="41.516094000" lon="1.901705000">
        <ele>104.10</ele>
        <time>2013-04-21T13:24:55Z</time>
      </trkpt>
      <trkpt lat="41.516149000" lon="1.901976000">
        <ele>102.60</ele>
        <time>2013-04-21T13:24:59Z</time>
      </trkpt>
      <trkpt lat="41.516250000" lon="1.902202000">
        <ele>100.70</ele>
        <time>2013-04-21T13:25:03Z</time>
      </trkpt>
      <trkpt lat="41.516419000" lon="1.902157000">
        <ele>99.60</ele>
        <time>2013-04-21T13:25:07Z</time>
      </trkpt>
      <trkpt lat="41.516603000" lon="1.902008000">
        <ele>98.10</ele>
        <time>2013-04-21T13:25:11Z</time>
      </trkpt>
      <trkpt lat="41.516770000" lon="1.901890000">
        <ele>97.00</ele>
        <time>2013-04-21T13:25:14Z</time>
      </trkpt>
      <trkpt lat="41.516950000" lon="1.901846000">
        <ele>97.00</ele>
        <time>2013-04-21T13:25:17Z</time>
      </trkpt>
      <trkpt lat="41.517171000" lon="1.901911000">
        <ele>97.30</ele>
        <time>2013-04-21T13:25:21Z</time>
      </trkpt>
      <trkpt lat="41.517372000" lon="1.901996000">
        <ele>98.50</ele>
        <time>2013-04-21T13:25:25Z</time>
      </trkpt>
      <trkpt lat="41.517547000" lon="1.902088000">
        <ele>99.80</ele>
        <time>2013-04-21T13:25:29Z</time>
      </trkpt>
      <trkpt lat="41.517746000" lon="1.902177000">
        <ele>102.10</ele>
        <time>2013-04-21T13:25:34Z</time>
      </trkpt>
      <trkpt lat="41.517931000" lon="1.902216000">
        <ele>103.00</ele>
        <time>2013-04-21T13:25:39Z</time>
      </trkpt>
      <trkpt lat="41.518130000" lon="1.902173000">
        <ele>103.10</ele>
        <time>2013-04-21T13:25:44Z</time>
      </trkpt>
      <trkpt lat="41.518319000" lon="1.902131000">
        <ele>102.50</ele>
        <time>2013-04-21T13:25:48Z</time>
      </trkpt>
      <trkpt lat="41.518541000" lon="1.902132000">
        <ele>101.10</ele>
        <time>2013-04-21T13:25:52Z</time>
      </trkpt>
      <trkpt lat="41.518760000" lon="1.902152000">
        <ele>100.70</ele>
        <time>2013-04-21T13:25:56Z</time>
      </trkpt>
      <trkpt lat="41.518996000" lon="1.902191000">
        <ele>100.40</ele>
        <time>2013-04-21T13:26:00Z</time>
      </trkpt>
      <trkpt lat="41.519199000" lon="1.902333000">
        <ele>99.40</ele>
        <time>2013-04-21T13:26:04Z</time>
      </trkpt>
      <trkpt lat="41.519392000" lon="1.902512000">
        <ele>100.20</ele>
        <time>2013-04-21T13:26:08Z</time>
      </trkpt>
      <trkpt lat="41.519575000" lon="1.902684000">
        <ele>100.90</ele>
        <time>2013-04-21T13:26:12Z</time>
      </trkpt>
      <trkpt lat="41.519746000" lon="1.902838000">
        <ele>100.90</ele>
        <time>2013-04-21T13:26:16Z</time>
      </trkpt>
      <trkpt lat="41.519897000" lon="1.903035000">
        <ele>100.50</ele>
        <time>2013-04-21T13:26:20Z</time>
      </trkpt>
      <trkpt lat="41.520028000" lon="1.903257000">
        <ele>100.90</ele>
        <time>2013-04-21T13:26:24Z</time>
      </trkpt>
      <trkpt lat="41.520152000" lon="1.903495000">
        <ele>101.70</ele>
        <time>2013-04-21T13:26:28Z</time>
      </trkpt>
      <trkpt lat="41.520276000" lon="1.903729000">
        <ele>102.20</ele>
        <time>2013-04-21T13:26:32Z</time>
      </trkpt>
      <trkpt lat="41.520393000" lon="1.903946000">
        <ele>101.80</ele>
        <time>2013-04-21T13:26:36Z</time>
      </trkpt>
      <trkpt lat="41.520514000" lon="1.904192000">
        <ele>99.90</ele>
        <time>2013-04-21T13:26:40Z</time>
      </trkpt>
      <trkpt lat="41.520593000" lon="1.904439000">
        <ele>97.60</ele>
        <time>2013-04-21T13:26:43Z</time>
      </trkpt>
      <trkpt lat="41.520691000" lon="1.904715000">
        <ele>95.80</ele>
        <time>2013-04-21T13:26:46Z</time>
      </trkpt>
      <trkpt lat="41.520910000" lon="1.904872000">
        <ele>93.40</ele>
        <time>2013-04-21T13:26:49Z</time>
      </trkpt>
      <trkpt lat="41.521093000" lon="1.904919000">
        <ele>92.50</ele>
        <time>2013-04-21T13:26:51Z</time>
      </trkpt>
      <trkpt lat="41.521281000" lon="1.904959000">
        <ele>91.20</ele>
        <time>2013-04-21T13:26:53Z</time>
      </trkpt>
      <trkpt lat="41.521474000" lon="1.905016000">
        <ele>89.80</ele>
        <time>2013-04-21T13:26:55Z</time>
      </trkpt>
      <trkpt lat="41.521652000" lon="1.905130000">
        <ele>87.60</ele>
        <time>2013-04-21T13:26:57Z</time>
      </trkpt>
      <trkpt lat="41.521797000" lon="1.905314000">
        <ele>85.90</ele>
        <time>2013-04-21T13:26:59Z</time>
      </trkpt>
      <trkpt lat="41.521919000" lon="1.905527000">
        <ele>83.90</ele>
        <time>2013-04-21T13:27:01Z</time>
      </trkpt>
      <trkpt lat="41.522042000" lon="1.905747000">
        <ele>83.70</ele>
        <time>2013-04-21T13:27:03Z</time>
      </trkpt>
      <trkpt lat="41.522164000" lon="1.905962000">
        <ele>82.10</ele>
        <time>2013-04-21T13:27:05Z</time>
      </trkpt>
      <trkpt lat="41.522300000" lon="1.906143000">
        <ele>82.60</ele>
        <time>2013-04-21T13:27:07Z</time>
      </trkpt>
      <trkpt lat="41.522520000" lon="1.906336000">
        <ele>82.60</ele>
        <time>2013-04-21T13:27:10Z</time>
      </trkpt>
      <trkpt lat="41.522743000" lon="1.906462000">
        <ele>82.90</ele>
        <time>2013-04-21T13:27:13Z</time>
      </trkpt>
      <trkpt lat="41.522965000" lon="1.906537000">
        <ele>83.00</ele>
        <time>2013-04-21T13:27:16Z</time>
      </trkpt>
      <trkpt lat="41.523173000" lon="1.906558000">
        <ele>84.00</ele>
        <time>2013-04-21T13:27:19Z</time>
      </trkpt>
      <trkpt lat="41.523340000" lon="1.906417000">
        <ele>84.60</ele>
        <time>2013-04-21T13:27:22Z</time>
      </trkpt>
      <trkpt lat="41.523531000" lon="1.906374000">
        <ele>84.50</ele>
        <time>2013-04-21T13:27:25Z</time>
      </trkpt>
      <trkpt lat="41.523720000" lon="1.906350000">
        <ele>84.60</ele>
        <time>2013-04-21T13:27:28Z</time>
      </trkpt>
      <trkpt lat="41.523904000" lon="1.906325000">
        <ele>85.40</ele>
        <time>2013-04-21T13:27:31Z</time>
      </trkpt>
      <trkpt lat="41.524088000" lon="1.906327000">
        <ele>85.50</ele>
        <time>2013-04-21T13:27:34Z</time>
      </trkpt>
      <trkpt lat="41.524324000" lon="1.906339000">
        <ele>86.90</ele>
        <time>2013-04-21T13:27:38Z</time>
      </trkpt>
      <trkpt lat="41.524557000" lon="1.906339000">
        <ele>88.30</ele>
        <time>2013-04-21T13:27:42Z</time>
      </trkpt>
      <trkpt lat="41.524758000" lon="1.906346000">
        <ele>89.20</ele>
        <time>2013-04-21T13:27:46Z</time>
      </trkpt>
      <trkpt lat="41.524946000" lon="1.906388000">
        <ele>89.40</ele>
        <time>2013-04-21T13:27:50Z</time>
      </trkpt>
      <trkpt lat="41.525074000" lon="1.906221000">
        <ele>89.50</ele>
        <time>2013-04-21T13:27:54Z</time>
      </trkpt>
      <trkpt lat="41.525225000" lon="1.906036000">
        <ele>88.40</ele>
        <time>2013-04-21T13:27:58Z</time>
      </trkpt>
      <trkpt lat="41.525379000" lon="1.905903000">
        <ele>86.80</ele>
        <time>2013-04-21T13:28:01Z</time>
      </trkpt>
      <trkpt lat="41.525541000" lon="1.905779000">
        <ele>86.60</ele>
        <time>2013-04-21T13:28:04Z</time>
      </trkpt>
      <trkpt lat="41.525729000" lon="1.905801000">
        <ele>86.50</ele>
        <time>2013-04-21T13:28:09Z</time>
      </trkpt>
      <trkpt lat="41.525914000" lon="1.905821000">
        <ele>85.50</ele>
        <time>2013-04-21T13:28:18Z</time>
      </trkpt>
      <trkpt lat="41.526102000" lon="1.905921000">
        <ele>84.90</ele>
        <time>2013-04-21T13:28:22Z</time>
      </trkpt>
      <trkpt lat="41.526332000" lon="1.906022000">
        <ele>84.40</ele>
        <time>2013-04-21T13:28:26Z</time>
      </trkpt>
      <trkpt lat="41.526526000" lon="1.906080000">
        <ele>83.50</ele>
        <time>2013-04-21T13:28:29Z</time>
      </trkpt>
      <trkpt lat="41.526736000" lon="1.906115000">
        <ele>83.00</ele>
        <time>2013-04-21T13:28:32Z</time>
      </trkpt>
      <trkpt lat="41.526958000" lon="1.906121000">
        <ele>82.40</ele>
        <time>2013-04-21T13:28:35Z</time>
      </trkpt>
      <trkpt lat="41.527185000" lon="1.906103000">
        <ele>81.70</ele>
        <time>2013-04-21T13:28:38Z</time>
      </trkpt>
      <trkpt lat="41.527410000" lon="1.906057000">
        <ele>81.50</ele>
        <time>2013-04-21T13:28:41Z</time>
      </trkpt>
      <trkpt lat="41.527630000" lon="1.906000000">
        <ele>81.40</ele>
        <time>2013-04-21T13:28:44Z</time>
      </trkpt>
      <trkpt lat="41.527847000" lon="1.905918000">
        <ele>81.30</ele>
        <time>2013-04-21T13:28:47Z</time>
      </trkpt>
      <trkpt lat="41.528060000" lon="1.905816000">
        <ele>81.50</ele>
        <time>2013-04-21T13:28:50Z</time>
      </trkpt>
      <trkpt lat="41.528274000" lon="1.905725000">
        <ele>81.60</ele>
        <time>2013-04-21T13:28:53Z</time>
      </trkpt>
      <trkpt lat="41.528488000" lon="1.905643000">
        <ele>81.50</ele>
        <time>2013-04-21T13:28:56Z</time>
      </trkpt>
      <trkpt lat="41.528704000" lon="1.905534000">
        <ele>81.40</ele>
        <time>2013-04-21T13:28:59Z</time>
      </trkpt>
      <trkpt lat="41.528909000" lon="1.905443000">
        <ele>80.60</ele>
        <time>2013-04-21T13:29:02Z</time>
      </trkpt>
      <trkpt lat="41.529114000" lon="1.905340000">
        <ele>81.80</ele>
        <time>2013-04-21T13:29:05Z</time>
      </trkpt>
      <trkpt lat="41.529318000" lon="1.905248000">
        <ele>80.40</ele>
        <time>2013-04-21T13:29:08Z</time>
      </trkpt>
      <trkpt lat="41.529517000" lon="1.905157000">
        <ele>80.80</ele>
        <time>2013-04-21T13:29:11Z</time>
      </trkpt>
      <trkpt lat="41.529716000" lon="1.905066000">
        <ele>81.30</ele>
        <time>2013-04-21T13:29:14Z</time>
      </trkpt>
      <trkpt lat="41.529913000" lon="1.904975000">
        <ele>81.70</ele>
        <time>2013-04-21T13:29:17Z</time>
      </trkpt>
      <trkpt lat="41.530113000" lon="1.904895000">
        <ele>81.80</ele>
        <time>2013-04-21T13:29:20Z</time>
      </trkpt>
      <trkpt lat="41.530314000" lon="1.904796000">
        <ele>81.20</ele>
        <time>2013-04-21T13:29:23Z</time>
      </trkpt>
      <trkpt lat="41.530510000" lon="1.904693000">
        <ele>81.50</ele>
        <time>2013-04-21T13:29:26Z</time>
      </trkpt>
      <trkpt lat="41.530707000" lon="1.904581000">
        <ele>82.10</ele>
        <time>2013-04-21T13:29:29Z</time>
      </trkpt>
      <trkpt lat="41.530899000" lon="1.904463000">
        <ele>81.90</ele>
        <time>2013-04-21T13:29:32Z</time>
      </trkpt>
      <trkpt lat="41.531087000" lon="1.904315000">
        <ele>81.60</ele>
        <time>2013-04-21T13:29:35Z</time>
      </trkpt>
      <trkpt lat="41.531263000" lon="1.904144000">
        <ele>82.20</ele>
        <time>2013-04-21T13:29:38Z</time>
      </trkpt>
      <trkpt lat="41.531423000" lon="1.903947000">
        <ele>81.30</ele>
        <time>2013-04-21T13:29:41Z</time>
      </trkpt>
      <trkpt lat="41.531572000" lon="1.903738000">
        <ele>81.10</ele>
        <time>2013-04-21T13:29:44Z</time>
      </trkpt>
      <trkpt lat="41.531712000" lon="1.903504000">
        <ele>80.80</ele>
        <time>2013-04-21T13:29:47Z</time>
      </trkpt>
      <trkpt lat="41.531835000" lon="1.903254000">
        <ele>79.60</ele>
        <time>2013-04-21T13:29:50Z</time>
      </trkpt>
      <trkpt lat="41.531943000" lon="1.903000000">
        <ele>79.30</ele>
        <time>2013-04-21T13:29:53Z</time>
      </trkpt>
      <trkpt lat="41.532048000" lon="1.902739000">
        <ele>79.40</ele>
        <time>2013-04-21T13:29:56Z</time>
      </trkpt>
      <trkpt lat="41.532160000" lon="1.902479000">
        <ele>78.50</ele>
        <time>2013-04-21T13:29:59Z</time>
      </trkpt>
      <trkpt lat="41.532267000" lon="1.902227000">
        <ele>78.80</ele>
        <time>2013-04-21T13:30:02Z</time>
      </trkpt>
      <trkpt lat="41.532369000" lon="1.901973000">
        <ele>79.60</ele>
        <time>2013-04-21T13:30:05Z</time>
      </trkpt>
      <trkpt lat="41.532482000" lon="1.901710000">
        <ele>78.70</ele>
        <time>2013-04-21T13:30:08Z</time>
      </trkpt>
      <trkpt lat="41.532602000" lon="1.901454000">
        <ele>78.50</ele>
        <time>2013-04-21T13:30:11Z</time>
      </trkpt>
      <trkpt lat="41.532741000" lon="1.901226000">
        <ele>78.30</ele>
        <time>2013-04-21T13:30:14Z</time>
      </trkpt>
      <trkpt lat="41.532894000" lon="1.901008000">
        <ele>78.50</ele>
        <time>2013-04-21T13:30:17Z</time>
      </trkpt>
      <trkpt lat="41.533057000" lon="1.900807000">
        <ele>78.60</ele>
        <time>2013-04-21T13:30:20Z</time>
      </trkpt>
      <trkpt lat="41.533236000" lon="1.900626000">
        <ele>78.40</ele>
        <time>2013-04-21T13:30:23Z</time>
      </trkpt>
      <trkpt lat="41.533425000" lon="1.900473000">
        <ele>78.90</ele>
        <time>2013-04-21T13:30:26Z</time>
      </trkpt>
      <trkpt lat="41.533612000" lon="1.900326000">
        <ele>78.50</ele>
        <time>2013-04-21T13:30:29Z</time>
      </trkpt>
      <trkpt lat="41.533796000" lon="1.900187000">
        <ele>77.10</ele>
        <time>2013-04-21T13:30:32Z</time>
      </trkpt>
      <trkpt lat="41.533980000" lon="1.900040000">
        <ele>78.50</ele>
        <time>2013-04-21T13:30:35Z</time>
      </trkpt>
      <trkpt lat="41.534169000" lon="1.899900000">
        <ele>79.00</ele>
        <time>2013-04-21T13:30:38Z</time>
      </trkpt>
      <trkpt lat="41.534360000" lon="1.899761000">
        <ele>78.50</ele>
        <time>2013-04-21T13:30:41Z</time>
      </trkpt>
      <trkpt lat="41.534551000" lon="1.899617000">
        <ele>78.50</ele>
        <time>2013-04-21T13:30:44Z</time>
      </trkpt>
      <trkpt lat="41.534740000" lon="1.899467000">
        <ele>78.60</ele>
        <time>2013-04-21T13:30:47Z</time>
      </trkpt>
      <trkpt lat="41.534927000" lon="1.899322000">
        <ele>78.70</ele>
        <time>2013-04-21T13:30:50Z</time>
      </trkpt>
      <trkpt lat="41.535116000" lon="1.899175000">
        <ele>78.60</ele>
        <time>2013-04-21T13:30:53Z</time>
      </trkpt>
      <trkpt lat="41.535306000" lon="1.899024000">
        <ele>78.10</ele>
        <time>2013-04-21T13:30:56Z</time>
      </trkpt>
      <trkpt lat="41.535490000" lon="1.898877000">
        <ele>78.60</ele>
        <time>2013-04-21T13:30:59Z</time>
      </trkpt>
      <trkpt lat="41.535668000" lon="1.898727000">
        <ele>78.40</ele>
        <time>2013-04-21T13:31:02Z</time>
      </trkpt>
      <trkpt lat="41.535833000" lon="1.898556000">
        <ele>78.00</ele>
        <time>2013-04-21T13:31:05Z</time>
      </trkpt>
      <trkpt lat="41.535992000" lon="1.898376000">
        <ele>78.20</ele>
        <time>2013-04-21T13:31:08Z</time>
      </trkpt>
      <trkpt lat="41.536143000" lon="1.898183000">
        <ele>78.60</ele>
        <time>2013-04-21T13:31:11Z</time>
      </trkpt>
      <trkpt lat="41.536279000" lon="1.897973000">
        <ele>78.90</ele>
        <time>2013-04-21T13:31:14Z</time>
      </trkpt>
      <trkpt lat="41.536404000" lon="1.897752000">
        <ele>78.90</ele>
        <time>2013-04-21T13:31:17Z</time>
      </trkpt>
      <trkpt lat="41.536525000" lon="1.897518000">
        <ele>78.30</ele>
        <time>2013-04-21T13:31:20Z</time>
      </trkpt>
      <trkpt lat="41.536621000" lon="1.897294000">
        <ele>79.00</ele>
        <time>2013-04-21T13:31:23Z</time>
      </trkpt>
      <trkpt lat="41.536708000" lon="1.897062000">
        <ele>79.10</ele>
        <time>2013-04-21T13:31:26Z</time>
      </trkpt>
      <trkpt lat="41.536777000" lon="1.896822000">
        <ele>79.90</ele>
        <time>2013-04-21T13:31:29Z</time>
      </trkpt>
      <trkpt lat="41.536836000" lon="1.896581000">
        <ele>80.40</ele>
        <time>2013-04-21T13:31:32Z</time>
      </trkpt>
      <trkpt lat="41.536889000" lon="1.896334000">
        <ele>80.20</ele>
        <time>2013-04-21T13:31:35Z</time>
      </trkpt>
      <trkpt lat="41.536933000" lon="1.896081000">
        <ele>80.80</ele>
        <time>2013-04-21T13:31:38Z</time>
      </trkpt>
      <trkpt lat="41.536976000" lon="1.895835000">
        <ele>79.80</ele>
        <time>2013-04-21T13:31:41Z</time>
      </trkpt>
      <trkpt lat="41.537092000" lon="1.895582000">
        <ele>80.90</ele>
        <time>2013-04-21T13:31:45Z</time>
      </trkpt>
      <trkpt lat="41.537199000" lon="1.895357000">
        <ele>82.10</ele>
        <time>2013-04-21T13:31:49Z</time>
      </trkpt>
      <trkpt lat="41.537276000" lon="1.895127000">
        <ele>82.90</ele>
        <time>2013-04-21T13:31:53Z</time>
      </trkpt>
      <trkpt lat="41.537459000" lon="1.895007000">
        <ele>83.60</ele>
        <time>2013-04-21T13:31:58Z</time>
      </trkpt>
      <trkpt lat="41.537630000" lon="1.894951000">
        <ele>83.80</ele>
        <time>2013-04-21T13:32:02Z</time>
      </trkpt>
      <trkpt lat="41.537801000" lon="1.894880000">
        <ele>83.90</ele>
        <time>2013-04-21T13:32:06Z</time>
      </trkpt>
      <trkpt lat="41.538035000" lon="1.894570000">
        <ele>85.20</ele>
        <time>2013-04-21T13:32:14Z</time>
      </trkpt>
      <trkpt lat="41.538136000" lon="1.894276000">
        <ele>87.50</ele>
        <time>2013-04-21T13:32:20Z</time>
      </trkpt>
      <trkpt lat="41.538243000" lon="1.894088000">
        <ele>85.90</ele>
        <time>2013-04-21T13:32:24Z</time>
      </trkpt>
      <trkpt lat="41.538343000" lon="1.893874000">
        <ele>86.20</ele>
        <time>2013-04-21T13:32:28Z</time>
      </trkpt>
      <trkpt lat="41.538419000" lon="1.893635000">
        <ele>86.20</ele>
        <time>2013-04-21T13:32:32Z</time>
      </trkpt>
      <trkpt lat="41.538515000" lon="1.893375000">
        <ele>86.10</ele>
        <time>2013-04-21T13:32:37Z</time>
      </trkpt>
      <trkpt lat="41.538605000" lon="1.893123000">
        <ele>86.60</ele>
        <time>2013-04-21T13:32:42Z</time>
      </trkpt>
      <trkpt lat="41.538690000" lon="1.892879000">
        <ele>87.20</ele>
        <time>2013-04-21T13:32:47Z</time>
      </trkpt>
      <trkpt lat="41.538761000" lon="1.892652000">
        <ele>87.90</ele>
        <time>2013-04-21T13:32:52Z</time>
      </trkpt>
      <trkpt lat="41.538821000" lon="1.892401000">
        <ele>88.70</ele>
        <time>2013-04-21T13:32:58Z</time>
      </trkpt>
      <trkpt lat="41.538906000" lon="1.892175000">
        <ele>89.10</ele>
        <time>2013-04-21T13:33:04Z</time>
      </trkpt>
      <trkpt lat="41.538890000" lon="1.891970000">
        <ele>90.20</ele>
        <time>2013-04-21T13:33:11Z</time>
      </trkpt>
      <trkpt lat="41.538827000" lon="1.891994000">
        <ele>88.50</ele>
        <time>2013-04-21T13:33:23Z</time>
      </trkpt>
      <trkpt lat="41.538870000" lon="1.891896000">
        <ele>86.70</ele>
        <time>2013-04-21T13:33:33Z</time>
      </trkpt>
      <trkpt lat="41.538817000" lon="1.892142000">
        <ele>85.80</ele>
        <time>2013-04-21T13:33:45Z</time>
      </trkpt>
      <trkpt lat="41.539025000" lon="1.892571000">
        <ele>87.60</ele>
        <time>2013-04-21T13:34:01Z</time>
      </trkpt>
      <trkpt lat="41.539047000" lon="1.892288000">
        <ele>88.90</ele>
        <time>2013-04-21T13:34:12Z</time>
      </trkpt>
      <trkpt lat="41.539090000" lon="1.892330000">
        <ele>89.70</ele>
        <time>2013-04-21T13:34:25Z</time>
      </trkpt>
      <trkpt lat="41.539196000" lon="1.892115000">
        <ele>90.00</ele>
        <time>2013-04-21T13:34:33Z</time>
      </trkpt>
      <trkpt lat="41.539291000" lon="1.891904000">
        <ele>90.50</ele>
        <time>2013-04-21T13:34:47Z</time>
      </trkpt>
      <trkpt lat="41.539376000" lon="1.891701000">
        <ele>91.40</ele>
        <time>2013-04-21T13:37:24Z</time>
      </trkpt>
      <trkpt lat="41.539552000" lon="1.891768000">
        <ele>91.80</ele>
        <time>2013-04-21T13:37:31Z</time>
      </trkpt>
      <trkpt lat="41.539740000" lon="1.891840000">
        <ele>92.50</ele>
        <time>2013-04-21T13:37:39Z</time>
      </trkpt>
      <trkpt lat="41.539898000" lon="1.891897000">
        <ele>92.80</ele>
        <time>2013-04-21T13:37:45Z</time>
      </trkpt>
      <trkpt lat="41.540075000" lon="1.891989000">
        <ele>93.60</ele>
        <time>2013-04-21T13:37:51Z</time>
      </trkpt>
      <trkpt lat="41.540244000" lon="1.892049000">
        <ele>94.30</ele>
        <time>2013-04-21T13:37:57Z</time>
      </trkpt>
      <trkpt lat="41.540460000" lon="1.892109000">
        <ele>95.00</ele>
        <time>2013-04-21T13:38:04Z</time>
      </trkpt>
      <trkpt lat="41.540636000" lon="1.892183000">
        <ele>96.20</ele>
        <time>2013-04-21T13:38:10Z</time>
      </trkpt>
      <trkpt lat="41.540845000" lon="1.892265000">
        <ele>96.80</ele>
        <time>2013-04-21T13:38:17Z</time>
      </trkpt>
      <trkpt lat="41.541047000" lon="1.892304000">
        <ele>97.70</ele>
        <time>2013-04-21T13:38:23Z</time>
      </trkpt>
      <trkpt lat="41.541249000" lon="1.892360000">
        <ele>98.30</ele>
        <time>2013-04-21T13:38:29Z</time>
      </trkpt>
      <trkpt lat="41.541446000" lon="1.892431000">
        <ele>99.00</ele>
        <time>2013-04-21T13:38:36Z</time>
      </trkpt>
      <trkpt lat="41.541637000" lon="1.892517000">
        <ele>100.00</ele>
        <time>2013-04-21T13:38:43Z</time>
      </trkpt>
      <trkpt lat="41.541830000" lon="1.892554000">
        <ele>100.70</ele>
        <time>2013-04-21T13:38:50Z</time>
      </trkpt>
      <trkpt lat="41.542014000" lon="1.892608000">
        <ele>101.90</ele>
        <time>2013-04-21T13:38:57Z</time>
      </trkpt>
      <trkpt lat="41.542209000" lon="1.892686000">
        <ele>102.20</ele>
        <time>2013-04-21T13:39:04Z</time>
      </trkpt>
      <trkpt lat="41.542418000" lon="1.892756000">
        <ele>103.30</ele>
        <time>2013-04-21T13:39:12Z</time>
      </trkpt>
      <trkpt lat="41.542624000" lon="1.892829000">
        <ele>103.90</ele>
        <time>2013-04-21T13:39:19Z</time>
      </trkpt>
      <trkpt lat="41.542822000" lon="1.892900000">
        <ele>104.50</ele>
        <time>2013-04-21T13:39:26Z</time>
      </trkpt>
      <trkpt lat="41.542998000" lon="1.892976000">
        <ele>105.30</ele>
        <time>2013-04-21T13:39:33Z</time>
      </trkpt>
      <trkpt lat="41.543184000" lon="1.892995000">
        <ele>106.20</ele>
        <time>2013-04-21T13:39:46Z</time>
      </trkpt>
      <trkpt lat="41.543262000" lon="1.892766000">
        <ele>106.20</ele>
        <time>2013-04-21T13:39:52Z</time>
      </trkpt>
      <trkpt lat="41.543319000" lon="1.892499000">
        <ele>106.60</ele>
        <time>2013-04-21T13:39:57Z</time>
      </trkpt>
      <trkpt lat="41.543379000" lon="1.892246000">
        <ele>106.50</ele>
        <time>2013-04-21T13:40:02Z</time>
      </trkpt>
      <trkpt lat="41.543423000" lon="1.891982000">
        <ele>106.60</ele>
        <time>2013-04-21T13:40:09Z</time>
      </trkpt>
      <trkpt lat="41.543496000" lon="1.891711000">
        <ele>106.90</ele>
        <time>2013-04-21T13:40:14Z</time>
      </trkpt>
      <trkpt lat="41.543545000" lon="1.891471000">
        <ele>107.20</ele>
        <time>2013-04-21T13:40:18Z</time>
      </trkpt>
      <trkpt lat="41.543587000" lon="1.891193000">
        <ele>107.20</ele>
        <time>2013-04-21T13:40:22Z</time>
      </trkpt>
      <trkpt lat="41.543634000" lon="1.890907000">
        <ele>106.20</ele>
        <time>2013-04-21T13:40:26Z</time>
      </trkpt>
      <trkpt lat="41.543695000" lon="1.890595000">
        <ele>105.30</ele>
        <time>2013-04-21T13:40:30Z</time>
      </trkpt>
      <trkpt lat="41.543743000" lon="1.890348000">
        <ele>104.60</ele>
        <time>2013-04-21T13:40:33Z</time>
      </trkpt>
      <trkpt lat="41.543800000" lon="1.890104000">
        <ele>104.50</ele>
        <time>2013-04-21T13:40:36Z</time>
      </trkpt>
      <trkpt lat="41.543845000" lon="1.889854000">
        <ele>104.00</ele>
        <time>2013-04-21T13:40:39Z</time>
      </trkpt>
      <trkpt lat="41.543897000" lon="1.889605000">
        <ele>103.40</ele>
        <time>2013-04-21T13:40:42Z</time>
      </trkpt>
      <trkpt lat="41.543963000" lon="1.889314000">
        <ele>103.00</ele>
        <time>2013-04-21T13:40:46Z</time>
      </trkpt>
      <trkpt lat="41.544024000" lon="1.889031000">
        <ele>102.60</ele>
        <time>2013-04-21T13:40:50Z</time>
      </trkpt>
      <trkpt lat="41.544086000" lon="1.888749000">
        <ele>102.20</ele>
        <time>2013-04-21T13:40:54Z</time>
      </trkpt>
      <trkpt lat="41.544141000" lon="1.888454000">
        <ele>101.00</ele>
        <time>2013-04-21T13:40:58Z</time>
      </trkpt>
      <trkpt lat="41.544201000" lon="1.888150000">
        <ele>100.00</ele>
        <time>2013-04-21T13:41:02Z</time>
      </trkpt>
      <trkpt lat="41.544282000" lon="1.887880000">
        <ele>100.40</ele>
        <time>2013-04-21T13:41:06Z</time>
      </trkpt>
      <trkpt lat="41.544352000" lon="1.887603000">
        <ele>99.90</ele>
        <time>2013-04-21T13:41:10Z</time>
      </trkpt>
      <trkpt lat="41.544398000" lon="1.887336000">
        <ele>100.70</ele>
        <time>2013-04-21T13:41:15Z</time>
      </trkpt>
      <trkpt lat="41.544511000" lon="1.887108000">
        <ele>100.40</ele>
        <time>2013-04-21T13:41:20Z</time>
      </trkpt>
      <trkpt lat="41.544632000" lon="1.886886000">
        <ele>100.90</ele>
        <time>2013-04-21T13:41:24Z</time>
      </trkpt>
      <trkpt lat="41.544747000" lon="1.886659000">
        <ele>100.60</ele>
        <time>2013-04-21T13:41:28Z</time>
      </trkpt>
      <trkpt lat="41.544845000" lon="1.886439000">
        <ele>100.50</ele>
        <time>2013-04-21T13:41:32Z</time>
      </trkpt>
      <trkpt lat="41.544789000" lon="1.886212000">
        <ele>100.50</ele>
        <time>2013-04-21T13:41:37Z</time>
      </trkpt>
    </trkseg>
  </trk>
</gpx>
